<?xml version='1.0' encoding='UTF-8'?><gpx version="1.1" creator="JPX - https://github.com/jenetics/jpx" xmlns="http://www.topografix.com/GPX/1/1"><trk><trkseg><trkpt lat="43.8382764" lon="10.507221"><ele>16.0</ele><time>2026-05-02T17:34:51.115Z</time></trkpt><trkpt lat="43.8383156" lon="10.5071409"><ele>16.0</ele><time>2026-05-02T17:35:11.115Z</time></trkpt><trkpt lat="43.8383283" lon="10.5070104"><ele>16.0</ele><time>2026-05-02T17:35:14.115Z</time></trkpt><trkpt lat="43.8383193" lon="10.5068698"><ele>16.0</ele><time>2026-05-02T17:35:16.115Z</time></trkpt><trkpt lat="43.8383085" lon="10.5067159"><ele>16.0</ele><time>2026-05-02T17:35:18.114Z</time></trkpt><trkpt lat="43.8382904" lon="10.5065929"><ele>15.999999999999998</ele><time>2026-05-02T17:35:20.114Z</time></trkpt><trkpt lat="43.8382975" lon="10.5064867"><ele>16.0</ele><time>2026-05-02T17:35:22.114Z</time></trkpt><trkpt lat="43.8383097" lon="10.5063674"><ele>16.0</ele><time>2026-05-02T17:35:24.115Z</time></trkpt><trkpt lat="43.838314" lon="10.5062384"><ele>16.0</ele><time>2026-05-02T17:35:26.115Z</time></trkpt><trkpt lat="43.8383208" lon="10.5061492"><ele>15.999999999999998</ele><time>2026-05-02T17:35:27.115Z</time></trkpt><trkpt lat="43.8383285" lon="10.5059852"><ele>16.0</ele><time>2026-05-02T17:35:29.115Z</time></trkpt><trkpt lat="43.838334" lon="10.5058536"><ele>16.0</ele><time>2026-05-02T17:35:31.115Z</time></trkpt><trkpt lat="43.8383391" lon="10.5057533"><ele>15.999999999999998</ele><time>2026-05-02T17:35:32.114Z</time></trkpt><trkpt lat="43.8383409" lon="10.5056624"><ele>16.0</ele><time>2026-05-02T17:35:33.115Z</time></trkpt><trkpt lat="43.8383487" lon="10.5055674"><ele>16.0</ele><time>2026-05-02T17:35:34.114Z</time></trkpt><trkpt lat="43.8383441" lon="10.5054712"><ele>15.999999999999998</ele><time>2026-05-02T17:35:35.115Z</time></trkpt><trkpt lat="43.8383451" lon="10.5053835"><ele>16.0</ele><time>2026-05-02T17:35:36.115Z</time></trkpt><trkpt lat="43.8383479" lon="10.5052909"><ele>16.0</ele><time>2026-05-02T17:35:37.115Z</time></trkpt><trkpt lat="43.838345" lon="10.5051389"><ele>16.0</ele><time>2026-05-02T17:35:39.115Z</time></trkpt><trkpt lat="43.8383516" lon="10.5049882"><ele>16.0</ele><time>2026-05-02T17:35:41.114Z</time></trkpt><trkpt lat="43.8383496" lon="10.5048488"><ele>16.0</ele><time>2026-05-02T17:35:43.115Z</time></trkpt><trkpt lat="43.8383493" lon="10.5047245"><ele>16.0</ele><time>2026-05-02T17:35:45.115Z</time></trkpt><trkpt lat="43.8383556" lon="10.5046263"><ele>16.0</ele><time>2026-05-02T17:35:47.115Z</time></trkpt><trkpt lat="43.8383668" lon="10.5045088"><ele>15.833333333333332</ele><time>2026-05-02T17:35:50.115Z</time></trkpt><trkpt lat="43.8383777" lon="10.5044061"><ele>15.666666666666666</ele><time>2026-05-02T17:35:52.115Z</time></trkpt><trkpt lat="43.838397" lon="10.5042486"><ele>15.5</ele><time>2026-05-02T17:35:54.115Z</time></trkpt><trkpt lat="43.8384051" lon="10.5040758"><ele>15.333333333333332</ele><time>2026-05-02T17:35:56.115Z</time></trkpt><trkpt lat="43.8384074" lon="10.5039885"><ele>15.166666666666666</ele><time>2026-05-02T17:35:57.115Z</time></trkpt><trkpt lat="43.8384099" lon="10.5038895"><ele>15.0</ele><time>2026-05-02T17:35:58.115Z</time></trkpt><trkpt lat="43.8384128" lon="10.5037817"><ele>15.2</ele><time>2026-05-02T17:35:59.115Z</time></trkpt><trkpt lat="43.8384113" lon="10.5036651"><ele>15.4</ele><time>2026-05-02T17:36:00.115Z</time></trkpt><trkpt lat="43.8384067" lon="10.5035425"><ele>15.600000000000001</ele><time>2026-05-02T17:36:01.114Z</time></trkpt><trkpt lat="43.8383899" lon="10.5034132"><ele>15.8</ele><time>2026-05-02T17:36:02.115Z</time></trkpt><trkpt lat="43.8383712" lon="10.5032734"><ele>16.0</ele><time>2026-05-02T17:36:03.115Z</time></trkpt><trkpt lat="43.8383481" lon="10.5031372"><ele>15.999999999999998</ele><time>2026-05-02T17:36:04.114Z</time></trkpt><trkpt lat="43.8383215" lon="10.5030182"><ele>16.0</ele><time>2026-05-02T17:36:05.115Z</time></trkpt><trkpt lat="43.8382906" lon="10.5029085"><ele>16.0</ele><time>2026-05-02T17:36:06.115Z</time></trkpt><trkpt lat="43.8382599" lon="10.502804"><ele>16.0</ele><time>2026-05-02T17:36:07.115Z</time></trkpt><trkpt lat="43.8382285" lon="10.5026921"><ele>15.999999999999998</ele><time>2026-05-02T17:36:08.114Z</time></trkpt><trkpt lat="43.8381931" lon="10.5025675"><ele>16.0</ele><time>2026-05-02T17:36:09.115Z</time></trkpt><trkpt lat="43.8381587" lon="10.5024432"><ele>16.400000000000002</ele><time>2026-05-02T17:36:10.115Z</time></trkpt><trkpt lat="43.8381234" lon="10.5023218"><ele>16.8</ele><time>2026-05-02T17:36:11.115Z</time></trkpt><trkpt lat="43.8380905" lon="10.5022057"><ele>17.200000000000003</ele><time>2026-05-02T17:36:12.115Z</time></trkpt><trkpt lat="43.8380552" lon="10.5020884"><ele>17.6</ele><time>2026-05-02T17:36:13.115Z</time></trkpt><trkpt lat="43.8380231" lon="10.5019759"><ele>18.0</ele><time>2026-05-02T17:36:14.115Z</time></trkpt><trkpt lat="43.8379904" lon="10.5018592"><ele>18.2</ele><time>2026-05-02T17:36:15.115Z</time></trkpt><trkpt lat="43.8379544" lon="10.5017391"><ele>18.4</ele><time>2026-05-02T17:36:16.114Z</time></trkpt><trkpt lat="43.8379221" lon="10.5016139"><ele>18.599999999999998</ele><time>2026-05-02T17:36:17.114Z</time></trkpt><trkpt lat="43.8378926" lon="10.501488"><ele>18.8</ele><time>2026-05-02T17:36:18.115Z</time></trkpt><trkpt lat="43.8378713" lon="10.50136"><ele>19.0</ele><time>2026-05-02T17:36:19.115Z</time></trkpt><trkpt lat="43.8378643" lon="10.5012338"><ele>19.0</ele><time>2026-05-02T17:36:20.115Z</time></trkpt><trkpt lat="43.8378677" lon="10.5011074"><ele>19.0</ele><time>2026-05-02T17:36:21.114Z</time></trkpt><trkpt lat="43.8378844" lon="10.5009913"><ele>19.0</ele><time>2026-05-02T17:36:22.115Z</time></trkpt><trkpt lat="43.8379121" lon="10.5008769"><ele>19.0</ele><time>2026-05-02T17:36:23.115Z</time></trkpt><trkpt lat="43.837947" lon="10.5007529"><ele>19.0</ele><time>2026-05-02T17:36:24.115Z</time></trkpt><trkpt lat="43.8379876" lon="10.5006258"><ele>19.0</ele><time>2026-05-02T17:36:25.115Z</time></trkpt><trkpt lat="43.8380286" lon="10.5004958"><ele>19.0</ele><time>2026-05-02T17:36:26.114Z</time></trkpt><trkpt lat="43.8380719" lon="10.5003612"><ele>19.0</ele><time>2026-05-02T17:36:27.115Z</time></trkpt><trkpt lat="43.8381125" lon="10.500231"><ele>19.0</ele><time>2026-05-02T17:36:28.115Z</time></trkpt><trkpt lat="43.8381517" lon="10.5000982"><ele>19.0</ele><time>2026-05-02T17:36:29.115Z</time></trkpt><trkpt lat="43.8381923" lon="10.4999653"><ele>18.599999999999998</ele><time>2026-05-02T17:36:30.115Z</time></trkpt><trkpt lat="43.8382355" lon="10.4998308"><ele>18.2</ele><time>2026-05-02T17:36:31.114Z</time></trkpt><trkpt lat="43.8382752" lon="10.499686"><ele>17.799999999999997</ele><time>2026-05-02T17:36:32.115Z</time></trkpt><trkpt lat="43.8383201" lon="10.4995471"><ele>17.4</ele><time>2026-05-02T17:36:33.115Z</time></trkpt><trkpt lat="43.8383695" lon="10.4994076"><ele>17.0</ele><time>2026-05-02T17:36:34.115Z</time></trkpt><trkpt lat="43.8384161" lon="10.4992734"><ele>17.0</ele><time>2026-05-02T17:36:35.115Z</time></trkpt><trkpt lat="43.8384585" lon="10.4991316"><ele>17.0</ele><time>2026-05-02T17:36:36.115Z</time></trkpt><trkpt lat="43.8384987" lon="10.4989883"><ele>17.0</ele><time>2026-05-02T17:36:37.115Z</time></trkpt><trkpt lat="43.8385457" lon="10.498845"><ele>17.0</ele><time>2026-05-02T17:36:38.115Z</time></trkpt><trkpt lat="43.8385957" lon="10.4987088"><ele>17.0</ele><time>2026-05-02T17:36:39.115Z</time></trkpt><trkpt lat="43.8386395" lon="10.4985742"><ele>16.8</ele><time>2026-05-02T17:36:40.115Z</time></trkpt><trkpt lat="43.8386831" lon="10.4984451"><ele>16.6</ele><time>2026-05-02T17:36:41.115Z</time></trkpt><trkpt lat="43.8387225" lon="10.4983177"><ele>16.400000000000002</ele><time>2026-05-02T17:36:42.115Z</time></trkpt><trkpt lat="43.8387638" lon="10.4981892"><ele>16.2</ele><time>2026-05-02T17:36:43.115Z</time></trkpt><trkpt lat="43.8388024" lon="10.4980572"><ele>16.0</ele><time>2026-05-02T17:36:44.115Z</time></trkpt><trkpt lat="43.8388463" lon="10.4979237"><ele>15.600000000000001</ele><time>2026-05-02T17:36:45.115Z</time></trkpt><trkpt lat="43.8388899" lon="10.4977885"><ele>15.200000000000001</ele><time>2026-05-02T17:36:46.115Z</time></trkpt><trkpt lat="43.83893" lon="10.4976542"><ele>14.799999999999999</ele><time>2026-05-02T17:36:47.115Z</time></trkpt><trkpt lat="43.8389694" lon="10.4975205"><ele>14.399999999999999</ele><time>2026-05-02T17:36:48.115Z</time></trkpt><trkpt lat="43.8390137" lon="10.4973877"><ele>14.0</ele><time>2026-05-02T17:36:49.114Z</time></trkpt><trkpt lat="43.8390551" lon="10.4972519"><ele>14.0</ele><time>2026-05-02T17:36:50.115Z</time></trkpt><trkpt lat="43.8390997" lon="10.4971205"><ele>13.999999999999998</ele><time>2026-05-02T17:36:51.114Z</time></trkpt><trkpt lat="43.8391435" lon="10.4969857"><ele>13.999999999999998</ele><time>2026-05-02T17:36:52.115Z</time></trkpt><trkpt lat="43.8391857" lon="10.4968526"><ele>14.0</ele><time>2026-05-02T17:36:53.115Z</time></trkpt><trkpt lat="43.8392299" lon="10.4967204"><ele>14.0</ele><time>2026-05-02T17:36:54.115Z</time></trkpt><trkpt lat="43.8392737" lon="10.4965917"><ele>15.166666666666668</ele><time>2026-05-02T17:36:55.114Z</time></trkpt><trkpt lat="43.8393099" lon="10.496469"><ele>16.333333333333336</ele><time>2026-05-02T17:36:56.115Z</time></trkpt><trkpt lat="43.8393431" lon="10.4963522"><ele>17.5</ele><time>2026-05-02T17:36:57.115Z</time></trkpt><trkpt lat="43.83938" lon="10.4962441"><ele>18.666666666666668</ele><time>2026-05-02T17:36:58.115Z</time></trkpt><trkpt lat="43.8394093" lon="10.4961473"><ele>19.833333333333332</ele><time>2026-05-02T17:36:59.115Z</time></trkpt><trkpt lat="43.8394363" lon="10.4960562"><ele>21.0</ele><time>2026-05-02T17:37:00.114Z</time></trkpt><trkpt lat="43.8394855" lon="10.4959193"><ele>21.0</ele><time>2026-05-02T17:37:02.115Z</time></trkpt><trkpt lat="43.8395247" lon="10.4958225"><ele>21.0</ele><time>2026-05-02T17:37:04.115Z</time></trkpt><trkpt lat="43.8395601" lon="10.4957471"><ele>21.0</ele><time>2026-05-02T17:37:06.115Z</time></trkpt><trkpt lat="43.8396027" lon="10.4956747"><ele>21.0</ele><time>2026-05-02T17:37:08.115Z</time></trkpt><trkpt lat="43.8396492" lon="10.4956067"><ele>21.0</ele><time>2026-05-02T17:37:10.115Z</time></trkpt><trkpt lat="43.8397182" lon="10.495525"><ele>21.0</ele><time>2026-05-02T17:37:23.115Z</time></trkpt><trkpt lat="43.8398043" lon="10.4954425"><ele>20.2</ele><time>2026-05-02T17:37:25.115Z</time></trkpt><trkpt lat="43.8399018" lon="10.495378"><ele>19.400000000000002</ele><time>2026-05-02T17:37:27.115Z</time></trkpt><trkpt lat="43.8399426" lon="10.4952454"><ele>18.6</ele><time>2026-05-02T17:37:29.115Z</time></trkpt><trkpt lat="43.8399059" lon="10.4951054"><ele>17.8</ele><time>2026-05-02T17:37:31.115Z</time></trkpt><trkpt lat="43.8398588" lon="10.4949758"><ele>17.0</ele><time>2026-05-02T17:37:33.114Z</time></trkpt><trkpt lat="43.8398645" lon="10.4948326"><ele>17.0</ele><time>2026-05-02T17:37:35.115Z</time></trkpt><trkpt lat="43.839883" lon="10.4947487"><ele>17.0</ele><time>2026-05-02T17:37:36.115Z</time></trkpt><trkpt lat="43.8399038" lon="10.4946569"><ele>17.0</ele><time>2026-05-02T17:37:37.115Z</time></trkpt><trkpt lat="43.8399228" lon="10.4945557"><ele>17.0</ele><time>2026-05-02T17:37:38.114Z</time></trkpt><trkpt lat="43.8399565" lon="10.4944492"><ele>17.0</ele><time>2026-05-02T17:37:39.115Z</time></trkpt><trkpt lat="43.8399929" lon="10.4943366"><ele>17.0</ele><time>2026-05-02T17:37:40.115Z</time></trkpt><trkpt lat="43.8400335" lon="10.4942185"><ele>17.0</ele><time>2026-05-02T17:37:41.115Z</time></trkpt><trkpt lat="43.8400764" lon="10.4940944"><ele>17.0</ele><time>2026-05-02T17:37:42.115Z</time></trkpt><trkpt lat="43.8401151" lon="10.4939753"><ele>17.0</ele><time>2026-05-02T17:37:43.115Z</time></trkpt><trkpt lat="43.8401508" lon="10.4938506"><ele>17.0</ele><time>2026-05-02T17:37:44.115Z</time></trkpt><trkpt lat="43.8401937" lon="10.4937168"><ele>17.0</ele><time>2026-05-02T17:37:45.115Z</time></trkpt><trkpt lat="43.8402485" lon="10.4935861"><ele>17.0</ele><time>2026-05-02T17:37:46.115Z</time></trkpt><trkpt lat="43.8403128" lon="10.4934572"><ele>17.0</ele><time>2026-05-02T17:37:47.115Z</time></trkpt><trkpt lat="43.8403808" lon="10.4933291"><ele>17.0</ele><time>2026-05-02T17:37:48.115Z</time></trkpt><trkpt lat="43.8404478" lon="10.4932016"><ele>17.0</ele><time>2026-05-02T17:37:49.115Z</time></trkpt><trkpt lat="43.8405084" lon="10.49308"><ele>17.0</ele><time>2026-05-02T17:37:50.115Z</time></trkpt><trkpt lat="43.840564" lon="10.492972"><ele>16.833333333333336</ele><time>2026-05-02T17:37:51.114Z</time></trkpt><trkpt lat="43.8406136" lon="10.4928684"><ele>16.666666666666668</ele><time>2026-05-02T17:37:52.115Z</time></trkpt><trkpt lat="43.8406613" lon="10.4927733"><ele>16.5</ele><time>2026-05-02T17:37:53.115Z</time></trkpt><trkpt lat="43.8407072" lon="10.4926789"><ele>16.333333333333332</ele><time>2026-05-02T17:37:54.115Z</time></trkpt><trkpt lat="43.8407476" lon="10.4925883"><ele>16.166666666666664</ele><time>2026-05-02T17:37:55.115Z</time></trkpt><trkpt lat="43.8407863" lon="10.492505"><ele>16.0</ele><time>2026-05-02T17:37:56.115Z</time></trkpt><trkpt lat="43.8408225" lon="10.4924253"><ele>16.0</ele><time>2026-05-02T17:37:57.115Z</time></trkpt><trkpt lat="43.8408868" lon="10.4922882"><ele>16.0</ele><time>2026-05-02T17:37:59.115Z</time></trkpt><trkpt lat="43.8409703" lon="10.4921694"><ele>16.0</ele><time>2026-05-02T17:38:01.114Z</time></trkpt><trkpt lat="43.8410309" lon="10.4921275"><ele>16.0</ele><time>2026-05-02T17:38:02.114Z</time></trkpt><trkpt lat="43.8411" lon="10.4921096"><ele>16.0</ele><time>2026-05-02T17:38:03.115Z</time></trkpt><trkpt lat="43.8411785" lon="10.4921084"><ele>15.999999999999998</ele><time>2026-05-02T17:38:04.114Z</time></trkpt><trkpt lat="43.8412636" lon="10.4921017"><ele>16.0</ele><time>2026-05-02T17:38:05.115Z</time></trkpt><trkpt lat="43.8413437" lon="10.4920619"><ele>16.0</ele><time>2026-05-02T17:38:06.115Z</time></trkpt><trkpt lat="43.8414026" lon="10.4920069"><ele>16.0</ele><time>2026-05-02T17:38:07.115Z</time></trkpt><trkpt lat="43.8414529" lon="10.491937"><ele>15.999999999999998</ele><time>2026-05-02T17:38:08.115Z</time></trkpt><trkpt lat="43.841516" lon="10.4918713"><ele>16.0</ele><time>2026-05-02T17:38:09.115Z</time></trkpt><trkpt lat="43.8415775" lon="10.491793"><ele>15.999999999999998</ele><time>2026-05-02T17:38:10.115Z</time></trkpt><trkpt lat="43.8416291" lon="10.4916926"><ele>16.0</ele><time>2026-05-02T17:38:11.115Z</time></trkpt><trkpt lat="43.8416729" lon="10.4915835"><ele>16.0</ele><time>2026-05-02T17:38:12.114Z</time></trkpt><trkpt lat="43.8417141" lon="10.4914748"><ele>16.0</ele><time>2026-05-02T17:38:13.114Z</time></trkpt><trkpt lat="43.8417531" lon="10.4913659"><ele>15.999999999999998</ele><time>2026-05-02T17:38:14.114Z</time></trkpt><trkpt lat="43.8417858" lon="10.491261"><ele>16.0</ele><time>2026-05-02T17:38:15.115Z</time></trkpt><trkpt lat="43.8418147" lon="10.4911678"><ele>16.142857142857142</ele><time>2026-05-02T17:38:16.115Z</time></trkpt><trkpt lat="43.8418449" lon="10.491071"><ele>16.285714285714285</ele><time>2026-05-02T17:38:17.115Z</time></trkpt><trkpt lat="43.8418757" lon="10.49098"><ele>16.428571428571427</ele><time>2026-05-02T17:38:18.115Z</time></trkpt><trkpt lat="43.8419009" lon="10.4908964"><ele>16.57142857142857</ele><time>2026-05-02T17:38:19.114Z</time></trkpt><trkpt lat="43.8419333" lon="10.4908016"><ele>16.714285714285715</ele><time>2026-05-02T17:38:21.115Z</time></trkpt><trkpt lat="43.8419585" lon="10.4907011"><ele>16.857142857142854</ele><time>2026-05-02T17:38:25.114Z</time></trkpt><trkpt lat="43.8419863" lon="10.4906204"><ele>17.0</ele><time>2026-05-02T17:38:28.115Z</time></trkpt><trkpt lat="43.8419871" lon="10.4904796"><ele>17.0</ele><time>2026-05-02T17:38:33.114Z</time></trkpt><trkpt lat="43.8419859" lon="10.490295"><ele>17.0</ele><time>2026-05-02T17:38:35.114Z</time></trkpt><trkpt lat="43.8419789" lon="10.4901876"><ele>17.0</ele><time>2026-05-02T17:38:36.115Z</time></trkpt><trkpt lat="43.8419731" lon="10.4900724"><ele>17.0</ele><time>2026-05-02T17:38:37.115Z</time></trkpt><trkpt lat="43.8419681" lon="10.4899507"><ele>17.0</ele><time>2026-05-02T17:38:38.115Z</time></trkpt><trkpt lat="43.8419587" lon="10.48982"><ele>17.0</ele><time>2026-05-02T17:38:39.115Z</time></trkpt><trkpt lat="43.8419474" lon="10.4896839"><ele>17.0</ele><time>2026-05-02T17:38:40.114Z</time></trkpt><trkpt lat="43.8419425" lon="10.4895445"><ele>17.0</ele><time>2026-05-02T17:38:41.115Z</time></trkpt><trkpt lat="43.841937" lon="10.489394"><ele>17.0</ele><time>2026-05-02T17:38:42.115Z</time></trkpt><trkpt lat="43.8419361" lon="10.4892284"><ele>17.0</ele><time>2026-05-02T17:38:43.114Z</time></trkpt><trkpt lat="43.8419322" lon="10.4890586"><ele>17.0</ele><time>2026-05-02T17:38:44.115Z</time></trkpt><trkpt lat="43.8419266" lon="10.4888741"><ele>17.0</ele><time>2026-05-02T17:38:45.114Z</time></trkpt><trkpt lat="43.8419276" lon="10.4886795"><ele>17.0</ele><time>2026-05-02T17:38:46.115Z</time></trkpt><trkpt lat="43.8419322" lon="10.4884886"><ele>17.0</ele><time>2026-05-02T17:38:47.115Z</time></trkpt><trkpt lat="43.8419334" lon="10.4882943"><ele>17.0</ele><time>2026-05-02T17:38:48.115Z</time></trkpt><trkpt lat="43.8419385" lon="10.4881155"><ele>17.0</ele><time>2026-05-02T17:38:49.114Z</time></trkpt><trkpt lat="43.8419366" lon="10.4879319"><ele>17.0</ele><time>2026-05-02T17:38:50.115Z</time></trkpt><trkpt lat="43.8419386" lon="10.4877467"><ele>17.0</ele><time>2026-05-02T17:38:51.115Z</time></trkpt><trkpt lat="43.8419394" lon="10.4875632"><ele>17.0</ele><time>2026-05-02T17:38:52.114Z</time></trkpt><trkpt lat="43.8419373" lon="10.4873806"><ele>17.0</ele><time>2026-05-02T17:38:53.115Z</time></trkpt><trkpt lat="43.8419282" lon="10.4872022"><ele>17.0</ele><time>2026-05-02T17:38:54.115Z</time></trkpt><trkpt lat="43.8419284" lon="10.4870248"><ele>17.0</ele><time>2026-05-02T17:38:55.115Z</time></trkpt><trkpt lat="43.8419079" lon="10.486858"><ele>16.75</ele><time>2026-05-02T17:38:56.114Z</time></trkpt><trkpt lat="43.8418853" lon="10.4866918"><ele>16.5</ele><time>2026-05-02T17:38:57.114Z</time></trkpt><trkpt lat="43.8418511" lon="10.4865298"><ele>16.25</ele><time>2026-05-02T17:38:58.115Z</time></trkpt><trkpt lat="43.8418134" lon="10.4863656"><ele>16.0</ele><time>2026-05-02T17:38:59.114Z</time></trkpt><trkpt lat="43.8417706" lon="10.4861983"><ele>16.0</ele><time>2026-05-02T17:39:00.115Z</time></trkpt><trkpt lat="43.8417219" lon="10.4860278"><ele>16.0</ele><time>2026-05-02T17:39:01.114Z</time></trkpt><trkpt lat="43.8416773" lon="10.4858617"><ele>16.0</ele><time>2026-05-02T17:39:02.115Z</time></trkpt><trkpt lat="43.841643" lon="10.4857054"><ele>16.0</ele><time>2026-05-02T17:39:03.115Z</time></trkpt><trkpt lat="43.8416137" lon="10.4855514"><ele>15.4</ele><time>2026-05-02T17:39:04.114Z</time></trkpt><trkpt lat="43.8415905" lon="10.4854095"><ele>14.8</ele><time>2026-05-02T17:39:05.114Z</time></trkpt><trkpt lat="43.8415708" lon="10.4852806"><ele>14.200000000000001</ele><time>2026-05-02T17:39:06.114Z</time></trkpt><trkpt lat="43.8415555" lon="10.4851571"><ele>13.600000000000001</ele><time>2026-05-02T17:39:07.115Z</time></trkpt><trkpt lat="43.8415446" lon="10.4850343"><ele>13.0</ele><time>2026-05-02T17:39:08.115Z</time></trkpt><trkpt lat="43.8415372" lon="10.4849028"><ele>13.0</ele><time>2026-05-02T17:39:09.115Z</time></trkpt><trkpt lat="43.841543" lon="10.484766"><ele>13.0</ele><time>2026-05-02T17:39:10.114Z</time></trkpt><trkpt lat="43.8415549" lon="10.4846276"><ele>13.0</ele><time>2026-05-02T17:39:11.114Z</time></trkpt><trkpt lat="43.8415643" lon="10.4844842"><ele>13.0</ele><time>2026-05-02T17:39:12.115Z</time></trkpt><trkpt lat="43.8415705" lon="10.4843353"><ele>13.0</ele><time>2026-05-02T17:39:13.115Z</time></trkpt><trkpt lat="43.8415769" lon="10.4841866"><ele>13.2</ele><time>2026-05-02T17:39:14.115Z</time></trkpt><trkpt lat="43.8415828" lon="10.4840451"><ele>13.4</ele><time>2026-05-02T17:39:15.115Z</time></trkpt><trkpt lat="43.8415814" lon="10.4839"><ele>13.599999999999998</ele><time>2026-05-02T17:39:16.115Z</time></trkpt><trkpt lat="43.8415835" lon="10.4837554"><ele>13.799999999999999</ele><time>2026-05-02T17:39:17.114Z</time></trkpt><trkpt lat="43.8415857" lon="10.4836211"><ele>14.0</ele><time>2026-05-02T17:39:18.115Z</time></trkpt><trkpt lat="43.8415825" lon="10.4834963"><ele>14.399999999999999</ele><time>2026-05-02T17:39:19.114Z</time></trkpt><trkpt lat="43.8415765" lon="10.4833712"><ele>14.799999999999999</ele><time>2026-05-02T17:39:20.114Z</time></trkpt><trkpt lat="43.8415591" lon="10.4832478"><ele>15.200000000000001</ele><time>2026-05-02T17:39:21.115Z</time></trkpt><trkpt lat="43.8415308" lon="10.4831215"><ele>15.600000000000001</ele><time>2026-05-02T17:39:22.114Z</time></trkpt><trkpt lat="43.841496" lon="10.4829945"><ele>16.0</ele><time>2026-05-02T17:39:23.115Z</time></trkpt><trkpt lat="43.8414538" lon="10.4828686"><ele>16.0</ele><time>2026-05-02T17:39:24.114Z</time></trkpt><trkpt lat="43.8414102" lon="10.4827431"><ele>16.0</ele><time>2026-05-02T17:39:25.115Z</time></trkpt><trkpt lat="43.841368" lon="10.4826227"><ele>16.0</ele><time>2026-05-02T17:39:26.115Z</time></trkpt><trkpt lat="43.841327" lon="10.4824933"><ele>16.0</ele><time>2026-05-02T17:39:27.114Z</time></trkpt><trkpt lat="43.8412856" lon="10.4823669"><ele>16.0</ele><time>2026-05-02T17:39:28.115Z</time></trkpt><trkpt lat="43.841247" lon="10.4822392"><ele>16.2</ele><time>2026-05-02T17:39:29.115Z</time></trkpt><trkpt lat="43.841226" lon="10.4820957"><ele>16.400000000000002</ele><time>2026-05-02T17:39:30.115Z</time></trkpt><trkpt lat="43.8412162" lon="10.4819661"><ele>16.6</ele><time>2026-05-02T17:39:31.115Z</time></trkpt><trkpt lat="43.8412314" lon="10.4818331"><ele>16.8</ele><time>2026-05-02T17:39:32.114Z</time></trkpt><trkpt lat="43.841248" lon="10.481706"><ele>17.0</ele><time>2026-05-02T17:39:33.115Z</time></trkpt><trkpt lat="43.8412626" lon="10.4815838"><ele>17.0</ele><time>2026-05-02T17:39:34.115Z</time></trkpt><trkpt lat="43.8412749" lon="10.4814687"><ele>17.0</ele><time>2026-05-02T17:39:35.115Z</time></trkpt><trkpt lat="43.8412872" lon="10.4813412"><ele>17.0</ele><time>2026-05-02T17:39:36.115Z</time></trkpt><trkpt lat="43.8412987" lon="10.4812111"><ele>17.0</ele><time>2026-05-02T17:39:37.115Z</time></trkpt><trkpt lat="43.8413038" lon="10.4810734"><ele>17.0</ele><time>2026-05-02T17:39:38.115Z</time></trkpt><trkpt lat="43.8412997" lon="10.4809342"><ele>17.0</ele><time>2026-05-02T17:39:39.114Z</time></trkpt><trkpt lat="43.8412959" lon="10.4808043"><ele>17.0</ele><time>2026-05-02T17:39:40.114Z</time></trkpt><trkpt lat="43.841288" lon="10.4806789"><ele>17.0</ele><time>2026-05-02T17:39:41.115Z</time></trkpt><trkpt lat="43.8412769" lon="10.4805433"><ele>17.0</ele><time>2026-05-02T17:39:42.115Z</time></trkpt><trkpt lat="43.8412784" lon="10.4804013"><ele>17.0</ele><time>2026-05-02T17:39:43.114Z</time></trkpt><trkpt lat="43.8412795" lon="10.480262"><ele>17.0</ele><time>2026-05-02T17:39:44.115Z</time></trkpt><trkpt lat="43.8412857" lon="10.4801131"><ele>17.0</ele><time>2026-05-02T17:39:45.114Z</time></trkpt><trkpt lat="43.8412896" lon="10.4799679"><ele>17.0</ele><time>2026-05-02T17:39:46.115Z</time></trkpt><trkpt lat="43.8413017" lon="10.4798297"><ele>17.0</ele><time>2026-05-02T17:39:47.115Z</time></trkpt><trkpt lat="43.8413126" lon="10.479691"><ele>17.0</ele><time>2026-05-02T17:39:48.114Z</time></trkpt><trkpt lat="43.8413317" lon="10.4795499"><ele>17.0</ele><time>2026-05-02T17:39:49.115Z</time></trkpt><trkpt lat="43.8413521" lon="10.4794075"><ele>17.0</ele><time>2026-05-02T17:39:50.115Z</time></trkpt><trkpt lat="43.8413729" lon="10.4792566"><ele>17.0</ele><time>2026-05-02T17:39:51.115Z</time></trkpt><trkpt lat="43.8413923" lon="10.4790994"><ele>17.0</ele><time>2026-05-02T17:39:52.114Z</time></trkpt><trkpt lat="43.8414143" lon="10.4789397"><ele>17.0</ele><time>2026-05-02T17:39:53.115Z</time></trkpt><trkpt lat="43.8414323" lon="10.4787774"><ele>17.25</ele><time>2026-05-02T17:39:54.115Z</time></trkpt><trkpt lat="43.8414518" lon="10.4786087"><ele>17.5</ele><time>2026-05-02T17:39:55.115Z</time></trkpt><trkpt lat="43.8414735" lon="10.4784335"><ele>17.75</ele><time>2026-05-02T17:39:56.115Z</time></trkpt><trkpt lat="43.8414927" lon="10.4782743"><ele>18.0</ele><time>2026-05-02T17:39:57.115Z</time></trkpt><trkpt lat="43.8415098" lon="10.4781152"><ele>18.0</ele><time>2026-05-02T17:39:58.115Z</time></trkpt><trkpt lat="43.8415261" lon="10.4779625"><ele>18.0</ele><time>2026-05-02T17:39:59.114Z</time></trkpt><trkpt lat="43.8415412" lon="10.4778214"><ele>18.0</ele><time>2026-05-02T17:40:00.115Z</time></trkpt><trkpt lat="43.8415543" lon="10.4776902"><ele>18.0</ele><time>2026-05-02T17:40:01.115Z</time></trkpt><trkpt lat="43.8415666" lon="10.4775689"><ele>18.0</ele><time>2026-05-02T17:40:02.115Z</time></trkpt><trkpt lat="43.8415813" lon="10.4774452"><ele>17.833333333333332</ele><time>2026-05-02T17:40:03.115Z</time></trkpt><trkpt lat="43.8415941" lon="10.4773201"><ele>17.666666666666668</ele><time>2026-05-02T17:40:04.115Z</time></trkpt><trkpt lat="43.8416067" lon="10.4772142"><ele>17.5</ele><time>2026-05-02T17:40:05.115Z</time></trkpt><trkpt lat="43.8416196" lon="10.4771228"><ele>17.333333333333336</ele><time>2026-05-02T17:40:06.114Z</time></trkpt><trkpt lat="43.8416386" lon="10.4769944"><ele>17.166666666666668</ele><time>2026-05-02T17:40:08.115Z</time></trkpt><trkpt lat="43.8416471" lon="10.4768933"><ele>17.0</ele><time>2026-05-02T17:40:11.114Z</time></trkpt><trkpt lat="43.8416723" lon="10.47678"><ele>16.5</ele><time>2026-05-02T17:40:21.115Z</time></trkpt><trkpt lat="43.8417358" lon="10.4766716"><ele>16.0</ele><time>2026-05-02T17:40:23.115Z</time></trkpt><trkpt lat="43.8418046" lon="10.4765258"><ele>15.5</ele><time>2026-05-02T17:40:25.115Z</time></trkpt><trkpt lat="43.841812" lon="10.4764231"><ele>15.0</ele><time>2026-05-02T17:40:26.114Z</time></trkpt><trkpt lat="43.841806" lon="10.4763324"><ele>14.500000000000002</ele><time>2026-05-02T17:40:27.115Z</time></trkpt><trkpt lat="43.8417955" lon="10.4762315"><ele>14.0</ele><time>2026-05-02T17:40:28.115Z</time></trkpt><trkpt lat="43.8417898" lon="10.4761182"><ele>13.6</ele><time>2026-05-02T17:40:29.115Z</time></trkpt><trkpt lat="43.8417911" lon="10.4760016"><ele>13.2</ele><time>2026-05-02T17:40:30.115Z</time></trkpt><trkpt lat="43.8417953" lon="10.4758719"><ele>12.799999999999999</ele><time>2026-05-02T17:40:31.115Z</time></trkpt><trkpt lat="43.8417975" lon="10.4757354"><ele>12.399999999999999</ele><time>2026-05-02T17:40:32.114Z</time></trkpt><trkpt lat="43.8417932" lon="10.4755961"><ele>12.0</ele><time>2026-05-02T17:40:33.114Z</time></trkpt><trkpt lat="43.8417886" lon="10.4754599"><ele>11.8</ele><time>2026-05-02T17:40:34.115Z</time></trkpt><trkpt lat="43.8417809" lon="10.4753159"><ele>11.6</ele><time>2026-05-02T17:40:35.115Z</time></trkpt><trkpt lat="43.8417718" lon="10.4751751"><ele>11.4</ele><time>2026-05-02T17:40:36.115Z</time></trkpt><trkpt lat="43.8417676" lon="10.4750444"><ele>11.200000000000001</ele><time>2026-05-02T17:40:37.114Z</time></trkpt><trkpt lat="43.8417595" lon="10.4749224"><ele>11.0</ele><time>2026-05-02T17:40:38.115Z</time></trkpt><trkpt lat="43.8417513" lon="10.4748087"><ele>11.0</ele><time>2026-05-02T17:40:39.114Z</time></trkpt><trkpt lat="43.8417455" lon="10.4746989"><ele>11.0</ele><time>2026-05-02T17:40:40.115Z</time></trkpt><trkpt lat="43.8417385" lon="10.4745878"><ele>11.0</ele><time>2026-05-02T17:40:41.115Z</time></trkpt><trkpt lat="43.8417322" lon="10.474469"><ele>11.0</ele><time>2026-05-02T17:40:42.114Z</time></trkpt><trkpt lat="43.8417277" lon="10.4743613"><ele>11.0</ele><time>2026-05-02T17:40:43.115Z</time></trkpt><trkpt lat="43.8417162" lon="10.4742635"><ele>11.0</ele><time>2026-05-02T17:40:44.114Z</time></trkpt><trkpt lat="43.8417031" lon="10.4741733"><ele>11.0</ele><time>2026-05-02T17:40:45.115Z</time></trkpt><trkpt lat="43.8416898" lon="10.4740822"><ele>11.0</ele><time>2026-05-02T17:40:46.115Z</time></trkpt><trkpt lat="43.841679" lon="10.473982"><ele>11.0</ele><time>2026-05-02T17:40:47.115Z</time></trkpt><trkpt lat="43.8416746" lon="10.4738649"><ele>11.0</ele><time>2026-05-02T17:40:48.114Z</time></trkpt><trkpt lat="43.8416577" lon="10.4736064"><ele>11.0</ele><time>2026-05-02T17:40:50.115Z</time></trkpt><trkpt lat="43.8416652" lon="10.4734604"><ele>11.0</ele><time>2026-05-02T17:40:51.115Z</time></trkpt><trkpt lat="43.8416792" lon="10.4733093"><ele>11.0</ele><time>2026-05-02T17:40:52.114Z</time></trkpt><trkpt lat="43.8417303" lon="10.4728219"><ele>11.0</ele><time>2026-05-02T17:40:55.115Z</time></trkpt><trkpt lat="43.8417497" lon="10.4726421"><ele>11.0</ele><time>2026-05-02T17:40:56.114Z</time></trkpt><trkpt lat="43.8417694" lon="10.4724524"><ele>11.0</ele><time>2026-05-02T17:40:57.115Z</time></trkpt><trkpt lat="43.8417902" lon="10.4722469"><ele>11.0</ele><time>2026-05-02T17:40:58.115Z</time></trkpt><trkpt lat="43.841814" lon="10.4720304"><ele>11.0</ele><time>2026-05-02T17:40:59.114Z</time></trkpt><trkpt lat="43.8418442" lon="10.4718141"><ele>11.0</ele><time>2026-05-02T17:41:00.115Z</time></trkpt><trkpt lat="43.8418665" lon="10.4716"><ele>11.0</ele><time>2026-05-02T17:41:01.115Z</time></trkpt><trkpt lat="43.8418782" lon="10.4713838"><ele>11.0</ele><time>2026-05-02T17:41:02.115Z</time></trkpt><trkpt lat="43.841876" lon="10.4711679"><ele>11.0</ele><time>2026-05-02T17:41:03.115Z</time></trkpt><trkpt lat="43.8418617" lon="10.4709529"><ele>11.0</ele><time>2026-05-02T17:41:04.115Z</time></trkpt><trkpt lat="43.8418426" lon="10.470741"><ele>11.0</ele><time>2026-05-02T17:41:05.114Z</time></trkpt><trkpt lat="43.8418179" lon="10.4705354"><ele>11.0</ele><time>2026-05-02T17:41:06.115Z</time></trkpt><trkpt lat="43.8417855" lon="10.470332"><ele>11.0</ele><time>2026-05-02T17:41:07.114Z</time></trkpt><trkpt lat="43.8417545" lon="10.470139"><ele>11.0</ele><time>2026-05-02T17:41:08.115Z</time></trkpt><trkpt lat="43.8417182" lon="10.469943"><ele>11.0</ele><time>2026-05-02T17:41:09.115Z</time></trkpt><trkpt lat="43.8416784" lon="10.4697414"><ele>11.0</ele><time>2026-05-02T17:41:10.115Z</time></trkpt><trkpt lat="43.8416415" lon="10.4695395"><ele>11.0</ele><time>2026-05-02T17:41:11.114Z</time></trkpt><trkpt lat="43.8416032" lon="10.4693409"><ele>11.0</ele><time>2026-05-02T17:41:12.114Z</time></trkpt><trkpt lat="43.841573" lon="10.4691505"><ele>11.0</ele><time>2026-05-02T17:41:13.115Z</time></trkpt><trkpt lat="43.8415541" lon="10.4689707"><ele>11.0</ele><time>2026-05-02T17:41:14.115Z</time></trkpt><trkpt lat="43.8415355" lon="10.4688126"><ele>11.0</ele><time>2026-05-02T17:41:15.115Z</time></trkpt><trkpt lat="43.8415144" lon="10.4686713"><ele>11.0</ele><time>2026-05-02T17:41:16.115Z</time></trkpt><trkpt lat="43.8414989" lon="10.468522"><ele>11.25</ele><time>2026-05-02T17:41:17.115Z</time></trkpt><trkpt lat="43.8414984" lon="10.4683547"><ele>11.5</ele><time>2026-05-02T17:41:18.115Z</time></trkpt><trkpt lat="43.8414895" lon="10.4681704"><ele>11.75</ele><time>2026-05-02T17:41:19.115Z</time></trkpt><trkpt lat="43.8414663" lon="10.4679669"><ele>12.0</ele><time>2026-05-02T17:41:20.114Z</time></trkpt><trkpt lat="43.8414418" lon="10.4677499"><ele>12.0</ele><time>2026-05-02T17:41:21.115Z</time></trkpt><trkpt lat="43.8414089" lon="10.4675379"><ele>12.0</ele><time>2026-05-02T17:41:22.115Z</time></trkpt><trkpt lat="43.8413738" lon="10.4673263"><ele>12.0</ele><time>2026-05-02T17:41:23.115Z</time></trkpt><trkpt lat="43.8413434" lon="10.4671082"><ele>12.25</ele><time>2026-05-02T17:41:24.115Z</time></trkpt><trkpt lat="43.8413067" lon="10.4669095"><ele>12.5</ele><time>2026-05-02T17:41:25.115Z</time></trkpt><trkpt lat="43.8412663" lon="10.466715"><ele>12.75</ele><time>2026-05-02T17:41:26.115Z</time></trkpt><trkpt lat="43.8412269" lon="10.4665266"><ele>13.0</ele><time>2026-05-02T17:41:27.115Z</time></trkpt><trkpt lat="43.8411916" lon="10.466349"><ele>13.0</ele><time>2026-05-02T17:41:28.115Z</time></trkpt><trkpt lat="43.8411507" lon="10.4661865"><ele>13.0</ele><time>2026-05-02T17:41:29.114Z</time></trkpt><trkpt lat="43.8411129" lon="10.4660298"><ele>13.0</ele><time>2026-05-02T17:41:30.115Z</time></trkpt><trkpt lat="43.8410843" lon="10.4658674"><ele>13.0</ele><time>2026-05-02T17:41:31.115Z</time></trkpt><trkpt lat="43.8410577" lon="10.4657059"><ele>13.0</ele><time>2026-05-02T17:41:32.115Z</time></trkpt><trkpt lat="43.8410446" lon="10.4655246"><ele>13.0</ele><time>2026-05-02T17:41:33.114Z</time></trkpt><trkpt lat="43.8410521" lon="10.4653187"><ele>13.0</ele><time>2026-05-02T17:41:34.115Z</time></trkpt><trkpt lat="43.8410699" lon="10.4651042"><ele>13.0</ele><time>2026-05-02T17:41:35.115Z</time></trkpt><trkpt lat="43.8410795" lon="10.4649063"><ele>13.0</ele><time>2026-05-02T17:41:36.115Z</time></trkpt><trkpt lat="43.8410869" lon="10.4647136"><ele>13.0</ele><time>2026-05-02T17:41:37.114Z</time></trkpt><trkpt lat="43.8410886" lon="10.4645244"><ele>13.0</ele><time>2026-05-02T17:41:38.115Z</time></trkpt><trkpt lat="43.8410967" lon="10.4643307"><ele>13.0</ele><time>2026-05-02T17:41:39.115Z</time></trkpt><trkpt lat="43.8410855" lon="10.4641347"><ele>13.0</ele><time>2026-05-02T17:41:40.115Z</time></trkpt><trkpt lat="43.8410548" lon="10.4639453"><ele>13.0</ele><time>2026-05-02T17:41:41.114Z</time></trkpt><trkpt lat="43.8410169" lon="10.46377"><ele>13.0</ele><time>2026-05-02T17:41:42.115Z</time></trkpt><trkpt lat="43.8409693" lon="10.4636086"><ele>13.0</ele><time>2026-05-02T17:41:43.115Z</time></trkpt><trkpt lat="43.8409378" lon="10.4634459"><ele>12.75</ele><time>2026-05-02T17:41:44.114Z</time></trkpt><trkpt lat="43.8409252" lon="10.463273"><ele>12.5</ele><time>2026-05-02T17:41:45.115Z</time></trkpt><trkpt lat="43.8409287" lon="10.4630856"><ele>12.25</ele><time>2026-05-02T17:41:46.115Z</time></trkpt><trkpt lat="43.8409506" lon="10.4628953"><ele>12.0</ele><time>2026-05-02T17:41:47.115Z</time></trkpt><trkpt lat="43.8409797" lon="10.4627106"><ele>11.75</ele><time>2026-05-02T17:41:48.115Z</time></trkpt><trkpt lat="43.8410116" lon="10.4625238"><ele>11.5</ele><time>2026-05-02T17:41:49.115Z</time></trkpt><trkpt lat="43.8410367" lon="10.4623372"><ele>11.25</ele><time>2026-05-02T17:41:50.114Z</time></trkpt><trkpt lat="43.8410605" lon="10.4621478"><ele>11.0</ele><time>2026-05-02T17:41:51.115Z</time></trkpt><trkpt lat="43.8410684" lon="10.4619541"><ele>11.0</ele><time>2026-05-02T17:41:52.115Z</time></trkpt><trkpt lat="43.8410585" lon="10.4617614"><ele>11.0</ele><time>2026-05-02T17:41:53.115Z</time></trkpt><trkpt lat="43.8410468" lon="10.461565"><ele>11.0</ele><time>2026-05-02T17:41:54.115Z</time></trkpt><trkpt lat="43.8410339" lon="10.4613763"><ele>11.0</ele><time>2026-05-02T17:41:55.115Z</time></trkpt><trkpt lat="43.8410167" lon="10.4611964"><ele>11.0</ele><time>2026-05-02T17:41:56.114Z</time></trkpt><trkpt lat="43.8409818" lon="10.4610208"><ele>11.0</ele><time>2026-05-02T17:41:57.115Z</time></trkpt><trkpt lat="43.8409362" lon="10.4608554"><ele>11.0</ele><time>2026-05-02T17:41:58.114Z</time></trkpt><trkpt lat="43.8408668" lon="10.4606813"><ele>11.0</ele><time>2026-05-02T17:41:59.114Z</time></trkpt><trkpt lat="43.8407941" lon="10.4605213"><ele>11.5</ele><time>2026-05-02T17:42:00.115Z</time></trkpt><trkpt lat="43.8407378" lon="10.4603544"><ele>12.0</ele><time>2026-05-02T17:42:01.115Z</time></trkpt><trkpt lat="43.8406886" lon="10.4601741"><ele>12.5</ele><time>2026-05-02T17:42:02.115Z</time></trkpt><trkpt lat="43.840641" lon="10.4599894"><ele>13.0</ele><time>2026-05-02T17:42:03.115Z</time></trkpt><trkpt lat="43.8406115" lon="10.459796"><ele>12.333333333333332</ele><time>2026-05-02T17:42:04.115Z</time></trkpt><trkpt lat="43.8405816" lon="10.4595865"><ele>11.666666666666666</ele><time>2026-05-02T17:42:05.115Z</time></trkpt><trkpt lat="43.8405754" lon="10.4593638"><ele>11.0</ele><time>2026-05-02T17:42:06.115Z</time></trkpt><trkpt lat="43.8405785" lon="10.459144"><ele>11.0</ele><time>2026-05-02T17:42:07.115Z</time></trkpt><trkpt lat="43.8405895" lon="10.458935"><ele>11.0</ele><time>2026-05-02T17:42:08.114Z</time></trkpt><trkpt lat="43.8406029" lon="10.4587248"><ele>11.0</ele><time>2026-05-02T17:42:09.115Z</time></trkpt><trkpt lat="43.8406124" lon="10.4585222"><ele>11.0</ele><time>2026-05-02T17:42:10.115Z</time></trkpt><trkpt lat="43.840621" lon="10.4583194"><ele>11.0</ele><time>2026-05-02T17:42:11.115Z</time></trkpt><trkpt lat="43.8406337" lon="10.4581156"><ele>11.0</ele><time>2026-05-02T17:42:12.115Z</time></trkpt><trkpt lat="43.8406419" lon="10.4579073"><ele>11.0</ele><time>2026-05-02T17:42:13.115Z</time></trkpt><trkpt lat="43.8406461" lon="10.4576993"><ele>11.25</ele><time>2026-05-02T17:42:14.115Z</time></trkpt><trkpt lat="43.8406491" lon="10.4574897"><ele>11.5</ele><time>2026-05-02T17:42:15.115Z</time></trkpt><trkpt lat="43.8406495" lon="10.4572883"><ele>11.75</ele><time>2026-05-02T17:42:16.114Z</time></trkpt><trkpt lat="43.8406541" lon="10.4570967"><ele>12.0</ele><time>2026-05-02T17:42:17.115Z</time></trkpt><trkpt lat="43.8406511" lon="10.4569026"><ele>12.0</ele><time>2026-05-02T17:42:18.115Z</time></trkpt><trkpt lat="43.8406331" lon="10.4567057"><ele>12.0</ele><time>2026-05-02T17:42:19.114Z</time></trkpt><trkpt lat="43.8405867" lon="10.4565236"><ele>12.0</ele><time>2026-05-02T17:42:20.115Z</time></trkpt><trkpt lat="43.8405292" lon="10.456354"><ele>12.0</ele><time>2026-05-02T17:42:21.115Z</time></trkpt><trkpt lat="43.8404697" lon="10.456181"><ele>11.75</ele><time>2026-05-02T17:42:22.115Z</time></trkpt><trkpt lat="43.8404132" lon="10.4560085"><ele>11.5</ele><time>2026-05-02T17:42:23.115Z</time></trkpt><trkpt lat="43.8403618" lon="10.455832"><ele>11.25</ele><time>2026-05-02T17:42:24.115Z</time></trkpt><trkpt lat="43.8403242" lon="10.4556564"><ele>11.0</ele><time>2026-05-02T17:42:25.115Z</time></trkpt><trkpt lat="43.8402955" lon="10.4554891"><ele>11.4</ele><time>2026-05-02T17:42:26.114Z</time></trkpt><trkpt lat="43.840277" lon="10.4553331"><ele>11.8</ele><time>2026-05-02T17:42:27.114Z</time></trkpt><trkpt lat="43.8402594" lon="10.4551917"><ele>12.200000000000001</ele><time>2026-05-02T17:42:28.114Z</time></trkpt><trkpt lat="43.8402453" lon="10.4550614"><ele>12.600000000000001</ele><time>2026-05-02T17:42:29.115Z</time></trkpt><trkpt lat="43.8402391" lon="10.454944"><ele>13.0</ele><time>2026-05-02T17:42:30.114Z</time></trkpt><trkpt lat="43.8402374" lon="10.4548466"><ele>13.0</ele><time>2026-05-02T17:42:31.115Z</time></trkpt><trkpt lat="43.840238" lon="10.4547514"><ele>13.0</ele><time>2026-05-02T17:42:32.114Z</time></trkpt><trkpt lat="43.8402388" lon="10.4546428"><ele>13.0</ele><time>2026-05-02T17:42:33.115Z</time></trkpt><trkpt lat="43.8402515" lon="10.4545164"><ele>13.0</ele><time>2026-05-02T17:42:34.114Z</time></trkpt><trkpt lat="43.8402684" lon="10.454369"><ele>13.0</ele><time>2026-05-02T17:42:35.114Z</time></trkpt><trkpt lat="43.8402923" lon="10.4542034"><ele>13.25</ele><time>2026-05-02T17:42:36.115Z</time></trkpt><trkpt lat="43.84032" lon="10.4540226"><ele>13.5</ele><time>2026-05-02T17:42:37.115Z</time></trkpt><trkpt lat="43.8403471" lon="10.4538374"><ele>13.75</ele><time>2026-05-02T17:42:38.115Z</time></trkpt><trkpt lat="43.8403747" lon="10.4536382"><ele>14.0</ele><time>2026-05-02T17:42:39.115Z</time></trkpt><trkpt lat="43.8404047" lon="10.4534253"><ele>13.333333333333334</ele><time>2026-05-02T17:42:40.115Z</time></trkpt><trkpt lat="43.8404433" lon="10.4531997"><ele>12.666666666666668</ele><time>2026-05-02T17:42:41.115Z</time></trkpt><trkpt lat="43.8404845" lon="10.4529747"><ele>12.0</ele><time>2026-05-02T17:42:42.115Z</time></trkpt><trkpt lat="43.8405288" lon="10.4527646"><ele>12.0</ele><time>2026-05-02T17:42:43.115Z</time></trkpt><trkpt lat="43.8405777" lon="10.4525554"><ele>12.0</ele><time>2026-05-02T17:42:44.114Z</time></trkpt><trkpt lat="43.8406238" lon="10.452341"><ele>12.0</ele><time>2026-05-02T17:42:45.115Z</time></trkpt><trkpt lat="43.8406539" lon="10.4521344"><ele>12.5</ele><time>2026-05-02T17:42:46.115Z</time></trkpt><trkpt lat="43.8406736" lon="10.4519361"><ele>13.0</ele><time>2026-05-02T17:42:47.115Z</time></trkpt><trkpt lat="43.8406789" lon="10.4517467"><ele>13.5</ele><time>2026-05-02T17:42:48.114Z</time></trkpt><trkpt lat="43.8406738" lon="10.4515602"><ele>14.0</ele><time>2026-05-02T17:42:49.114Z</time></trkpt><trkpt lat="43.8406502" lon="10.4513635"><ele>14.0</ele><time>2026-05-02T17:42:50.115Z</time></trkpt><trkpt lat="43.8406115" lon="10.4511604"><ele>14.0</ele><time>2026-05-02T17:42:51.115Z</time></trkpt><trkpt lat="43.8405475" lon="10.4509504"><ele>14.0</ele><time>2026-05-02T17:42:52.114Z</time></trkpt><trkpt lat="43.8404777" lon="10.4507294"><ele>14.0</ele><time>2026-05-02T17:42:53.114Z</time></trkpt><trkpt lat="43.8404089" lon="10.4505087"><ele>14.0</ele><time>2026-05-02T17:42:54.115Z</time></trkpt><trkpt lat="43.8403454" lon="10.4503039"><ele>14.0</ele><time>2026-05-02T17:42:55.115Z</time></trkpt><trkpt lat="43.8402815" lon="10.450118"><ele>13.333333333333334</ele><time>2026-05-02T17:42:56.115Z</time></trkpt><trkpt lat="43.8402215" lon="10.4499251"><ele>12.666666666666668</ele><time>2026-05-02T17:42:57.115Z</time></trkpt><trkpt lat="43.8401651" lon="10.4497222"><ele>12.0</ele><time>2026-05-02T17:42:58.115Z</time></trkpt><trkpt lat="43.8401098" lon="10.4495202"><ele>12.0</ele><time>2026-05-02T17:42:59.115Z</time></trkpt><trkpt lat="43.8400595" lon="10.4493247"><ele>12.0</ele><time>2026-05-02T17:43:00.115Z</time></trkpt><trkpt lat="43.8400218" lon="10.4491223"><ele>12.0</ele><time>2026-05-02T17:43:01.115Z</time></trkpt><trkpt lat="43.8400023" lon="10.4489026"><ele>12.0</ele><time>2026-05-02T17:43:02.114Z</time></trkpt><trkpt lat="43.8399955" lon="10.4486827"><ele>12.0</ele><time>2026-05-02T17:43:03.115Z</time></trkpt><trkpt lat="43.8399878" lon="10.4484802"><ele>12.0</ele><time>2026-05-02T17:43:04.115Z</time></trkpt><trkpt lat="43.839974" lon="10.4482835"><ele>12.0</ele><time>2026-05-02T17:43:05.115Z</time></trkpt><trkpt lat="43.8399383" lon="10.4480832"><ele>12.0</ele><time>2026-05-02T17:43:06.115Z</time></trkpt><trkpt lat="43.8398708" lon="10.4478766"><ele>12.0</ele><time>2026-05-02T17:43:07.115Z</time></trkpt><trkpt lat="43.8397847" lon="10.4476733"><ele>12.0</ele><time>2026-05-02T17:43:08.115Z</time></trkpt><trkpt lat="43.8397029" lon="10.447488"><ele>12.0</ele><time>2026-05-02T17:43:09.115Z</time></trkpt><trkpt lat="43.8396288" lon="10.4473044"><ele>12.0</ele><time>2026-05-02T17:43:10.115Z</time></trkpt><trkpt lat="43.8395704" lon="10.4471209"><ele>12.0</ele><time>2026-05-02T17:43:11.115Z</time></trkpt><trkpt lat="43.8395309" lon="10.4469354"><ele>12.0</ele><time>2026-05-02T17:43:12.115Z</time></trkpt><trkpt lat="43.8395077" lon="10.4467555"><ele>12.0</ele><time>2026-05-02T17:43:13.115Z</time></trkpt><trkpt lat="43.839499" lon="10.4465904"><ele>12.0</ele><time>2026-05-02T17:43:14.115Z</time></trkpt><trkpt lat="43.8395091" lon="10.4464292"><ele>12.0</ele><time>2026-05-02T17:43:15.115Z</time></trkpt><trkpt lat="43.8395385" lon="10.4462685"><ele>12.0</ele><time>2026-05-02T17:43:16.114Z</time></trkpt><trkpt lat="43.8395779" lon="10.4460978"><ele>12.0</ele><time>2026-05-02T17:43:17.115Z</time></trkpt><trkpt lat="43.8396174" lon="10.4459171"><ele>12.0</ele><time>2026-05-02T17:43:18.115Z</time></trkpt><trkpt lat="43.8396443" lon="10.4457439"><ele>12.0</ele><time>2026-05-02T17:43:19.115Z</time></trkpt><trkpt lat="43.8396527" lon="10.4455819"><ele>12.0</ele><time>2026-05-02T17:43:20.115Z</time></trkpt><trkpt lat="43.8396349" lon="10.4454338"><ele>12.25</ele><time>2026-05-02T17:43:21.115Z</time></trkpt><trkpt lat="43.8395864" lon="10.4452872"><ele>12.5</ele><time>2026-05-02T17:43:22.114Z</time></trkpt><trkpt lat="43.8395134" lon="10.4451412"><ele>12.75</ele><time>2026-05-02T17:43:23.115Z</time></trkpt><trkpt lat="43.8394312" lon="10.4449829"><ele>13.0</ele><time>2026-05-02T17:43:24.115Z</time></trkpt><trkpt lat="43.8393381" lon="10.4448067"><ele>13.0</ele><time>2026-05-02T17:43:25.115Z</time></trkpt><trkpt lat="43.839238" lon="10.4446247"><ele>13.0</ele><time>2026-05-02T17:43:26.115Z</time></trkpt><trkpt lat="43.8391312" lon="10.444428"><ele>13.0</ele><time>2026-05-02T17:43:27.115Z</time></trkpt><trkpt lat="43.8390256" lon="10.4442267"><ele>13.0</ele><time>2026-05-02T17:43:28.114Z</time></trkpt><trkpt lat="43.8389208" lon="10.4440235"><ele>13.0</ele><time>2026-05-02T17:43:29.115Z</time></trkpt><trkpt lat="43.8388197" lon="10.4438331"><ele>13.0</ele><time>2026-05-02T17:43:30.115Z</time></trkpt><trkpt lat="43.8387232" lon="10.4436613"><ele>13.0</ele><time>2026-05-02T17:43:31.115Z</time></trkpt><trkpt lat="43.8386218" lon="10.4435092"><ele>13.0</ele><time>2026-05-02T17:43:32.115Z</time></trkpt><trkpt lat="43.8385112" lon="10.4433963"><ele>13.0</ele><time>2026-05-02T17:43:33.114Z</time></trkpt><trkpt lat="43.8383928" lon="10.4433182"><ele>13.0</ele><time>2026-05-02T17:43:34.115Z</time></trkpt><trkpt lat="43.8382749" lon="10.4432508"><ele>13.0</ele><time>2026-05-02T17:43:35.115Z</time></trkpt><trkpt lat="43.838162" lon="10.4431921"><ele>13.0</ele><time>2026-05-02T17:43:36.115Z</time></trkpt><trkpt lat="43.8380624" lon="10.4431212"><ele>13.0</ele><time>2026-05-02T17:43:37.114Z</time></trkpt><trkpt lat="43.8379834" lon="10.4430121"><ele>13.0</ele><time>2026-05-02T17:43:38.114Z</time></trkpt><trkpt lat="43.8379212" lon="10.4428656"><ele>12.5</ele><time>2026-05-02T17:43:39.114Z</time></trkpt><trkpt lat="43.8378714" lon="10.4426909"><ele>12.0</ele><time>2026-05-02T17:43:40.115Z</time></trkpt><trkpt lat="43.8378267" lon="10.4424924"><ele>11.5</ele><time>2026-05-02T17:43:41.115Z</time></trkpt><trkpt lat="43.837787" lon="10.4422904"><ele>11.0</ele><time>2026-05-02T17:43:42.115Z</time></trkpt><trkpt lat="43.8377445" lon="10.4420815"><ele>10.666666666666666</ele><time>2026-05-02T17:43:43.114Z</time></trkpt><trkpt lat="43.8376982" lon="10.4418779"><ele>10.333333333333334</ele><time>2026-05-02T17:43:44.115Z</time></trkpt><trkpt lat="43.8376571" lon="10.4416734"><ele>10.0</ele><time>2026-05-02T17:43:45.114Z</time></trkpt><trkpt lat="43.8376136" lon="10.4414714"><ele>10.333333333333334</ele><time>2026-05-02T17:43:46.115Z</time></trkpt><trkpt lat="43.8375694" lon="10.4412688"><ele>10.666666666666666</ele><time>2026-05-02T17:43:47.115Z</time></trkpt><trkpt lat="43.8375249" lon="10.4410753"><ele>11.0</ele><time>2026-05-02T17:43:48.115Z</time></trkpt><trkpt lat="43.8374694" lon="10.4408753"><ele>11.0</ele><time>2026-05-02T17:43:49.115Z</time></trkpt><trkpt lat="43.837418" lon="10.4406756"><ele>11.0</ele><time>2026-05-02T17:43:50.114Z</time></trkpt><trkpt lat="43.837373" lon="10.4405001"><ele>11.0</ele><time>2026-05-02T17:43:51.115Z</time></trkpt><trkpt lat="43.8373363" lon="10.4403423"><ele>11.0</ele><time>2026-05-02T17:43:52.115Z</time></trkpt><trkpt lat="43.8373052" lon="10.4401964"><ele>10.75</ele><time>2026-05-02T17:43:53.115Z</time></trkpt><trkpt lat="43.8372766" lon="10.4400459"><ele>10.5</ele><time>2026-05-02T17:43:54.115Z</time></trkpt><trkpt lat="43.8372419" lon="10.4398895"><ele>10.25</ele><time>2026-05-02T17:43:55.114Z</time></trkpt><trkpt lat="43.8372101" lon="10.4397379"><ele>10.0</ele><time>2026-05-02T17:43:56.115Z</time></trkpt><trkpt lat="43.8371738" lon="10.4395827"><ele>10.0</ele><time>2026-05-02T17:43:57.114Z</time></trkpt><trkpt lat="43.8371385" lon="10.4394235"><ele>10.0</ele><time>2026-05-02T17:43:58.115Z</time></trkpt><trkpt lat="43.8371061" lon="10.4392701"><ele>10.0</ele><time>2026-05-02T17:43:59.115Z</time></trkpt><trkpt lat="43.8370753" lon="10.4391248"><ele>10.0</ele><time>2026-05-02T17:44:00.115Z</time></trkpt><trkpt lat="43.8370398" lon="10.438983"><ele>10.0</ele><time>2026-05-02T17:44:01.115Z</time></trkpt><trkpt lat="43.8369909" lon="10.4388415"><ele>10.0</ele><time>2026-05-02T17:44:02.115Z</time></trkpt><trkpt lat="43.8369231" lon="10.4387046"><ele>10.0</ele><time>2026-05-02T17:44:03.115Z</time></trkpt><trkpt lat="43.8368354" lon="10.438571"><ele>10.0</ele><time>2026-05-02T17:44:04.115Z</time></trkpt><trkpt lat="43.836734" lon="10.4384505"><ele>10.0</ele><time>2026-05-02T17:44:05.115Z</time></trkpt><trkpt lat="43.8366295" lon="10.4383418"><ele>10.0</ele><time>2026-05-02T17:44:06.115Z</time></trkpt><trkpt lat="43.8365245" lon="10.4382386"><ele>10.0</ele><time>2026-05-02T17:44:07.115Z</time></trkpt><trkpt lat="43.8364179" lon="10.4381332"><ele>10.0</ele><time>2026-05-02T17:44:08.115Z</time></trkpt><trkpt lat="43.8363111" lon="10.4380259"><ele>10.75</ele><time>2026-05-02T17:44:09.115Z</time></trkpt><trkpt lat="43.8362104" lon="10.4379211"><ele>11.5</ele><time>2026-05-02T17:44:10.115Z</time></trkpt><trkpt lat="43.83611" lon="10.4378208"><ele>12.25</ele><time>2026-05-02T17:44:11.115Z</time></trkpt><trkpt lat="43.8360162" lon="10.4377083"><ele>13.0</ele><time>2026-05-02T17:44:12.115Z</time></trkpt><trkpt lat="43.8359303" lon="10.4375785"><ele>13.5</ele><time>2026-05-02T17:44:13.115Z</time></trkpt><trkpt lat="43.8358537" lon="10.4374327"><ele>14.0</ele><time>2026-05-02T17:44:14.115Z</time></trkpt><trkpt lat="43.8357928" lon="10.4372741"><ele>14.5</ele><time>2026-05-02T17:44:15.115Z</time></trkpt><trkpt lat="43.835737" lon="10.4371028"><ele>15.0</ele><time>2026-05-02T17:44:16.114Z</time></trkpt><trkpt lat="43.8356836" lon="10.4369319"><ele>15.0</ele><time>2026-05-02T17:44:17.115Z</time></trkpt><trkpt lat="43.8356276" lon="10.4367707"><ele>15.0</ele><time>2026-05-02T17:44:18.115Z</time></trkpt><trkpt lat="43.8355637" lon="10.436615"><ele>15.0</ele><time>2026-05-02T17:44:19.115Z</time></trkpt><trkpt lat="43.8354981" lon="10.436455"><ele>15.0</ele><time>2026-05-02T17:44:20.115Z</time></trkpt><trkpt lat="43.8354345" lon="10.4362953"><ele>14.25</ele><time>2026-05-02T17:44:21.115Z</time></trkpt><trkpt lat="43.8353676" lon="10.4361353"><ele>13.5</ele><time>2026-05-02T17:44:22.115Z</time></trkpt><trkpt lat="43.8352983" lon="10.4359698"><ele>12.75</ele><time>2026-05-02T17:44:23.115Z</time></trkpt><trkpt lat="43.8352276" lon="10.4358064"><ele>12.0</ele><time>2026-05-02T17:44:24.115Z</time></trkpt><trkpt lat="43.8351596" lon="10.4356422"><ele>12.0</ele><time>2026-05-02T17:44:25.115Z</time></trkpt><trkpt lat="43.8350832" lon="10.4354749"><ele>12.0</ele><time>2026-05-02T17:44:26.114Z</time></trkpt><trkpt lat="43.835007" lon="10.4353021"><ele>12.0</ele><time>2026-05-02T17:44:27.115Z</time></trkpt><trkpt lat="43.834929" lon="10.4351262"><ele>12.0</ele><time>2026-05-02T17:44:28.115Z</time></trkpt><trkpt lat="43.8348392" lon="10.4349422"><ele>12.0</ele><time>2026-05-02T17:44:29.115Z</time></trkpt><trkpt lat="43.8347437" lon="10.4347401"><ele>12.0</ele><time>2026-05-02T17:44:30.115Z</time></trkpt><trkpt lat="43.8346488" lon="10.434526"><ele>12.0</ele><time>2026-05-02T17:44:31.115Z</time></trkpt><trkpt lat="43.8345498" lon="10.4343022"><ele>12.0</ele><time>2026-05-02T17:44:32.115Z</time></trkpt><trkpt lat="43.8344516" lon="10.4340713"><ele>12.0</ele><time>2026-05-02T17:44:33.115Z</time></trkpt><trkpt lat="43.8343563" lon="10.4338256"><ele>12.0</ele><time>2026-05-02T17:44:34.114Z</time></trkpt><trkpt lat="43.8342552" lon="10.4335697"><ele>12.333333333333332</ele><time>2026-05-02T17:44:35.115Z</time></trkpt><trkpt lat="43.8341506" lon="10.4333256"><ele>12.666666666666666</ele><time>2026-05-02T17:44:36.114Z</time></trkpt><trkpt lat="43.834046" lon="10.4330785"><ele>13.0</ele><time>2026-05-02T17:44:37.114Z</time></trkpt><trkpt lat="43.8339385" lon="10.432825"><ele>13.0</ele><time>2026-05-02T17:44:38.115Z</time></trkpt><trkpt lat="43.8338298" lon="10.4325707"><ele>13.0</ele><time>2026-05-02T17:44:39.115Z</time></trkpt><trkpt lat="43.8337182" lon="10.4323108"><ele>13.0</ele><time>2026-05-02T17:44:40.115Z</time></trkpt><trkpt lat="43.833604" lon="10.4320579"><ele>12.666666666666666</ele><time>2026-05-02T17:44:41.115Z</time></trkpt><trkpt lat="43.8334961" lon="10.4318052"><ele>12.333333333333332</ele><time>2026-05-02T17:44:42.115Z</time></trkpt><trkpt lat="43.8333886" lon="10.4315527"><ele>12.0</ele><time>2026-05-02T17:44:43.115Z</time></trkpt><trkpt lat="43.8332784" lon="10.4313003"><ele>12.0</ele><time>2026-05-02T17:44:44.115Z</time></trkpt><trkpt lat="43.8331666" lon="10.4310425"><ele>12.0</ele><time>2026-05-02T17:44:45.115Z</time></trkpt><trkpt lat="43.8330479" lon="10.4307797"><ele>12.0</ele><time>2026-05-02T17:44:46.114Z</time></trkpt><trkpt lat="43.8329364" lon="10.4305213"><ele>11.666666666666666</ele><time>2026-05-02T17:44:47.115Z</time></trkpt><trkpt lat="43.8328283" lon="10.4302606"><ele>11.333333333333332</ele><time>2026-05-02T17:44:48.115Z</time></trkpt><trkpt lat="43.83272" lon="10.4300126"><ele>11.0</ele><time>2026-05-02T17:44:49.115Z</time></trkpt><trkpt lat="43.8326176" lon="10.4297773"><ele>11.333333333333332</ele><time>2026-05-02T17:44:50.115Z</time></trkpt><trkpt lat="43.8325194" lon="10.4295488"><ele>11.666666666666666</ele><time>2026-05-02T17:44:51.114Z</time></trkpt><trkpt lat="43.8324256" lon="10.4293258"><ele>12.0</ele><time>2026-05-02T17:44:52.115Z</time></trkpt><trkpt lat="43.8323368" lon="10.4291045"><ele>12.0</ele><time>2026-05-02T17:44:53.115Z</time></trkpt><trkpt lat="43.832254" lon="10.428899"><ele>12.0</ele><time>2026-05-02T17:44:54.114Z</time></trkpt><trkpt lat="43.832171" lon="10.4287107"><ele>12.0</ele><time>2026-05-02T17:44:55.115Z</time></trkpt><trkpt lat="43.8320933" lon="10.4285359"><ele>12.25</ele><time>2026-05-02T17:44:56.115Z</time></trkpt><trkpt lat="43.8320167" lon="10.4283831"><ele>12.5</ele><time>2026-05-02T17:44:57.115Z</time></trkpt><trkpt lat="43.8319296" lon="10.4282555"><ele>12.75</ele><time>2026-05-02T17:44:58.115Z</time></trkpt><trkpt lat="43.8318363" lon="10.4281549"><ele>13.0</ele><time>2026-05-02T17:44:59.115Z</time></trkpt><trkpt lat="43.8317423" lon="10.4280783"><ele>13.5</ele><time>2026-05-02T17:45:00.115Z</time></trkpt><trkpt lat="43.8316471" lon="10.4279933"><ele>14.0</ele><time>2026-05-02T17:45:01.115Z</time></trkpt><trkpt lat="43.8315476" lon="10.4279018"><ele>14.5</ele><time>2026-05-02T17:45:02.114Z</time></trkpt><trkpt lat="43.8314503" lon="10.4277915"><ele>15.0</ele><time>2026-05-02T17:45:03.114Z</time></trkpt><trkpt lat="43.8313601" lon="10.4276473"><ele>15.0</ele><time>2026-05-02T17:45:04.115Z</time></trkpt><trkpt lat="43.8312786" lon="10.4274683"><ele>15.0</ele><time>2026-05-02T17:45:05.115Z</time></trkpt><trkpt lat="43.8312077" lon="10.4272615"><ele>15.0</ele><time>2026-05-02T17:45:06.115Z</time></trkpt><trkpt lat="43.8311323" lon="10.4270338"><ele>14.666666666666668</ele><time>2026-05-02T17:45:07.114Z</time></trkpt><trkpt lat="43.8310526" lon="10.4267919"><ele>14.333333333333334</ele><time>2026-05-02T17:45:08.115Z</time></trkpt><trkpt lat="43.8309662" lon="10.4265346"><ele>14.0</ele><time>2026-05-02T17:45:09.114Z</time></trkpt><trkpt lat="43.8308783" lon="10.426291"><ele>14.0</ele><time>2026-05-02T17:45:10.115Z</time></trkpt><trkpt lat="43.8307886" lon="10.4260374"><ele>14.0</ele><time>2026-05-02T17:45:11.115Z</time></trkpt><trkpt lat="43.8306963" lon="10.4257705"><ele>14.0</ele><time>2026-05-02T17:45:12.115Z</time></trkpt><trkpt lat="43.8306045" lon="10.4254916"><ele>13.5</ele><time>2026-05-02T17:45:13.115Z</time></trkpt><trkpt lat="43.8305089" lon="10.4252085"><ele>13.0</ele><time>2026-05-02T17:45:14.115Z</time></trkpt><trkpt lat="43.8304133" lon="10.4249226"><ele>13.0</ele><time>2026-05-02T17:45:15.115Z</time></trkpt><trkpt lat="43.8303209" lon="10.4246351"><ele>13.0</ele><time>2026-05-02T17:45:16.114Z</time></trkpt><trkpt lat="43.8302244" lon="10.4243554"><ele>13.333333333333332</ele><time>2026-05-02T17:45:17.114Z</time></trkpt><trkpt lat="43.8301314" lon="10.4240813"><ele>13.666666666666668</ele><time>2026-05-02T17:45:18.115Z</time></trkpt><trkpt lat="43.8300385" lon="10.4238039"><ele>14.0</ele><time>2026-05-02T17:45:19.114Z</time></trkpt><trkpt lat="43.8299461" lon="10.4235364"><ele>14.333333333333334</ele><time>2026-05-02T17:45:20.114Z</time></trkpt><trkpt lat="43.8298585" lon="10.4232754"><ele>14.666666666666668</ele><time>2026-05-02T17:45:21.115Z</time></trkpt><trkpt lat="43.8297699" lon="10.4230227"><ele>15.0</ele><time>2026-05-02T17:45:22.115Z</time></trkpt><trkpt lat="43.8296884" lon="10.4227829"><ele>15.0</ele><time>2026-05-02T17:45:23.115Z</time></trkpt><trkpt lat="43.8296172" lon="10.4225492"><ele>15.0</ele><time>2026-05-02T17:45:24.114Z</time></trkpt><trkpt lat="43.8295434" lon="10.4223248"><ele>15.0</ele><time>2026-05-02T17:45:25.115Z</time></trkpt><trkpt lat="43.8294876" lon="10.4220996"><ele>14.666666666666668</ele><time>2026-05-02T17:45:26.115Z</time></trkpt><trkpt lat="43.8294468" lon="10.4218802"><ele>14.333333333333334</ele><time>2026-05-02T17:45:27.115Z</time></trkpt><trkpt lat="43.8294014" lon="10.4216623"><ele>14.0</ele><time>2026-05-02T17:45:28.114Z</time></trkpt><trkpt lat="43.8293342" lon="10.421434"><ele>15.0</ele><time>2026-05-02T17:45:29.115Z</time></trkpt><trkpt lat="43.8292548" lon="10.4212023"><ele>16.0</ele><time>2026-05-02T17:45:30.114Z</time></trkpt><trkpt lat="43.8291588" lon="10.4209762"><ele>17.0</ele><time>2026-05-02T17:45:31.115Z</time></trkpt><trkpt lat="43.8290461" lon="10.4207641"><ele>17.0</ele><time>2026-05-02T17:45:32.114Z</time></trkpt><trkpt lat="43.8289298" lon="10.4205713"><ele>17.0</ele><time>2026-05-02T17:45:33.115Z</time></trkpt><trkpt lat="43.8288026" lon="10.4204019"><ele>17.0</ele><time>2026-05-02T17:45:34.114Z</time></trkpt><trkpt lat="43.8286593" lon="10.4202478"><ele>16.333333333333336</ele><time>2026-05-02T17:45:35.115Z</time></trkpt><trkpt lat="43.8284942" lon="10.4201149"><ele>15.666666666666668</ele><time>2026-05-02T17:45:36.115Z</time></trkpt><trkpt lat="43.8283211" lon="10.4200103"><ele>15.0</ele><time>2026-05-02T17:45:37.115Z</time></trkpt><trkpt lat="43.8281505" lon="10.4198983"><ele>15.0</ele><time>2026-05-02T17:45:38.115Z</time></trkpt><trkpt lat="43.8279858" lon="10.419803"><ele>15.0</ele><time>2026-05-02T17:45:39.114Z</time></trkpt><trkpt lat="43.8278255" lon="10.4197068"><ele>15.0</ele><time>2026-05-02T17:45:40.115Z</time></trkpt><trkpt lat="43.8276634" lon="10.4196125"><ele>15.0</ele><time>2026-05-02T17:45:41.115Z</time></trkpt><trkpt lat="43.827493" lon="10.4195185"><ele>15.0</ele><time>2026-05-02T17:45:42.115Z</time></trkpt><trkpt lat="43.82732" lon="10.4194214"><ele>15.0</ele><time>2026-05-02T17:45:43.115Z</time></trkpt><trkpt lat="43.8271417" lon="10.4193232"><ele>15.0</ele><time>2026-05-02T17:45:44.115Z</time></trkpt><trkpt lat="43.8269645" lon="10.4192193"><ele>15.0</ele><time>2026-05-02T17:45:45.114Z</time></trkpt><trkpt lat="43.8267817" lon="10.4191209"><ele>15.0</ele><time>2026-05-02T17:45:46.115Z</time></trkpt><trkpt lat="43.8265855" lon="10.4190138"><ele>14.333333333333332</ele><time>2026-05-02T17:45:47.115Z</time></trkpt><trkpt lat="43.8263903" lon="10.4189288"><ele>13.666666666666666</ele><time>2026-05-02T17:45:48.115Z</time></trkpt><trkpt lat="43.8262079" lon="10.4188295"><ele>13.0</ele><time>2026-05-02T17:45:49.115Z</time></trkpt><trkpt lat="43.8260143" lon="10.4187097"><ele>12.333333333333332</ele><time>2026-05-02T17:45:50.115Z</time></trkpt><trkpt lat="43.8258159" lon="10.418599"><ele>11.666666666666666</ele><time>2026-05-02T17:45:51.114Z</time></trkpt><trkpt lat="43.8256177" lon="10.4184833"><ele>11.0</ele><time>2026-05-02T17:45:52.115Z</time></trkpt><trkpt lat="43.8254205" lon="10.4183751"><ele>11.0</ele><time>2026-05-02T17:45:53.115Z</time></trkpt><trkpt lat="43.8252195" lon="10.4182605"><ele>11.0</ele><time>2026-05-02T17:45:54.115Z</time></trkpt><trkpt lat="43.8250186" lon="10.4181442"><ele>11.0</ele><time>2026-05-02T17:45:55.115Z</time></trkpt><trkpt lat="43.8248247" lon="10.418032"><ele>10.666666666666666</ele><time>2026-05-02T17:45:56.114Z</time></trkpt><trkpt lat="43.8246216" lon="10.417922"><ele>10.333333333333334</ele><time>2026-05-02T17:45:57.115Z</time></trkpt><trkpt lat="43.824431" lon="10.4178133"><ele>10.0</ele><time>2026-05-02T17:45:58.115Z</time></trkpt><trkpt lat="43.8242308" lon="10.4176948"><ele>10.666666666666668</ele><time>2026-05-02T17:45:59.115Z</time></trkpt><trkpt lat="43.8240338" lon="10.4175838"><ele>11.333333333333334</ele><time>2026-05-02T17:46:00.115Z</time></trkpt><trkpt lat="43.8238426" lon="10.4174747"><ele>12.0</ele><time>2026-05-02T17:46:01.115Z</time></trkpt><trkpt lat="43.8236458" lon="10.417359"><ele>12.0</ele><time>2026-05-02T17:46:02.115Z</time></trkpt><trkpt lat="43.8234563" lon="10.4172587"><ele>12.0</ele><time>2026-05-02T17:46:03.115Z</time></trkpt><trkpt lat="43.823259" lon="10.4171464"><ele>12.0</ele><time>2026-05-02T17:46:04.115Z</time></trkpt><trkpt lat="43.8230664" lon="10.4170353"><ele>12.0</ele><time>2026-05-02T17:46:05.114Z</time></trkpt><trkpt lat="43.8228813" lon="10.4169308"><ele>12.0</ele><time>2026-05-02T17:46:06.114Z</time></trkpt><trkpt lat="43.8227012" lon="10.41683"><ele>12.0</ele><time>2026-05-02T17:46:07.115Z</time></trkpt><trkpt lat="43.8225243" lon="10.4167306"><ele>12.666666666666668</ele><time>2026-05-02T17:46:08.115Z</time></trkpt><trkpt lat="43.8223517" lon="10.4166354"><ele>13.333333333333334</ele><time>2026-05-02T17:46:09.115Z</time></trkpt><trkpt lat="43.8221885" lon="10.416536"><ele>14.0</ele><time>2026-05-02T17:46:10.115Z</time></trkpt><trkpt lat="43.822032" lon="10.4164414"><ele>14.0</ele><time>2026-05-02T17:46:11.115Z</time></trkpt><trkpt lat="43.8218839" lon="10.4163552"><ele>14.0</ele><time>2026-05-02T17:46:12.114Z</time></trkpt><trkpt lat="43.8217394" lon="10.4162707"><ele>14.0</ele><time>2026-05-02T17:46:13.115Z</time></trkpt><trkpt lat="43.8215903" lon="10.4161871"><ele>13.666666666666668</ele><time>2026-05-02T17:46:14.115Z</time></trkpt><trkpt lat="43.8214347" lon="10.4161012"><ele>13.333333333333332</ele><time>2026-05-02T17:46:15.114Z</time></trkpt><trkpt lat="43.8212823" lon="10.4160181"><ele>13.0</ele><time>2026-05-02T17:46:16.114Z</time></trkpt><trkpt lat="43.8211381" lon="10.4159362"><ele>13.0</ele><time>2026-05-02T17:46:17.115Z</time></trkpt><trkpt lat="43.8209953" lon="10.4158556"><ele>13.0</ele><time>2026-05-02T17:46:18.115Z</time></trkpt><trkpt lat="43.8208561" lon="10.4157788"><ele>13.0</ele><time>2026-05-02T17:46:19.115Z</time></trkpt><trkpt lat="43.820711" lon="10.4157029"><ele>13.0</ele><time>2026-05-02T17:46:20.115Z</time></trkpt><trkpt lat="43.8205732" lon="10.4156304"><ele>13.0</ele><time>2026-05-02T17:46:21.115Z</time></trkpt><trkpt lat="43.820437" lon="10.4155522"><ele>13.0</ele><time>2026-05-02T17:46:22.115Z</time></trkpt><trkpt lat="43.8203018" lon="10.4154703"><ele>13.0</ele><time>2026-05-02T17:46:23.114Z</time></trkpt><trkpt lat="43.8201727" lon="10.4153938"><ele>12.25</ele><time>2026-05-02T17:46:24.114Z</time></trkpt><trkpt lat="43.8200457" lon="10.4153212"><ele>11.5</ele><time>2026-05-02T17:46:25.114Z</time></trkpt><trkpt lat="43.8199226" lon="10.4152477"><ele>10.75</ele><time>2026-05-02T17:46:26.115Z</time></trkpt><trkpt lat="43.8198054" lon="10.415183"><ele>10.0</ele><time>2026-05-02T17:46:27.115Z</time></trkpt><trkpt lat="43.8196888" lon="10.4151221"><ele>10.0</ele><time>2026-05-02T17:46:28.115Z</time></trkpt><trkpt lat="43.8195755" lon="10.4150596"><ele>10.0</ele><time>2026-05-02T17:46:29.115Z</time></trkpt><trkpt lat="43.8194688" lon="10.4150019"><ele>10.0</ele><time>2026-05-02T17:46:30.115Z</time></trkpt><trkpt lat="43.8193637" lon="10.41495"><ele>10.0</ele><time>2026-05-02T17:46:31.115Z</time></trkpt><trkpt lat="43.8192585" lon="10.414895"><ele>11.75</ele><time>2026-05-02T17:46:32.115Z</time></trkpt><trkpt lat="43.8191549" lon="10.4148469"><ele>13.5</ele><time>2026-05-02T17:46:33.115Z</time></trkpt><trkpt lat="43.8190429" lon="10.4147912"><ele>15.25</ele><time>2026-05-02T17:46:34.115Z</time></trkpt><trkpt lat="43.8189264" lon="10.4147275"><ele>17.0</ele><time>2026-05-02T17:46:35.115Z</time></trkpt><trkpt lat="43.8188053" lon="10.4146685"><ele>15.0</ele><time>2026-05-02T17:46:36.115Z</time></trkpt><trkpt lat="43.8186857" lon="10.4146102"><ele>13.0</ele><time>2026-05-02T17:46:37.115Z</time></trkpt><trkpt lat="43.8185758" lon="10.4145499"><ele>11.0</ele><time>2026-05-02T17:46:38.114Z</time></trkpt><trkpt lat="43.8184699" lon="10.4145043"><ele>9.0</ele><time>2026-05-02T17:46:39.114Z</time></trkpt><trkpt lat="43.8183439" lon="10.4145001"><ele>9.0</ele><time>2026-05-02T17:46:40.115Z</time></trkpt><trkpt lat="43.8182303" lon="10.4145128"><ele>9.0</ele><time>2026-05-02T17:46:41.115Z</time></trkpt><trkpt lat="43.818111" lon="10.4145582"><ele>9.0</ele><time>2026-05-02T17:46:42.114Z</time></trkpt><trkpt lat="43.8179869" lon="10.4146194"><ele>9.0</ele><time>2026-05-02T17:46:43.115Z</time></trkpt><trkpt lat="43.817867" lon="10.4146805"><ele>10.0</ele><time>2026-05-02T17:46:44.115Z</time></trkpt><trkpt lat="43.8177709" lon="10.4147651"><ele>11.0</ele><time>2026-05-02T17:46:45.115Z</time></trkpt><trkpt lat="43.8176829" lon="10.4148468"><ele>11.999999999999998</ele><time>2026-05-02T17:46:46.114Z</time></trkpt><trkpt lat="43.8176017" lon="10.4149207"><ele>13.0</ele><time>2026-05-02T17:46:47.115Z</time></trkpt><trkpt lat="43.8175187" lon="10.4149549"><ele>14.0</ele><time>2026-05-02T17:46:48.115Z</time></trkpt><trkpt lat="43.8174289" lon="10.4149372"><ele>14.0</ele><time>2026-05-02T17:46:49.114Z</time></trkpt><trkpt lat="43.8173382" lon="10.4149272"><ele>13.999999999999998</ele><time>2026-05-02T17:46:50.115Z</time></trkpt><trkpt lat="43.8172427" lon="10.4148919"><ele>13.999999999999998</ele><time>2026-05-02T17:46:51.115Z</time></trkpt><trkpt lat="43.8171446" lon="10.414839"><ele>14.0</ele><time>2026-05-02T17:46:52.115Z</time></trkpt><trkpt lat="43.8170395" lon="10.4147843"><ele>14.0</ele><time>2026-05-02T17:46:53.114Z</time></trkpt><trkpt lat="43.8169255" lon="10.4147215"><ele>14.0</ele><time>2026-05-02T17:46:54.115Z</time></trkpt><trkpt lat="43.8168112" lon="10.4146601"><ele>14.0</ele><time>2026-05-02T17:46:55.115Z</time></trkpt><trkpt lat="43.8166963" lon="10.4145907"><ele>14.0</ele><time>2026-05-02T17:46:56.115Z</time></trkpt><trkpt lat="43.8165911" lon="10.4144985"><ele>14.0</ele><time>2026-05-02T17:46:57.115Z</time></trkpt><trkpt lat="43.8164829" lon="10.4144223"><ele>14.0</ele><time>2026-05-02T17:46:58.115Z</time></trkpt><trkpt lat="43.8163718" lon="10.4143418"><ele>14.0</ele><time>2026-05-02T17:46:59.114Z</time></trkpt><trkpt lat="43.8162613" lon="10.4142585"><ele>14.0</ele><time>2026-05-02T17:47:00.114Z</time></trkpt><trkpt lat="43.8161563" lon="10.4141579"><ele>14.0</ele><time>2026-05-02T17:47:01.114Z</time></trkpt><trkpt lat="43.8160526" lon="10.414047"><ele>13.25</ele><time>2026-05-02T17:47:02.115Z</time></trkpt><trkpt lat="43.8159506" lon="10.4139358"><ele>12.5</ele><time>2026-05-02T17:47:03.115Z</time></trkpt><trkpt lat="43.8158382" lon="10.4138282"><ele>11.75</ele><time>2026-05-02T17:47:04.115Z</time></trkpt><trkpt lat="43.8157238" lon="10.4137217"><ele>11.0</ele><time>2026-05-02T17:47:05.115Z</time></trkpt><trkpt lat="43.8156062" lon="10.413615"><ele>11.0</ele><time>2026-05-02T17:47:06.115Z</time></trkpt><trkpt lat="43.815486" lon="10.4135173"><ele>11.0</ele><time>2026-05-02T17:47:07.115Z</time></trkpt><trkpt lat="43.8153704" lon="10.4134375"><ele>11.0</ele><time>2026-05-02T17:47:08.115Z</time></trkpt><trkpt lat="43.8152452" lon="10.4133763"><ele>11.0</ele><time>2026-05-02T17:47:09.115Z</time></trkpt><trkpt lat="43.8151187" lon="10.4133413"><ele>12.25</ele><time>2026-05-02T17:47:10.115Z</time></trkpt><trkpt lat="43.814974" lon="10.4133128"><ele>13.5</ele><time>2026-05-02T17:47:11.115Z</time></trkpt><trkpt lat="43.8148311" lon="10.4132719"><ele>14.75</ele><time>2026-05-02T17:47:12.114Z</time></trkpt><trkpt lat="43.8146871" lon="10.4132102"><ele>16.0</ele><time>2026-05-02T17:47:13.115Z</time></trkpt><trkpt lat="43.8145483" lon="10.4131537"><ele>16.0</ele><time>2026-05-02T17:47:14.114Z</time></trkpt><trkpt lat="43.8144124" lon="10.4131048"><ele>16.0</ele><time>2026-05-02T17:47:15.114Z</time></trkpt><trkpt lat="43.8142852" lon="10.4130573"><ele>16.0</ele><time>2026-05-02T17:47:16.115Z</time></trkpt><trkpt lat="43.8141485" lon="10.4130003"><ele>16.0</ele><time>2026-05-02T17:47:17.115Z</time></trkpt><trkpt lat="43.8140011" lon="10.4129477"><ele>14.0</ele><time>2026-05-02T17:47:18.114Z</time></trkpt><trkpt lat="43.8138515" lon="10.4128884"><ele>12.0</ele><time>2026-05-02T17:47:19.114Z</time></trkpt><trkpt lat="43.8136987" lon="10.4128191"><ele>10.0</ele><time>2026-05-02T17:47:20.115Z</time></trkpt><trkpt lat="43.813543" lon="10.4127478"><ele>9.666666666666668</ele><time>2026-05-02T17:47:21.115Z</time></trkpt><trkpt lat="43.8133861" lon="10.4126669"><ele>9.333333333333334</ele><time>2026-05-02T17:47:22.114Z</time></trkpt><trkpt lat="43.8132296" lon="10.4125842"><ele>9.0</ele><time>2026-05-02T17:47:23.115Z</time></trkpt><trkpt lat="43.8130719" lon="10.412502"><ele>9.0</ele><time>2026-05-02T17:47:24.114Z</time></trkpt><trkpt lat="43.8129161" lon="10.4124181"><ele>9.0</ele><time>2026-05-02T17:47:25.115Z</time></trkpt><trkpt lat="43.8127626" lon="10.4123312"><ele>9.0</ele><time>2026-05-02T17:47:26.114Z</time></trkpt><trkpt lat="43.8126152" lon="10.412249"><ele>9.25</ele><time>2026-05-02T17:47:27.115Z</time></trkpt><trkpt lat="43.8124725" lon="10.412178"><ele>9.5</ele><time>2026-05-02T17:47:28.115Z</time></trkpt><trkpt lat="43.8123353" lon="10.4121153"><ele>9.75</ele><time>2026-05-02T17:47:29.115Z</time></trkpt><trkpt lat="43.8121921" lon="10.4120653"><ele>10.0</ele><time>2026-05-02T17:47:30.115Z</time></trkpt><trkpt lat="43.8120397" lon="10.4120391"><ele>10.0</ele><time>2026-05-02T17:47:31.115Z</time></trkpt><trkpt lat="43.8118795" lon="10.4120219"><ele>10.0</ele><time>2026-05-02T17:47:32.115Z</time></trkpt><trkpt lat="43.8117145" lon="10.4120118"><ele>10.0</ele><time>2026-05-02T17:47:33.114Z</time></trkpt><trkpt lat="43.8115384" lon="10.4120037"><ele>9.666666666666668</ele><time>2026-05-02T17:47:34.115Z</time></trkpt><trkpt lat="43.8113595" lon="10.4120015"><ele>9.333333333333334</ele><time>2026-05-02T17:47:35.115Z</time></trkpt><trkpt lat="43.8111671" lon="10.4120004"><ele>9.0</ele><time>2026-05-02T17:47:36.114Z</time></trkpt><trkpt lat="43.8109818" lon="10.4120063"><ele>9.0</ele><time>2026-05-02T17:47:37.115Z</time></trkpt><trkpt lat="43.8107896" lon="10.4120122"><ele>9.0</ele><time>2026-05-02T17:47:38.115Z</time></trkpt><trkpt lat="43.8105948" lon="10.412023"><ele>9.0</ele><time>2026-05-02T17:47:39.115Z</time></trkpt><trkpt lat="43.8104008" lon="10.4120388"><ele>9.0</ele><time>2026-05-02T17:47:40.115Z</time></trkpt><trkpt lat="43.8102131" lon="10.4120547"><ele>9.0</ele><time>2026-05-02T17:47:41.115Z</time></trkpt><trkpt lat="43.8100388" lon="10.4120688"><ele>9.0</ele><time>2026-05-02T17:47:42.115Z</time></trkpt><trkpt lat="43.809872" lon="10.4120833"><ele>9.0</ele><time>2026-05-02T17:47:43.115Z</time></trkpt><trkpt lat="43.8097143" lon="10.4121006"><ele>9.0</ele><time>2026-05-02T17:47:44.115Z</time></trkpt><trkpt lat="43.8095674" lon="10.412118"><ele>9.0</ele><time>2026-05-02T17:47:45.115Z</time></trkpt><trkpt lat="43.8094346" lon="10.4121376"><ele>9.0</ele><time>2026-05-02T17:47:46.115Z</time></trkpt><trkpt lat="43.8093154" lon="10.4121846"><ele>9.25</ele><time>2026-05-02T17:47:47.115Z</time></trkpt><trkpt lat="43.8092091" lon="10.4122681"><ele>9.5</ele><time>2026-05-02T17:47:48.115Z</time></trkpt><trkpt lat="43.8091109" lon="10.4123932"><ele>9.75</ele><time>2026-05-02T17:47:49.115Z</time></trkpt><trkpt lat="43.8090183" lon="10.4125531"><ele>10.0</ele><time>2026-05-02T17:47:50.114Z</time></trkpt><trkpt lat="43.8089187" lon="10.4127289"><ele>10.0</ele><time>2026-05-02T17:47:51.115Z</time></trkpt><trkpt lat="43.8088189" lon="10.4129126"><ele>10.0</ele><time>2026-05-02T17:47:52.115Z</time></trkpt><trkpt lat="43.8087126" lon="10.4130989"><ele>10.0</ele><time>2026-05-02T17:47:53.114Z</time></trkpt><trkpt lat="43.8086097" lon="10.4132921"><ele>9.666666666666668</ele><time>2026-05-02T17:47:54.115Z</time></trkpt><trkpt lat="43.808508" lon="10.4134851"><ele>9.333333333333334</ele><time>2026-05-02T17:47:55.114Z</time></trkpt><trkpt lat="43.808412" lon="10.4136659"><ele>9.0</ele><time>2026-05-02T17:47:56.115Z</time></trkpt><trkpt lat="43.8083384" lon="10.4138429"><ele>10.0</ele><time>2026-05-02T17:47:57.114Z</time></trkpt><trkpt lat="43.8082891" lon="10.4140251"><ele>11.0</ele><time>2026-05-02T17:47:58.115Z</time></trkpt><trkpt lat="43.8082682" lon="10.4142184"><ele>12.0</ele><time>2026-05-02T17:47:59.115Z</time></trkpt><trkpt lat="43.8082576" lon="10.414416"><ele>13.0</ele><time>2026-05-02T17:48:00.114Z</time></trkpt><trkpt lat="43.8082469" lon="10.4146172"><ele>13.5</ele><time>2026-05-02T17:48:01.114Z</time></trkpt><trkpt lat="43.8082393" lon="10.4148215"><ele>14.0</ele><time>2026-05-02T17:48:02.115Z</time></trkpt><trkpt lat="43.8082271" lon="10.4150225"><ele>14.5</ele><time>2026-05-02T17:48:03.115Z</time></trkpt><trkpt lat="43.8081991" lon="10.4152281"><ele>15.0</ele><time>2026-05-02T17:48:04.115Z</time></trkpt><trkpt lat="43.8081565" lon="10.4154343"><ele>15.0</ele><time>2026-05-02T17:48:05.115Z</time></trkpt><trkpt lat="43.8081005" lon="10.4156365"><ele>15.0</ele><time>2026-05-02T17:48:06.115Z</time></trkpt><trkpt lat="43.8080279" lon="10.4158346"><ele>15.0</ele><time>2026-05-02T17:48:07.115Z</time></trkpt><trkpt lat="43.8079494" lon="10.4160307"><ele>15.0</ele><time>2026-05-02T17:48:08.114Z</time></trkpt><trkpt lat="43.8078713" lon="10.416218"><ele>15.0</ele><time>2026-05-02T17:48:09.115Z</time></trkpt><trkpt lat="43.8078003" lon="10.4163934"><ele>15.0</ele><time>2026-05-02T17:48:10.115Z</time></trkpt><trkpt lat="43.8077353" lon="10.4165637"><ele>15.0</ele><time>2026-05-02T17:48:11.115Z</time></trkpt><trkpt lat="43.8076687" lon="10.4167282"><ele>14.0</ele><time>2026-05-02T17:48:12.114Z</time></trkpt><trkpt lat="43.8076078" lon="10.4168912"><ele>13.0</ele><time>2026-05-02T17:48:13.115Z</time></trkpt><trkpt lat="43.8075427" lon="10.4170526"><ele>12.0</ele><time>2026-05-02T17:48:14.115Z</time></trkpt><trkpt lat="43.8074743" lon="10.4172186"><ele>11.0</ele><time>2026-05-02T17:48:15.115Z</time></trkpt><trkpt lat="43.8074054" lon="10.4173795"><ele>11.0</ele><time>2026-05-02T17:48:16.115Z</time></trkpt><trkpt lat="43.807344" lon="10.4175396"><ele>11.0</ele><time>2026-05-02T17:48:17.114Z</time></trkpt><trkpt lat="43.8072716" lon="10.4176988"><ele>11.0</ele><time>2026-05-02T17:48:18.115Z</time></trkpt><trkpt lat="43.8072022" lon="10.4178544"><ele>11.0</ele><time>2026-05-02T17:48:19.115Z</time></trkpt><trkpt lat="43.8071272" lon="10.4180186"><ele>11.5</ele><time>2026-05-02T17:48:20.115Z</time></trkpt><trkpt lat="43.8070585" lon="10.4181805"><ele>12.0</ele><time>2026-05-02T17:48:21.115Z</time></trkpt><trkpt lat="43.8069938" lon="10.4183306"><ele>12.5</ele><time>2026-05-02T17:48:22.115Z</time></trkpt><trkpt lat="43.8069207" lon="10.4184663"><ele>13.0</ele><time>2026-05-02T17:48:23.115Z</time></trkpt><trkpt lat="43.8068425" lon="10.4185935"><ele>12.5</ele><time>2026-05-02T17:48:24.114Z</time></trkpt><trkpt lat="43.8067494" lon="10.4187073"><ele>12.0</ele><time>2026-05-02T17:48:25.115Z</time></trkpt><trkpt lat="43.8066432" lon="10.4188034"><ele>11.5</ele><time>2026-05-02T17:48:26.115Z</time></trkpt><trkpt lat="43.8065346" lon="10.4188889"><ele>11.0</ele><time>2026-05-02T17:48:27.115Z</time></trkpt><trkpt lat="43.8064224" lon="10.418966"><ele>12.0</ele><time>2026-05-02T17:48:28.115Z</time></trkpt><trkpt lat="43.8062963" lon="10.4190337"><ele>13.0</ele><time>2026-05-02T17:48:29.115Z</time></trkpt><trkpt lat="43.8061796" lon="10.4191073"><ele>14.0</ele><time>2026-05-02T17:48:30.115Z</time></trkpt><trkpt lat="43.8060586" lon="10.419174"><ele>15.0</ele><time>2026-05-02T17:48:31.115Z</time></trkpt><trkpt lat="43.8059369" lon="10.4192441"><ele>15.0</ele><time>2026-05-02T17:48:32.115Z</time></trkpt><trkpt lat="43.8058124" lon="10.4193021"><ele>15.0</ele><time>2026-05-02T17:48:33.115Z</time></trkpt><trkpt lat="43.8056736" lon="10.4193631"><ele>15.0</ele><time>2026-05-02T17:48:34.114Z</time></trkpt><trkpt lat="43.8055464" lon="10.4194005"><ele>15.0</ele><time>2026-05-02T17:48:35.114Z</time></trkpt><trkpt lat="43.8054182" lon="10.4194442"><ele>15.0</ele><time>2026-05-02T17:48:36.115Z</time></trkpt><trkpt lat="43.8052887" lon="10.4194881"><ele>15.0</ele><time>2026-05-02T17:48:37.115Z</time></trkpt><trkpt lat="43.8051634" lon="10.4195319"><ele>15.0</ele><time>2026-05-02T17:48:38.115Z</time></trkpt><trkpt lat="43.8050364" lon="10.4195721"><ele>15.0</ele><time>2026-05-02T17:48:39.115Z</time></trkpt><trkpt lat="43.8049201" lon="10.4196124"><ele>15.75</ele><time>2026-05-02T17:48:40.115Z</time></trkpt><trkpt lat="43.8047951" lon="10.4196605"><ele>16.5</ele><time>2026-05-02T17:48:41.114Z</time></trkpt><trkpt lat="43.8046783" lon="10.4197044"><ele>17.25</ele><time>2026-05-02T17:48:42.115Z</time></trkpt><trkpt lat="43.8045526" lon="10.4197495"><ele>18.0</ele><time>2026-05-02T17:48:43.115Z</time></trkpt><trkpt lat="43.8044298" lon="10.4198082"><ele>16.5</ele><time>2026-05-02T17:48:44.114Z</time></trkpt><trkpt lat="43.8043139" lon="10.4198611"><ele>15.0</ele><time>2026-05-02T17:48:45.115Z</time></trkpt><trkpt lat="43.8041954" lon="10.419913"><ele>13.5</ele><time>2026-05-02T17:48:46.115Z</time></trkpt><trkpt lat="43.8040822" lon="10.4199554"><ele>12.0</ele><time>2026-05-02T17:48:47.113Z</time></trkpt><trkpt lat="43.8039669" lon="10.4199982"><ele>12.0</ele><time>2026-05-02T17:48:48.115Z</time></trkpt><trkpt lat="43.8038524" lon="10.4200399"><ele>12.0</ele><time>2026-05-02T17:48:49.115Z</time></trkpt><trkpt lat="43.803737" lon="10.420074"><ele>12.0</ele><time>2026-05-02T17:48:50.115Z</time></trkpt><trkpt lat="43.8036192" lon="10.4201077"><ele>12.0</ele><time>2026-05-02T17:48:51.114Z</time></trkpt><trkpt lat="43.8034981" lon="10.4201451"><ele>12.0</ele><time>2026-05-02T17:48:52.114Z</time></trkpt><trkpt lat="43.8033769" lon="10.4201856"><ele>12.0</ele><time>2026-05-02T17:48:53.115Z</time></trkpt><trkpt lat="43.8032549" lon="10.4202168"><ele>12.0</ele><time>2026-05-02T17:48:54.115Z</time></trkpt><trkpt lat="43.8031289" lon="10.4202469"><ele>12.0</ele><time>2026-05-02T17:48:55.115Z</time></trkpt><trkpt lat="43.8030019" lon="10.4202609"><ele>12.0</ele><time>2026-05-02T17:48:56.115Z</time></trkpt><trkpt lat="43.8028737" lon="10.4202716"><ele>12.0</ele><time>2026-05-02T17:48:57.115Z</time></trkpt><trkpt lat="43.8027449" lon="10.4202851"><ele>12.0</ele><time>2026-05-02T17:48:58.115Z</time></trkpt><trkpt lat="43.8026141" lon="10.4202911"><ele>12.0</ele><time>2026-05-02T17:48:59.114Z</time></trkpt><trkpt lat="43.8024877" lon="10.4203014"><ele>11.25</ele><time>2026-05-02T17:49:00.114Z</time></trkpt><trkpt lat="43.8023599" lon="10.4203112"><ele>10.5</ele><time>2026-05-02T17:49:01.115Z</time></trkpt><trkpt lat="43.8022318" lon="10.420322"><ele>9.75</ele><time>2026-05-02T17:49:02.115Z</time></trkpt><trkpt lat="43.802102" lon="10.4203344"><ele>9.0</ele><time>2026-05-02T17:49:03.114Z</time></trkpt><trkpt lat="43.8019652" lon="10.4203482"><ele>8.75</ele><time>2026-05-02T17:49:04.115Z</time></trkpt><trkpt lat="43.801829" lon="10.4203622"><ele>8.5</ele><time>2026-05-02T17:49:05.115Z</time></trkpt><trkpt lat="43.8016895" lon="10.4203792"><ele>8.25</ele><time>2026-05-02T17:49:06.114Z</time></trkpt><trkpt lat="43.8015455" lon="10.4203944"><ele>8.0</ele><time>2026-05-02T17:49:07.115Z</time></trkpt><trkpt lat="43.8013954" lon="10.4204058"><ele>8.0</ele><time>2026-05-02T17:49:08.115Z</time></trkpt><trkpt lat="43.8012534" lon="10.4204167"><ele>8.0</ele><time>2026-05-02T17:49:09.114Z</time></trkpt><trkpt lat="43.8011149" lon="10.4204354"><ele>8.0</ele><time>2026-05-02T17:49:10.115Z</time></trkpt><trkpt lat="43.8009814" lon="10.4204458"><ele>8.0</ele><time>2026-05-02T17:49:11.115Z</time></trkpt><trkpt lat="43.8008486" lon="10.4204561"><ele>7.75</ele><time>2026-05-02T17:49:12.115Z</time></trkpt><trkpt lat="43.800712" lon="10.4204672"><ele>7.5</ele><time>2026-05-02T17:49:13.115Z</time></trkpt><trkpt lat="43.8005762" lon="10.4204865"><ele>7.25</ele><time>2026-05-02T17:49:14.115Z</time></trkpt><trkpt lat="43.8004386" lon="10.4205108"><ele>7.0</ele><time>2026-05-02T17:49:15.115Z</time></trkpt><trkpt lat="43.8003029" lon="10.4205403"><ele>7.75</ele><time>2026-05-02T17:49:16.114Z</time></trkpt><trkpt lat="43.8001689" lon="10.4205756"><ele>8.5</ele><time>2026-05-02T17:49:17.115Z</time></trkpt><trkpt lat="43.8000348" lon="10.4206246"><ele>9.25</ele><time>2026-05-02T17:49:18.115Z</time></trkpt><trkpt lat="43.7999031" lon="10.4206835"><ele>10.0</ele><time>2026-05-02T17:49:19.115Z</time></trkpt><trkpt lat="43.7997718" lon="10.4207431"><ele>10.0</ele><time>2026-05-02T17:49:20.114Z</time></trkpt><trkpt lat="43.7996482" lon="10.4208133"><ele>10.0</ele><time>2026-05-02T17:49:21.115Z</time></trkpt><trkpt lat="43.7995266" lon="10.4208891"><ele>10.0</ele><time>2026-05-02T17:49:22.115Z</time></trkpt><trkpt lat="43.7994005" lon="10.420969"><ele>10.0</ele><time>2026-05-02T17:49:23.115Z</time></trkpt><trkpt lat="43.7992736" lon="10.4210474"><ele>9.0</ele><time>2026-05-02T17:49:24.114Z</time></trkpt><trkpt lat="43.7991508" lon="10.4211413"><ele>8.0</ele><time>2026-05-02T17:49:25.115Z</time></trkpt><trkpt lat="43.7990055" lon="10.4212552"><ele>7.0</ele><time>2026-05-02T17:49:26.115Z</time></trkpt><trkpt lat="43.7988556" lon="10.4213652"><ele>7.666666666666667</ele><time>2026-05-02T17:49:27.115Z</time></trkpt><trkpt lat="43.7987018" lon="10.4214739"><ele>8.333333333333334</ele><time>2026-05-02T17:49:28.115Z</time></trkpt><trkpt lat="43.7985282" lon="10.4215845"><ele>9.0</ele><time>2026-05-02T17:49:29.114Z</time></trkpt><trkpt lat="43.7983517" lon="10.4216906"><ele>9.0</ele><time>2026-05-02T17:49:30.115Z</time></trkpt><trkpt lat="43.7981745" lon="10.421785"><ele>9.0</ele><time>2026-05-02T17:49:31.115Z</time></trkpt><trkpt lat="43.798" lon="10.4218955"><ele>9.0</ele><time>2026-05-02T17:49:32.115Z</time></trkpt><trkpt lat="43.7978364" lon="10.4220093"><ele>9.0</ele><time>2026-05-02T17:49:33.114Z</time></trkpt><trkpt lat="43.7976776" lon="10.4221218"><ele>9.0</ele><time>2026-05-02T17:49:34.115Z</time></trkpt><trkpt lat="43.7975155" lon="10.4222227"><ele>9.0</ele><time>2026-05-02T17:49:35.115Z</time></trkpt><trkpt lat="43.7973592" lon="10.4223219"><ele>9.666666666666666</ele><time>2026-05-02T17:49:36.115Z</time></trkpt><trkpt lat="43.7972014" lon="10.4224212"><ele>10.333333333333332</ele><time>2026-05-02T17:49:37.115Z</time></trkpt><trkpt lat="43.7970458" lon="10.4225093"><ele>11.0</ele><time>2026-05-02T17:49:38.115Z</time></trkpt><trkpt lat="43.7968897" lon="10.4225852"><ele>10.666666666666666</ele><time>2026-05-02T17:49:39.115Z</time></trkpt><trkpt lat="43.7967384" lon="10.4226413"><ele>10.333333333333334</ele><time>2026-05-02T17:49:40.115Z</time></trkpt><trkpt lat="43.7965946" lon="10.4226819"><ele>10.0</ele><time>2026-05-02T17:49:41.115Z</time></trkpt><trkpt lat="43.7964476" lon="10.4226913"><ele>10.0</ele><time>2026-05-02T17:49:42.115Z</time></trkpt><trkpt lat="43.7963015" lon="10.4226842"><ele>10.0</ele><time>2026-05-02T17:49:43.115Z</time></trkpt><trkpt lat="43.7961637" lon="10.4226655"><ele>10.0</ele><time>2026-05-02T17:49:44.115Z</time></trkpt><trkpt lat="43.7960275" lon="10.4226494"><ele>10.0</ele><time>2026-05-02T17:49:45.115Z</time></trkpt><trkpt lat="43.7958936" lon="10.4226331"><ele>11.0</ele><time>2026-05-02T17:49:46.115Z</time></trkpt><trkpt lat="43.7957591" lon="10.4226213"><ele>12.0</ele><time>2026-05-02T17:49:47.115Z</time></trkpt><trkpt lat="43.79563" lon="10.4226064"><ele>13.0</ele><time>2026-05-02T17:49:48.115Z</time></trkpt><trkpt lat="43.7954998" lon="10.4225839"><ele>14.0</ele><time>2026-05-02T17:49:49.115Z</time></trkpt><trkpt lat="43.795385" lon="10.4225595"><ele>14.0</ele><time>2026-05-02T17:49:50.115Z</time></trkpt><trkpt lat="43.7952809" lon="10.4225312"><ele>13.999999999999998</ele><time>2026-05-02T17:49:51.115Z</time></trkpt><trkpt lat="43.7951835" lon="10.4225029"><ele>13.999999999999998</ele><time>2026-05-02T17:49:52.114Z</time></trkpt><trkpt lat="43.7950866" lon="10.4224705"><ele>14.0</ele><time>2026-05-02T17:49:53.115Z</time></trkpt><trkpt lat="43.794985" lon="10.4224433"><ele>14.0</ele><time>2026-05-02T17:49:54.115Z</time></trkpt><trkpt lat="43.794881" lon="10.4224139"><ele>13.75</ele><time>2026-05-02T17:49:55.115Z</time></trkpt><trkpt lat="43.79477" lon="10.4223789"><ele>13.5</ele><time>2026-05-02T17:49:56.114Z</time></trkpt><trkpt lat="43.7946594" lon="10.4223403"><ele>13.25</ele><time>2026-05-02T17:49:57.115Z</time></trkpt><trkpt lat="43.7945453" lon="10.4222991"><ele>13.0</ele><time>2026-05-02T17:49:58.114Z</time></trkpt><trkpt lat="43.7944317" lon="10.4222516"><ele>12.75</ele><time>2026-05-02T17:49:59.114Z</time></trkpt><trkpt lat="43.7943168" lon="10.4221954"><ele>12.5</ele><time>2026-05-02T17:50:00.115Z</time></trkpt><trkpt lat="43.7942081" lon="10.4221308"><ele>12.25</ele><time>2026-05-02T17:50:01.115Z</time></trkpt><trkpt lat="43.7940931" lon="10.4220683"><ele>12.0</ele><time>2026-05-02T17:50:02.115Z</time></trkpt><trkpt lat="43.7939816" lon="10.422001"><ele>12.0</ele><time>2026-05-02T17:50:03.115Z</time></trkpt><trkpt lat="43.7938625" lon="10.4219322"><ele>12.0</ele><time>2026-05-02T17:50:04.114Z</time></trkpt><trkpt lat="43.7937441" lon="10.4218648"><ele>12.0</ele><time>2026-05-02T17:50:05.115Z</time></trkpt><trkpt lat="43.7936275" lon="10.4217913"><ele>12.0</ele><time>2026-05-02T17:50:06.115Z</time></trkpt><trkpt lat="43.7935085" lon="10.4217153"><ele>13.0</ele><time>2026-05-02T17:50:07.115Z</time></trkpt><trkpt lat="43.7933892" lon="10.4216358"><ele>14.0</ele><time>2026-05-02T17:50:08.115Z</time></trkpt><trkpt lat="43.7932656" lon="10.4215576"><ele>15.0</ele><time>2026-05-02T17:50:09.115Z</time></trkpt><trkpt lat="43.7931529" lon="10.4214859"><ele>16.0</ele><time>2026-05-02T17:50:10.115Z</time></trkpt><trkpt lat="43.7930464" lon="10.4214155"><ele>16.0</ele><time>2026-05-02T17:50:11.115Z</time></trkpt><trkpt lat="43.7929398" lon="10.4213459"><ele>16.0</ele><time>2026-05-02T17:50:12.115Z</time></trkpt><trkpt lat="43.7928308" lon="10.4212728"><ele>16.0</ele><time>2026-05-02T17:50:13.114Z</time></trkpt><trkpt lat="43.7927157" lon="10.4212009"><ele>16.0</ele><time>2026-05-02T17:50:14.115Z</time></trkpt><trkpt lat="43.7925989" lon="10.4211292"><ele>14.25</ele><time>2026-05-02T17:50:15.115Z</time></trkpt><trkpt lat="43.7924685" lon="10.4210803"><ele>12.5</ele><time>2026-05-02T17:50:16.115Z</time></trkpt><trkpt lat="43.7923364" lon="10.4210582"><ele>10.75</ele><time>2026-05-02T17:50:17.115Z</time></trkpt><trkpt lat="43.7922123" lon="10.4210626"><ele>9.0</ele><time>2026-05-02T17:50:18.115Z</time></trkpt><trkpt lat="43.7920891" lon="10.4210905"><ele>9.0</ele><time>2026-05-02T17:50:19.115Z</time></trkpt><trkpt lat="43.7919606" lon="10.4211267"><ele>9.0</ele><time>2026-05-02T17:50:20.114Z</time></trkpt><trkpt lat="43.791824" lon="10.4211771"><ele>9.0</ele><time>2026-05-02T17:50:21.115Z</time></trkpt><trkpt lat="43.7916631" lon="10.4212452"><ele>9.0</ele><time>2026-05-02T17:50:22.115Z</time></trkpt><trkpt lat="43.7914862" lon="10.4213286"><ele>8.666666666666666</ele><time>2026-05-02T17:50:23.115Z</time></trkpt><trkpt lat="43.7912942" lon="10.4214099"><ele>8.333333333333332</ele><time>2026-05-02T17:50:24.115Z</time></trkpt><trkpt lat="43.7911035" lon="10.4214835"><ele>8.0</ele><time>2026-05-02T17:50:25.115Z</time></trkpt><trkpt lat="43.7909203" lon="10.4215458"><ele>8.0</ele><time>2026-05-02T17:50:26.115Z</time></trkpt><trkpt lat="43.7907459" lon="10.4216051"><ele>8.0</ele><time>2026-05-02T17:50:27.115Z</time></trkpt><trkpt lat="43.7905809" lon="10.4216605"><ele>8.0</ele><time>2026-05-02T17:50:28.115Z</time></trkpt><trkpt lat="43.7904221" lon="10.4217213"><ele>8.0</ele><time>2026-05-02T17:50:29.115Z</time></trkpt><trkpt lat="43.7902662" lon="10.421798"><ele>8.0</ele><time>2026-05-02T17:50:30.114Z</time></trkpt><trkpt lat="43.7901175" lon="10.4219068"><ele>8.0</ele><time>2026-05-02T17:50:31.114Z</time></trkpt><trkpt lat="43.7899755" lon="10.4220456"><ele>8.666666666666666</ele><time>2026-05-02T17:50:32.115Z</time></trkpt><trkpt lat="43.7898323" lon="10.422192"><ele>9.333333333333334</ele><time>2026-05-02T17:50:33.115Z</time></trkpt><trkpt lat="43.7896868" lon="10.422339"><ele>10.0</ele><time>2026-05-02T17:50:34.115Z</time></trkpt><trkpt lat="43.7895494" lon="10.4224805"><ele>10.0</ele><time>2026-05-02T17:50:35.115Z</time></trkpt><trkpt lat="43.7894163" lon="10.4226194"><ele>10.0</ele><time>2026-05-02T17:50:36.115Z</time></trkpt><trkpt lat="43.7892963" lon="10.4227406"><ele>10.0</ele><time>2026-05-02T17:50:37.115Z</time></trkpt><trkpt lat="43.7891777" lon="10.4228466"><ele>9.25</ele><time>2026-05-02T17:50:38.115Z</time></trkpt><trkpt lat="43.7890485" lon="10.4229016"><ele>8.5</ele><time>2026-05-02T17:50:39.115Z</time></trkpt><trkpt lat="43.7889185" lon="10.4229346"><ele>7.75</ele><time>2026-05-02T17:50:40.114Z</time></trkpt><trkpt lat="43.788777" lon="10.4229395"><ele>7.0</ele><time>2026-05-02T17:50:41.114Z</time></trkpt><trkpt lat="43.7886419" lon="10.4229149"><ele>7.0</ele><time>2026-05-02T17:50:42.115Z</time></trkpt><trkpt lat="43.7885139" lon="10.42287"><ele>7.0</ele><time>2026-05-02T17:50:43.115Z</time></trkpt><trkpt lat="43.7883935" lon="10.4228154"><ele>7.0</ele><time>2026-05-02T17:50:44.114Z</time></trkpt><trkpt lat="43.7882705" lon="10.4227305"><ele>7.0</ele><time>2026-05-02T17:50:45.115Z</time></trkpt><trkpt lat="43.7881469" lon="10.4226297"><ele>8.333333333333334</ele><time>2026-05-02T17:50:46.114Z</time></trkpt><trkpt lat="43.7880146" lon="10.4225209"><ele>9.666666666666666</ele><time>2026-05-02T17:50:47.115Z</time></trkpt><trkpt lat="43.7878746" lon="10.4224177"><ele>11.0</ele><time>2026-05-02T17:50:48.115Z</time></trkpt><trkpt lat="43.7877299" lon="10.4223244"><ele>10.5</ele><time>2026-05-02T17:50:49.115Z</time></trkpt><trkpt lat="43.7875913" lon="10.4222377"><ele>10.0</ele><time>2026-05-02T17:50:50.115Z</time></trkpt><trkpt lat="43.7874623" lon="10.4221586"><ele>9.5</ele><time>2026-05-02T17:50:51.115Z</time></trkpt><trkpt lat="43.7873403" lon="10.4220877"><ele>9.0</ele><time>2026-05-02T17:50:52.115Z</time></trkpt><trkpt lat="43.7872218" lon="10.422028"><ele>8.75</ele><time>2026-05-02T17:50:53.115Z</time></trkpt><trkpt lat="43.7871098" lon="10.4219842"><ele>8.5</ele><time>2026-05-02T17:50:54.115Z</time></trkpt><trkpt lat="43.7869891" lon="10.4219661"><ele>8.25</ele><time>2026-05-02T17:50:55.115Z</time></trkpt><trkpt lat="43.7868645" lon="10.421964"><ele>8.0</ele><time>2026-05-02T17:50:56.115Z</time></trkpt><trkpt lat="43.786739" lon="10.4219657"><ele>8.0</ele><time>2026-05-02T17:50:57.115Z</time></trkpt><trkpt lat="43.7866046" lon="10.421969"><ele>8.0</ele><time>2026-05-02T17:50:58.115Z</time></trkpt><trkpt lat="43.7864682" lon="10.421974"><ele>8.0</ele><time>2026-05-02T17:50:59.115Z</time></trkpt><trkpt lat="43.7863295" lon="10.4219755"><ele>8.0</ele><time>2026-05-02T17:51:00.115Z</time></trkpt><trkpt lat="43.7861871" lon="10.4219749"><ele>8.0</ele><time>2026-05-02T17:51:01.115Z</time></trkpt><trkpt lat="43.7860393" lon="10.4219832"><ele>8.0</ele><time>2026-05-02T17:51:02.115Z</time></trkpt><trkpt lat="43.7858922" lon="10.4220126"><ele>8.0</ele><time>2026-05-02T17:51:03.115Z</time></trkpt><trkpt lat="43.7857472" lon="10.4220655"><ele>8.0</ele><time>2026-05-02T17:51:04.115Z</time></trkpt><trkpt lat="43.785585" lon="10.4221143"><ele>10.666666666666666</ele><time>2026-05-02T17:51:05.115Z</time></trkpt><trkpt lat="43.7854239" lon="10.4221622"><ele>13.333333333333332</ele><time>2026-05-02T17:51:06.115Z</time></trkpt><trkpt lat="43.7852556" lon="10.4222191"><ele>16.0</ele><time>2026-05-02T17:51:07.115Z</time></trkpt><trkpt lat="43.7850931" lon="10.422277"><ele>16.0</ele><time>2026-05-02T17:51:08.115Z</time></trkpt><trkpt lat="43.784932" lon="10.422355"><ele>16.0</ele><time>2026-05-02T17:51:09.115Z</time></trkpt><trkpt lat="43.7847712" lon="10.4224392"><ele>16.0</ele><time>2026-05-02T17:51:10.114Z</time></trkpt><trkpt lat="43.7846133" lon="10.4225203"><ele>16.0</ele><time>2026-05-02T17:51:11.115Z</time></trkpt><trkpt lat="43.7844576" lon="10.4226054"><ele>16.0</ele><time>2026-05-02T17:51:12.115Z</time></trkpt><trkpt lat="43.7843031" lon="10.4226968"><ele>16.0</ele><time>2026-05-02T17:51:13.115Z</time></trkpt><trkpt lat="43.7841515" lon="10.4228026"><ele>13.0</ele><time>2026-05-02T17:51:14.114Z</time></trkpt><trkpt lat="43.7839994" lon="10.422912"><ele>10.0</ele><time>2026-05-02T17:51:15.115Z</time></trkpt><trkpt lat="43.783843" lon="10.4230148"><ele>7.0</ele><time>2026-05-02T17:51:16.115Z</time></trkpt><trkpt lat="43.7836804" lon="10.4231022"><ele>7.666666666666667</ele><time>2026-05-02T17:51:17.115Z</time></trkpt><trkpt lat="43.7835246" lon="10.4231848"><ele>8.333333333333334</ele><time>2026-05-02T17:51:18.115Z</time></trkpt><trkpt lat="43.7833763" lon="10.4232778"><ele>9.0</ele><time>2026-05-02T17:51:19.114Z</time></trkpt><trkpt lat="43.7832323" lon="10.4233788"><ele>9.0</ele><time>2026-05-02T17:51:20.114Z</time></trkpt><trkpt lat="43.7831068" lon="10.4235055"><ele>9.0</ele><time>2026-05-02T17:51:21.115Z</time></trkpt><trkpt lat="43.7829916" lon="10.423656"><ele>9.0</ele><time>2026-05-02T17:51:22.115Z</time></trkpt><trkpt lat="43.7829006" lon="10.4238159"><ele>8.75</ele><time>2026-05-02T17:51:23.115Z</time></trkpt><trkpt lat="43.7828237" lon="10.4239835"><ele>8.5</ele><time>2026-05-02T17:51:24.115Z</time></trkpt><trkpt lat="43.7827599" lon="10.424157"><ele>8.25</ele><time>2026-05-02T17:51:25.115Z</time></trkpt><trkpt lat="43.7827037" lon="10.4243324"><ele>8.0</ele><time>2026-05-02T17:51:26.115Z</time></trkpt><trkpt lat="43.7826411" lon="10.4244854"><ele>8.0</ele><time>2026-05-02T17:51:27.114Z</time></trkpt><trkpt lat="43.7825651" lon="10.4246329"><ele>8.0</ele><time>2026-05-02T17:51:28.115Z</time></trkpt><trkpt lat="43.7824815" lon="10.4247792"><ele>8.0</ele><time>2026-05-02T17:51:29.114Z</time></trkpt><trkpt lat="43.7823812" lon="10.4249209"><ele>8.0</ele><time>2026-05-02T17:51:30.114Z</time></trkpt><trkpt lat="43.7822707" lon="10.4250665"><ele>9.666666666666666</ele><time>2026-05-02T17:51:31.115Z</time></trkpt><trkpt lat="43.782156" lon="10.4252191"><ele>11.333333333333332</ele><time>2026-05-02T17:51:32.114Z</time></trkpt><trkpt lat="43.7820501" lon="10.425375"><ele>13.0</ele><time>2026-05-02T17:51:33.115Z</time></trkpt><trkpt lat="43.7819573" lon="10.4255308"><ele>13.25</ele><time>2026-05-02T17:51:34.115Z</time></trkpt><trkpt lat="43.7818592" lon="10.4256766"><ele>13.5</ele><time>2026-05-02T17:51:35.115Z</time></trkpt><trkpt lat="43.7817498" lon="10.4258132"><ele>13.75</ele><time>2026-05-02T17:51:36.115Z</time></trkpt><trkpt lat="43.7816275" lon="10.4259276"><ele>14.0</ele><time>2026-05-02T17:51:37.115Z</time></trkpt><trkpt lat="43.781495" lon="10.4260326"><ele>12.666666666666668</ele><time>2026-05-02T17:51:38.115Z</time></trkpt><trkpt lat="43.7813587" lon="10.4261383"><ele>11.333333333333334</ele><time>2026-05-02T17:51:39.115Z</time></trkpt><trkpt lat="43.7812175" lon="10.4262527"><ele>10.0</ele><time>2026-05-02T17:51:40.115Z</time></trkpt><trkpt lat="43.7810734" lon="10.4263692"><ele>10.333333333333334</ele><time>2026-05-02T17:51:41.115Z</time></trkpt><trkpt lat="43.7809264" lon="10.4264894"><ele>10.666666666666666</ele><time>2026-05-02T17:51:42.114Z</time></trkpt><trkpt lat="43.7807816" lon="10.4266094"><ele>11.0</ele><time>2026-05-02T17:51:43.115Z</time></trkpt><trkpt lat="43.7806461" lon="10.426716"><ele>11.0</ele><time>2026-05-02T17:51:44.115Z</time></trkpt><trkpt lat="43.7805193" lon="10.4268144"><ele>11.0</ele><time>2026-05-02T17:51:45.115Z</time></trkpt><trkpt lat="43.7803926" lon="10.4269059"><ele>11.0</ele><time>2026-05-02T17:51:46.115Z</time></trkpt><trkpt lat="43.7802696" lon="10.426987"><ele>11.0</ele><time>2026-05-02T17:51:47.115Z</time></trkpt><trkpt lat="43.7801473" lon="10.4270641"><ele>12.0</ele><time>2026-05-02T17:51:48.115Z</time></trkpt><trkpt lat="43.7800206" lon="10.4271476"><ele>13.0</ele><time>2026-05-02T17:51:49.115Z</time></trkpt><trkpt lat="43.7798921" lon="10.4272315"><ele>14.0</ele><time>2026-05-02T17:51:50.115Z</time></trkpt><trkpt lat="43.7797674" lon="10.4273149"><ele>15.0</ele><time>2026-05-02T17:51:51.115Z</time></trkpt><trkpt lat="43.7796464" lon="10.4274049"><ele>15.0</ele><time>2026-05-02T17:51:52.115Z</time></trkpt><trkpt lat="43.7795321" lon="10.4275011"><ele>15.0</ele><time>2026-05-02T17:51:53.115Z</time></trkpt><trkpt lat="43.7794252" lon="10.4275869"><ele>15.0</ele><time>2026-05-02T17:51:54.114Z</time></trkpt><trkpt lat="43.779316" lon="10.4276747"><ele>15.0</ele><time>2026-05-02T17:51:55.115Z</time></trkpt><trkpt lat="43.7792093" lon="10.4277564"><ele>13.5</ele><time>2026-05-02T17:51:56.115Z</time></trkpt><trkpt lat="43.7790922" lon="10.4278294"><ele>12.0</ele><time>2026-05-02T17:51:57.115Z</time></trkpt><trkpt lat="43.7789671" lon="10.4278804"><ele>10.5</ele><time>2026-05-02T17:51:58.114Z</time></trkpt><trkpt lat="43.7788316" lon="10.4279089"><ele>9.0</ele><time>2026-05-02T17:51:59.115Z</time></trkpt><trkpt lat="43.7786934" lon="10.427902"><ele>9.0</ele><time>2026-05-02T17:52:00.115Z</time></trkpt><trkpt lat="43.7785589" lon="10.4278679"><ele>9.0</ele><time>2026-05-02T17:52:01.114Z</time></trkpt><trkpt lat="43.7784191" lon="10.427826"><ele>9.0</ele><time>2026-05-02T17:52:02.115Z</time></trkpt><trkpt lat="43.7782707" lon="10.4278025"><ele>9.0</ele><time>2026-05-02T17:52:03.114Z</time></trkpt><trkpt lat="43.7781275" lon="10.4277936"><ele>8.75</ele><time>2026-05-02T17:52:04.115Z</time></trkpt><trkpt lat="43.7779862" lon="10.4277988"><ele>8.5</ele><time>2026-05-02T17:52:05.115Z</time></trkpt><trkpt lat="43.7778487" lon="10.4278235"><ele>8.25</ele><time>2026-05-02T17:52:06.114Z</time></trkpt><trkpt lat="43.7777159" lon="10.4278696"><ele>8.0</ele><time>2026-05-02T17:52:07.115Z</time></trkpt><trkpt lat="43.7775959" lon="10.4279475"><ele>11.0</ele><time>2026-05-02T17:52:08.115Z</time></trkpt><trkpt lat="43.7774719" lon="10.4280481"><ele>14.0</ele><time>2026-05-02T17:52:09.114Z</time></trkpt><trkpt lat="43.7773459" lon="10.4281536"><ele>17.0</ele><time>2026-05-02T17:52:10.115Z</time></trkpt><trkpt lat="43.7772197" lon="10.4282571"><ele>20.0</ele><time>2026-05-02T17:52:11.115Z</time></trkpt><trkpt lat="43.7770908" lon="10.4283644"><ele>20.0</ele><time>2026-05-02T17:52:12.115Z</time></trkpt><trkpt lat="43.7769728" lon="10.42849"><ele>20.0</ele><time>2026-05-02T17:52:13.115Z</time></trkpt><trkpt lat="43.7768545" lon="10.4286272"><ele>20.0</ele><time>2026-05-02T17:52:14.115Z</time></trkpt><trkpt lat="43.776746" lon="10.4287873"><ele>16.0</ele><time>2026-05-02T17:52:15.115Z</time></trkpt><trkpt lat="43.7766425" lon="10.4289626"><ele>12.0</ele><time>2026-05-02T17:52:16.115Z</time></trkpt><trkpt lat="43.7765445" lon="10.4291458"><ele>8.0</ele><time>2026-05-02T17:52:17.115Z</time></trkpt><trkpt lat="43.7764494" lon="10.4293295"><ele>8.0</ele><time>2026-05-02T17:52:18.115Z</time></trkpt><trkpt lat="43.7763469" lon="10.4295097"><ele>8.0</ele><time>2026-05-02T17:52:19.114Z</time></trkpt><trkpt lat="43.776251" lon="10.4296844"><ele>8.0</ele><time>2026-05-02T17:52:20.114Z</time></trkpt><trkpt lat="43.7761517" lon="10.4298502"><ele>7.75</ele><time>2026-05-02T17:52:21.115Z</time></trkpt><trkpt lat="43.7760494" lon="10.4300122"><ele>7.5</ele><time>2026-05-02T17:52:22.115Z</time></trkpt><trkpt lat="43.7759465" lon="10.4301664"><ele>7.25</ele><time>2026-05-02T17:52:23.115Z</time></trkpt><trkpt lat="43.7758454" lon="10.4303054"><ele>7.0</ele><time>2026-05-02T17:52:24.115Z</time></trkpt><trkpt lat="43.7757432" lon="10.4304268"><ele>10.25</ele><time>2026-05-02T17:52:25.115Z</time></trkpt><trkpt lat="43.7756397" lon="10.4305342"><ele>13.5</ele><time>2026-05-02T17:52:26.115Z</time></trkpt><trkpt lat="43.7755504" lon="10.4306407"><ele>16.75</ele><time>2026-05-02T17:52:27.114Z</time></trkpt><trkpt lat="43.775469" lon="10.4307424"><ele>20.0</ele><time>2026-05-02T17:52:28.115Z</time></trkpt><trkpt lat="43.7753953" lon="10.4308494"><ele>20.0</ele><time>2026-05-02T17:52:29.114Z</time></trkpt><trkpt lat="43.77532" lon="10.4309741"><ele>20.0</ele><time>2026-05-02T17:52:30.114Z</time></trkpt><trkpt lat="43.7752513" lon="10.431123"><ele>20.0</ele><time>2026-05-02T17:52:31.115Z</time></trkpt><trkpt lat="43.7751439" lon="10.4314501"><ele>17.75</ele><time>2026-05-02T17:52:33.115Z</time></trkpt><trkpt lat="43.7751057" lon="10.4316023"><ele>15.5</ele><time>2026-05-02T17:52:34.114Z</time></trkpt><trkpt lat="43.7750258" lon="10.4318755"><ele>13.25</ele><time>2026-05-02T17:52:36.115Z</time></trkpt><trkpt lat="43.7749741" lon="10.4320048"><ele>11.0</ele><time>2026-05-02T17:52:37.115Z</time></trkpt><trkpt lat="43.7749086" lon="10.4321339"><ele>12.5</ele><time>2026-05-02T17:52:38.115Z</time></trkpt><trkpt lat="43.7748388" lon="10.4322658"><ele>14.0</ele><time>2026-05-02T17:52:39.115Z</time></trkpt><trkpt lat="43.7746118" lon="10.4326654"><ele>14.0</ele><time>2026-05-02T17:52:42.115Z</time></trkpt><trkpt lat="43.774524" lon="10.4327829"><ele>14.0</ele><time>2026-05-02T17:52:43.115Z</time></trkpt><trkpt lat="43.7743995" lon="10.4328497"><ele>14.0</ele><time>2026-05-02T17:52:44.115Z</time></trkpt><trkpt lat="43.7742715" lon="10.4329113"><ele>14.0</ele><time>2026-05-02T17:52:45.115Z</time></trkpt><trkpt lat="43.774135" lon="10.4329617"><ele>13.25</ele><time>2026-05-02T17:52:46.115Z</time></trkpt><trkpt lat="43.7739941" lon="10.4330039"><ele>12.5</ele><time>2026-05-02T17:52:47.115Z</time></trkpt><trkpt lat="43.7738505" lon="10.433035"><ele>11.75</ele><time>2026-05-02T17:52:48.115Z</time></trkpt><trkpt lat="43.7737105" lon="10.4330974"><ele>11.0</ele><time>2026-05-02T17:52:49.115Z</time></trkpt><trkpt lat="43.7735696" lon="10.4331758"><ele>10.333333333333332</ele><time>2026-05-02T17:52:50.115Z</time></trkpt><trkpt lat="43.7734293" lon="10.4332773"><ele>9.666666666666666</ele><time>2026-05-02T17:52:51.114Z</time></trkpt><trkpt lat="43.7732935" lon="10.4333742"><ele>9.0</ele><time>2026-05-02T17:52:52.115Z</time></trkpt><trkpt lat="43.7731506" lon="10.4334662"><ele>9.0</ele><time>2026-05-02T17:52:53.115Z</time></trkpt><trkpt lat="43.7730039" lon="10.4335575"><ele>9.0</ele><time>2026-05-02T17:52:54.115Z</time></trkpt><trkpt lat="43.7728521" lon="10.4336373"><ele>9.0</ele><time>2026-05-02T17:52:55.115Z</time></trkpt><trkpt lat="43.7726955" lon="10.4337084"><ele>8.333333333333334</ele><time>2026-05-02T17:52:56.114Z</time></trkpt><trkpt lat="43.7725351" lon="10.4337598"><ele>7.666666666666667</ele><time>2026-05-02T17:52:57.115Z</time></trkpt><trkpt lat="43.7723782" lon="10.4338082"><ele>7.0</ele><time>2026-05-02T17:52:58.115Z</time></trkpt><trkpt lat="43.7722257" lon="10.4338577"><ele>9.0</ele><time>2026-05-02T17:52:59.115Z</time></trkpt><trkpt lat="43.7720756" lon="10.4339095"><ele>11.0</ele><time>2026-05-02T17:53:00.115Z</time></trkpt><trkpt lat="43.7719253" lon="10.433972"><ele>13.0</ele><time>2026-05-02T17:53:01.115Z</time></trkpt><trkpt lat="43.7717695" lon="10.4340559"><ele>13.0</ele><time>2026-05-02T17:53:02.115Z</time></trkpt><trkpt lat="43.7716224" lon="10.4341389"><ele>13.0</ele><time>2026-05-02T17:53:03.114Z</time></trkpt><trkpt lat="43.7714771" lon="10.4342569"><ele>13.0</ele><time>2026-05-02T17:53:04.114Z</time></trkpt><trkpt lat="43.7713365" lon="10.4343881"><ele>13.0</ele><time>2026-05-02T17:53:05.114Z</time></trkpt><trkpt lat="43.7712012" lon="10.4345322"><ele>13.0</ele><time>2026-05-02T17:53:06.115Z</time></trkpt><trkpt lat="43.7710674" lon="10.4346675"><ele>13.0</ele><time>2026-05-02T17:53:07.115Z</time></trkpt><trkpt lat="43.7709358" lon="10.434797"><ele>13.25</ele><time>2026-05-02T17:53:08.115Z</time></trkpt><trkpt lat="43.7708125" lon="10.4349153"><ele>13.5</ele><time>2026-05-02T17:53:09.115Z</time></trkpt><trkpt lat="43.7706952" lon="10.4350422"><ele>13.75</ele><time>2026-05-02T17:53:10.114Z</time></trkpt><trkpt lat="43.7706009" lon="10.4351939"><ele>14.0</ele><time>2026-05-02T17:53:11.115Z</time></trkpt><trkpt lat="43.7705135" lon="10.4353662"><ele>18.333333333333336</ele><time>2026-05-02T17:53:12.115Z</time></trkpt><trkpt lat="43.7704244" lon="10.4355469"><ele>22.666666666666668</ele><time>2026-05-02T17:53:13.115Z</time></trkpt><trkpt lat="43.7703337" lon="10.4357318"><ele>27.0</ele><time>2026-05-02T17:53:14.115Z</time></trkpt><trkpt lat="43.7702333" lon="10.4359153"><ele>21.666666666666668</ele><time>2026-05-02T17:53:15.115Z</time></trkpt><trkpt lat="43.7701346" lon="10.4360956"><ele>16.333333333333332</ele><time>2026-05-02T17:53:16.115Z</time></trkpt><trkpt lat="43.7700342" lon="10.436267"><ele>11.0</ele><time>2026-05-02T17:53:17.115Z</time></trkpt><trkpt lat="43.769928" lon="10.4364357"><ele>11.0</ele><time>2026-05-02T17:53:18.115Z</time></trkpt><trkpt lat="43.7698172" lon="10.4365988"><ele>11.0</ele><time>2026-05-02T17:53:19.115Z</time></trkpt><trkpt lat="43.7697059" lon="10.4367585"><ele>11.0</ele><time>2026-05-02T17:53:20.115Z</time></trkpt><trkpt lat="43.769596" lon="10.4369174"><ele>11.0</ele><time>2026-05-02T17:53:21.115Z</time></trkpt><trkpt lat="43.769487" lon="10.4370776"><ele>11.0</ele><time>2026-05-02T17:53:22.115Z</time></trkpt><trkpt lat="43.7693715" lon="10.4372319"><ele>11.0</ele><time>2026-05-02T17:53:23.114Z</time></trkpt><trkpt lat="43.7692541" lon="10.4373773"><ele>10.333333333333332</ele><time>2026-05-02T17:53:24.115Z</time></trkpt><trkpt lat="43.7691337" lon="10.4375108"><ele>9.666666666666666</ele><time>2026-05-02T17:53:25.114Z</time></trkpt><trkpt lat="43.7689981" lon="10.4376257"><ele>9.0</ele><time>2026-05-02T17:53:26.114Z</time></trkpt><trkpt lat="43.7688538" lon="10.4377261"><ele>9.0</ele><time>2026-05-02T17:53:27.115Z</time></trkpt><trkpt lat="43.7687103" lon="10.4378302"><ele>9.0</ele><time>2026-05-02T17:53:28.115Z</time></trkpt><trkpt lat="43.7685613" lon="10.4379397"><ele>9.0</ele><time>2026-05-02T17:53:29.115Z</time></trkpt><trkpt lat="43.7684125" lon="10.438052"><ele>11.666666666666668</ele><time>2026-05-02T17:53:30.114Z</time></trkpt><trkpt lat="43.768259" lon="10.4381601"><ele>14.333333333333334</ele><time>2026-05-02T17:53:31.115Z</time></trkpt><trkpt lat="43.7681137" lon="10.4382656"><ele>17.0</ele><time>2026-05-02T17:53:32.115Z</time></trkpt><trkpt lat="43.7679709" lon="10.4383723"><ele>17.0</ele><time>2026-05-02T17:53:33.115Z</time></trkpt><trkpt lat="43.7678264" lon="10.4384747"><ele>17.0</ele><time>2026-05-02T17:53:34.114Z</time></trkpt><trkpt lat="43.7676802" lon="10.4385751"><ele>17.0</ele><time>2026-05-02T17:53:35.114Z</time></trkpt><trkpt lat="43.7675475" lon="10.4386795"><ele>17.5</ele><time>2026-05-02T17:53:36.115Z</time></trkpt><trkpt lat="43.767423" lon="10.4387826"><ele>18.0</ele><time>2026-05-02T17:53:37.115Z</time></trkpt><trkpt lat="43.767305" lon="10.4388821"><ele>18.5</ele><time>2026-05-02T17:53:38.115Z</time></trkpt><trkpt lat="43.7671942" lon="10.438976"><ele>19.0</ele><time>2026-05-02T17:53:39.115Z</time></trkpt><trkpt lat="43.7670928" lon="10.4390565"><ele>19.0</ele><time>2026-05-02T17:53:40.114Z</time></trkpt><trkpt lat="43.7669992" lon="10.4391258"><ele>19.0</ele><time>2026-05-02T17:53:41.115Z</time></trkpt><trkpt lat="43.7669126" lon="10.4391756"><ele>19.0</ele><time>2026-05-02T17:53:42.114Z</time></trkpt><trkpt lat="43.7668256" lon="10.4391757"><ele>19.0</ele><time>2026-05-02T17:53:43.115Z</time></trkpt><trkpt lat="43.7667418" lon="10.4391329"><ele>19.0</ele><time>2026-05-02T17:53:44.114Z</time></trkpt><trkpt lat="43.7666654" lon="10.4390695"><ele>17.2</ele><time>2026-05-02T17:53:45.115Z</time></trkpt><trkpt lat="43.7665772" lon="10.4390021"><ele>15.399999999999999</ele><time>2026-05-02T17:53:46.114Z</time></trkpt><trkpt lat="43.7664893" lon="10.4389329"><ele>13.6</ele><time>2026-05-02T17:53:47.115Z</time></trkpt><trkpt lat="43.7663919" lon="10.4388573"><ele>11.8</ele><time>2026-05-02T17:53:48.115Z</time></trkpt><trkpt lat="43.7662878" lon="10.4387844"><ele>10.0</ele><time>2026-05-02T17:53:49.115Z</time></trkpt><trkpt lat="43.7661777" lon="10.4386985"><ele>8.75</ele><time>2026-05-02T17:53:50.114Z</time></trkpt><trkpt lat="43.7660686" lon="10.4386038"><ele>7.5</ele><time>2026-05-02T17:53:51.115Z</time></trkpt><trkpt lat="43.765957" lon="10.4385114"><ele>6.25</ele><time>2026-05-02T17:53:52.115Z</time></trkpt><trkpt lat="43.7658386" lon="10.4384192"><ele>5.0</ele><time>2026-05-02T17:53:53.115Z</time></trkpt><trkpt lat="43.7657214" lon="10.438327"><ele>5.0</ele><time>2026-05-02T17:53:54.115Z</time></trkpt><trkpt lat="43.7656124" lon="10.4382422"><ele>5.0</ele><time>2026-05-02T17:53:55.115Z</time></trkpt><trkpt lat="43.7655073" lon="10.4381594"><ele>5.0</ele><time>2026-05-02T17:53:56.115Z</time></trkpt><trkpt lat="43.7654126" lon="10.4380864"><ele>5.0</ele><time>2026-05-02T17:53:57.115Z</time></trkpt><trkpt lat="43.7653255" lon="10.4380105"><ele>4.833333333333334</ele><time>2026-05-02T17:53:58.115Z</time></trkpt><trkpt lat="43.7652436" lon="10.4379401"><ele>4.666666666666667</ele><time>2026-05-02T17:53:59.114Z</time></trkpt><trkpt lat="43.7651708" lon="10.4378749"><ele>4.5</ele><time>2026-05-02T17:54:00.115Z</time></trkpt><trkpt lat="43.7651126" lon="10.4378318"><ele>4.333333333333333</ele><time>2026-05-02T17:54:01.115Z</time></trkpt><trkpt lat="43.7650505" lon="10.4377793"><ele>4.166666666666666</ele><time>2026-05-02T17:54:03.114Z</time></trkpt><trkpt lat="43.7649837" lon="10.4378221"><ele>4.0</ele><time>2026-05-02T17:54:21.115Z</time></trkpt><trkpt lat="43.7648985" lon="10.4379364"><ele>4.666666666666666</ele><time>2026-05-02T17:54:23.114Z</time></trkpt><trkpt lat="43.7648463" lon="10.4380252"><ele>5.333333333333333</ele><time>2026-05-02T17:54:24.114Z</time></trkpt><trkpt lat="43.7648126" lon="10.4381107"><ele>6.0</ele><time>2026-05-02T17:54:25.115Z</time></trkpt><trkpt lat="43.7647566" lon="10.4382222"><ele>6.666666666666666</ele><time>2026-05-02T17:54:26.114Z</time></trkpt><trkpt lat="43.7647069" lon="10.4383307"><ele>7.333333333333333</ele><time>2026-05-02T17:54:27.115Z</time></trkpt><trkpt lat="43.7646496" lon="10.4384426"><ele>8.0</ele><time>2026-05-02T17:54:28.115Z</time></trkpt><trkpt lat="43.7645867" lon="10.4385623"><ele>8.0</ele><time>2026-05-02T17:54:29.115Z</time></trkpt><trkpt lat="43.7645221" lon="10.4386932"><ele>8.0</ele><time>2026-05-02T17:54:30.115Z</time></trkpt><trkpt lat="43.7644446" lon="10.4388168"><ele>8.0</ele><time>2026-05-02T17:54:31.115Z</time></trkpt><trkpt lat="43.7643595" lon="10.4389205"><ele>8.0</ele><time>2026-05-02T17:54:32.115Z</time></trkpt><trkpt lat="43.7642638" lon="10.4390182"><ele>7.25</ele><time>2026-05-02T17:54:33.114Z</time></trkpt><trkpt lat="43.764156" lon="10.4391069"><ele>6.5</ele><time>2026-05-02T17:54:34.115Z</time></trkpt><trkpt lat="43.7640471" lon="10.4392049"><ele>5.75</ele><time>2026-05-02T17:54:35.114Z</time></trkpt><trkpt lat="43.763942" lon="10.4392906"><ele>5.0</ele><time>2026-05-02T17:54:36.114Z</time></trkpt><trkpt lat="43.7638435" lon="10.4393747"><ele>5.0</ele><time>2026-05-02T17:54:37.114Z</time></trkpt><trkpt lat="43.7637525" lon="10.4394535"><ele>5.0</ele><time>2026-05-02T17:54:38.115Z</time></trkpt><trkpt lat="43.7636559" lon="10.4395387"><ele>5.0</ele><time>2026-05-02T17:54:39.115Z</time></trkpt><trkpt lat="43.7635492" lon="10.4396296"><ele>5.0</ele><time>2026-05-02T17:54:40.115Z</time></trkpt><trkpt lat="43.7634447" lon="10.439723"><ele>5.5</ele><time>2026-05-02T17:54:41.115Z</time></trkpt><trkpt lat="43.7633356" lon="10.4398244"><ele>6.0</ele><time>2026-05-02T17:54:42.115Z</time></trkpt><trkpt lat="43.7632274" lon="10.4399194"><ele>6.5</ele><time>2026-05-02T17:54:43.115Z</time></trkpt><trkpt lat="43.7631277" lon="10.4400071"><ele>7.0</ele><time>2026-05-02T17:54:44.115Z</time></trkpt><trkpt lat="43.7630279" lon="10.4400882"><ele>7.0</ele><time>2026-05-02T17:54:45.114Z</time></trkpt><trkpt lat="43.7629448" lon="10.4401716"><ele>6.999999999999999</ele><time>2026-05-02T17:54:46.115Z</time></trkpt><trkpt lat="43.7628568" lon="10.4402515"><ele>6.999999999999999</ele><time>2026-05-02T17:54:47.115Z</time></trkpt><trkpt lat="43.7627702" lon="10.4403336"><ele>7.0</ele><time>2026-05-02T17:54:48.115Z</time></trkpt><trkpt lat="43.762681" lon="10.4404096"><ele>7.0</ele><time>2026-05-02T17:54:49.115Z</time></trkpt><trkpt lat="43.7625912" lon="10.4404896"><ele>7.0</ele><time>2026-05-02T17:54:50.114Z</time></trkpt><trkpt lat="43.7624997" lon="10.4405627"><ele>6.999999999999999</ele><time>2026-05-02T17:54:51.115Z</time></trkpt><trkpt lat="43.7624125" lon="10.4406297"><ele>6.999999999999999</ele><time>2026-05-02T17:54:52.115Z</time></trkpt><trkpt lat="43.7623183" lon="10.440682"><ele>7.0</ele><time>2026-05-02T17:54:53.115Z</time></trkpt><trkpt lat="43.7622218" lon="10.4407299"><ele>7.0</ele><time>2026-05-02T17:54:54.115Z</time></trkpt><trkpt lat="43.7621204" lon="10.4407753"><ele>7.0</ele><time>2026-05-02T17:54:55.114Z</time></trkpt><trkpt lat="43.7620184" lon="10.4408213"><ele>6.999999999999999</ele><time>2026-05-02T17:54:56.115Z</time></trkpt><trkpt lat="43.7619142" lon="10.4408704"><ele>6.999999999999999</ele><time>2026-05-02T17:54:57.115Z</time></trkpt><trkpt lat="43.7618076" lon="10.4409209"><ele>7.0</ele><time>2026-05-02T17:54:58.114Z</time></trkpt><trkpt lat="43.7616972" lon="10.4409703"><ele>7.0</ele><time>2026-05-02T17:54:59.115Z</time></trkpt><trkpt lat="43.7615838" lon="10.4410161"><ele>6.75</ele><time>2026-05-02T17:55:00.114Z</time></trkpt><trkpt lat="43.7614649" lon="10.4410711"><ele>6.5</ele><time>2026-05-02T17:55:01.115Z</time></trkpt><trkpt lat="43.7613532" lon="10.4411296"><ele>6.25</ele><time>2026-05-02T17:55:02.115Z</time></trkpt><trkpt lat="43.7612465" lon="10.4411794"><ele>6.0</ele><time>2026-05-02T17:55:03.115Z</time></trkpt><trkpt lat="43.7611528" lon="10.4412252"><ele>6.0</ele><time>2026-05-02T17:55:04.115Z</time></trkpt><trkpt lat="43.7610722" lon="10.4412621"><ele>6.0</ele><time>2026-05-02T17:55:05.115Z</time></trkpt><trkpt lat="43.7610049" lon="10.4412966"><ele>6.0</ele><time>2026-05-02T17:55:06.115Z</time></trkpt><trkpt lat="43.7608987" lon="10.4413583"><ele>6.0</ele><time>2026-05-02T17:55:08.114Z</time></trkpt><trkpt lat="43.760818" lon="10.4413939"><ele>6.0</ele><time>2026-05-02T17:55:10.115Z</time></trkpt><trkpt lat="43.7607465" lon="10.4414199"><ele>6.0</ele><time>2026-05-02T17:55:14.115Z</time></trkpt><trkpt lat="43.7606407" lon="10.4414884"><ele>5.8</ele><time>2026-05-02T17:55:22.115Z</time></trkpt><trkpt lat="43.760533" lon="10.4415443"><ele>5.6</ele><time>2026-05-02T17:55:24.114Z</time></trkpt><trkpt lat="43.7604416" lon="10.4415961"><ele>5.4</ele><time>2026-05-02T17:55:26.114Z</time></trkpt><trkpt lat="43.7603434" lon="10.4416439"><ele>5.2</ele><time>2026-05-02T17:55:28.115Z</time></trkpt><trkpt lat="43.760257" lon="10.4416838"><ele>5.0</ele><time>2026-05-02T17:55:30.115Z</time></trkpt><trkpt lat="43.7601862" lon="10.441716"><ele>4.833333333333334</ele><time>2026-05-02T17:55:32.115Z</time></trkpt><trkpt lat="43.7601147" lon="10.4417477"><ele>4.666666666666667</ele><time>2026-05-02T17:55:35.115Z</time></trkpt><trkpt lat="43.7600433" lon="10.4417726"><ele>4.5</ele><time>2026-05-02T17:55:39.115Z</time></trkpt><trkpt lat="43.7599718" lon="10.441812"><ele>4.333333333333333</ele><time>2026-05-02T17:55:41.115Z</time></trkpt><trkpt lat="43.7598635" lon="10.4418469"><ele>4.166666666666666</ele><time>2026-05-02T17:55:43.115Z</time></trkpt><trkpt lat="43.7597917" lon="10.4418539"><ele>4.0</ele><time>2026-05-02T17:55:44.115Z</time></trkpt><trkpt lat="43.7597158" lon="10.4418339"><ele>3.9999999999999996</ele><time>2026-05-02T17:55:45.115Z</time></trkpt><trkpt lat="43.7596487" lon="10.441797"><ele>4.0</ele><time>2026-05-02T17:55:46.115Z</time></trkpt><trkpt lat="43.7595892" lon="10.4417562"><ele>4.0</ele><time>2026-05-02T17:55:47.114Z</time></trkpt><trkpt lat="43.7595212" lon="10.441718"><ele>4.0</ele><time>2026-05-02T17:55:48.115Z</time></trkpt><trkpt lat="43.7594545" lon="10.4417234"><ele>3.9999999999999996</ele><time>2026-05-02T17:55:49.115Z</time></trkpt><trkpt lat="43.7593706" lon="10.4418293"><ele>4.0</ele><time>2026-05-02T17:55:51.114Z</time></trkpt><trkpt lat="43.7593374" lon="10.4419136"><ele>4.2</ele><time>2026-05-02T17:55:52.115Z</time></trkpt><trkpt lat="43.7593025" lon="10.442008"><ele>4.4</ele><time>2026-05-02T17:55:53.115Z</time></trkpt><trkpt lat="43.7592515" lon="10.4421106"><ele>4.6</ele><time>2026-05-02T17:55:54.115Z</time></trkpt><trkpt lat="43.7591823" lon="10.4422145"><ele>4.8</ele><time>2026-05-02T17:55:55.115Z</time></trkpt><trkpt lat="43.7590927" lon="10.4423142"><ele>5.0</ele><time>2026-05-02T17:55:56.115Z</time></trkpt><trkpt lat="43.7590001" lon="10.4424121"><ele>4.5</ele><time>2026-05-02T17:55:57.115Z</time></trkpt><trkpt lat="43.7588929" lon="10.4425171"><ele>4.0</ele><time>2026-05-02T17:55:58.114Z</time></trkpt><trkpt lat="43.758781" lon="10.4426202"><ele>3.5</ele><time>2026-05-02T17:55:59.115Z</time></trkpt><trkpt lat="43.7586743" lon="10.4427177"><ele>3.0</ele><time>2026-05-02T17:56:00.115Z</time></trkpt><trkpt lat="43.7585747" lon="10.4428136"><ele>3.0</ele><time>2026-05-02T17:56:01.114Z</time></trkpt><trkpt lat="43.7584759" lon="10.4429018"><ele>3.0</ele><time>2026-05-02T17:56:02.114Z</time></trkpt><trkpt lat="43.7583762" lon="10.4429859"><ele>3.0</ele><time>2026-05-02T17:56:03.115Z</time></trkpt><trkpt lat="43.7582809" lon="10.4430612"><ele>3.0</ele><time>2026-05-02T17:56:04.115Z</time></trkpt><trkpt lat="43.7581886" lon="10.4431251"><ele>3.0</ele><time>2026-05-02T17:56:05.115Z</time></trkpt><trkpt lat="43.7581011" lon="10.4431759"><ele>3.0</ele><time>2026-05-02T17:56:06.115Z</time></trkpt><trkpt lat="43.758014" lon="10.443198"><ele>3.0</ele><time>2026-05-02T17:56:07.114Z</time></trkpt><trkpt lat="43.7579312" lon="10.4432011"><ele>3.0</ele><time>2026-05-02T17:56:08.115Z</time></trkpt><trkpt lat="43.7578494" lon="10.4432029"><ele>3.0</ele><time>2026-05-02T17:56:09.114Z</time></trkpt><trkpt lat="43.7577799" lon="10.4432407"><ele>3.0</ele><time>2026-05-02T17:56:10.115Z</time></trkpt><trkpt lat="43.7577258" lon="10.4433137"><ele>3.0</ele><time>2026-05-02T17:56:11.115Z</time></trkpt><trkpt lat="43.7576846" lon="10.443402"><ele>2.8</ele><time>2026-05-02T17:56:12.115Z</time></trkpt><trkpt lat="43.7576315" lon="10.4434949"><ele>2.5999999999999996</ele><time>2026-05-02T17:56:13.114Z</time></trkpt><trkpt lat="43.7575535" lon="10.443573"><ele>2.4000000000000004</ele><time>2026-05-02T17:56:14.115Z</time></trkpt><trkpt lat="43.757456" lon="10.4436328"><ele>2.2</ele><time>2026-05-02T17:56:15.115Z</time></trkpt><trkpt lat="43.757338" lon="10.4436756"><ele>2.0</ele><time>2026-05-02T17:56:16.115Z</time></trkpt><trkpt lat="43.7572116" lon="10.4437004"><ele>2.0</ele><time>2026-05-02T17:56:17.115Z</time></trkpt><trkpt lat="43.7570704" lon="10.4437227"><ele>2.0</ele><time>2026-05-02T17:56:18.115Z</time></trkpt><trkpt lat="43.7569197" lon="10.4437417"><ele>2.0</ele><time>2026-05-02T17:56:19.115Z</time></trkpt><trkpt lat="43.7567581" lon="10.4437629"><ele>2.0</ele><time>2026-05-02T17:56:20.115Z</time></trkpt><trkpt lat="43.7565952" lon="10.4437812"><ele>2.0</ele><time>2026-05-02T17:56:21.114Z</time></trkpt><trkpt lat="43.7564227" lon="10.4438002"><ele>2.0</ele><time>2026-05-02T17:56:22.115Z</time></trkpt><trkpt lat="43.756241" lon="10.443821"><ele>2.0</ele><time>2026-05-02T17:56:23.115Z</time></trkpt><trkpt lat="43.7560489" lon="10.4438499"><ele>2.0</ele><time>2026-05-02T17:56:24.115Z</time></trkpt><trkpt lat="43.7558563" lon="10.4438723"><ele>2.0</ele><time>2026-05-02T17:56:25.115Z</time></trkpt><trkpt lat="43.755671" lon="10.4438938"><ele>4.0</ele><time>2026-05-02T17:56:26.114Z</time></trkpt><trkpt lat="43.7554892" lon="10.4439168"><ele>6.0</ele><time>2026-05-02T17:56:27.114Z</time></trkpt><trkpt lat="43.7553103" lon="10.443941"><ele>8.0</ele><time>2026-05-02T17:56:28.115Z</time></trkpt><trkpt lat="43.755135" lon="10.4439614"><ele>8.0</ele><time>2026-05-02T17:56:29.115Z</time></trkpt><trkpt lat="43.7549571" lon="10.4439804"><ele>8.0</ele><time>2026-05-02T17:56:30.115Z</time></trkpt><trkpt lat="43.7547772" lon="10.4440003"><ele>8.0</ele><time>2026-05-02T17:56:31.115Z</time></trkpt><trkpt lat="43.7545991" lon="10.4440245"><ele>8.0</ele><time>2026-05-02T17:56:32.114Z</time></trkpt><trkpt lat="43.7544188" lon="10.4440497"><ele>8.0</ele><time>2026-05-02T17:56:33.115Z</time></trkpt><trkpt lat="43.7542336" lon="10.4440854"><ele>8.0</ele><time>2026-05-02T17:56:34.115Z</time></trkpt><trkpt lat="43.7540516" lon="10.4441458"><ele>7.0</ele><time>2026-05-02T17:56:35.115Z</time></trkpt><trkpt lat="43.7538746" lon="10.444238"><ele>6.0</ele><time>2026-05-02T17:56:36.115Z</time></trkpt><trkpt lat="43.7537074" lon="10.444348"><ele>5.0</ele><time>2026-05-02T17:56:37.115Z</time></trkpt><trkpt lat="43.7535619" lon="10.4444769"><ele>4.0</ele><time>2026-05-02T17:56:38.114Z</time></trkpt><trkpt lat="43.7534372" lon="10.4446263"><ele>3.0</ele><time>2026-05-02T17:56:39.114Z</time></trkpt><trkpt lat="43.7533302" lon="10.4448009"><ele>2.0</ele><time>2026-05-02T17:56:40.114Z</time></trkpt><trkpt lat="43.7532399" lon="10.4450062"><ele>4.0</ele><time>2026-05-02T17:56:41.115Z</time></trkpt><trkpt lat="43.7531632" lon="10.4452216"><ele>6.0</ele><time>2026-05-02T17:56:42.114Z</time></trkpt><trkpt lat="43.7530867" lon="10.4454467"><ele>8.0</ele><time>2026-05-02T17:56:43.115Z</time></trkpt><trkpt lat="43.7530084" lon="10.445672"><ele>9.0</ele><time>2026-05-02T17:56:44.115Z</time></trkpt><trkpt lat="43.7529295" lon="10.4458903"><ele>10.0</ele><time>2026-05-02T17:56:45.115Z</time></trkpt><trkpt lat="43.7528553" lon="10.446101"><ele>11.0</ele><time>2026-05-02T17:56:46.115Z</time></trkpt><trkpt lat="43.7527956" lon="10.4463125"><ele>13.0</ele><time>2026-05-02T17:56:47.115Z</time></trkpt><trkpt lat="43.7527469" lon="10.446533"><ele>15.0</ele><time>2026-05-02T17:56:48.115Z</time></trkpt><trkpt lat="43.7527179" lon="10.4467656"><ele>17.0</ele><time>2026-05-02T17:56:49.115Z</time></trkpt><trkpt lat="43.7527089" lon="10.4470058"><ele>22.333333333333336</ele><time>2026-05-02T17:56:50.115Z</time></trkpt><trkpt lat="43.7527189" lon="10.44725"><ele>27.666666666666668</ele><time>2026-05-02T17:56:51.115Z</time></trkpt><trkpt lat="43.7527398" lon="10.4475039"><ele>33.0</ele><time>2026-05-02T17:56:52.115Z</time></trkpt><trkpt lat="43.7527678" lon="10.4477589"><ele>34.666666666666664</ele><time>2026-05-02T17:56:53.115Z</time></trkpt><trkpt lat="43.7527894" lon="10.4480095"><ele>36.33333333333333</ele><time>2026-05-02T17:56:54.115Z</time></trkpt><trkpt lat="43.7527955" lon="10.448268"><ele>38.0</ele><time>2026-05-02T17:56:55.115Z</time></trkpt><trkpt lat="43.7527846" lon="10.4485306"><ele>35.666666666666664</ele><time>2026-05-02T17:56:56.115Z</time></trkpt><trkpt lat="43.7527624" lon="10.4487999"><ele>33.333333333333336</ele><time>2026-05-02T17:56:57.114Z</time></trkpt><trkpt lat="43.7527206" lon="10.4490632"><ele>31.0</ele><time>2026-05-02T17:56:58.115Z</time></trkpt><trkpt lat="43.7526757" lon="10.4493257"><ele>22.333333333333336</ele><time>2026-05-02T17:56:59.115Z</time></trkpt><trkpt lat="43.7526286" lon="10.4495963"><ele>13.666666666666668</ele><time>2026-05-02T17:57:00.115Z</time></trkpt><trkpt lat="43.75258" lon="10.4498653"><ele>5.0</ele><time>2026-05-02T17:57:01.114Z</time></trkpt><trkpt lat="43.7525304" lon="10.4501356"><ele>4.666666666666667</ele><time>2026-05-02T17:57:02.115Z</time></trkpt><trkpt lat="43.752477" lon="10.4504104"><ele>4.333333333333333</ele><time>2026-05-02T17:57:03.115Z</time></trkpt><trkpt lat="43.7524149" lon="10.4506793"><ele>4.0</ele><time>2026-05-02T17:57:04.115Z</time></trkpt><trkpt lat="43.7523423" lon="10.4509428"><ele>5.666666666666666</ele><time>2026-05-02T17:57:05.115Z</time></trkpt><trkpt lat="43.7522632" lon="10.4511975"><ele>7.333333333333333</ele><time>2026-05-02T17:57:06.115Z</time></trkpt><trkpt lat="43.7521857" lon="10.451444"><ele>9.0</ele><time>2026-05-02T17:57:07.114Z</time></trkpt><trkpt lat="43.7521084" lon="10.4516774"><ele>9.0</ele><time>2026-05-02T17:57:08.114Z</time></trkpt><trkpt lat="43.7520183" lon="10.4518979"><ele>9.0</ele><time>2026-05-02T17:57:09.115Z</time></trkpt><trkpt lat="43.7519092" lon="10.4521069"><ele>9.0</ele><time>2026-05-02T17:57:10.115Z</time></trkpt><trkpt lat="43.7516257" lon="10.452443"><ele>9.0</ele><time>2026-05-02T17:57:12.115Z</time></trkpt><trkpt lat="43.7514789" lon="10.4525725"><ele>9.0</ele><time>2026-05-02T17:57:13.115Z</time></trkpt><trkpt lat="43.7513349" lon="10.4527045"><ele>9.0</ele><time>2026-05-02T17:57:14.115Z</time></trkpt><trkpt lat="43.7511965" lon="10.4528425"><ele>9.666666666666666</ele><time>2026-05-02T17:57:15.114Z</time></trkpt><trkpt lat="43.7510631" lon="10.4529814"><ele>10.333333333333332</ele><time>2026-05-02T17:57:16.115Z</time></trkpt><trkpt lat="43.7509335" lon="10.4531312"><ele>11.0</ele><time>2026-05-02T17:57:17.115Z</time></trkpt><trkpt lat="43.7508234" lon="10.453306"><ele>9.666666666666666</ele><time>2026-05-02T17:57:18.115Z</time></trkpt><trkpt lat="43.7507268" lon="10.453504"><ele>8.333333333333334</ele><time>2026-05-02T17:57:19.115Z</time></trkpt><trkpt lat="43.750651" lon="10.4537277"><ele>7.0</ele><time>2026-05-02T17:57:20.115Z</time></trkpt><trkpt lat="43.7505833" lon="10.4539634"><ele>7.0</ele><time>2026-05-02T17:57:21.115Z</time></trkpt><trkpt lat="43.7505168" lon="10.4541898"><ele>7.0</ele><time>2026-05-02T17:57:22.114Z</time></trkpt><trkpt lat="43.7504538" lon="10.4544083"><ele>7.0</ele><time>2026-05-02T17:57:23.114Z</time></trkpt><trkpt lat="43.7503853" lon="10.454634"><ele>5.0</ele><time>2026-05-02T17:57:24.115Z</time></trkpt><trkpt lat="43.7503194" lon="10.4548618"><ele>3.0</ele><time>2026-05-02T17:57:25.115Z</time></trkpt><trkpt lat="43.750251" lon="10.4550883"><ele>1.0</ele><time>2026-05-02T17:57:26.114Z</time></trkpt><trkpt lat="43.7501808" lon="10.4553198"><ele>0.0</ele><time>2026-05-02T17:57:27.114Z</time></trkpt><trkpt lat="43.7501111" lon="10.4555497"><ele>-1.0</ele><time>2026-05-02T17:57:28.115Z</time></trkpt><trkpt lat="43.7500435" lon="10.4557841"><ele>-2.0</ele><time>2026-05-02T17:57:29.115Z</time></trkpt><trkpt lat="43.7499758" lon="10.4560104"><ele>-2.0</ele><time>2026-05-02T17:57:30.115Z</time></trkpt><trkpt lat="43.749909" lon="10.4562377"><ele>-2.0</ele><time>2026-05-02T17:57:31.114Z</time></trkpt><trkpt lat="43.7498474" lon="10.456454"><ele>-2.0</ele><time>2026-05-02T17:57:32.114Z</time></trkpt><trkpt lat="43.7497863" lon="10.4566649"><ele>-2.0</ele><time>2026-05-02T17:57:33.114Z</time></trkpt><trkpt lat="43.7497246" lon="10.4568726"><ele>-2.0</ele><time>2026-05-02T17:57:34.114Z</time></trkpt><trkpt lat="43.7496627" lon="10.4570804"><ele>-2.0</ele><time>2026-05-02T17:57:35.115Z</time></trkpt><trkpt lat="43.7495989" lon="10.4572893"><ele>-2.0</ele><time>2026-05-02T17:57:36.115Z</time></trkpt><trkpt lat="43.7495373" lon="10.4574959"><ele>-2.0</ele><time>2026-05-02T17:57:37.114Z</time></trkpt><trkpt lat="43.749477" lon="10.4577032"><ele>-2.0</ele><time>2026-05-02T17:57:38.115Z</time></trkpt><trkpt lat="43.7494198" lon="10.4579067"><ele>-1.6666666666666665</ele><time>2026-05-02T17:57:39.114Z</time></trkpt><trkpt lat="43.7493594" lon="10.4581078"><ele>-1.3333333333333333</ele><time>2026-05-02T17:57:40.115Z</time></trkpt><trkpt lat="43.7492992" lon="10.4583088"><ele>-1.0</ele><time>2026-05-02T17:57:41.115Z</time></trkpt><trkpt lat="43.7492395" lon="10.4585079"><ele>-1.0</ele><time>2026-05-02T17:57:42.115Z</time></trkpt><trkpt lat="43.7491776" lon="10.4587068"><ele>-1.0</ele><time>2026-05-02T17:57:43.115Z</time></trkpt><trkpt lat="43.7491167" lon="10.4589062"><ele>-1.0</ele><time>2026-05-02T17:57:44.115Z</time></trkpt><trkpt lat="43.7490617" lon="10.4591073"><ele>-0.6666666666666666</ele><time>2026-05-02T17:57:45.115Z</time></trkpt><trkpt lat="43.7490061" lon="10.4593068"><ele>-0.3333333333333333</ele><time>2026-05-02T17:57:46.115Z</time></trkpt><trkpt lat="43.7489506" lon="10.459504"><ele>0.0</ele><time>2026-05-02T17:57:47.115Z</time></trkpt><trkpt lat="43.7488906" lon="10.4597046"><ele>0.6666666666666666</ele><time>2026-05-02T17:57:48.114Z</time></trkpt><trkpt lat="43.7488322" lon="10.4599056"><ele>1.3333333333333333</ele><time>2026-05-02T17:57:49.114Z</time></trkpt><trkpt lat="43.7487721" lon="10.4601029"><ele>2.0</ele><time>2026-05-02T17:57:50.115Z</time></trkpt><trkpt lat="43.748712" lon="10.4603052"><ele>1.6666666666666665</ele><time>2026-05-02T17:57:51.115Z</time></trkpt><trkpt lat="43.7486533" lon="10.4605048"><ele>1.3333333333333333</ele><time>2026-05-02T17:57:52.115Z</time></trkpt><trkpt lat="43.7485954" lon="10.4607014"><ele>1.0</ele><time>2026-05-02T17:57:53.115Z</time></trkpt><trkpt lat="43.7485393" lon="10.4608945"><ele>1.0</ele><time>2026-05-02T17:57:54.115Z</time></trkpt><trkpt lat="43.7484855" lon="10.461085"><ele>1.0</ele><time>2026-05-02T17:57:55.115Z</time></trkpt><trkpt lat="43.748433" lon="10.4612671"><ele>1.0</ele><time>2026-05-02T17:57:56.115Z</time></trkpt><trkpt lat="43.7483856" lon="10.4614407"><ele>1.0</ele><time>2026-05-02T17:57:57.115Z</time></trkpt><trkpt lat="43.7483398" lon="10.4616117"><ele>1.0</ele><time>2026-05-02T17:57:58.114Z</time></trkpt><trkpt lat="43.748292" lon="10.4617704"><ele>1.0</ele><time>2026-05-02T17:57:59.115Z</time></trkpt><trkpt lat="43.7482473" lon="10.4619196"><ele>1.0</ele><time>2026-05-02T17:58:00.115Z</time></trkpt><trkpt lat="43.7482074" lon="10.4620679"><ele>1.0</ele><time>2026-05-02T17:58:01.115Z</time></trkpt><trkpt lat="43.7481661" lon="10.4622063"><ele>1.2000000000000002</ele><time>2026-05-02T17:58:02.114Z</time></trkpt><trkpt lat="43.7481238" lon="10.462338"><ele>1.4000000000000001</ele><time>2026-05-02T17:58:03.115Z</time></trkpt><trkpt lat="43.7480845" lon="10.4624647"><ele>1.6</ele><time>2026-05-02T17:58:04.114Z</time></trkpt><trkpt lat="43.7480453" lon="10.4625902"><ele>1.8</ele><time>2026-05-02T17:58:05.114Z</time></trkpt><trkpt lat="43.7480024" lon="10.4627005"><ele>2.0</ele><time>2026-05-02T17:58:06.115Z</time></trkpt><trkpt lat="43.747965" lon="10.4627857"><ele>1.9999999999999998</ele><time>2026-05-02T17:58:07.115Z</time></trkpt><trkpt lat="43.7478932" lon="10.4628744"><ele>2.0</ele><time>2026-05-02T17:58:09.115Z</time></trkpt><trkpt lat="43.7477933" lon="10.4629375"><ele>2.0</ele><time>2026-05-02T17:58:11.115Z</time></trkpt><trkpt lat="43.7477404" lon="10.4630003"><ele>2.0</ele><time>2026-05-02T17:58:12.115Z</time></trkpt><trkpt lat="43.7477032" lon="10.4630782"><ele>1.9999999999999998</ele><time>2026-05-02T17:58:13.114Z</time></trkpt><trkpt lat="43.7477002" lon="10.463186"><ele>2.0</ele><time>2026-05-02T17:58:14.115Z</time></trkpt><trkpt lat="43.7476825" lon="10.463293"><ele>1.9999999999999998</ele><time>2026-05-02T17:58:15.115Z</time></trkpt><trkpt lat="43.7476556" lon="10.4634087"><ele>2.0</ele><time>2026-05-02T17:58:16.115Z</time></trkpt><trkpt lat="43.747613" lon="10.463522"><ele>2.0</ele><time>2026-05-02T17:58:17.115Z</time></trkpt><trkpt lat="43.7475628" lon="10.4636209"><ele>2.0</ele><time>2026-05-02T17:58:18.115Z</time></trkpt><trkpt lat="43.7475106" lon="10.4637083"><ele>1.9999999999999998</ele><time>2026-05-02T17:58:19.115Z</time></trkpt><trkpt lat="43.7474654" lon="10.4637836"><ele>2.0</ele><time>2026-05-02T17:58:20.115Z</time></trkpt><trkpt lat="43.7473973" lon="10.4638845"><ele>2.333333333333333</ele><time>2026-05-02T17:58:22.115Z</time></trkpt><trkpt lat="43.7473157" lon="10.463979"><ele>2.6666666666666665</ele><time>2026-05-02T17:58:24.115Z</time></trkpt><trkpt lat="43.7472607" lon="10.4640236"><ele>3.0</ele><time>2026-05-02T17:58:25.114Z</time></trkpt><trkpt lat="43.7472016" lon="10.4640767"><ele>3.333333333333333</ele><time>2026-05-02T17:58:26.115Z</time></trkpt><trkpt lat="43.7471364" lon="10.4641385"><ele>3.6666666666666665</ele><time>2026-05-02T17:58:27.115Z</time></trkpt><trkpt lat="43.7470648" lon="10.4642111"><ele>4.0</ele><time>2026-05-02T17:58:28.115Z</time></trkpt><trkpt lat="43.7469813" lon="10.4642867"><ele>4.0</ele><time>2026-05-02T17:58:29.115Z</time></trkpt><trkpt lat="43.7468896" lon="10.464371"><ele>4.0</ele><time>2026-05-02T17:58:30.115Z</time></trkpt><trkpt lat="43.7467912" lon="10.4644564"><ele>4.0</ele><time>2026-05-02T17:58:31.115Z</time></trkpt><trkpt lat="43.7466859" lon="10.4645583"><ele>4.0</ele><time>2026-05-02T17:58:32.115Z</time></trkpt><trkpt lat="43.7465748" lon="10.4646601"><ele>4.5</ele><time>2026-05-02T17:58:33.115Z</time></trkpt><trkpt lat="43.7464594" lon="10.4647602"><ele>5.0</ele><time>2026-05-02T17:58:34.115Z</time></trkpt><trkpt lat="43.7463375" lon="10.4648683"><ele>5.5</ele><time>2026-05-02T17:58:35.115Z</time></trkpt><trkpt lat="43.7462126" lon="10.4649819"><ele>6.0</ele><time>2026-05-02T17:58:36.114Z</time></trkpt><trkpt lat="43.7460806" lon="10.4651004"><ele>5.0</ele><time>2026-05-02T17:58:37.115Z</time></trkpt><trkpt lat="43.7459455" lon="10.4652197"><ele>4.0</ele><time>2026-05-02T17:58:38.115Z</time></trkpt><trkpt lat="43.7458052" lon="10.4653451"><ele>3.0</ele><time>2026-05-02T17:58:39.115Z</time></trkpt><trkpt lat="43.7456674" lon="10.4654659"><ele>3.0</ele><time>2026-05-02T17:58:40.115Z</time></trkpt><trkpt lat="43.7455237" lon="10.4655925"><ele>3.0</ele><time>2026-05-02T17:58:41.115Z</time></trkpt><trkpt lat="43.7453808" lon="10.4657175"><ele>3.0</ele><time>2026-05-02T17:58:42.115Z</time></trkpt><trkpt lat="43.7452355" lon="10.4658414"><ele>2.3333333333333335</ele><time>2026-05-02T17:58:43.114Z</time></trkpt><trkpt lat="43.7450942" lon="10.4659701"><ele>1.6666666666666665</ele><time>2026-05-02T17:58:44.114Z</time></trkpt><trkpt lat="43.7449501" lon="10.4661027"><ele>1.0</ele><time>2026-05-02T17:58:45.114Z</time></trkpt><trkpt lat="43.7448022" lon="10.4662326"><ele>1.6666666666666665</ele><time>2026-05-02T17:58:46.114Z</time></trkpt><trkpt lat="43.7446534" lon="10.4663654"><ele>2.3333333333333335</ele><time>2026-05-02T17:58:47.115Z</time></trkpt><trkpt lat="43.7445017" lon="10.4665028"><ele>3.0</ele><time>2026-05-02T17:58:48.115Z</time></trkpt><trkpt lat="43.7443482" lon="10.4666382"><ele>3.0</ele><time>2026-05-02T17:58:49.115Z</time></trkpt><trkpt lat="43.7441933" lon="10.4667774"><ele>3.0</ele><time>2026-05-02T17:58:50.114Z</time></trkpt><trkpt lat="43.7440341" lon="10.4669139"><ele>3.0</ele><time>2026-05-02T17:58:51.115Z</time></trkpt><trkpt lat="43.7438697" lon="10.4670456"><ele>2.3333333333333335</ele><time>2026-05-02T17:58:52.115Z</time></trkpt><trkpt lat="43.7436995" lon="10.4671725"><ele>1.6666666666666665</ele><time>2026-05-02T17:58:53.114Z</time></trkpt><trkpt lat="43.7435273" lon="10.467298"><ele>1.0</ele><time>2026-05-02T17:58:54.115Z</time></trkpt><trkpt lat="43.7433589" lon="10.4674259"><ele>1.0</ele><time>2026-05-02T17:58:55.115Z</time></trkpt><trkpt lat="43.743195" lon="10.467565"><ele>1.0</ele><time>2026-05-02T17:58:56.115Z</time></trkpt><trkpt lat="43.7430309" lon="10.4677081"><ele>1.0</ele><time>2026-05-02T17:58:57.115Z</time></trkpt><trkpt lat="43.7428711" lon="10.4678632"><ele>2.0</ele><time>2026-05-02T17:58:58.115Z</time></trkpt><trkpt lat="43.7427126" lon="10.4680194"><ele>3.0</ele><time>2026-05-02T17:58:59.114Z</time></trkpt><trkpt lat="43.7425509" lon="10.4681714"><ele>4.0</ele><time>2026-05-02T17:59:00.115Z</time></trkpt><trkpt lat="43.7423888" lon="10.4683097"><ele>4.0</ele><time>2026-05-02T17:59:01.115Z</time></trkpt><trkpt lat="43.7422297" lon="10.4684299"><ele>4.0</ele><time>2026-05-02T17:59:02.115Z</time></trkpt><trkpt lat="43.7420764" lon="10.4685349"><ele>4.0</ele><time>2026-05-02T17:59:03.115Z</time></trkpt><trkpt lat="43.74193" lon="10.4686296"><ele>3.333333333333333</ele><time>2026-05-02T17:59:04.114Z</time></trkpt><trkpt lat="43.7417966" lon="10.4687412"><ele>2.6666666666666665</ele><time>2026-05-02T17:59:05.115Z</time></trkpt><trkpt lat="43.7416735" lon="10.4688842"><ele>2.0</ele><time>2026-05-02T17:59:06.115Z</time></trkpt><trkpt lat="43.7415609" lon="10.4690567"><ele>4.333333333333333</ele><time>2026-05-02T17:59:07.114Z</time></trkpt><trkpt lat="43.7414568" lon="10.4692562"><ele>6.666666666666667</ele><time>2026-05-02T17:59:08.115Z</time></trkpt><trkpt lat="43.7413716" lon="10.469473"><ele>9.0</ele><time>2026-05-02T17:59:09.115Z</time></trkpt><trkpt lat="43.7412983" lon="10.4697104"><ele>13.0</ele><time>2026-05-02T17:59:10.115Z</time></trkpt><trkpt lat="43.7412329" lon="10.4699562"><ele>17.0</ele><time>2026-05-02T17:59:11.115Z</time></trkpt><trkpt lat="43.7411655" lon="10.4702015"><ele>21.0</ele><time>2026-05-02T17:59:12.115Z</time></trkpt><trkpt lat="43.7410804" lon="10.4704365"><ele>15.333333333333334</ele><time>2026-05-02T17:59:13.115Z</time></trkpt><trkpt lat="43.7409678" lon="10.4706479"><ele>9.666666666666666</ele><time>2026-05-02T17:59:14.115Z</time></trkpt><trkpt lat="43.740836" lon="10.4708346"><ele>4.0</ele><time>2026-05-02T17:59:15.115Z</time></trkpt><trkpt lat="43.7406953" lon="10.4710109"><ele>4.0</ele><time>2026-05-02T17:59:16.115Z</time></trkpt><trkpt lat="43.7405536" lon="10.4711901"><ele>4.0</ele><time>2026-05-02T17:59:17.115Z</time></trkpt><trkpt lat="43.7404144" lon="10.4713715"><ele>4.0</ele><time>2026-05-02T17:59:18.115Z</time></trkpt><trkpt lat="43.740271" lon="10.4715502"><ele>3.333333333333333</ele><time>2026-05-02T17:59:19.115Z</time></trkpt><trkpt lat="43.7401322" lon="10.4717257"><ele>2.6666666666666665</ele><time>2026-05-02T17:59:20.115Z</time></trkpt><trkpt lat="43.7399981" lon="10.4718898"><ele>2.0</ele><time>2026-05-02T17:59:21.115Z</time></trkpt><trkpt lat="43.7398672" lon="10.4720518"><ele>3.666666666666667</ele><time>2026-05-02T17:59:22.115Z</time></trkpt><trkpt lat="43.7397382" lon="10.4722087"><ele>5.333333333333334</ele><time>2026-05-02T17:59:23.115Z</time></trkpt><trkpt lat="43.7396102" lon="10.4723603"><ele>7.0</ele><time>2026-05-02T17:59:24.115Z</time></trkpt><trkpt lat="43.7394803" lon="10.4725152"><ele>5.666666666666667</ele><time>2026-05-02T17:59:25.114Z</time></trkpt><trkpt lat="43.7393463" lon="10.4726677"><ele>4.333333333333334</ele><time>2026-05-02T17:59:26.114Z</time></trkpt><trkpt lat="43.7392062" lon="10.4728138"><ele>3.0</ele><time>2026-05-02T17:59:27.114Z</time></trkpt><trkpt lat="43.739057" lon="10.4729576"><ele>4.0</ele><time>2026-05-02T17:59:28.115Z</time></trkpt><trkpt lat="43.7388993" lon="10.4730885"><ele>5.0</ele><time>2026-05-02T17:59:29.115Z</time></trkpt><trkpt lat="43.7387293" lon="10.4731982"><ele>6.0</ele><time>2026-05-02T17:59:30.115Z</time></trkpt><trkpt lat="43.7385475" lon="10.4732848"><ele>6.0</ele><time>2026-05-02T17:59:31.115Z</time></trkpt><trkpt lat="43.7383565" lon="10.4733525"><ele>6.0</ele><time>2026-05-02T17:59:32.114Z</time></trkpt><trkpt lat="43.7381645" lon="10.4734047"><ele>6.0</ele><time>2026-05-02T17:59:33.115Z</time></trkpt><trkpt lat="43.7379676" lon="10.473425"><ele>6.0</ele><time>2026-05-02T17:59:34.115Z</time></trkpt><trkpt lat="43.7377709" lon="10.4734128"><ele>6.0</ele><time>2026-05-02T17:59:35.114Z</time></trkpt><trkpt lat="43.7375763" lon="10.4733834"><ele>6.0</ele><time>2026-05-02T17:59:36.115Z</time></trkpt><trkpt lat="43.7373848" lon="10.4733456"><ele>5.666666666666667</ele><time>2026-05-02T17:59:37.115Z</time></trkpt><trkpt lat="43.7371984" lon="10.4733101"><ele>5.333333333333334</ele><time>2026-05-02T17:59:38.114Z</time></trkpt><trkpt lat="43.7370111" lon="10.4732779"><ele>5.0</ele><time>2026-05-02T17:59:39.115Z</time></trkpt><trkpt lat="43.7368226" lon="10.47327"><ele>5.0</ele><time>2026-05-02T17:59:40.115Z</time></trkpt><trkpt lat="43.7366333" lon="10.4732992"><ele>5.0</ele><time>2026-05-02T17:59:41.115Z</time></trkpt><trkpt lat="43.7364487" lon="10.473369"><ele>5.0</ele><time>2026-05-02T17:59:42.115Z</time></trkpt><trkpt lat="43.7362639" lon="10.4734529"><ele>5.0</ele><time>2026-05-02T17:59:43.115Z</time></trkpt><trkpt lat="43.7360923" lon="10.4735569"><ele>5.0</ele><time>2026-05-02T17:59:44.114Z</time></trkpt><trkpt lat="43.7359308" lon="10.4736828"><ele>5.0</ele><time>2026-05-02T17:59:45.115Z</time></trkpt><trkpt lat="43.7357927" lon="10.4738316"><ele>4.666666666666667</ele><time>2026-05-02T17:59:46.115Z</time></trkpt><trkpt lat="43.7356746" lon="10.4740085"><ele>4.333333333333333</ele><time>2026-05-02T17:59:47.115Z</time></trkpt><trkpt lat="43.7355905" lon="10.4742042"><ele>4.0</ele><time>2026-05-02T17:59:48.115Z</time></trkpt><trkpt lat="43.7355275" lon="10.4744227"><ele>4.333333333333333</ele><time>2026-05-02T17:59:49.115Z</time></trkpt><trkpt lat="43.735486" lon="10.4746623"><ele>4.666666666666667</ele><time>2026-05-02T17:59:50.114Z</time></trkpt><trkpt lat="43.7354625" lon="10.474908"><ele>5.0</ele><time>2026-05-02T17:59:51.115Z</time></trkpt><trkpt lat="43.7354515" lon="10.4751598"><ele>5.0</ele><time>2026-05-02T17:59:52.115Z</time></trkpt><trkpt lat="43.7354481" lon="10.4754133"><ele>5.0</ele><time>2026-05-02T17:59:53.114Z</time></trkpt><trkpt lat="43.7354266" lon="10.4756623"><ele>5.0</ele><time>2026-05-02T17:59:54.115Z</time></trkpt><trkpt lat="43.7353804" lon="10.4759016"><ele>4.666666666666667</ele><time>2026-05-02T17:59:55.114Z</time></trkpt><trkpt lat="43.7353172" lon="10.4761392"><ele>4.333333333333333</ele><time>2026-05-02T17:59:56.115Z</time></trkpt><trkpt lat="43.7352413" lon="10.4763733"><ele>4.0</ele><time>2026-05-02T17:59:57.115Z</time></trkpt><trkpt lat="43.7351458" lon="10.4765848"><ele>4.0</ele><time>2026-05-02T17:59:58.115Z</time></trkpt><trkpt lat="43.7350309" lon="10.4767846"><ele>4.0</ele><time>2026-05-02T17:59:59.115Z</time></trkpt><trkpt lat="43.7349013" lon="10.4769664"><ele>4.0</ele><time>2026-05-02T18:00:00.115Z</time></trkpt><trkpt lat="43.7347572" lon="10.4771301"><ele>5.0</ele><time>2026-05-02T18:00:01.115Z</time></trkpt><trkpt lat="43.734604" lon="10.4772797"><ele>6.0</ele><time>2026-05-02T18:00:02.115Z</time></trkpt><trkpt lat="43.7344465" lon="10.4774295"><ele>7.0</ele><time>2026-05-02T18:00:03.115Z</time></trkpt><trkpt lat="43.7342893" lon="10.4775821"><ele>7.0</ele><time>2026-05-02T18:00:04.115Z</time></trkpt><trkpt lat="43.7341353" lon="10.4777363"><ele>7.0</ele><time>2026-05-02T18:00:05.114Z</time></trkpt><trkpt lat="43.7339796" lon="10.4778914"><ele>7.0</ele><time>2026-05-02T18:00:06.115Z</time></trkpt><trkpt lat="43.7338291" lon="10.4780345"><ele>7.666666666666667</ele><time>2026-05-02T18:00:07.115Z</time></trkpt><trkpt lat="43.7336871" lon="10.4781749"><ele>8.333333333333334</ele><time>2026-05-02T18:00:08.114Z</time></trkpt><trkpt lat="43.733555" lon="10.4783054"><ele>9.0</ele><time>2026-05-02T18:00:09.115Z</time></trkpt><trkpt lat="43.7334329" lon="10.4784246"><ele>9.0</ele><time>2026-05-02T18:00:10.115Z</time></trkpt><trkpt lat="43.7333181" lon="10.4785358"><ele>9.0</ele><time>2026-05-02T18:00:11.115Z</time></trkpt><trkpt lat="43.7332156" lon="10.4786347"><ele>9.0</ele><time>2026-05-02T18:00:12.115Z</time></trkpt><trkpt lat="43.733121" lon="10.4787244"><ele>9.0</ele><time>2026-05-02T18:00:13.115Z</time></trkpt><trkpt lat="43.7330349" lon="10.4788024"><ele>9.0</ele><time>2026-05-02T18:00:14.115Z</time></trkpt><trkpt lat="43.7329623" lon="10.4788753"><ele>9.0</ele><time>2026-05-02T18:00:15.115Z</time></trkpt><trkpt lat="43.7328943" lon="10.4789331"><ele>9.0</ele><time>2026-05-02T18:00:16.114Z</time></trkpt><trkpt lat="43.7328317" lon="10.4789803"><ele>9.0</ele><time>2026-05-02T18:00:17.115Z</time></trkpt><trkpt lat="43.7327344" lon="10.4790543"><ele>9.0</ele><time>2026-05-02T18:00:19.115Z</time></trkpt><trkpt lat="43.7326606" lon="10.4791239"><ele>9.0</ele><time>2026-05-02T18:00:21.115Z</time></trkpt><trkpt lat="43.7325942" lon="10.4791827"><ele>8.6</ele><time>2026-05-02T18:00:23.115Z</time></trkpt><trkpt lat="43.7325464" lon="10.4792421"><ele>8.2</ele><time>2026-05-02T18:00:26.114Z</time></trkpt><trkpt lat="43.7324732" lon="10.4793177"><ele>7.799999999999999</ele><time>2026-05-02T18:00:33.115Z</time></trkpt><trkpt lat="43.7323746" lon="10.4794469"><ele>7.3999999999999995</ele><time>2026-05-02T18:00:35.115Z</time></trkpt><trkpt lat="43.7323128" lon="10.4795231"><ele>7.0</ele><time>2026-05-02T18:00:36.115Z</time></trkpt><trkpt lat="43.7322522" lon="10.47961"><ele>7.0</ele><time>2026-05-02T18:00:37.115Z</time></trkpt><trkpt lat="43.7321825" lon="10.479709"><ele>7.0</ele><time>2026-05-02T18:00:38.114Z</time></trkpt><trkpt lat="43.7321047" lon="10.4798239"><ele>7.0</ele><time>2026-05-02T18:00:39.115Z</time></trkpt><trkpt lat="43.7320251" lon="10.4799551"><ele>7.0</ele><time>2026-05-02T18:00:40.115Z</time></trkpt><trkpt lat="43.7319385" lon="10.4800955"><ele>6.25</ele><time>2026-05-02T18:00:41.114Z</time></trkpt><trkpt lat="43.7318479" lon="10.4802426"><ele>5.5</ele><time>2026-05-02T18:00:42.115Z</time></trkpt><trkpt lat="43.7317532" lon="10.4803977"><ele>4.75</ele><time>2026-05-02T18:00:43.115Z</time></trkpt><trkpt lat="43.7316576" lon="10.480563"><ele>4.0</ele><time>2026-05-02T18:00:44.115Z</time></trkpt><trkpt lat="43.7315561" lon="10.4807393"><ele>4.0</ele><time>2026-05-02T18:00:45.115Z</time></trkpt><trkpt lat="43.7314505" lon="10.4809245"><ele>4.0</ele><time>2026-05-02T18:00:46.115Z</time></trkpt><trkpt lat="43.7313501" lon="10.4811117"><ele>4.0</ele><time>2026-05-02T18:00:47.114Z</time></trkpt><trkpt lat="43.7312457" lon="10.4812993"><ele>4.333333333333333</ele><time>2026-05-02T18:00:48.115Z</time></trkpt><trkpt lat="43.7311408" lon="10.4814896"><ele>4.666666666666667</ele><time>2026-05-02T18:00:49.115Z</time></trkpt><trkpt lat="43.7310282" lon="10.4816871"><ele>5.0</ele><time>2026-05-02T18:00:50.115Z</time></trkpt><trkpt lat="43.7309206" lon="10.4818899"><ele>4.333333333333334</ele><time>2026-05-02T18:00:51.115Z</time></trkpt><trkpt lat="43.7308073" lon="10.4820951"><ele>3.666666666666667</ele><time>2026-05-02T18:00:52.115Z</time></trkpt><trkpt lat="43.7306939" lon="10.4823023"><ele>3.0</ele><time>2026-05-02T18:00:53.115Z</time></trkpt><trkpt lat="43.7305823" lon="10.482516"><ele>2.6666666666666665</ele><time>2026-05-02T18:00:54.115Z</time></trkpt><trkpt lat="43.7304658" lon="10.4827348"><ele>2.333333333333333</ele><time>2026-05-02T18:00:55.115Z</time></trkpt><trkpt lat="43.7303434" lon="10.4829522"><ele>2.0</ele><time>2026-05-02T18:00:56.115Z</time></trkpt><trkpt lat="43.7302271" lon="10.4831658"><ele>1.0</ele><time>2026-05-02T18:00:57.115Z</time></trkpt><trkpt lat="43.7301094" lon="10.4833783"><ele>0.0</ele><time>2026-05-02T18:00:58.115Z</time></trkpt><trkpt lat="43.7299897" lon="10.4835942"><ele>-1.0</ele><time>2026-05-02T18:00:59.115Z</time></trkpt><trkpt lat="43.7298657" lon="10.4838132"><ele>-1.0</ele><time>2026-05-02T18:01:00.114Z</time></trkpt><trkpt lat="43.7297443" lon="10.4840388"><ele>-1.0</ele><time>2026-05-02T18:01:01.115Z</time></trkpt><trkpt lat="43.7296193" lon="10.4842693"><ele>-1.0</ele><time>2026-05-02T18:01:02.115Z</time></trkpt><trkpt lat="43.7294928" lon="10.484498"><ele>0.6666666666666666</ele><time>2026-05-02T18:01:03.115Z</time></trkpt><trkpt lat="43.7293611" lon="10.4847221"><ele>2.333333333333333</ele><time>2026-05-02T18:01:04.115Z</time></trkpt><trkpt lat="43.7292271" lon="10.4849427"><ele>4.0</ele><time>2026-05-02T18:01:05.114Z</time></trkpt><trkpt lat="43.7290884" lon="10.4851588"><ele>4.0</ele><time>2026-05-02T18:01:06.114Z</time></trkpt><trkpt lat="43.7289485" lon="10.4853811"><ele>4.0</ele><time>2026-05-02T18:01:07.114Z</time></trkpt><trkpt lat="43.7288005" lon="10.4855966"><ele>4.0</ele><time>2026-05-02T18:01:08.115Z</time></trkpt><trkpt lat="43.7286531" lon="10.4858134"><ele>3.333333333333333</ele><time>2026-05-02T18:01:09.115Z</time></trkpt><trkpt lat="43.7285016" lon="10.4860297"><ele>2.6666666666666665</ele><time>2026-05-02T18:01:10.115Z</time></trkpt><trkpt lat="43.7283467" lon="10.4862451"><ele>2.0</ele><time>2026-05-02T18:01:11.115Z</time></trkpt><trkpt lat="43.728194" lon="10.4864563"><ele>3.333333333333333</ele><time>2026-05-02T18:01:12.115Z</time></trkpt><trkpt lat="43.7280439" lon="10.4866693"><ele>4.666666666666667</ele><time>2026-05-02T18:01:13.114Z</time></trkpt><trkpt lat="43.7278957" lon="10.4868844"><ele>6.0</ele><time>2026-05-02T18:01:14.115Z</time></trkpt><trkpt lat="43.7277464" lon="10.4870974"><ele>5.333333333333333</ele><time>2026-05-02T18:01:15.115Z</time></trkpt><trkpt lat="43.7275973" lon="10.4873105"><ele>4.666666666666666</ele><time>2026-05-02T18:01:16.115Z</time></trkpt><trkpt lat="43.7274517" lon="10.487526"><ele>4.0</ele><time>2026-05-02T18:01:17.114Z</time></trkpt><trkpt lat="43.7273135" lon="10.4877426"><ele>5.666666666666666</ele><time>2026-05-02T18:01:18.114Z</time></trkpt><trkpt lat="43.7271866" lon="10.4879666"><ele>7.333333333333333</ele><time>2026-05-02T18:01:19.114Z</time></trkpt><trkpt lat="43.7270702" lon="10.4882048"><ele>9.0</ele><time>2026-05-02T18:01:20.115Z</time></trkpt><trkpt lat="43.7269658" lon="10.4884537"><ele>9.0</ele><time>2026-05-02T18:01:21.115Z</time></trkpt><trkpt lat="43.7268667" lon="10.4887085"><ele>9.0</ele><time>2026-05-02T18:01:22.114Z</time></trkpt><trkpt lat="43.7267681" lon="10.4889642"><ele>9.0</ele><time>2026-05-02T18:01:23.115Z</time></trkpt><trkpt lat="43.7266665" lon="10.4892171"><ele>9.0</ele><time>2026-05-02T18:01:24.115Z</time></trkpt><trkpt lat="43.7265575" lon="10.489462"><ele>9.0</ele><time>2026-05-02T18:01:25.115Z</time></trkpt><trkpt lat="43.7264496" lon="10.4897037"><ele>9.0</ele><time>2026-05-02T18:01:26.115Z</time></trkpt><trkpt lat="43.7263319" lon="10.4899362"><ele>10.333333333333332</ele><time>2026-05-02T18:01:27.115Z</time></trkpt><trkpt lat="43.7262116" lon="10.4901701"><ele>11.666666666666666</ele><time>2026-05-02T18:01:28.115Z</time></trkpt><trkpt lat="43.7260906" lon="10.4904018"><ele>13.0</ele><time>2026-05-02T18:01:29.115Z</time></trkpt><trkpt lat="43.725966" lon="10.4906284"><ele>13.0</ele><time>2026-05-02T18:01:30.115Z</time></trkpt><trkpt lat="43.7258437" lon="10.4908554"><ele>13.0</ele><time>2026-05-02T18:01:31.114Z</time></trkpt><trkpt lat="43.7257193" lon="10.4910839"><ele>13.0</ele><time>2026-05-02T18:01:32.115Z</time></trkpt><trkpt lat="43.7256016" lon="10.4913167"><ele>16.666666666666664</ele><time>2026-05-02T18:01:33.115Z</time></trkpt><trkpt lat="43.7254961" lon="10.4915581"><ele>20.333333333333332</ele><time>2026-05-02T18:01:34.115Z</time></trkpt><trkpt lat="43.7254052" lon="10.4918126"><ele>24.0</ele><time>2026-05-02T18:01:35.115Z</time></trkpt><trkpt lat="43.7253218" lon="10.4920666"><ele>26.333333333333336</ele><time>2026-05-02T18:01:36.115Z</time></trkpt><trkpt lat="43.7252413" lon="10.4923206"><ele>28.666666666666668</ele><time>2026-05-02T18:01:37.114Z</time></trkpt><trkpt lat="43.7251597" lon="10.4925693"><ele>31.0</ele><time>2026-05-02T18:01:38.114Z</time></trkpt><trkpt lat="43.7250793" lon="10.4928127"><ele>23.333333333333336</ele><time>2026-05-02T18:01:39.114Z</time></trkpt><trkpt lat="43.7250023" lon="10.493046"><ele>15.666666666666668</ele><time>2026-05-02T18:01:40.115Z</time></trkpt><trkpt lat="43.7249278" lon="10.4932651"><ele>8.0</ele><time>2026-05-02T18:01:41.115Z</time></trkpt><trkpt lat="43.7248478" lon="10.4934684"><ele>8.0</ele><time>2026-05-02T18:01:42.115Z</time></trkpt><trkpt lat="43.724762" lon="10.4936561"><ele>8.0</ele><time>2026-05-02T18:01:43.115Z</time></trkpt><trkpt lat="43.7246792" lon="10.4938368"><ele>8.0</ele><time>2026-05-02T18:01:44.114Z</time></trkpt><trkpt lat="43.7245999" lon="10.4940128"><ele>8.25</ele><time>2026-05-02T18:01:45.115Z</time></trkpt><trkpt lat="43.7245199" lon="10.4941739"><ele>8.5</ele><time>2026-05-02T18:01:46.115Z</time></trkpt><trkpt lat="43.7244405" lon="10.4943363"><ele>8.75</ele><time>2026-05-02T18:01:47.115Z</time></trkpt><trkpt lat="43.7243596" lon="10.494499"><ele>9.0</ele><time>2026-05-02T18:01:48.114Z</time></trkpt><trkpt lat="43.7242775" lon="10.4946656"><ele>9.0</ele><time>2026-05-02T18:01:49.115Z</time></trkpt><trkpt lat="43.7241941" lon="10.4948333"><ele>9.0</ele><time>2026-05-02T18:01:50.115Z</time></trkpt><trkpt lat="43.7241157" lon="10.4949993"><ele>9.0</ele><time>2026-05-02T18:01:51.115Z</time></trkpt><trkpt lat="43.7240378" lon="10.4951623"><ele>9.0</ele><time>2026-05-02T18:01:52.115Z</time></trkpt><trkpt lat="43.7239624" lon="10.4953204"><ele>9.5</ele><time>2026-05-02T18:01:53.115Z</time></trkpt><trkpt lat="43.7238895" lon="10.495468"><ele>10.0</ele><time>2026-05-02T18:01:54.115Z</time></trkpt><trkpt lat="43.7238207" lon="10.4956072"><ele>10.5</ele><time>2026-05-02T18:01:55.115Z</time></trkpt><trkpt lat="43.7237562" lon="10.4957439"><ele>11.0</ele><time>2026-05-02T18:01:56.114Z</time></trkpt><trkpt lat="43.7236871" lon="10.4958852"><ele>11.0</ele><time>2026-05-02T18:01:57.115Z</time></trkpt><trkpt lat="43.7236188" lon="10.4960332"><ele>11.0</ele><time>2026-05-02T18:01:58.115Z</time></trkpt><trkpt lat="43.7235493" lon="10.496186"><ele>11.0</ele><time>2026-05-02T18:01:59.115Z</time></trkpt><trkpt lat="43.7234764" lon="10.496344"><ele>11.0</ele><time>2026-05-02T18:02:00.115Z</time></trkpt><trkpt lat="43.7234037" lon="10.4964989"><ele>10.5</ele><time>2026-05-02T18:02:01.115Z</time></trkpt><trkpt lat="43.7233283" lon="10.496655"><ele>10.0</ele><time>2026-05-02T18:02:02.115Z</time></trkpt><trkpt lat="43.7232571" lon="10.496824"><ele>9.5</ele><time>2026-05-02T18:02:03.115Z</time></trkpt><trkpt lat="43.7231929" lon="10.4969958"><ele>9.0</ele><time>2026-05-02T18:02:04.115Z</time></trkpt><trkpt lat="43.7231339" lon="10.4971807"><ele>9.0</ele><time>2026-05-02T18:02:05.114Z</time></trkpt><trkpt lat="43.723076" lon="10.4973715"><ele>9.0</ele><time>2026-05-02T18:02:06.115Z</time></trkpt><trkpt lat="43.7230255" lon="10.4975699"><ele>9.0</ele><time>2026-05-02T18:02:07.114Z</time></trkpt><trkpt lat="43.7229791" lon="10.4977771"><ele>9.333333333333334</ele><time>2026-05-02T18:02:08.114Z</time></trkpt><trkpt lat="43.7229325" lon="10.497987"><ele>9.666666666666668</ele><time>2026-05-02T18:02:09.115Z</time></trkpt><trkpt lat="43.7228901" lon="10.4981964"><ele>10.0</ele><time>2026-05-02T18:02:10.114Z</time></trkpt><trkpt lat="43.7228465" lon="10.4983936"><ele>10.0</ele><time>2026-05-02T18:02:11.115Z</time></trkpt><trkpt lat="43.7228" lon="10.4985812"><ele>10.0</ele><time>2026-05-02T18:02:12.115Z</time></trkpt><trkpt lat="43.7227591" lon="10.4987629"><ele>10.0</ele><time>2026-05-02T18:02:13.115Z</time></trkpt><trkpt lat="43.7227309" lon="10.4989451"><ele>10.0</ele><time>2026-05-02T18:02:14.115Z</time></trkpt><trkpt lat="43.722715" lon="10.4991169"><ele>9.8</ele><time>2026-05-02T18:02:15.115Z</time></trkpt><trkpt lat="43.7227147" lon="10.4992847"><ele>9.6</ele><time>2026-05-02T18:02:16.114Z</time></trkpt><trkpt lat="43.7227216" lon="10.4994397"><ele>9.4</ele><time>2026-05-02T18:02:17.114Z</time></trkpt><trkpt lat="43.722728" lon="10.4995829"><ele>9.2</ele><time>2026-05-02T18:02:18.115Z</time></trkpt><trkpt lat="43.7227156" lon="10.4997"><ele>9.0</ele><time>2026-05-02T18:02:19.115Z</time></trkpt><trkpt lat="43.7226802" lon="10.4997914"><ele>9.8</ele><time>2026-05-02T18:02:20.115Z</time></trkpt><trkpt lat="43.7226218" lon="10.4998704"><ele>10.600000000000001</ele><time>2026-05-02T18:02:21.115Z</time></trkpt><trkpt lat="43.7225564" lon="10.4999547"><ele>11.4</ele><time>2026-05-02T18:02:22.115Z</time></trkpt><trkpt lat="43.7225186" lon="10.500075"><ele>12.200000000000001</ele><time>2026-05-02T18:02:23.115Z</time></trkpt><trkpt lat="43.7225086" lon="10.500207"><ele>13.0</ele><time>2026-05-02T18:02:24.115Z</time></trkpt><trkpt lat="43.7225054" lon="10.5003485"><ele>12.25</ele><time>2026-05-02T18:02:25.114Z</time></trkpt><trkpt lat="43.7225019" lon="10.5005095"><ele>11.5</ele><time>2026-05-02T18:02:26.115Z</time></trkpt><trkpt lat="43.7224755" lon="10.5006793"><ele>10.75</ele><time>2026-05-02T18:02:27.114Z</time></trkpt><trkpt lat="43.7224328" lon="10.5008516"><ele>10.0</ele><time>2026-05-02T18:02:28.114Z</time></trkpt><trkpt lat="43.7223728" lon="10.5010236"><ele>10.0</ele><time>2026-05-02T18:02:29.114Z</time></trkpt><trkpt lat="43.7223005" lon="10.5011967"><ele>10.0</ele><time>2026-05-02T18:02:30.114Z</time></trkpt><trkpt lat="43.7222186" lon="10.5013696"><ele>10.0</ele><time>2026-05-02T18:02:31.115Z</time></trkpt><trkpt lat="43.7221322" lon="10.5015563"><ele>10.333333333333334</ele><time>2026-05-02T18:02:32.115Z</time></trkpt><trkpt lat="43.7220409" lon="10.5017578"><ele>10.666666666666666</ele><time>2026-05-02T18:02:33.115Z</time></trkpt><trkpt lat="43.7219463" lon="10.5019585"><ele>11.0</ele><time>2026-05-02T18:02:34.114Z</time></trkpt><trkpt lat="43.7218493" lon="10.5021571"><ele>10.0</ele><time>2026-05-02T18:02:35.115Z</time></trkpt><trkpt lat="43.7217533" lon="10.5023623"><ele>9.0</ele><time>2026-05-02T18:02:36.115Z</time></trkpt><trkpt lat="43.7216589" lon="10.5025613"><ele>8.0</ele><time>2026-05-02T18:02:37.115Z</time></trkpt><trkpt lat="43.7215626" lon="10.5027622"><ele>8.666666666666666</ele><time>2026-05-02T18:02:38.115Z</time></trkpt><trkpt lat="43.7214589" lon="10.5029748"><ele>9.333333333333334</ele><time>2026-05-02T18:02:39.114Z</time></trkpt><trkpt lat="43.7213555" lon="10.5031891"><ele>10.0</ele><time>2026-05-02T18:02:40.115Z</time></trkpt><trkpt lat="43.721252" lon="10.5034127"><ele>10.0</ele><time>2026-05-02T18:02:41.115Z</time></trkpt><trkpt lat="43.7211456" lon="10.5036412"><ele>10.0</ele><time>2026-05-02T18:02:42.115Z</time></trkpt><trkpt lat="43.7210423" lon="10.5038659"><ele>10.0</ele><time>2026-05-02T18:02:43.115Z</time></trkpt><trkpt lat="43.7209373" lon="10.5040906"><ele>10.0</ele><time>2026-05-02T18:02:44.114Z</time></trkpt><trkpt lat="43.7208307" lon="10.5043166"><ele>10.0</ele><time>2026-05-02T18:02:45.115Z</time></trkpt><trkpt lat="43.7207262" lon="10.5045404"><ele>10.0</ele><time>2026-05-02T18:02:46.115Z</time></trkpt><trkpt lat="43.7206221" lon="10.5047671"><ele>10.666666666666668</ele><time>2026-05-02T18:02:47.114Z</time></trkpt><trkpt lat="43.7205178" lon="10.5049892"><ele>11.333333333333334</ele><time>2026-05-02T18:02:48.114Z</time></trkpt><trkpt lat="43.7204115" lon="10.5052112"><ele>12.0</ele><time>2026-05-02T18:02:49.115Z</time></trkpt><trkpt lat="43.7203055" lon="10.5054355"><ele>11.666666666666666</ele><time>2026-05-02T18:02:50.115Z</time></trkpt><trkpt lat="43.7202026" lon="10.5056714"><ele>11.333333333333332</ele><time>2026-05-02T18:02:51.114Z</time></trkpt><trkpt lat="43.7200918" lon="10.5058994"><ele>11.0</ele><time>2026-05-02T18:02:52.115Z</time></trkpt><trkpt lat="43.7199814" lon="10.506129"><ele>11.333333333333332</ele><time>2026-05-02T18:02:53.115Z</time></trkpt><trkpt lat="43.7198729" lon="10.5063665"><ele>11.666666666666666</ele><time>2026-05-02T18:02:54.114Z</time></trkpt><trkpt lat="43.7197613" lon="10.5065948"><ele>12.0</ele><time>2026-05-02T18:02:55.115Z</time></trkpt><trkpt lat="43.7196534" lon="10.5068246"><ele>12.0</ele><time>2026-05-02T18:02:56.114Z</time></trkpt><trkpt lat="43.7195433" lon="10.5070541"><ele>12.0</ele><time>2026-05-02T18:02:57.114Z</time></trkpt><trkpt lat="43.7194323" lon="10.5072825"><ele>12.0</ele><time>2026-05-02T18:02:58.115Z</time></trkpt><trkpt lat="43.719324" lon="10.5075042"><ele>11.666666666666666</ele><time>2026-05-02T18:02:59.115Z</time></trkpt><trkpt lat="43.7192101" lon="10.507723"><ele>11.333333333333332</ele><time>2026-05-02T18:03:00.115Z</time></trkpt><trkpt lat="43.7190974" lon="10.507937"><ele>11.0</ele><time>2026-05-02T18:03:01.115Z</time></trkpt><trkpt lat="43.7189824" lon="10.5081511"><ele>11.0</ele><time>2026-05-02T18:03:02.115Z</time></trkpt><trkpt lat="43.7188694" lon="10.5083703"><ele>11.0</ele><time>2026-05-02T18:03:03.115Z</time></trkpt><trkpt lat="43.7187604" lon="10.5085834"><ele>11.0</ele><time>2026-05-02T18:03:04.115Z</time></trkpt><trkpt lat="43.718651" lon="10.5087797"><ele>12.0</ele><time>2026-05-02T18:03:05.115Z</time></trkpt><trkpt lat="43.7185456" lon="10.5089693"><ele>13.0</ele><time>2026-05-02T18:03:06.114Z</time></trkpt><trkpt lat="43.7184409" lon="10.5091513"><ele>14.0</ele><time>2026-05-02T18:03:07.115Z</time></trkpt><trkpt lat="43.7183439" lon="10.509328"><ele>14.0</ele><time>2026-05-02T18:03:08.115Z</time></trkpt><trkpt lat="43.718252" lon="10.5094955"><ele>14.0</ele><time>2026-05-02T18:03:09.115Z</time></trkpt><trkpt lat="43.7181703" lon="10.5096497"><ele>14.0</ele><time>2026-05-02T18:03:10.115Z</time></trkpt><trkpt lat="43.7181001" lon="10.5097923"><ele>14.0</ele><time>2026-05-02T18:03:11.115Z</time></trkpt><trkpt lat="43.7180427" lon="10.5099118"><ele>14.666666666666668</ele><time>2026-05-02T18:03:12.114Z</time></trkpt><trkpt lat="43.7179893" lon="10.5100093"><ele>15.333333333333334</ele><time>2026-05-02T18:03:13.115Z</time></trkpt><trkpt lat="43.7179332" lon="10.5100848"><ele>16.0</ele><time>2026-05-02T18:03:14.115Z</time></trkpt><trkpt lat="43.7178723" lon="10.5101521"><ele>16.666666666666668</ele><time>2026-05-02T18:03:15.114Z</time></trkpt><trkpt lat="43.7177964" lon="10.5102104"><ele>17.333333333333332</ele><time>2026-05-02T18:03:16.115Z</time></trkpt><trkpt lat="43.717703" lon="10.5102369"><ele>18.0</ele><time>2026-05-02T18:03:17.115Z</time></trkpt><trkpt lat="43.7175959" lon="10.5102392"><ele>18.0</ele><time>2026-05-02T18:03:18.115Z</time></trkpt><trkpt lat="43.7174751" lon="10.5102227"><ele>18.0</ele><time>2026-05-02T18:03:19.114Z</time></trkpt><trkpt lat="43.7173403" lon="10.5101945"><ele>18.0</ele><time>2026-05-02T18:03:20.114Z</time></trkpt><trkpt lat="43.7171913" lon="10.5101637"><ele>18.0</ele><time>2026-05-02T18:03:21.115Z</time></trkpt><trkpt lat="43.7170313" lon="10.5101299"><ele>18.333333333333332</ele><time>2026-05-02T18:03:22.114Z</time></trkpt><trkpt lat="43.7168638" lon="10.5100931"><ele>18.666666666666664</ele><time>2026-05-02T18:03:23.114Z</time></trkpt><trkpt lat="43.7166884" lon="10.510053"><ele>19.0</ele><time>2026-05-02T18:03:24.114Z</time></trkpt><trkpt lat="43.7165145" lon="10.5100098"><ele>19.0</ele><time>2026-05-02T18:03:25.115Z</time></trkpt><trkpt lat="43.7163349" lon="10.5099675"><ele>19.0</ele><time>2026-05-02T18:03:26.115Z</time></trkpt><trkpt lat="43.7161541" lon="10.5099122"><ele>19.0</ele><time>2026-05-02T18:03:27.115Z</time></trkpt><trkpt lat="43.7159754" lon="10.5098327"><ele>18.333333333333332</ele><time>2026-05-02T18:03:28.114Z</time></trkpt><trkpt lat="43.7157993" lon="10.5097325"><ele>17.666666666666668</ele><time>2026-05-02T18:03:29.115Z</time></trkpt><trkpt lat="43.7156236" lon="10.5096251"><ele>17.0</ele><time>2026-05-02T18:03:30.115Z</time></trkpt><trkpt lat="43.7154503" lon="10.5095096"><ele>16.666666666666668</ele><time>2026-05-02T18:03:31.114Z</time></trkpt><trkpt lat="43.715281" lon="10.5093857"><ele>16.333333333333332</ele><time>2026-05-02T18:03:32.115Z</time></trkpt><trkpt lat="43.7151137" lon="10.5092606"><ele>16.0</ele><time>2026-05-02T18:03:33.115Z</time></trkpt><trkpt lat="43.7149419" lon="10.5091348"><ele>16.0</ele><time>2026-05-02T18:03:34.114Z</time></trkpt><trkpt lat="43.7147672" lon="10.5090083"><ele>16.0</ele><time>2026-05-02T18:03:35.115Z</time></trkpt><trkpt lat="43.7145882" lon="10.5088776"><ele>16.0</ele><time>2026-05-02T18:03:36.114Z</time></trkpt><trkpt lat="43.7144083" lon="10.5087496"><ele>14.666666666666666</ele><time>2026-05-02T18:03:37.115Z</time></trkpt><trkpt lat="43.7142263" lon="10.5086167"><ele>13.333333333333332</ele><time>2026-05-02T18:03:38.114Z</time></trkpt><trkpt lat="43.7140415" lon="10.5084861"><ele>12.0</ele><time>2026-05-02T18:03:39.114Z</time></trkpt><trkpt lat="43.7138533" lon="10.5083603"><ele>12.0</ele><time>2026-05-02T18:03:40.115Z</time></trkpt><trkpt lat="43.7136644" lon="10.5082362"><ele>12.0</ele><time>2026-05-02T18:03:41.115Z</time></trkpt><trkpt lat="43.7134709" lon="10.5081206"><ele>12.0</ele><time>2026-05-02T18:03:42.115Z</time></trkpt><trkpt lat="43.713279" lon="10.5080121"><ele>11.0</ele><time>2026-05-02T18:03:43.115Z</time></trkpt><trkpt lat="43.7130851" lon="10.5079083"><ele>10.0</ele><time>2026-05-02T18:03:44.115Z</time></trkpt><trkpt lat="43.7128953" lon="10.5078027"><ele>9.0</ele><time>2026-05-02T18:03:45.115Z</time></trkpt><trkpt lat="43.7127079" lon="10.5076968"><ele>9.0</ele><time>2026-05-02T18:03:46.115Z</time></trkpt><trkpt lat="43.7125269" lon="10.5075819"><ele>9.0</ele><time>2026-05-02T18:03:47.115Z</time></trkpt><trkpt lat="43.7123495" lon="10.5074515"><ele>9.0</ele><time>2026-05-02T18:03:48.115Z</time></trkpt><trkpt lat="43.7121695" lon="10.5073275"><ele>9.0</ele><time>2026-05-02T18:03:49.115Z</time></trkpt><trkpt lat="43.7119855" lon="10.5072074"><ele>9.0</ele><time>2026-05-02T18:03:50.114Z</time></trkpt><trkpt lat="43.7117966" lon="10.5070932"><ele>9.0</ele><time>2026-05-02T18:03:51.114Z</time></trkpt><trkpt lat="43.7116059" lon="10.5069835"><ele>9.333333333333334</ele><time>2026-05-02T18:03:52.114Z</time></trkpt><trkpt lat="43.7114132" lon="10.5068707"><ele>9.666666666666668</ele><time>2026-05-02T18:03:53.115Z</time></trkpt><trkpt lat="43.7112201" lon="10.5067575"><ele>10.0</ele><time>2026-05-02T18:03:54.115Z</time></trkpt><trkpt lat="43.7110259" lon="10.506632"><ele>10.666666666666668</ele><time>2026-05-02T18:03:55.115Z</time></trkpt><trkpt lat="43.7108346" lon="10.506503"><ele>11.333333333333334</ele><time>2026-05-02T18:03:56.114Z</time></trkpt><trkpt lat="43.7106494" lon="10.5063759"><ele>12.0</ele><time>2026-05-02T18:03:57.115Z</time></trkpt><trkpt lat="43.7104714" lon="10.5062607"><ele>11.666666666666666</ele><time>2026-05-02T18:03:58.115Z</time></trkpt><trkpt lat="43.7103047" lon="10.5061465"><ele>11.333333333333332</ele><time>2026-05-02T18:03:59.115Z</time></trkpt><trkpt lat="43.7101398" lon="10.5060368"><ele>11.0</ele><time>2026-05-02T18:04:00.114Z</time></trkpt><trkpt lat="43.7099874" lon="10.5059317"><ele>11.0</ele><time>2026-05-02T18:04:01.115Z</time></trkpt><trkpt lat="43.7098367" lon="10.5058339"><ele>11.0</ele><time>2026-05-02T18:04:02.115Z</time></trkpt><trkpt lat="43.7096932" lon="10.5057372"><ele>11.0</ele><time>2026-05-02T18:04:03.114Z</time></trkpt><trkpt lat="43.7095523" lon="10.505628"><ele>11.0</ele><time>2026-05-02T18:04:04.115Z</time></trkpt><trkpt lat="43.7094112" lon="10.5055057"><ele>11.0</ele><time>2026-05-02T18:04:05.114Z</time></trkpt><trkpt lat="43.7092809" lon="10.5053687"><ele>11.0</ele><time>2026-05-02T18:04:06.114Z</time></trkpt><trkpt lat="43.7091568" lon="10.5052268"><ele>10.333333333333332</ele><time>2026-05-02T18:04:07.115Z</time></trkpt><trkpt lat="43.7090363" lon="10.5050891"><ele>9.666666666666666</ele><time>2026-05-02T18:04:08.115Z</time></trkpt><trkpt lat="43.7089189" lon="10.5049583"><ele>9.0</ele><time>2026-05-02T18:04:09.115Z</time></trkpt><trkpt lat="43.7088074" lon="10.5048344"><ele>9.0</ele><time>2026-05-02T18:04:10.115Z</time></trkpt><trkpt lat="43.7087023" lon="10.5047171"><ele>9.0</ele><time>2026-05-02T18:04:11.114Z</time></trkpt><trkpt lat="43.7085999" lon="10.5046078"><ele>9.0</ele><time>2026-05-02T18:04:12.115Z</time></trkpt><trkpt lat="43.7085013" lon="10.5045007"><ele>9.0</ele><time>2026-05-02T18:04:13.115Z</time></trkpt><trkpt lat="43.7084107" lon="10.5043961"><ele>9.0</ele><time>2026-05-02T18:04:14.115Z</time></trkpt><trkpt lat="43.7083243" lon="10.5043024"><ele>9.0</ele><time>2026-05-02T18:04:15.114Z</time></trkpt><trkpt lat="43.7082444" lon="10.5042155"><ele>9.0</ele><time>2026-05-02T18:04:16.115Z</time></trkpt><trkpt lat="43.7081732" lon="10.5041383"><ele>9.0</ele><time>2026-05-02T18:04:17.115Z</time></trkpt><trkpt lat="43.7081097" lon="10.504065"><ele>9.0</ele><time>2026-05-02T18:04:18.115Z</time></trkpt><trkpt lat="43.7080587" lon="10.5039934"><ele>9.0</ele><time>2026-05-02T18:04:19.115Z</time></trkpt><trkpt lat="43.7079844" lon="10.5038898"><ele>9.0</ele><time>2026-05-02T18:04:21.115Z</time></trkpt><trkpt lat="43.7079396" lon="10.5038236"><ele>9.0</ele><time>2026-05-02T18:04:43.115Z</time></trkpt><trkpt lat="43.7078993" lon="10.5037536"><ele>9.0</ele><time>2026-05-02T18:05:05.115Z</time></trkpt><trkpt lat="43.7078123" lon="10.5037785"><ele>9.0</ele><time>2026-05-02T18:05:07.114Z</time></trkpt><trkpt lat="43.7077504" lon="10.5038192"><ele>9.0</ele><time>2026-05-02T18:05:08.115Z</time></trkpt><trkpt lat="43.7076784" lon="10.5038635"><ele>9.285714285714286</ele><time>2026-05-02T18:05:09.115Z</time></trkpt><trkpt lat="43.707604" lon="10.5039061"><ele>9.571428571428571</ele><time>2026-05-02T18:05:10.115Z</time></trkpt><trkpt lat="43.7075351" lon="10.5039374"><ele>9.857142857142858</ele><time>2026-05-02T18:05:11.114Z</time></trkpt><trkpt lat="43.707469" lon="10.5039644"><ele>10.142857142857142</ele><time>2026-05-02T18:05:12.114Z</time></trkpt><trkpt lat="43.7074035" lon="10.5039899"><ele>10.428571428571429</ele><time>2026-05-02T18:05:13.115Z</time></trkpt><trkpt lat="43.7073386" lon="10.5040098"><ele>10.714285714285715</ele><time>2026-05-02T18:05:14.115Z</time></trkpt><trkpt lat="43.7072706" lon="10.5040343"><ele>11.0</ele><time>2026-05-02T18:05:15.115Z</time></trkpt><trkpt lat="43.7071966" lon="10.5040631"><ele>11.0</ele><time>2026-05-02T18:05:16.115Z</time></trkpt><trkpt lat="43.7071228" lon="10.5040939"><ele>11.0</ele><time>2026-05-02T18:05:17.115Z</time></trkpt><trkpt lat="43.7070534" lon="10.5041198"><ele>11.0</ele><time>2026-05-02T18:05:18.114Z</time></trkpt><trkpt lat="43.706992" lon="10.5041397"><ele>11.0</ele><time>2026-05-02T18:05:19.115Z</time></trkpt><trkpt lat="43.7069308" lon="10.5041602"><ele>11.0</ele><time>2026-05-02T18:05:20.115Z</time></trkpt><trkpt lat="43.7068513" lon="10.5042723"><ele>11.0</ele><time>2026-05-02T18:05:22.114Z</time></trkpt><trkpt lat="43.706803" lon="10.5044032"><ele>10.833333333333332</ele><time>2026-05-02T18:05:24.115Z</time></trkpt><trkpt lat="43.7067411" lon="10.5045015"><ele>10.666666666666666</ele><time>2026-05-02T18:05:26.115Z</time></trkpt><trkpt lat="43.7066611" lon="10.5046138"><ele>10.5</ele><time>2026-05-02T18:05:28.114Z</time></trkpt><trkpt lat="43.7066141" lon="10.5046815"><ele>10.333333333333334</ele><time>2026-05-02T18:05:29.115Z</time></trkpt><trkpt lat="43.706565" lon="10.5047524"><ele>10.166666666666668</ele><time>2026-05-02T18:05:30.115Z</time></trkpt><trkpt lat="43.7065157" lon="10.5048217"><ele>10.0</ele><time>2026-05-02T18:05:31.115Z</time></trkpt><trkpt lat="43.7064669" lon="10.504896"><ele>10.285714285714285</ele><time>2026-05-02T18:05:32.115Z</time></trkpt><trkpt lat="43.7064195" lon="10.5049723"><ele>10.571428571428571</ele><time>2026-05-02T18:05:33.115Z</time></trkpt><trkpt lat="43.7063639" lon="10.5050407"><ele>10.857142857142858</ele><time>2026-05-02T18:05:34.115Z</time></trkpt><trkpt lat="43.7063124" lon="10.505106"><ele>11.142857142857142</ele><time>2026-05-02T18:05:35.115Z</time></trkpt><trkpt lat="43.7062645" lon="10.5051665"><ele>11.428571428571429</ele><time>2026-05-02T18:05:36.115Z</time></trkpt><trkpt lat="43.7062165" lon="10.5052238"><ele>11.714285714285714</ele><time>2026-05-02T18:05:37.114Z</time></trkpt><trkpt lat="43.7061637" lon="10.5052896"><ele>12.0</ele><time>2026-05-02T18:05:38.114Z</time></trkpt><trkpt lat="43.7060993" lon="10.5053659"><ele>12.2</ele><time>2026-05-02T18:05:39.115Z</time></trkpt><trkpt lat="43.7060341" lon="10.5054512"><ele>12.399999999999999</ele><time>2026-05-02T18:05:40.114Z</time></trkpt><trkpt lat="43.7059643" lon="10.5055437"><ele>12.600000000000001</ele><time>2026-05-02T18:05:41.114Z</time></trkpt><trkpt lat="43.7058901" lon="10.5056396"><ele>12.8</ele><time>2026-05-02T18:05:42.115Z</time></trkpt><trkpt lat="43.7058158" lon="10.5057453"><ele>13.0</ele><time>2026-05-02T18:05:43.115Z</time></trkpt><trkpt lat="43.7057406" lon="10.5058437"><ele>13.0</ele><time>2026-05-02T18:05:44.115Z</time></trkpt><trkpt lat="43.7056637" lon="10.5059464"><ele>13.0</ele><time>2026-05-02T18:05:45.114Z</time></trkpt><trkpt lat="43.7055871" lon="10.5060532"><ele>13.0</ele><time>2026-05-02T18:05:46.115Z</time></trkpt><trkpt lat="43.705511" lon="10.506159"><ele>13.0</ele><time>2026-05-02T18:05:47.115Z</time></trkpt><trkpt lat="43.7054321" lon="10.506269"><ele>13.0</ele><time>2026-05-02T18:05:48.115Z</time></trkpt><trkpt lat="43.7053515" lon="10.5063768"><ele>13.25</ele><time>2026-05-02T18:05:49.115Z</time></trkpt><trkpt lat="43.7052639" lon="10.5064955"><ele>13.5</ele><time>2026-05-02T18:05:50.115Z</time></trkpt><trkpt lat="43.7051787" lon="10.5066126"><ele>13.75</ele><time>2026-05-02T18:05:51.115Z</time></trkpt><trkpt lat="43.705093" lon="10.5067293"><ele>14.0</ele><time>2026-05-02T18:05:52.115Z</time></trkpt><trkpt lat="43.7050102" lon="10.506845"><ele>13.25</ele><time>2026-05-02T18:05:53.115Z</time></trkpt><trkpt lat="43.7049257" lon="10.5069667"><ele>12.5</ele><time>2026-05-02T18:05:54.115Z</time></trkpt><trkpt lat="43.7048378" lon="10.507086"><ele>11.75</ele><time>2026-05-02T18:05:55.115Z</time></trkpt><trkpt lat="43.7047419" lon="10.5072037"><ele>11.0</ele><time>2026-05-02T18:05:56.115Z</time></trkpt><trkpt lat="43.7046396" lon="10.5073139"><ele>11.0</ele><time>2026-05-02T18:05:57.114Z</time></trkpt><trkpt lat="43.7045354" lon="10.5074213"><ele>11.0</ele><time>2026-05-02T18:05:58.114Z</time></trkpt><trkpt lat="43.704431" lon="10.5075285"><ele>11.0</ele><time>2026-05-02T18:05:59.115Z</time></trkpt><trkpt lat="43.704335" lon="10.5076331"><ele>11.0</ele><time>2026-05-02T18:06:00.115Z</time></trkpt><trkpt lat="43.7042374" lon="10.5077389"><ele>10.5</ele><time>2026-05-02T18:06:01.114Z</time></trkpt><trkpt lat="43.7041335" lon="10.507841"><ele>10.0</ele><time>2026-05-02T18:06:02.115Z</time></trkpt><trkpt lat="43.7040328" lon="10.5079457"><ele>9.5</ele><time>2026-05-02T18:06:03.115Z</time></trkpt><trkpt lat="43.7039351" lon="10.5080513"><ele>9.0</ele><time>2026-05-02T18:06:04.115Z</time></trkpt><trkpt lat="43.7038332" lon="10.5081594"><ele>9.75</ele><time>2026-05-02T18:06:05.115Z</time></trkpt><trkpt lat="43.7037225" lon="10.5082675"><ele>10.5</ele><time>2026-05-02T18:06:06.115Z</time></trkpt><trkpt lat="43.7036167" lon="10.508377"><ele>11.25</ele><time>2026-05-02T18:06:07.115Z</time></trkpt><trkpt lat="43.703509" lon="10.5084895"><ele>12.0</ele><time>2026-05-02T18:06:08.114Z</time></trkpt><trkpt lat="43.7034075" lon="10.5086073"><ele>12.0</ele><time>2026-05-02T18:06:09.114Z</time></trkpt><trkpt lat="43.7033033" lon="10.5087371"><ele>12.0</ele><time>2026-05-02T18:06:10.114Z</time></trkpt><trkpt lat="43.7032033" lon="10.5088879"><ele>12.0</ele><time>2026-05-02T18:06:11.115Z</time></trkpt><trkpt lat="43.7031143" lon="10.509053"><ele>12.0</ele><time>2026-05-02T18:06:12.115Z</time></trkpt><trkpt lat="43.7030175" lon="10.5092283"><ele>14.666666666666668</ele><time>2026-05-02T18:06:13.115Z</time></trkpt><trkpt lat="43.7029285" lon="10.5094051"><ele>17.333333333333336</ele><time>2026-05-02T18:06:14.114Z</time></trkpt><trkpt lat="43.7028398" lon="10.5095873"><ele>20.0</ele><time>2026-05-02T18:06:15.115Z</time></trkpt><trkpt lat="43.7027534" lon="10.5097663"><ele>17.666666666666668</ele><time>2026-05-02T18:06:16.115Z</time></trkpt><trkpt lat="43.702678" lon="10.509955"><ele>15.333333333333332</ele><time>2026-05-02T18:06:17.115Z</time></trkpt><trkpt lat="43.7026102" lon="10.5101494"><ele>13.0</ele><time>2026-05-02T18:06:18.114Z</time></trkpt><trkpt lat="43.702546" lon="10.5103515"><ele>15.333333333333332</ele><time>2026-05-02T18:06:19.115Z</time></trkpt><trkpt lat="43.7024888" lon="10.5105575"><ele>17.666666666666668</ele><time>2026-05-02T18:06:20.114Z</time></trkpt><trkpt lat="43.7024287" lon="10.5107604"><ele>20.0</ele><time>2026-05-02T18:06:21.115Z</time></trkpt><trkpt lat="43.7023739" lon="10.5109727"><ele>20.0</ele><time>2026-05-02T18:06:22.115Z</time></trkpt><trkpt lat="43.7023257" lon="10.5111789"><ele>20.0</ele><time>2026-05-02T18:06:23.115Z</time></trkpt><trkpt lat="43.702268" lon="10.5113853"><ele>20.0</ele><time>2026-05-02T18:06:24.115Z</time></trkpt><trkpt lat="43.7022133" lon="10.5115923"><ele>21.0</ele><time>2026-05-02T18:06:25.115Z</time></trkpt><trkpt lat="43.7021513" lon="10.5117965"><ele>22.0</ele><time>2026-05-02T18:06:26.115Z</time></trkpt><trkpt lat="43.7020914" lon="10.5119834"><ele>23.0</ele><time>2026-05-02T18:06:27.115Z</time></trkpt><trkpt lat="43.7020255" lon="10.5121684"><ele>25.0</ele><time>2026-05-02T18:06:28.114Z</time></trkpt><trkpt lat="43.7019546" lon="10.5123464"><ele>27.0</ele><time>2026-05-02T18:06:29.115Z</time></trkpt><trkpt lat="43.7018822" lon="10.5125139"><ele>29.0</ele><time>2026-05-02T18:06:30.114Z</time></trkpt><trkpt lat="43.7018094" lon="10.5126688"><ele>31.0</ele><time>2026-05-02T18:06:31.115Z</time></trkpt><trkpt lat="43.7017368" lon="10.5128168"><ele>26.5</ele><time>2026-05-02T18:06:32.115Z</time></trkpt><trkpt lat="43.7016622" lon="10.5129594"><ele>22.0</ele><time>2026-05-02T18:06:33.115Z</time></trkpt><trkpt lat="43.7015798" lon="10.5130967"><ele>17.5</ele><time>2026-05-02T18:06:34.114Z</time></trkpt><trkpt lat="43.7014922" lon="10.513233"><ele>13.0</ele><time>2026-05-02T18:06:35.115Z</time></trkpt><trkpt lat="43.7013976" lon="10.5133633"><ele>13.0</ele><time>2026-05-02T18:06:36.115Z</time></trkpt><trkpt lat="43.7012977" lon="10.5135026"><ele>13.0</ele><time>2026-05-02T18:06:37.114Z</time></trkpt><trkpt lat="43.7011998" lon="10.5136301"><ele>13.0</ele><time>2026-05-02T18:06:38.115Z</time></trkpt><trkpt lat="43.7010978" lon="10.5137698"><ele>13.0</ele><time>2026-05-02T18:06:39.115Z</time></trkpt><trkpt lat="43.7009974" lon="10.5139013"><ele>11.75</ele><time>2026-05-02T18:06:40.115Z</time></trkpt><trkpt lat="43.7008994" lon="10.5140311"><ele>10.5</ele><time>2026-05-02T18:06:41.115Z</time></trkpt><trkpt lat="43.7008116" lon="10.514152"><ele>9.25</ele><time>2026-05-02T18:06:42.115Z</time></trkpt><trkpt lat="43.7007174" lon="10.5142844"><ele>8.0</ele><time>2026-05-02T18:06:43.115Z</time></trkpt><trkpt lat="43.7006321" lon="10.5143939"><ele>8.0</ele><time>2026-05-02T18:06:44.115Z</time></trkpt><trkpt lat="43.7005461" lon="10.5145074"><ele>8.0</ele><time>2026-05-02T18:06:45.115Z</time></trkpt><trkpt lat="43.7004612" lon="10.5146176"><ele>8.0</ele><time>2026-05-02T18:06:46.114Z</time></trkpt><trkpt lat="43.7003717" lon="10.5147171"><ele>8.0</ele><time>2026-05-02T18:06:47.115Z</time></trkpt><trkpt lat="43.7002828" lon="10.5148086"><ele>8.200000000000001</ele><time>2026-05-02T18:06:48.115Z</time></trkpt><trkpt lat="43.7001908" lon="10.5148686"><ele>8.4</ele><time>2026-05-02T18:06:49.115Z</time></trkpt><trkpt lat="43.7001012" lon="10.5149112"><ele>8.600000000000001</ele><time>2026-05-02T18:06:50.115Z</time></trkpt><trkpt lat="43.7000116" lon="10.514934"><ele>8.8</ele><time>2026-05-02T18:06:51.115Z</time></trkpt><trkpt lat="43.699927" lon="10.5149529"><ele>9.0</ele><time>2026-05-02T18:06:52.115Z</time></trkpt><trkpt lat="43.6998432" lon="10.5149707"><ele>9.0</ele><time>2026-05-02T18:06:53.115Z</time></trkpt><trkpt lat="43.6997702" lon="10.5149985"><ele>9.0</ele><time>2026-05-02T18:06:54.115Z</time></trkpt><trkpt lat="43.6997025" lon="10.5150502"><ele>9.0</ele><time>2026-05-02T18:06:55.115Z</time></trkpt><trkpt lat="43.6996514" lon="10.5151304"><ele>9.0</ele><time>2026-05-02T18:06:56.114Z</time></trkpt><trkpt lat="43.6996238" lon="10.5152202"><ele>9.0</ele><time>2026-05-02T18:06:57.114Z</time></trkpt><trkpt lat="43.6996186" lon="10.5153247"><ele>9.0</ele><time>2026-05-02T18:06:58.115Z</time></trkpt><trkpt lat="43.6996243" lon="10.515436"><ele>9.2</ele><time>2026-05-02T18:06:59.114Z</time></trkpt><trkpt lat="43.6996177" lon="10.5155604"><ele>9.4</ele><time>2026-05-02T18:07:00.114Z</time></trkpt><trkpt lat="43.6995863" lon="10.515681"><ele>9.6</ele><time>2026-05-02T18:07:01.115Z</time></trkpt><trkpt lat="43.6995343" lon="10.5157931"><ele>9.8</ele><time>2026-05-02T18:07:02.115Z</time></trkpt><trkpt lat="43.6994759" lon="10.5158968"><ele>10.0</ele><time>2026-05-02T18:07:03.115Z</time></trkpt><trkpt lat="43.6994089" lon="10.5159932"><ele>10.0</ele><time>2026-05-02T18:07:04.115Z</time></trkpt><trkpt lat="43.6993397" lon="10.5160886"><ele>10.0</ele><time>2026-05-02T18:07:05.114Z</time></trkpt><trkpt lat="43.6992683" lon="10.5161899"><ele>10.0</ele><time>2026-05-02T18:07:06.114Z</time></trkpt><trkpt lat="43.699195" lon="10.5162962"><ele>10.0</ele><time>2026-05-02T18:07:07.115Z</time></trkpt><trkpt lat="43.699117" lon="10.516405"><ele>10.0</ele><time>2026-05-02T18:07:08.115Z</time></trkpt><trkpt lat="43.6990361" lon="10.5165161"><ele>11.5</ele><time>2026-05-02T18:07:09.115Z</time></trkpt><trkpt lat="43.6989482" lon="10.5166322"><ele>13.0</ele><time>2026-05-02T18:07:10.115Z</time></trkpt><trkpt lat="43.6988548" lon="10.5167518"><ele>14.5</ele><time>2026-05-02T18:07:11.115Z</time></trkpt><trkpt lat="43.698756" lon="10.5168666"><ele>16.0</ele><time>2026-05-02T18:07:12.115Z</time></trkpt><trkpt lat="43.6986514" lon="10.5169859"><ele>16.0</ele><time>2026-05-02T18:07:13.114Z</time></trkpt><trkpt lat="43.698544" lon="10.5171022"><ele>16.0</ele><time>2026-05-02T18:07:14.114Z</time></trkpt><trkpt lat="43.6984339" lon="10.5172155"><ele>16.0</ele><time>2026-05-02T18:07:15.114Z</time></trkpt><trkpt lat="43.6983232" lon="10.5173202"><ele>16.0</ele><time>2026-05-02T18:07:16.115Z</time></trkpt><trkpt lat="43.6982113" lon="10.5174122"><ele>16.0</ele><time>2026-05-02T18:07:17.115Z</time></trkpt><trkpt lat="43.6980994" lon="10.5174902"><ele>16.0</ele><time>2026-05-02T18:07:18.114Z</time></trkpt><trkpt lat="43.6979883" lon="10.5175631"><ele>16.0</ele><time>2026-05-02T18:07:19.115Z</time></trkpt><trkpt lat="43.6978761" lon="10.5176411"><ele>16.0</ele><time>2026-05-02T18:07:20.115Z</time></trkpt><trkpt lat="43.6977754" lon="10.5177304"><ele>16.75</ele><time>2026-05-02T18:07:21.114Z</time></trkpt><trkpt lat="43.6976783" lon="10.5178192"><ele>17.5</ele><time>2026-05-02T18:07:22.114Z</time></trkpt><trkpt lat="43.6975826" lon="10.5179201"><ele>18.25</ele><time>2026-05-02T18:07:23.115Z</time></trkpt><trkpt lat="43.6974957" lon="10.5180186"><ele>19.0</ele><time>2026-05-02T18:07:24.115Z</time></trkpt><trkpt lat="43.6974053" lon="10.5181139"><ele>19.0</ele><time>2026-05-02T18:07:25.114Z</time></trkpt><trkpt lat="43.6973178" lon="10.5182113"><ele>19.0</ele><time>2026-05-02T18:07:26.115Z</time></trkpt><trkpt lat="43.6972261" lon="10.5183044"><ele>19.0</ele><time>2026-05-02T18:07:27.115Z</time></trkpt><trkpt lat="43.6971368" lon="10.5183914"><ele>19.0</ele><time>2026-05-02T18:07:28.115Z</time></trkpt><trkpt lat="43.6970445" lon="10.5184764"><ele>19.0</ele><time>2026-05-02T18:07:29.114Z</time></trkpt><trkpt lat="43.6969505" lon="10.5185567"><ele>19.4</ele><time>2026-05-02T18:07:30.115Z</time></trkpt><trkpt lat="43.6968562" lon="10.5186338"><ele>19.799999999999997</ele><time>2026-05-02T18:07:31.115Z</time></trkpt><trkpt lat="43.6967626" lon="10.5187091"><ele>20.200000000000003</ele><time>2026-05-02T18:07:32.114Z</time></trkpt><trkpt lat="43.6966647" lon="10.5187707"><ele>20.6</ele><time>2026-05-02T18:07:33.114Z</time></trkpt><trkpt lat="43.6965668" lon="10.5188241"><ele>21.0</ele><time>2026-05-02T18:07:34.115Z</time></trkpt><trkpt lat="43.6964644" lon="10.5188687"><ele>21.0</ele><time>2026-05-02T18:07:35.114Z</time></trkpt><trkpt lat="43.6963601" lon="10.5189136"><ele>21.0</ele><time>2026-05-02T18:07:36.114Z</time></trkpt><trkpt lat="43.6962528" lon="10.5189586"><ele>21.0</ele><time>2026-05-02T18:07:37.115Z</time></trkpt><trkpt lat="43.6961441" lon="10.5190021"><ele>21.0</ele><time>2026-05-02T18:07:38.115Z</time></trkpt><trkpt lat="43.6960342" lon="10.5190459"><ele>21.0</ele><time>2026-05-02T18:07:39.114Z</time></trkpt><trkpt lat="43.6959241" lon="10.5190973"><ele>19.25</ele><time>2026-05-02T18:07:40.115Z</time></trkpt><trkpt lat="43.6958153" lon="10.5191575"><ele>17.5</ele><time>2026-05-02T18:07:41.115Z</time></trkpt><trkpt lat="43.6957131" lon="10.5192286"><ele>15.75</ele><time>2026-05-02T18:07:42.114Z</time></trkpt><trkpt lat="43.6956182" lon="10.5193034"><ele>14.0</ele><time>2026-05-02T18:07:43.115Z</time></trkpt><trkpt lat="43.6955235" lon="10.5193882"><ele>14.0</ele><time>2026-05-02T18:07:44.115Z</time></trkpt><trkpt lat="43.695431" lon="10.5194746"><ele>13.999999999999998</ele><time>2026-05-02T18:07:45.115Z</time></trkpt><trkpt lat="43.695336" lon="10.5195509"><ele>13.999999999999998</ele><time>2026-05-02T18:07:46.115Z</time></trkpt><trkpt lat="43.6952381" lon="10.5196198"><ele>14.0</ele><time>2026-05-02T18:07:47.114Z</time></trkpt><trkpt lat="43.6951482" lon="10.5196841"><ele>14.0</ele><time>2026-05-02T18:07:48.115Z</time></trkpt><trkpt lat="43.6950631" lon="10.5197526"><ele>13.799999999999999</ele><time>2026-05-02T18:07:49.115Z</time></trkpt><trkpt lat="43.6949763" lon="10.5198174"><ele>13.599999999999998</ele><time>2026-05-02T18:07:50.115Z</time></trkpt><trkpt lat="43.6948887" lon="10.519891"><ele>13.4</ele><time>2026-05-02T18:07:51.115Z</time></trkpt><trkpt lat="43.694804" lon="10.5199785"><ele>13.2</ele><time>2026-05-02T18:07:52.115Z</time></trkpt><trkpt lat="43.6947153" lon="10.5200748"><ele>13.0</ele><time>2026-05-02T18:07:53.115Z</time></trkpt><trkpt lat="43.6946266" lon="10.5201697"><ele>13.0</ele><time>2026-05-02T18:07:54.115Z</time></trkpt><trkpt lat="43.6945315" lon="10.5202664"><ele>13.0</ele><time>2026-05-02T18:07:55.115Z</time></trkpt><trkpt lat="43.6944334" lon="10.5203657"><ele>13.0</ele><time>2026-05-02T18:07:56.115Z</time></trkpt><trkpt lat="43.6943343" lon="10.5204648"><ele>13.0</ele><time>2026-05-02T18:07:57.115Z</time></trkpt><trkpt lat="43.6942319" lon="10.5205578"><ele>13.5</ele><time>2026-05-02T18:07:58.114Z</time></trkpt><trkpt lat="43.6941279" lon="10.5206494"><ele>14.0</ele><time>2026-05-02T18:07:59.115Z</time></trkpt><trkpt lat="43.6940241" lon="10.5207418"><ele>14.5</ele><time>2026-05-02T18:08:00.114Z</time></trkpt><trkpt lat="43.6939202" lon="10.5208402"><ele>15.0</ele><time>2026-05-02T18:08:01.114Z</time></trkpt><trkpt lat="43.6938127" lon="10.520947"><ele>15.0</ele><time>2026-05-02T18:08:02.114Z</time></trkpt><trkpt lat="43.6937116" lon="10.5210451"><ele>15.0</ele><time>2026-05-02T18:08:03.114Z</time></trkpt><trkpt lat="43.6936188" lon="10.5211516"><ele>15.0</ele><time>2026-05-02T18:08:04.115Z</time></trkpt><trkpt lat="43.6935437" lon="10.5212697"><ele>15.0</ele><time>2026-05-02T18:08:05.115Z</time></trkpt><trkpt lat="43.6934825" lon="10.5213995"><ele>14.4</ele><time>2026-05-02T18:08:06.115Z</time></trkpt><trkpt lat="43.6934292" lon="10.5215274"><ele>13.8</ele><time>2026-05-02T18:08:07.115Z</time></trkpt><trkpt lat="43.6933822" lon="10.5216472"><ele>13.2</ele><time>2026-05-02T18:08:08.114Z</time></trkpt><trkpt lat="43.693338" lon="10.5217622"><ele>12.6</ele><time>2026-05-02T18:08:09.114Z</time></trkpt><trkpt lat="43.6933001" lon="10.5218656"><ele>12.0</ele><time>2026-05-02T18:08:10.114Z</time></trkpt><trkpt lat="43.6932664" lon="10.5219683"><ele>13.0</ele><time>2026-05-02T18:08:11.114Z</time></trkpt><trkpt lat="43.6932318" lon="10.5220718"><ele>14.0</ele><time>2026-05-02T18:08:12.114Z</time></trkpt><trkpt lat="43.6931957" lon="10.5221799"><ele>15.0</ele><time>2026-05-02T18:08:13.114Z</time></trkpt><trkpt lat="43.6931548" lon="10.5222903"><ele>16.0</ele><time>2026-05-02T18:08:14.115Z</time></trkpt><trkpt lat="43.6931117" lon="10.52241"><ele>17.0</ele><time>2026-05-02T18:08:15.115Z</time></trkpt><trkpt lat="43.6930685" lon="10.522534"><ele>17.0</ele><time>2026-05-02T18:08:16.115Z</time></trkpt><trkpt lat="43.6930232" lon="10.5226623"><ele>17.0</ele><time>2026-05-02T18:08:17.115Z</time></trkpt><trkpt lat="43.6929755" lon="10.5228023"><ele>17.0</ele><time>2026-05-02T18:08:18.114Z</time></trkpt><trkpt lat="43.6929295" lon="10.5229376"><ele>17.0</ele><time>2026-05-02T18:08:19.115Z</time></trkpt><trkpt lat="43.6928848" lon="10.5230753"><ele>17.0</ele><time>2026-05-02T18:08:20.115Z</time></trkpt><trkpt lat="43.6928392" lon="10.5232072"><ele>17.5</ele><time>2026-05-02T18:08:21.115Z</time></trkpt><trkpt lat="43.6927913" lon="10.5233415"><ele>18.0</ele><time>2026-05-02T18:08:22.115Z</time></trkpt><trkpt lat="43.6927428" lon="10.5234832"><ele>18.5</ele><time>2026-05-02T18:08:23.115Z</time></trkpt><trkpt lat="43.6926979" lon="10.5236336"><ele>19.0</ele><time>2026-05-02T18:08:24.115Z</time></trkpt><trkpt lat="43.69265" lon="10.5237833"><ele>19.5</ele><time>2026-05-02T18:08:25.115Z</time></trkpt><trkpt lat="43.6925984" lon="10.5239381"><ele>20.0</ele><time>2026-05-02T18:08:26.115Z</time></trkpt><trkpt lat="43.6925454" lon="10.5240926"><ele>20.5</ele><time>2026-05-02T18:08:27.114Z</time></trkpt><trkpt lat="43.6924914" lon="10.5242519"><ele>21.0</ele><time>2026-05-02T18:08:28.115Z</time></trkpt><trkpt lat="43.6924335" lon="10.5244139"><ele>21.75</ele><time>2026-05-02T18:08:29.115Z</time></trkpt><trkpt lat="43.6923748" lon="10.5245814"><ele>22.5</ele><time>2026-05-02T18:08:30.114Z</time></trkpt><trkpt lat="43.6923151" lon="10.5247513"><ele>23.25</ele><time>2026-05-02T18:08:31.115Z</time></trkpt><trkpt lat="43.6922579" lon="10.5249213"><ele>24.0</ele><time>2026-05-02T18:08:32.115Z</time></trkpt><trkpt lat="43.6922035" lon="10.5250917"><ele>24.0</ele><time>2026-05-02T18:08:33.115Z</time></trkpt><trkpt lat="43.6921477" lon="10.5252609"><ele>24.0</ele><time>2026-05-02T18:08:34.114Z</time></trkpt><trkpt lat="43.6920862" lon="10.5254295"><ele>24.0</ele><time>2026-05-02T18:08:35.115Z</time></trkpt><trkpt lat="43.6920179" lon="10.5255952"><ele>24.0</ele><time>2026-05-02T18:08:36.115Z</time></trkpt><trkpt lat="43.6919322" lon="10.5257455"><ele>22.75</ele><time>2026-05-02T18:08:37.115Z</time></trkpt><trkpt lat="43.6918351" lon="10.5258843"><ele>21.5</ele><time>2026-05-02T18:08:38.115Z</time></trkpt><trkpt lat="43.6917344" lon="10.5260144"><ele>20.25</ele><time>2026-05-02T18:08:39.114Z</time></trkpt><trkpt lat="43.6916366" lon="10.5261351"><ele>19.0</ele><time>2026-05-02T18:08:40.114Z</time></trkpt><trkpt lat="43.6915401" lon="10.5262552"><ele>19.0</ele><time>2026-05-02T18:08:41.114Z</time></trkpt><trkpt lat="43.6914429" lon="10.5263766"><ele>19.0</ele><time>2026-05-02T18:08:42.114Z</time></trkpt><trkpt lat="43.6913447" lon="10.5265031"><ele>19.0</ele><time>2026-05-02T18:08:43.114Z</time></trkpt><trkpt lat="43.6912506" lon="10.5266367"><ele>19.0</ele><time>2026-05-02T18:08:44.114Z</time></trkpt><trkpt lat="43.6911621" lon="10.5267788"><ele>18.5</ele><time>2026-05-02T18:08:45.115Z</time></trkpt><trkpt lat="43.6910808" lon="10.5269309"><ele>18.0</ele><time>2026-05-02T18:08:46.115Z</time></trkpt><trkpt lat="43.6910069" lon="10.5270925"><ele>17.5</ele><time>2026-05-02T18:08:47.114Z</time></trkpt><trkpt lat="43.6909322" lon="10.5272567"><ele>17.0</ele><time>2026-05-02T18:08:48.114Z</time></trkpt><trkpt lat="43.6908593" lon="10.527412"><ele>17.0</ele><time>2026-05-02T18:08:49.115Z</time></trkpt><trkpt lat="43.6907896" lon="10.5275725"><ele>17.0</ele><time>2026-05-02T18:08:50.115Z</time></trkpt><trkpt lat="43.6907263" lon="10.5277379"><ele>17.0</ele><time>2026-05-02T18:08:51.115Z</time></trkpt><trkpt lat="43.6906626" lon="10.5279107"><ele>17.0</ele><time>2026-05-02T18:08:52.115Z</time></trkpt><trkpt lat="43.6906014" lon="10.5280852"><ele>17.0</ele><time>2026-05-02T18:08:53.115Z</time></trkpt><trkpt lat="43.6905434" lon="10.5282624"><ele>17.0</ele><time>2026-05-02T18:08:54.114Z</time></trkpt><trkpt lat="43.690492" lon="10.5284443"><ele>17.0</ele><time>2026-05-02T18:08:55.115Z</time></trkpt><trkpt lat="43.6904366" lon="10.528634"><ele>17.0</ele><time>2026-05-02T18:08:56.115Z</time></trkpt><trkpt lat="43.6903919" lon="10.5288145"><ele>17.0</ele><time>2026-05-02T18:08:57.114Z</time></trkpt><trkpt lat="43.69035" lon="10.5289926"><ele>17.0</ele><time>2026-05-02T18:08:58.115Z</time></trkpt><trkpt lat="43.690303" lon="10.5291727"><ele>17.0</ele><time>2026-05-02T18:08:59.114Z</time></trkpt><trkpt lat="43.6902556" lon="10.5293551"><ele>17.0</ele><time>2026-05-02T18:09:00.115Z</time></trkpt><trkpt lat="43.6902101" lon="10.5295407"><ele>16.5</ele><time>2026-05-02T18:09:01.115Z</time></trkpt><trkpt lat="43.6901711" lon="10.5297314"><ele>16.0</ele><time>2026-05-02T18:09:02.115Z</time></trkpt><trkpt lat="43.690132" lon="10.529922"><ele>15.5</ele><time>2026-05-02T18:09:03.115Z</time></trkpt><trkpt lat="43.6900881" lon="10.530113"><ele>15.0</ele><time>2026-05-02T18:09:04.115Z</time></trkpt><trkpt lat="43.6900459" lon="10.530301"><ele>15.25</ele><time>2026-05-02T18:09:05.115Z</time></trkpt><trkpt lat="43.6900014" lon="10.5304861"><ele>15.5</ele><time>2026-05-02T18:09:06.115Z</time></trkpt><trkpt lat="43.6899587" lon="10.5306758"><ele>15.75</ele><time>2026-05-02T18:09:07.115Z</time></trkpt><trkpt lat="43.6899187" lon="10.5308662"><ele>16.0</ele><time>2026-05-02T18:09:08.115Z</time></trkpt><trkpt lat="43.6898741" lon="10.5310592"><ele>15.75</ele><time>2026-05-02T18:09:09.115Z</time></trkpt><trkpt lat="43.6898315" lon="10.5312529"><ele>15.5</ele><time>2026-05-02T18:09:10.114Z</time></trkpt><trkpt lat="43.6897887" lon="10.5314506"><ele>15.25</ele><time>2026-05-02T18:09:11.115Z</time></trkpt><trkpt lat="43.6897471" lon="10.5316462"><ele>15.0</ele><time>2026-05-02T18:09:12.114Z</time></trkpt><trkpt lat="43.689702" lon="10.5318368"><ele>15.0</ele><time>2026-05-02T18:09:13.115Z</time></trkpt><trkpt lat="43.6896586" lon="10.5320263"><ele>15.0</ele><time>2026-05-02T18:09:14.114Z</time></trkpt><trkpt lat="43.6896163" lon="10.5322118"><ele>15.0</ele><time>2026-05-02T18:09:15.114Z</time></trkpt><trkpt lat="43.6895744" lon="10.532398"><ele>15.0</ele><time>2026-05-02T18:09:16.114Z</time></trkpt><trkpt lat="43.6895292" lon="10.5325828"><ele>14.5</ele><time>2026-05-02T18:09:17.114Z</time></trkpt><trkpt lat="43.6894876" lon="10.5327655"><ele>14.0</ele><time>2026-05-02T18:09:18.115Z</time></trkpt><trkpt lat="43.6894479" lon="10.5329499"><ele>13.5</ele><time>2026-05-02T18:09:19.114Z</time></trkpt><trkpt lat="43.6894065" lon="10.5331293"><ele>13.0</ele><time>2026-05-02T18:09:20.115Z</time></trkpt><trkpt lat="43.6893658" lon="10.533306"><ele>13.0</ele><time>2026-05-02T18:09:21.115Z</time></trkpt><trkpt lat="43.6893294" lon="10.5334858"><ele>13.0</ele><time>2026-05-02T18:09:22.115Z</time></trkpt><trkpt lat="43.6892903" lon="10.533667"><ele>13.0</ele><time>2026-05-02T18:09:23.115Z</time></trkpt><trkpt lat="43.6892477" lon="10.5338485"><ele>13.0</ele><time>2026-05-02T18:09:24.115Z</time></trkpt><trkpt lat="43.689205" lon="10.5340408"><ele>13.0</ele><time>2026-05-02T18:09:25.114Z</time></trkpt><trkpt lat="43.6891598" lon="10.5342384"><ele>13.0</ele><time>2026-05-02T18:09:26.115Z</time></trkpt><trkpt lat="43.6891119" lon="10.5344413"><ele>13.0</ele><time>2026-05-02T18:09:27.115Z</time></trkpt><trkpt lat="43.689061" lon="10.5346463"><ele>13.333333333333332</ele><time>2026-05-02T18:09:28.115Z</time></trkpt><trkpt lat="43.6890124" lon="10.5348535"><ele>13.666666666666668</ele><time>2026-05-02T18:09:29.115Z</time></trkpt><trkpt lat="43.6889604" lon="10.5350657"><ele>14.0</ele><time>2026-05-02T18:09:30.115Z</time></trkpt><trkpt lat="43.6889145" lon="10.5352847"><ele>13.666666666666668</ele><time>2026-05-02T18:09:31.115Z</time></trkpt><trkpt lat="43.6888649" lon="10.5355"><ele>13.333333333333332</ele><time>2026-05-02T18:09:32.115Z</time></trkpt><trkpt lat="43.6888145" lon="10.5357172"><ele>13.0</ele><time>2026-05-02T18:09:33.115Z</time></trkpt><trkpt lat="43.6887626" lon="10.5359276"><ele>13.0</ele><time>2026-05-02T18:09:34.114Z</time></trkpt><trkpt lat="43.6887106" lon="10.5361403"><ele>13.0</ele><time>2026-05-02T18:09:35.115Z</time></trkpt><trkpt lat="43.6886603" lon="10.5363524"><ele>13.0</ele><time>2026-05-02T18:09:36.115Z</time></trkpt><trkpt lat="43.6886113" lon="10.5365683"><ele>13.0</ele><time>2026-05-02T18:09:37.114Z</time></trkpt><trkpt lat="43.6885613" lon="10.5367868"><ele>13.0</ele><time>2026-05-02T18:09:38.115Z</time></trkpt><trkpt lat="43.6885133" lon="10.537004"><ele>13.0</ele><time>2026-05-02T18:09:39.114Z</time></trkpt><trkpt lat="43.6884645" lon="10.5372248"><ele>13.666666666666666</ele><time>2026-05-02T18:09:40.114Z</time></trkpt><trkpt lat="43.6884143" lon="10.5374477"><ele>14.333333333333332</ele><time>2026-05-02T18:09:41.114Z</time></trkpt><trkpt lat="43.6883639" lon="10.5376693"><ele>15.0</ele><time>2026-05-02T18:09:42.115Z</time></trkpt><trkpt lat="43.6883129" lon="10.5378915"><ele>15.666666666666668</ele><time>2026-05-02T18:09:43.115Z</time></trkpt><trkpt lat="43.6882619" lon="10.5381115"><ele>16.333333333333336</ele><time>2026-05-02T18:09:44.115Z</time></trkpt><trkpt lat="43.6882102" lon="10.5383346"><ele>17.0</ele><time>2026-05-02T18:09:45.115Z</time></trkpt><trkpt lat="43.6881607" lon="10.5385537"><ele>18.333333333333336</ele><time>2026-05-02T18:09:46.115Z</time></trkpt><trkpt lat="43.6881113" lon="10.5387709"><ele>19.666666666666668</ele><time>2026-05-02T18:09:47.115Z</time></trkpt><trkpt lat="43.688064" lon="10.5389829"><ele>21.0</ele><time>2026-05-02T18:09:48.115Z</time></trkpt><trkpt lat="43.6880177" lon="10.5391898"><ele>21.0</ele><time>2026-05-02T18:09:49.114Z</time></trkpt><trkpt lat="43.6879685" lon="10.5393942"><ele>21.0</ele><time>2026-05-02T18:09:50.115Z</time></trkpt><trkpt lat="43.6879179" lon="10.5395986"><ele>21.0</ele><time>2026-05-02T18:09:51.115Z</time></trkpt><trkpt lat="43.6878703" lon="10.5398028"><ele>23.0</ele><time>2026-05-02T18:09:52.115Z</time></trkpt><trkpt lat="43.6878267" lon="10.5400083"><ele>25.0</ele><time>2026-05-02T18:09:53.115Z</time></trkpt><trkpt lat="43.687781" lon="10.5402156"><ele>27.0</ele><time>2026-05-02T18:09:54.114Z</time></trkpt><trkpt lat="43.6877348" lon="10.5404211"><ele>22.333333333333332</ele><time>2026-05-02T18:09:55.115Z</time></trkpt><trkpt lat="43.6876872" lon="10.5406271"><ele>17.666666666666664</ele><time>2026-05-02T18:09:56.115Z</time></trkpt><trkpt lat="43.6876379" lon="10.5408333"><ele>13.0</ele><time>2026-05-02T18:09:57.114Z</time></trkpt><trkpt lat="43.6875888" lon="10.5410381"><ele>12.666666666666666</ele><time>2026-05-02T18:09:58.115Z</time></trkpt><trkpt lat="43.6875426" lon="10.541245"><ele>12.333333333333332</ele><time>2026-05-02T18:09:59.115Z</time></trkpt><trkpt lat="43.6874919" lon="10.5414488"><ele>12.0</ele><time>2026-05-02T18:10:00.115Z</time></trkpt><trkpt lat="43.6874401" lon="10.5416519"><ele>12.0</ele><time>2026-05-02T18:10:01.115Z</time></trkpt><trkpt lat="43.6873876" lon="10.5418468"><ele>12.0</ele><time>2026-05-02T18:10:02.115Z</time></trkpt><trkpt lat="43.6873388" lon="10.5420397"><ele>12.0</ele><time>2026-05-02T18:10:03.115Z</time></trkpt><trkpt lat="43.6872904" lon="10.5422285"><ele>12.0</ele><time>2026-05-02T18:10:04.114Z</time></trkpt><trkpt lat="43.6872413" lon="10.5424178"><ele>12.25</ele><time>2026-05-02T18:10:05.115Z</time></trkpt><trkpt lat="43.6871888" lon="10.5426083"><ele>12.5</ele><time>2026-05-02T18:10:06.115Z</time></trkpt><trkpt lat="43.6871276" lon="10.542793"><ele>12.75</ele><time>2026-05-02T18:10:07.115Z</time></trkpt><trkpt lat="43.6870572" lon="10.5429756"><ele>13.0</ele><time>2026-05-02T18:10:08.114Z</time></trkpt><trkpt lat="43.6869788" lon="10.5431593"><ele>13.0</ele><time>2026-05-02T18:10:09.115Z</time></trkpt><trkpt lat="43.6869001" lon="10.5433388"><ele>13.0</ele><time>2026-05-02T18:10:10.115Z</time></trkpt><trkpt lat="43.6868199" lon="10.5435132"><ele>13.0</ele><time>2026-05-02T18:10:11.115Z</time></trkpt><trkpt lat="43.6867412" lon="10.5436799"><ele>13.0</ele><time>2026-05-02T18:10:12.115Z</time></trkpt><trkpt lat="43.6866679" lon="10.5438374"><ele>13.0</ele><time>2026-05-02T18:10:13.115Z</time></trkpt><trkpt lat="43.6865974" lon="10.5439953"><ele>13.0</ele><time>2026-05-02T18:10:14.115Z</time></trkpt><trkpt lat="43.6865278" lon="10.5441438"><ele>13.0</ele><time>2026-05-02T18:10:15.115Z</time></trkpt><trkpt lat="43.6864611" lon="10.5442939"><ele>13.0</ele><time>2026-05-02T18:10:16.115Z</time></trkpt><trkpt lat="43.6863939" lon="10.5444427"><ele>13.25</ele><time>2026-05-02T18:10:17.114Z</time></trkpt><trkpt lat="43.6863256" lon="10.5445917"><ele>13.5</ele><time>2026-05-02T18:10:18.114Z</time></trkpt><trkpt lat="43.6862587" lon="10.5447369"><ele>13.75</ele><time>2026-05-02T18:10:19.114Z</time></trkpt><trkpt lat="43.6861867" lon="10.5448838"><ele>14.0</ele><time>2026-05-02T18:10:20.115Z</time></trkpt><trkpt lat="43.6861236" lon="10.5450243"><ele>13.799999999999999</ele><time>2026-05-02T18:10:21.115Z</time></trkpt><trkpt lat="43.686065" lon="10.5451568"><ele>13.599999999999998</ele><time>2026-05-02T18:10:22.115Z</time></trkpt><trkpt lat="43.6860093" lon="10.5452827"><ele>13.4</ele><time>2026-05-02T18:10:23.114Z</time></trkpt><trkpt lat="43.6859457" lon="10.5454094"><ele>13.2</ele><time>2026-05-02T18:10:24.115Z</time></trkpt><trkpt lat="43.6858869" lon="10.5455206"><ele>13.0</ele><time>2026-05-02T18:10:25.115Z</time></trkpt><trkpt lat="43.6858329" lon="10.5456267"><ele>12.999999999999998</ele><time>2026-05-02T18:10:26.115Z</time></trkpt><trkpt lat="43.6857854" lon="10.545729"><ele>13.0</ele><time>2026-05-02T18:10:27.114Z</time></trkpt><trkpt lat="43.6857432" lon="10.5458258"><ele>13.0</ele><time>2026-05-02T18:10:28.115Z</time></trkpt><trkpt lat="43.6857025" lon="10.5459174"><ele>13.0</ele><time>2026-05-02T18:10:29.115Z</time></trkpt><trkpt lat="43.6856504" lon="10.5460048"><ele>12.999999999999998</ele><time>2026-05-02T18:10:30.115Z</time></trkpt><trkpt lat="43.6855964" lon="10.5460846"><ele>13.0</ele><time>2026-05-02T18:10:31.115Z</time></trkpt><trkpt lat="43.6855443" lon="10.5461705"><ele>13.4</ele><time>2026-05-02T18:10:32.115Z</time></trkpt><trkpt lat="43.6855147" lon="10.5462779"><ele>13.8</ele><time>2026-05-02T18:10:33.114Z</time></trkpt><trkpt lat="43.6854999" lon="10.546395"><ele>14.2</ele><time>2026-05-02T18:10:34.114Z</time></trkpt><trkpt lat="43.6854845" lon="10.546519"><ele>14.6</ele><time>2026-05-02T18:10:35.114Z</time></trkpt><trkpt lat="43.6854626" lon="10.5466531"><ele>15.0</ele><time>2026-05-02T18:10:36.115Z</time></trkpt><trkpt lat="43.6854308" lon="10.5467899"><ele>15.0</ele><time>2026-05-02T18:10:37.115Z</time></trkpt><trkpt lat="43.6853992" lon="10.5469328"><ele>15.0</ele><time>2026-05-02T18:10:38.114Z</time></trkpt><trkpt lat="43.6853656" lon="10.5470833"><ele>15.0</ele><time>2026-05-02T18:10:39.115Z</time></trkpt><trkpt lat="43.6853299" lon="10.547239"><ele>15.0</ele><time>2026-05-02T18:10:40.115Z</time></trkpt><trkpt lat="43.685289" lon="10.5474051"><ele>14.75</ele><time>2026-05-02T18:10:41.115Z</time></trkpt><trkpt lat="43.6852446" lon="10.5475767"><ele>14.5</ele><time>2026-05-02T18:10:42.115Z</time></trkpt><trkpt lat="43.6852025" lon="10.5477516"><ele>14.25</ele><time>2026-05-02T18:10:43.115Z</time></trkpt><trkpt lat="43.6851584" lon="10.5479339"><ele>14.0</ele><time>2026-05-02T18:10:44.115Z</time></trkpt><trkpt lat="43.6851171" lon="10.5481132"><ele>14.0</ele><time>2026-05-02T18:10:45.115Z</time></trkpt><trkpt lat="43.6850812" lon="10.5482908"><ele>14.0</ele><time>2026-05-02T18:10:46.115Z</time></trkpt><trkpt lat="43.685042" lon="10.5484689"><ele>14.0</ele><time>2026-05-02T18:10:47.114Z</time></trkpt><trkpt lat="43.6850038" lon="10.5486534"><ele>14.0</ele><time>2026-05-02T18:10:48.115Z</time></trkpt><trkpt lat="43.6849615" lon="10.5488385"><ele>14.333333333333334</ele><time>2026-05-02T18:10:49.114Z</time></trkpt><trkpt lat="43.6849167" lon="10.5490369"><ele>14.666666666666668</ele><time>2026-05-02T18:10:50.115Z</time></trkpt><trkpt lat="43.6848701" lon="10.5492426"><ele>15.0</ele><time>2026-05-02T18:10:51.114Z</time></trkpt><trkpt lat="43.6848222" lon="10.5494561"><ele>15.0</ele><time>2026-05-02T18:10:52.115Z</time></trkpt><trkpt lat="43.6847748" lon="10.5496717"><ele>15.0</ele><time>2026-05-02T18:10:53.115Z</time></trkpt><trkpt lat="43.6847232" lon="10.54989"><ele>15.0</ele><time>2026-05-02T18:10:54.115Z</time></trkpt><trkpt lat="43.6846731" lon="10.5501099"><ele>15.0</ele><time>2026-05-02T18:10:55.114Z</time></trkpt><trkpt lat="43.6846232" lon="10.5503289"><ele>15.0</ele><time>2026-05-02T18:10:56.114Z</time></trkpt><trkpt lat="43.68458" lon="10.5505536"><ele>15.0</ele><time>2026-05-02T18:10:57.115Z</time></trkpt><trkpt lat="43.6845432" lon="10.5507689"><ele>15.0</ele><time>2026-05-02T18:10:58.115Z</time></trkpt><trkpt lat="43.6845225" lon="10.5509765"><ele>15.0</ele><time>2026-05-02T18:10:59.114Z</time></trkpt><trkpt lat="43.6845099" lon="10.5511729"><ele>15.0</ele><time>2026-05-02T18:11:00.114Z</time></trkpt><trkpt lat="43.6844964" lon="10.551366"><ele>15.0</ele><time>2026-05-02T18:11:01.115Z</time></trkpt><trkpt lat="43.6844837" lon="10.5515517"><ele>15.0</ele><time>2026-05-02T18:11:02.115Z</time></trkpt><trkpt lat="43.6844742" lon="10.5517441"><ele>15.0</ele><time>2026-05-02T18:11:03.115Z</time></trkpt><trkpt lat="43.6844639" lon="10.5519312"><ele>15.0</ele><time>2026-05-02T18:11:04.114Z</time></trkpt><trkpt lat="43.6844552" lon="10.5521188"><ele>15.0</ele><time>2026-05-02T18:11:05.114Z</time></trkpt><trkpt lat="43.6844487" lon="10.5523071"><ele>15.25</ele><time>2026-05-02T18:11:06.114Z</time></trkpt><trkpt lat="43.6844508" lon="10.5524969"><ele>15.5</ele><time>2026-05-02T18:11:07.115Z</time></trkpt><trkpt lat="43.684469" lon="10.5526898"><ele>15.75</ele><time>2026-05-02T18:11:08.115Z</time></trkpt><trkpt lat="43.6844991" lon="10.552881"><ele>16.0</ele><time>2026-05-02T18:11:09.115Z</time></trkpt><trkpt lat="43.6845343" lon="10.5530752"><ele>16.0</ele><time>2026-05-02T18:11:10.115Z</time></trkpt><trkpt lat="43.6845698" lon="10.5532719"><ele>16.0</ele><time>2026-05-02T18:11:11.115Z</time></trkpt><trkpt lat="43.6846031" lon="10.5534598"><ele>16.0</ele><time>2026-05-02T18:11:12.115Z</time></trkpt><trkpt lat="43.6846255" lon="10.5536451"><ele>16.0</ele><time>2026-05-02T18:11:13.115Z</time></trkpt><trkpt lat="43.6846379" lon="10.5538297"><ele>16.0</ele><time>2026-05-02T18:11:14.115Z</time></trkpt><trkpt lat="43.6846337" lon="10.5540227"><ele>16.0</ele><time>2026-05-02T18:11:15.114Z</time></trkpt><trkpt lat="43.6846231" lon="10.5542129"><ele>16.0</ele><time>2026-05-02T18:11:16.115Z</time></trkpt><trkpt lat="43.6846079" lon="10.5544095"><ele>16.0</ele><time>2026-05-02T18:11:17.115Z</time></trkpt><trkpt lat="43.6845907" lon="10.5546136"><ele>16.75</ele><time>2026-05-02T18:11:18.115Z</time></trkpt><trkpt lat="43.684576" lon="10.5548115"><ele>17.5</ele><time>2026-05-02T18:11:19.115Z</time></trkpt><trkpt lat="43.6845604" lon="10.554997"><ele>18.25</ele><time>2026-05-02T18:11:20.115Z</time></trkpt><trkpt lat="43.6845436" lon="10.5551782"><ele>19.0</ele><time>2026-05-02T18:11:21.115Z</time></trkpt><trkpt lat="43.6845222" lon="10.5553632"><ele>20.0</ele><time>2026-05-02T18:11:22.115Z</time></trkpt><trkpt lat="43.6845028" lon="10.5555442"><ele>21.0</ele><time>2026-05-02T18:11:23.115Z</time></trkpt><trkpt lat="43.6844826" lon="10.5557294"><ele>22.0</ele><time>2026-05-02T18:11:24.114Z</time></trkpt><trkpt lat="43.68446" lon="10.5559176"><ele>23.0</ele><time>2026-05-02T18:11:25.115Z</time></trkpt><trkpt lat="43.6844393" lon="10.5561083"><ele>20.5</ele><time>2026-05-02T18:11:26.115Z</time></trkpt><trkpt lat="43.6844165" lon="10.5563033"><ele>18.0</ele><time>2026-05-02T18:11:27.114Z</time></trkpt><trkpt lat="43.6843912" lon="10.5564969"><ele>15.5</ele><time>2026-05-02T18:11:28.115Z</time></trkpt><trkpt lat="43.684364" lon="10.5566922"><ele>13.0</ele><time>2026-05-02T18:11:29.114Z</time></trkpt><trkpt lat="43.6843356" lon="10.5568813"><ele>12.75</ele><time>2026-05-02T18:11:30.115Z</time></trkpt><trkpt lat="43.6843011" lon="10.5570658"><ele>12.5</ele><time>2026-05-02T18:11:31.115Z</time></trkpt><trkpt lat="43.6842638" lon="10.5572492"><ele>12.25</ele><time>2026-05-02T18:11:32.114Z</time></trkpt><trkpt lat="43.684227" lon="10.5574309"><ele>12.0</ele><time>2026-05-02T18:11:33.115Z</time></trkpt><trkpt lat="43.6841843" lon="10.5576081"><ele>12.0</ele><time>2026-05-02T18:11:34.115Z</time></trkpt><trkpt lat="43.6841403" lon="10.5577842"><ele>12.0</ele><time>2026-05-02T18:11:35.115Z</time></trkpt><trkpt lat="43.6840914" lon="10.5579576"><ele>12.0</ele><time>2026-05-02T18:11:36.115Z</time></trkpt><trkpt lat="43.6840409" lon="10.5581248"><ele>12.0</ele><time>2026-05-02T18:11:37.115Z</time></trkpt><trkpt lat="43.6839919" lon="10.5582954"><ele>12.75</ele><time>2026-05-02T18:11:38.114Z</time></trkpt><trkpt lat="43.6839385" lon="10.558467"><ele>13.5</ele><time>2026-05-02T18:11:39.115Z</time></trkpt><trkpt lat="43.6838814" lon="10.55864"><ele>14.25</ele><time>2026-05-02T18:11:40.114Z</time></trkpt><trkpt lat="43.683817" lon="10.5588123"><ele>15.0</ele><time>2026-05-02T18:11:41.115Z</time></trkpt><trkpt lat="43.6837451" lon="10.5589897"><ele>15.0</ele><time>2026-05-02T18:11:42.115Z</time></trkpt><trkpt lat="43.6836725" lon="10.5591651"><ele>15.0</ele><time>2026-05-02T18:11:43.115Z</time></trkpt><trkpt lat="43.6835947" lon="10.5593456"><ele>15.0</ele><time>2026-05-02T18:11:44.115Z</time></trkpt><trkpt lat="43.6835238" lon="10.55953"><ele>15.0</ele><time>2026-05-02T18:11:45.115Z</time></trkpt><trkpt lat="43.6834551" lon="10.5597213"><ele>14.666666666666668</ele><time>2026-05-02T18:11:46.114Z</time></trkpt><trkpt lat="43.6833846" lon="10.559907"><ele>14.333333333333334</ele><time>2026-05-02T18:11:47.115Z</time></trkpt><trkpt lat="43.6833081" lon="10.5600955"><ele>14.0</ele><time>2026-05-02T18:11:48.114Z</time></trkpt><trkpt lat="43.6832341" lon="10.5602864"><ele>14.0</ele><time>2026-05-02T18:11:49.114Z</time></trkpt><trkpt lat="43.6831549" lon="10.5604797"><ele>14.0</ele><time>2026-05-02T18:11:50.115Z</time></trkpt><trkpt lat="43.6830724" lon="10.5606703"><ele>14.0</ele><time>2026-05-02T18:11:51.114Z</time></trkpt><trkpt lat="43.6829799" lon="10.5608528"><ele>14.0</ele><time>2026-05-02T18:11:52.114Z</time></trkpt><trkpt lat="43.6828758" lon="10.5610312"><ele>14.0</ele><time>2026-05-02T18:11:53.115Z</time></trkpt><trkpt lat="43.6827703" lon="10.5612016"><ele>14.0</ele><time>2026-05-02T18:11:54.114Z</time></trkpt><trkpt lat="43.6826676" lon="10.5613672"><ele>14.666666666666668</ele><time>2026-05-02T18:11:55.115Z</time></trkpt><trkpt lat="43.6825548" lon="10.5615393"><ele>15.333333333333332</ele><time>2026-05-02T18:11:56.115Z</time></trkpt><trkpt lat="43.6824456" lon="10.5617023"><ele>16.0</ele><time>2026-05-02T18:11:57.114Z</time></trkpt><trkpt lat="43.6823321" lon="10.561873"><ele>18.0</ele><time>2026-05-02T18:11:58.115Z</time></trkpt><trkpt lat="43.6822217" lon="10.5620442"><ele>20.0</ele><time>2026-05-02T18:11:59.115Z</time></trkpt><trkpt lat="43.6821152" lon="10.5622164"><ele>22.0</ele><time>2026-05-02T18:12:00.115Z</time></trkpt><trkpt lat="43.6820116" lon="10.5623875"><ele>20.0</ele><time>2026-05-02T18:12:01.115Z</time></trkpt><trkpt lat="43.6819078" lon="10.5625582"><ele>18.0</ele><time>2026-05-02T18:12:02.114Z</time></trkpt><trkpt lat="43.6818008" lon="10.5627295"><ele>16.0</ele><time>2026-05-02T18:12:03.114Z</time></trkpt><trkpt lat="43.6816989" lon="10.5629069"><ele>16.0</ele><time>2026-05-02T18:12:04.114Z</time></trkpt><trkpt lat="43.6816015" lon="10.5630925"><ele>16.0</ele><time>2026-05-02T18:12:05.115Z</time></trkpt><trkpt lat="43.6815083" lon="10.5632873"><ele>16.0</ele><time>2026-05-02T18:12:06.115Z</time></trkpt><trkpt lat="43.6814185" lon="10.5634889"><ele>16.0</ele><time>2026-05-02T18:12:07.114Z</time></trkpt><trkpt lat="43.6813284" lon="10.5636892"><ele>16.0</ele><time>2026-05-02T18:12:08.115Z</time></trkpt><trkpt lat="43.6812416" lon="10.5638899"><ele>16.0</ele><time>2026-05-02T18:12:09.115Z</time></trkpt><trkpt lat="43.6811546" lon="10.5640905"><ele>15.333333333333332</ele><time>2026-05-02T18:12:10.114Z</time></trkpt><trkpt lat="43.6810671" lon="10.5642846"><ele>14.666666666666668</ele><time>2026-05-02T18:12:11.115Z</time></trkpt><trkpt lat="43.6809836" lon="10.5644748"><ele>14.0</ele><time>2026-05-02T18:12:12.115Z</time></trkpt><trkpt lat="43.6809029" lon="10.5646588"><ele>14.0</ele><time>2026-05-02T18:12:13.114Z</time></trkpt><trkpt lat="43.6808233" lon="10.5648409"><ele>14.0</ele><time>2026-05-02T18:12:14.115Z</time></trkpt><trkpt lat="43.6807537" lon="10.5650122"><ele>14.0</ele><time>2026-05-02T18:12:15.115Z</time></trkpt><trkpt lat="43.6806871" lon="10.5651829"><ele>14.0</ele><time>2026-05-02T18:12:16.115Z</time></trkpt><trkpt lat="43.6806273" lon="10.5653558"><ele>13.75</ele><time>2026-05-02T18:12:17.115Z</time></trkpt><trkpt lat="43.6805764" lon="10.565532"><ele>13.5</ele><time>2026-05-02T18:12:18.115Z</time></trkpt><trkpt lat="43.680538" lon="10.5657168"><ele>13.25</ele><time>2026-05-02T18:12:19.115Z</time></trkpt><trkpt lat="43.6804973" lon="10.5659071"><ele>13.0</ele><time>2026-05-02T18:12:20.114Z</time></trkpt><trkpt lat="43.6804666" lon="10.5661047"><ele>13.333333333333332</ele><time>2026-05-02T18:12:21.115Z</time></trkpt><trkpt lat="43.6804442" lon="10.5663108"><ele>13.666666666666668</ele><time>2026-05-02T18:12:22.115Z</time></trkpt><trkpt lat="43.6804259" lon="10.5665174"><ele>14.0</ele><time>2026-05-02T18:12:23.115Z</time></trkpt><trkpt lat="43.6804189" lon="10.5667333"><ele>14.0</ele><time>2026-05-02T18:12:24.114Z</time></trkpt><trkpt lat="43.6804191" lon="10.566948"><ele>14.0</ele><time>2026-05-02T18:12:25.115Z</time></trkpt><trkpt lat="43.6804273" lon="10.5671573"><ele>14.0</ele><time>2026-05-02T18:12:26.115Z</time></trkpt><trkpt lat="43.6804427" lon="10.5673568"><ele>13.75</ele><time>2026-05-02T18:12:27.115Z</time></trkpt><trkpt lat="43.6804597" lon="10.5675466"><ele>13.5</ele><time>2026-05-02T18:12:28.114Z</time></trkpt><trkpt lat="43.6804784" lon="10.567735"><ele>13.25</ele><time>2026-05-02T18:12:29.115Z</time></trkpt><trkpt lat="43.6804973" lon="10.5679227"><ele>13.0</ele><time>2026-05-02T18:12:30.114Z</time></trkpt><trkpt lat="43.6805174" lon="10.5681111"><ele>13.0</ele><time>2026-05-02T18:12:31.115Z</time></trkpt><trkpt lat="43.6805367" lon="10.5682953"><ele>13.0</ele><time>2026-05-02T18:12:32.115Z</time></trkpt><trkpt lat="43.6805555" lon="10.5684683"><ele>13.0</ele><time>2026-05-02T18:12:33.115Z</time></trkpt><trkpt lat="43.6805736" lon="10.5686373"><ele>13.0</ele><time>2026-05-02T18:12:34.114Z</time></trkpt><trkpt lat="43.6805905" lon="10.5688065"><ele>13.0</ele><time>2026-05-02T18:12:35.115Z</time></trkpt><trkpt lat="43.6806078" lon="10.5689816"><ele>13.0</ele><time>2026-05-02T18:12:36.114Z</time></trkpt><trkpt lat="43.6806234" lon="10.5691573"><ele>13.0</ele><time>2026-05-02T18:12:37.115Z</time></trkpt><trkpt lat="43.6806411" lon="10.5693352"><ele>13.0</ele><time>2026-05-02T18:12:38.115Z</time></trkpt><trkpt lat="43.6806598" lon="10.5695126"><ele>13.25</ele><time>2026-05-02T18:12:39.114Z</time></trkpt><trkpt lat="43.6806754" lon="10.5697006"><ele>13.5</ele><time>2026-05-02T18:12:40.115Z</time></trkpt><trkpt lat="43.6806926" lon="10.5698885"><ele>13.75</ele><time>2026-05-02T18:12:41.115Z</time></trkpt><trkpt lat="43.6807109" lon="10.5700809"><ele>14.0</ele><time>2026-05-02T18:12:42.115Z</time></trkpt><trkpt lat="43.6807362" lon="10.5702783"><ele>13.666666666666668</ele><time>2026-05-02T18:12:43.115Z</time></trkpt><trkpt lat="43.6807657" lon="10.5704783"><ele>13.333333333333332</ele><time>2026-05-02T18:12:44.115Z</time></trkpt><trkpt lat="43.6808098" lon="10.5706817"><ele>13.0</ele><time>2026-05-02T18:12:45.115Z</time></trkpt><trkpt lat="43.6808622" lon="10.5708815"><ele>13.0</ele><time>2026-05-02T18:12:46.115Z</time></trkpt><trkpt lat="43.6809256" lon="10.5710789"><ele>13.0</ele><time>2026-05-02T18:12:47.115Z</time></trkpt><trkpt lat="43.6809919" lon="10.5712685"><ele>13.0</ele><time>2026-05-02T18:12:48.115Z</time></trkpt><trkpt lat="43.6810611" lon="10.5714426"><ele>13.0</ele><time>2026-05-02T18:12:49.115Z</time></trkpt><trkpt lat="43.6811315" lon="10.5716103"><ele>13.0</ele><time>2026-05-02T18:12:50.114Z</time></trkpt><trkpt lat="43.6811998" lon="10.5717659"><ele>13.0</ele><time>2026-05-02T18:12:51.115Z</time></trkpt><trkpt lat="43.681265" lon="10.5719092"><ele>13.0</ele><time>2026-05-02T18:12:52.114Z</time></trkpt><trkpt lat="43.681335" lon="10.5720464"><ele>12.8</ele><time>2026-05-02T18:12:53.115Z</time></trkpt><trkpt lat="43.6814048" lon="10.5721755"><ele>12.600000000000001</ele><time>2026-05-02T18:12:54.115Z</time></trkpt><trkpt lat="43.6814711" lon="10.5722988"><ele>12.399999999999999</ele><time>2026-05-02T18:12:55.115Z</time></trkpt><trkpt lat="43.6815352" lon="10.5724148"><ele>12.2</ele><time>2026-05-02T18:12:56.115Z</time></trkpt><trkpt lat="43.6815954" lon="10.5725189"><ele>12.0</ele><time>2026-05-02T18:12:57.115Z</time></trkpt><trkpt lat="43.6816494" lon="10.5726229"><ele>12.0</ele><time>2026-05-02T18:12:58.115Z</time></trkpt><trkpt lat="43.6816991" lon="10.5727233"><ele>12.0</ele><time>2026-05-02T18:12:59.115Z</time></trkpt><trkpt lat="43.6817441" lon="10.572824"><ele>12.0</ele><time>2026-05-02T18:13:00.115Z</time></trkpt><trkpt lat="43.681792" lon="10.5729105"><ele>12.0</ele><time>2026-05-02T18:13:01.114Z</time></trkpt><trkpt lat="43.6818381" lon="10.5730006"><ele>12.0</ele><time>2026-05-02T18:13:02.115Z</time></trkpt><trkpt lat="43.6818858" lon="10.5730888"><ele>12.0</ele><time>2026-05-02T18:13:03.115Z</time></trkpt><trkpt lat="43.681934" lon="10.5731899"><ele>12.2</ele><time>2026-05-02T18:13:04.115Z</time></trkpt><trkpt lat="43.6819861" lon="10.5732952"><ele>12.399999999999999</ele><time>2026-05-02T18:13:05.115Z</time></trkpt><trkpt lat="43.6820412" lon="10.5734057"><ele>12.600000000000001</ele><time>2026-05-02T18:13:06.114Z</time></trkpt><trkpt lat="43.6821006" lon="10.5735216"><ele>12.8</ele><time>2026-05-02T18:13:07.114Z</time></trkpt><trkpt lat="43.6821604" lon="10.5736352"><ele>13.0</ele><time>2026-05-02T18:13:08.115Z</time></trkpt><trkpt lat="43.6822233" lon="10.5737474"><ele>13.2</ele><time>2026-05-02T18:13:09.115Z</time></trkpt><trkpt lat="43.6822842" lon="10.5738643"><ele>13.4</ele><time>2026-05-02T18:13:10.115Z</time></trkpt><trkpt lat="43.6823429" lon="10.5739865"><ele>13.599999999999998</ele><time>2026-05-02T18:13:11.115Z</time></trkpt><trkpt lat="43.6824041" lon="10.5741023"><ele>13.799999999999999</ele><time>2026-05-02T18:13:12.115Z</time></trkpt><trkpt lat="43.6824705" lon="10.5742182"><ele>14.0</ele><time>2026-05-02T18:13:13.115Z</time></trkpt><trkpt lat="43.6825346" lon="10.5743366"><ele>14.0</ele><time>2026-05-02T18:13:14.115Z</time></trkpt><trkpt lat="43.682599" lon="10.5744513"><ele>13.999999999999998</ele><time>2026-05-02T18:13:15.115Z</time></trkpt><trkpt lat="43.6826568" lon="10.5745615"><ele>13.999999999999998</ele><time>2026-05-02T18:13:16.115Z</time></trkpt><trkpt lat="43.6827089" lon="10.5746627"><ele>14.0</ele><time>2026-05-02T18:13:17.115Z</time></trkpt><trkpt lat="43.6827545" lon="10.5747545"><ele>14.0</ele><time>2026-05-02T18:13:18.115Z</time></trkpt><trkpt lat="43.6828051" lon="10.5748482"><ele>14.000000000000002</ele><time>2026-05-02T18:13:19.114Z</time></trkpt><trkpt lat="43.6828579" lon="10.5749448"><ele>14.0</ele><time>2026-05-02T18:13:20.115Z</time></trkpt><trkpt lat="43.6829022" lon="10.5750358"><ele>14.0</ele><time>2026-05-02T18:13:21.114Z</time></trkpt><trkpt lat="43.6829454" lon="10.5751195"><ele>14.0</ele><time>2026-05-02T18:13:22.115Z</time></trkpt><trkpt lat="43.6829893" lon="10.5752024"><ele>14.000000000000002</ele><time>2026-05-02T18:13:23.115Z</time></trkpt><trkpt lat="43.6830318" lon="10.5752873"><ele>14.0</ele><time>2026-05-02T18:13:24.114Z</time></trkpt><trkpt lat="43.6830732" lon="10.5753628"><ele>14.2</ele><time>2026-05-02T18:13:25.115Z</time></trkpt><trkpt lat="43.6831477" lon="10.5754946"><ele>14.399999999999999</ele><time>2026-05-02T18:13:27.115Z</time></trkpt><trkpt lat="43.6832134" lon="10.5756166"><ele>14.6</ele><time>2026-05-02T18:13:29.115Z</time></trkpt><trkpt lat="43.6832748" lon="10.5757454"><ele>14.8</ele><time>2026-05-02T18:13:31.115Z</time></trkpt><trkpt lat="43.6833348" lon="10.5758617"><ele>15.0</ele><time>2026-05-02T18:13:33.115Z</time></trkpt><trkpt lat="43.6833887" lon="10.5759644"><ele>15.0</ele><time>2026-05-02T18:13:35.115Z</time></trkpt><trkpt lat="43.6834348" lon="10.5760425"><ele>15.0</ele><time>2026-05-02T18:13:37.114Z</time></trkpt><trkpt lat="43.6834727" lon="10.5761156"><ele>15.0</ele><time>2026-05-02T18:13:39.115Z</time></trkpt><trkpt lat="43.6835127" lon="10.5761928"><ele>15.0</ele><time>2026-05-02T18:13:41.115Z</time></trkpt><trkpt lat="43.683576" lon="10.5762953"><ele>15.0</ele><time>2026-05-02T18:13:43.115Z</time></trkpt><trkpt lat="43.6836268" lon="10.576359"><ele>15.0</ele><time>2026-05-02T18:13:44.115Z</time></trkpt><trkpt lat="43.683687" lon="10.5764299"><ele>15.0</ele><time>2026-05-02T18:13:45.115Z</time></trkpt><trkpt lat="43.6837478" lon="10.576508"><ele>15.0</ele><time>2026-05-02T18:13:46.115Z</time></trkpt><trkpt lat="43.6838184" lon="10.5765875"><ele>15.0</ele><time>2026-05-02T18:13:47.115Z</time></trkpt><trkpt lat="43.6838931" lon="10.5766697"><ele>15.0</ele><time>2026-05-02T18:13:48.115Z</time></trkpt><trkpt lat="43.6839689" lon="10.5767491"><ele>15.0</ele><time>2026-05-02T18:13:49.114Z</time></trkpt><trkpt lat="43.6840369" lon="10.5768157"><ele>15.0</ele><time>2026-05-02T18:13:50.115Z</time></trkpt><trkpt lat="43.6840902" lon="10.5768705"><ele>15.0</ele><time>2026-05-02T18:13:51.115Z</time></trkpt><trkpt lat="43.6841851" lon="10.5769633"><ele>15.0</ele><time>2026-05-02T18:13:53.115Z</time></trkpt><trkpt lat="43.6842381" lon="10.5770124"><ele>15.0</ele><time>2026-05-02T18:13:54.115Z</time></trkpt><trkpt lat="43.6843431" lon="10.5771037"><ele>15.0</ele><time>2026-05-02T18:13:56.115Z</time></trkpt><trkpt lat="43.6844434" lon="10.5772033"><ele>15.0</ele><time>2026-05-02T18:13:58.115Z</time></trkpt><trkpt lat="43.6845036" lon="10.5772586"><ele>15.0</ele><time>2026-05-02T18:13:59.115Z</time></trkpt><trkpt lat="43.6845649" lon="10.577315"><ele>15.0</ele><time>2026-05-02T18:14:00.115Z</time></trkpt><trkpt lat="43.6846241" lon="10.5773652"><ele>15.0</ele><time>2026-05-02T18:14:01.115Z</time></trkpt><trkpt lat="43.6846786" lon="10.5774155"><ele>15.0</ele><time>2026-05-02T18:14:02.115Z</time></trkpt><trkpt lat="43.684777" lon="10.5774999"><ele>15.0</ele><time>2026-05-02T18:14:04.115Z</time></trkpt><trkpt lat="43.684866" lon="10.5775826"><ele>15.0</ele><time>2026-05-02T18:14:06.115Z</time></trkpt><trkpt lat="43.6849625" lon="10.5776663"><ele>15.0</ele><time>2026-05-02T18:14:08.115Z</time></trkpt><trkpt lat="43.6850544" lon="10.5777603"><ele>15.0</ele><time>2026-05-02T18:14:10.115Z</time></trkpt><trkpt lat="43.685162" lon="10.577855"><ele>15.0</ele><time>2026-05-02T18:14:12.115Z</time></trkpt><trkpt lat="43.6852255" lon="10.577904"><ele>15.0</ele><time>2026-05-02T18:14:13.115Z</time></trkpt><trkpt lat="43.6852898" lon="10.5779648"><ele>15.0</ele><time>2026-05-02T18:14:14.115Z</time></trkpt><trkpt lat="43.6853549" lon="10.5780328"><ele>15.0</ele><time>2026-05-02T18:14:15.115Z</time></trkpt><trkpt lat="43.6854179" lon="10.5780934"><ele>15.0</ele><time>2026-05-02T18:14:16.114Z</time></trkpt><trkpt lat="43.6854813" lon="10.5781486"><ele>15.0</ele><time>2026-05-02T18:14:17.114Z</time></trkpt><trkpt lat="43.6855398" lon="10.5782055"><ele>15.0</ele><time>2026-05-02T18:14:18.115Z</time></trkpt><trkpt lat="43.6855982" lon="10.5782594"><ele>15.0</ele><time>2026-05-02T18:14:19.115Z</time></trkpt><trkpt lat="43.685662" lon="10.5783147"><ele>15.0</ele><time>2026-05-02T18:14:20.115Z</time></trkpt><trkpt lat="43.6857265" lon="10.5783768"><ele>15.0</ele><time>2026-05-02T18:14:21.115Z</time></trkpt><trkpt lat="43.6857972" lon="10.578438"><ele>15.0</ele><time>2026-05-02T18:14:22.114Z</time></trkpt><trkpt lat="43.6858737" lon="10.5785054"><ele>15.0</ele><time>2026-05-02T18:14:23.114Z</time></trkpt><trkpt lat="43.6859469" lon="10.5785739"><ele>15.0</ele><time>2026-05-02T18:14:24.115Z</time></trkpt><trkpt lat="43.6860226" lon="10.5786452"><ele>15.0</ele><time>2026-05-02T18:14:25.115Z</time></trkpt><trkpt lat="43.6861004" lon="10.5787182"><ele>15.0</ele><time>2026-05-02T18:14:26.115Z</time></trkpt><trkpt lat="43.6861805" lon="10.5787867"><ele>14.8</ele><time>2026-05-02T18:14:27.115Z</time></trkpt><trkpt lat="43.6862605" lon="10.5788546"><ele>14.6</ele><time>2026-05-02T18:14:28.115Z</time></trkpt><trkpt lat="43.6863387" lon="10.5789283"><ele>14.399999999999999</ele><time>2026-05-02T18:14:29.115Z</time></trkpt><trkpt lat="43.6864189" lon="10.5789971"><ele>14.2</ele><time>2026-05-02T18:14:30.115Z</time></trkpt><trkpt lat="43.6865039" lon="10.5790635"><ele>14.0</ele><time>2026-05-02T18:14:31.115Z</time></trkpt><trkpt lat="43.6865869" lon="10.5791328"><ele>14.0</ele><time>2026-05-02T18:14:32.115Z</time></trkpt><trkpt lat="43.6866728" lon="10.5792048"><ele>13.999999999999998</ele><time>2026-05-02T18:14:33.115Z</time></trkpt><trkpt lat="43.6867597" lon="10.579279"><ele>13.999999999999998</ele><time>2026-05-02T18:14:34.114Z</time></trkpt><trkpt lat="43.6868504" lon="10.579354"><ele>14.0</ele><time>2026-05-02T18:14:35.115Z</time></trkpt><trkpt lat="43.6869383" lon="10.5794322"><ele>14.0</ele><time>2026-05-02T18:14:36.115Z</time></trkpt><trkpt lat="43.6870226" lon="10.5795116"><ele>14.2</ele><time>2026-05-02T18:14:37.114Z</time></trkpt><trkpt lat="43.687111" lon="10.579599"><ele>14.399999999999999</ele><time>2026-05-02T18:14:38.114Z</time></trkpt><trkpt lat="43.6871953" lon="10.5796923"><ele>14.6</ele><time>2026-05-02T18:14:39.115Z</time></trkpt><trkpt lat="43.6872769" lon="10.5797909"><ele>14.8</ele><time>2026-05-02T18:14:40.114Z</time></trkpt><trkpt lat="43.6873527" lon="10.5799008"><ele>15.0</ele><time>2026-05-02T18:14:41.114Z</time></trkpt><trkpt lat="43.6874316" lon="10.5800135"><ele>15.0</ele><time>2026-05-02T18:14:42.115Z</time></trkpt><trkpt lat="43.6875026" lon="10.5801244"><ele>15.0</ele><time>2026-05-02T18:14:43.115Z</time></trkpt><trkpt lat="43.6875747" lon="10.5802311"><ele>15.0</ele><time>2026-05-02T18:14:44.115Z</time></trkpt><trkpt lat="43.6876459" lon="10.5803331"><ele>15.0</ele><time>2026-05-02T18:14:45.115Z</time></trkpt><trkpt lat="43.687723" lon="10.5804343"><ele>15.0</ele><time>2026-05-02T18:14:46.115Z</time></trkpt><trkpt lat="43.6877952" lon="10.5805432"><ele>15.5</ele><time>2026-05-02T18:14:47.114Z</time></trkpt><trkpt lat="43.6878716" lon="10.5806557"><ele>16.0</ele><time>2026-05-02T18:14:48.115Z</time></trkpt><trkpt lat="43.6879495" lon="10.5807686"><ele>16.5</ele><time>2026-05-02T18:14:49.114Z</time></trkpt><trkpt lat="43.688028" lon="10.5808848"><ele>17.0</ele><time>2026-05-02T18:14:50.115Z</time></trkpt><trkpt lat="43.6881081" lon="10.5810031"><ele>17.0</ele><time>2026-05-02T18:14:51.115Z</time></trkpt><trkpt lat="43.6881808" lon="10.5811217"><ele>17.0</ele><time>2026-05-02T18:14:52.115Z</time></trkpt><trkpt lat="43.6882393" lon="10.5812574"><ele>17.0</ele><time>2026-05-02T18:14:53.114Z</time></trkpt><trkpt lat="43.6882833" lon="10.5813926"><ele>17.0</ele><time>2026-05-02T18:14:54.115Z</time></trkpt><trkpt lat="43.688307" lon="10.5815448"><ele>17.0</ele><time>2026-05-02T18:14:55.114Z</time></trkpt><trkpt lat="43.6883084" lon="10.5816995"><ele>17.0</ele><time>2026-05-02T18:14:56.114Z</time></trkpt><trkpt lat="43.6882936" lon="10.5818576"><ele>17.0</ele><time>2026-05-02T18:14:57.114Z</time></trkpt><trkpt lat="43.68828" lon="10.5820168"><ele>17.0</ele><time>2026-05-02T18:14:58.115Z</time></trkpt><trkpt lat="43.6882636" lon="10.5821835"><ele>17.0</ele><time>2026-05-02T18:14:59.115Z</time></trkpt><trkpt lat="43.6882455" lon="10.5823511"><ele>17.0</ele><time>2026-05-02T18:15:00.115Z</time></trkpt><trkpt lat="43.6882321" lon="10.5825198"><ele>17.0</ele><time>2026-05-02T18:15:01.115Z</time></trkpt><trkpt lat="43.6882169" lon="10.5826875"><ele>17.0</ele><time>2026-05-02T18:15:02.115Z</time></trkpt><trkpt lat="43.6881993" lon="10.5828469"><ele>17.0</ele><time>2026-05-02T18:15:03.115Z</time></trkpt><trkpt lat="43.6881822" lon="10.583"><ele>16.5</ele><time>2026-05-02T18:15:04.115Z</time></trkpt><trkpt lat="43.688165" lon="10.5831622"><ele>16.0</ele><time>2026-05-02T18:15:05.115Z</time></trkpt><trkpt lat="43.6881473" lon="10.5833221"><ele>15.5</ele><time>2026-05-02T18:15:06.115Z</time></trkpt><trkpt lat="43.6881238" lon="10.5834789"><ele>15.0</ele><time>2026-05-02T18:15:07.115Z</time></trkpt><trkpt lat="43.6881069" lon="10.5836187"><ele>14.666666666666666</ele><time>2026-05-02T18:15:08.115Z</time></trkpt><trkpt lat="43.6880855" lon="10.5837438"><ele>14.333333333333332</ele><time>2026-05-02T18:15:09.114Z</time></trkpt><trkpt lat="43.6880543" lon="10.5838561"><ele>14.0</ele><time>2026-05-02T18:15:10.114Z</time></trkpt><trkpt lat="43.688027" lon="10.5839581"><ele>13.666666666666666</ele><time>2026-05-02T18:15:11.115Z</time></trkpt><trkpt lat="43.6879971" lon="10.5840411"><ele>13.333333333333332</ele><time>2026-05-02T18:15:12.115Z</time></trkpt><trkpt lat="43.6879382" lon="10.5841506"><ele>13.0</ele><time>2026-05-02T18:15:14.115Z</time></trkpt><trkpt lat="43.68787" lon="10.5842467"><ele>13.0</ele><time>2026-05-02T18:15:16.115Z</time></trkpt><trkpt lat="43.6877914" lon="10.5843234"><ele>13.0</ele><time>2026-05-02T18:15:18.115Z</time></trkpt><trkpt lat="43.6877671" lon="10.5844315"><ele>13.0</ele><time>2026-05-02T18:15:20.114Z</time></trkpt><trkpt lat="43.6878166" lon="10.5845516"><ele>13.0</ele><time>2026-05-02T18:15:22.114Z</time></trkpt><trkpt lat="43.6878797" lon="10.584705"><ele>13.0</ele><time>2026-05-02T18:15:24.115Z</time></trkpt><trkpt lat="43.6878803" lon="10.5848153"><ele>12.833333333333332</ele><time>2026-05-02T18:15:25.115Z</time></trkpt><trkpt lat="43.687879" lon="10.5849196"><ele>12.666666666666666</ele><time>2026-05-02T18:15:26.115Z</time></trkpt><trkpt lat="43.6878735" lon="10.5850239"><ele>12.5</ele><time>2026-05-02T18:15:27.114Z</time></trkpt><trkpt lat="43.6878693" lon="10.5851309"><ele>12.333333333333332</ele><time>2026-05-02T18:15:28.114Z</time></trkpt><trkpt lat="43.6878607" lon="10.5852423"><ele>12.166666666666666</ele><time>2026-05-02T18:15:29.115Z</time></trkpt><trkpt lat="43.687854" lon="10.5853575"><ele>12.0</ele><time>2026-05-02T18:15:30.115Z</time></trkpt><trkpt lat="43.6878481" lon="10.5854657"><ele>11.999999999999998</ele><time>2026-05-02T18:15:31.114Z</time></trkpt><trkpt lat="43.6878454" lon="10.5855741"><ele>12.0</ele><time>2026-05-02T18:15:32.115Z</time></trkpt><trkpt lat="43.687841" lon="10.5856821"><ele>12.0</ele><time>2026-05-02T18:15:33.115Z</time></trkpt><trkpt lat="43.6878371" lon="10.5857948"><ele>12.0</ele><time>2026-05-02T18:15:34.115Z</time></trkpt><trkpt lat="43.6878363" lon="10.5858981"><ele>12.0</ele><time>2026-05-02T18:15:35.115Z</time></trkpt><trkpt lat="43.6878356" lon="10.5859932"><ele>11.999999999999998</ele><time>2026-05-02T18:15:36.115Z</time></trkpt><trkpt lat="43.6878295" lon="10.5860852"><ele>12.0</ele><time>2026-05-02T18:15:37.114Z</time></trkpt><trkpt lat="43.6878048" lon="10.586251"><ele>12.0</ele><time>2026-05-02T18:15:39.114Z</time></trkpt><trkpt lat="43.6877676" lon="10.586418"><ele>12.0</ele><time>2026-05-02T18:15:41.115Z</time></trkpt><trkpt lat="43.6877597" lon="10.5865253"><ele>12.0</ele><time>2026-05-02T18:15:42.115Z</time></trkpt><trkpt lat="43.6877472" lon="10.5866474"><ele>12.0</ele><time>2026-05-02T18:15:43.115Z</time></trkpt><trkpt lat="43.6877302" lon="10.586783"><ele>12.0</ele><time>2026-05-02T18:15:44.114Z</time></trkpt><trkpt lat="43.6877088" lon="10.5869231"><ele>12.5</ele><time>2026-05-02T18:15:45.114Z</time></trkpt><trkpt lat="43.6876948" lon="10.5870715"><ele>13.0</ele><time>2026-05-02T18:15:46.115Z</time></trkpt><trkpt lat="43.6876795" lon="10.5872309"><ele>13.5</ele><time>2026-05-02T18:15:47.115Z</time></trkpt><trkpt lat="43.6876599" lon="10.5873957"><ele>14.0</ele><time>2026-05-02T18:15:48.114Z</time></trkpt><trkpt lat="43.6876392" lon="10.5875685"><ele>14.0</ele><time>2026-05-02T18:15:49.115Z</time></trkpt><trkpt lat="43.6876183" lon="10.5877547"><ele>14.0</ele><time>2026-05-02T18:15:50.114Z</time></trkpt><trkpt lat="43.6875934" lon="10.5879557"><ele>14.0</ele><time>2026-05-02T18:15:51.115Z</time></trkpt><trkpt lat="43.6875659" lon="10.5881811"><ele>14.0</ele><time>2026-05-02T18:15:52.114Z</time></trkpt><trkpt lat="43.6875375" lon="10.5884152"><ele>13.666666666666668</ele><time>2026-05-02T18:15:53.115Z</time></trkpt><trkpt lat="43.6875061" lon="10.5886833"><ele>13.333333333333332</ele><time>2026-05-02T18:15:54.114Z</time></trkpt><trkpt lat="43.6874727" lon="10.5889496"><ele>13.0</ele><time>2026-05-02T18:15:55.115Z</time></trkpt><trkpt lat="43.6874409" lon="10.5892246"><ele>13.0</ele><time>2026-05-02T18:15:56.114Z</time></trkpt><trkpt lat="43.6874033" lon="10.5894994"><ele>13.0</ele><time>2026-05-02T18:15:57.114Z</time></trkpt><trkpt lat="43.6873582" lon="10.5897703"><ele>13.0</ele><time>2026-05-02T18:15:58.115Z</time></trkpt><trkpt lat="43.6873156" lon="10.590042"><ele>13.0</ele><time>2026-05-02T18:15:59.115Z</time></trkpt><trkpt lat="43.6872655" lon="10.5903118"><ele>13.0</ele><time>2026-05-02T18:16:00.114Z</time></trkpt><trkpt lat="43.687205" lon="10.5905805"><ele>13.0</ele><time>2026-05-02T18:16:01.115Z</time></trkpt><trkpt lat="43.6871341" lon="10.5908552"><ele>12.666666666666666</ele><time>2026-05-02T18:16:02.114Z</time></trkpt><trkpt lat="43.6870662" lon="10.5911278"><ele>12.333333333333332</ele><time>2026-05-02T18:16:03.115Z</time></trkpt><trkpt lat="43.6869869" lon="10.5914037"><ele>12.0</ele><time>2026-05-02T18:16:04.115Z</time></trkpt><trkpt lat="43.6868983" lon="10.5916764"><ele>11.666666666666666</ele><time>2026-05-02T18:16:05.115Z</time></trkpt><trkpt lat="43.686813" lon="10.5919452"><ele>11.333333333333332</ele><time>2026-05-02T18:16:06.115Z</time></trkpt><trkpt lat="43.6867282" lon="10.5922163"><ele>11.0</ele><time>2026-05-02T18:16:07.115Z</time></trkpt><trkpt lat="43.6866416" lon="10.5924893"><ele>11.666666666666666</ele><time>2026-05-02T18:16:08.115Z</time></trkpt><trkpt lat="43.6865538" lon="10.592756"><ele>12.333333333333332</ele><time>2026-05-02T18:16:09.115Z</time></trkpt><trkpt lat="43.6864647" lon="10.5930223"><ele>13.0</ele><time>2026-05-02T18:16:10.115Z</time></trkpt><trkpt lat="43.6863768" lon="10.593287"><ele>13.333333333333332</ele><time>2026-05-02T18:16:11.115Z</time></trkpt><trkpt lat="43.6862887" lon="10.5935469"><ele>13.666666666666668</ele><time>2026-05-02T18:16:12.115Z</time></trkpt><trkpt lat="43.6862036" lon="10.5938005"><ele>14.0</ele><time>2026-05-02T18:16:13.115Z</time></trkpt><trkpt lat="43.6861242" lon="10.5940494"><ele>14.333333333333334</ele><time>2026-05-02T18:16:14.115Z</time></trkpt><trkpt lat="43.686046" lon="10.594299"><ele>14.666666666666668</ele><time>2026-05-02T18:16:15.115Z</time></trkpt><trkpt lat="43.6859641" lon="10.5945376"><ele>15.0</ele><time>2026-05-02T18:16:16.115Z</time></trkpt><trkpt lat="43.6858843" lon="10.5947757"><ele>15.333333333333332</ele><time>2026-05-02T18:16:17.115Z</time></trkpt><trkpt lat="43.6857999" lon="10.5950083"><ele>15.666666666666666</ele><time>2026-05-02T18:16:18.115Z</time></trkpt><trkpt lat="43.6857213" lon="10.5952447"><ele>16.0</ele><time>2026-05-02T18:16:19.114Z</time></trkpt><trkpt lat="43.6856429" lon="10.5954782"><ele>16.0</ele><time>2026-05-02T18:16:20.114Z</time></trkpt><trkpt lat="43.6855695" lon="10.5957183"><ele>16.0</ele><time>2026-05-02T18:16:21.115Z</time></trkpt><trkpt lat="43.6854998" lon="10.5959667"><ele>16.0</ele><time>2026-05-02T18:16:22.115Z</time></trkpt><trkpt lat="43.685441" lon="10.5962234"><ele>15.0</ele><time>2026-05-02T18:16:23.115Z</time></trkpt><trkpt lat="43.6853978" lon="10.5965012"><ele>14.0</ele><time>2026-05-02T18:16:24.115Z</time></trkpt><trkpt lat="43.6853639" lon="10.5967884"><ele>13.0</ele><time>2026-05-02T18:16:25.115Z</time></trkpt><trkpt lat="43.6853346" lon="10.5970828"><ele>13.0</ele><time>2026-05-02T18:16:26.115Z</time></trkpt><trkpt lat="43.6853098" lon="10.597378"><ele>13.0</ele><time>2026-05-02T18:16:27.115Z</time></trkpt><trkpt lat="43.685284" lon="10.597673"><ele>13.0</ele><time>2026-05-02T18:16:28.115Z</time></trkpt><trkpt lat="43.6852613" lon="10.5979592"><ele>13.0</ele><time>2026-05-02T18:16:29.115Z</time></trkpt><trkpt lat="43.6852402" lon="10.5982436"><ele>13.0</ele><time>2026-05-02T18:16:30.114Z</time></trkpt><trkpt lat="43.685215" lon="10.5985219"><ele>13.0</ele><time>2026-05-02T18:16:31.114Z</time></trkpt><trkpt lat="43.6851887" lon="10.5987963"><ele>13.333333333333332</ele><time>2026-05-02T18:16:32.115Z</time></trkpt><trkpt lat="43.6851663" lon="10.5990686"><ele>13.666666666666668</ele><time>2026-05-02T18:16:33.114Z</time></trkpt><trkpt lat="43.6851404" lon="10.5993346"><ele>14.0</ele><time>2026-05-02T18:16:34.114Z</time></trkpt><trkpt lat="43.6851193" lon="10.5995994"><ele>14.0</ele><time>2026-05-02T18:16:35.115Z</time></trkpt><trkpt lat="43.6850982" lon="10.5998612"><ele>14.0</ele><time>2026-05-02T18:16:36.115Z</time></trkpt><trkpt lat="43.6850774" lon="10.6001299"><ele>14.0</ele><time>2026-05-02T18:16:37.115Z</time></trkpt><trkpt lat="43.6850488" lon="10.6004005"><ele>13.666666666666668</ele><time>2026-05-02T18:16:38.115Z</time></trkpt><trkpt lat="43.685024" lon="10.6006758"><ele>13.333333333333332</ele><time>2026-05-02T18:16:39.115Z</time></trkpt><trkpt lat="43.6849999" lon="10.6009501"><ele>13.0</ele><time>2026-05-02T18:16:40.115Z</time></trkpt><trkpt lat="43.6849739" lon="10.6012209"><ele>14.333333333333332</ele><time>2026-05-02T18:16:41.115Z</time></trkpt><trkpt lat="43.6849506" lon="10.6014917"><ele>15.666666666666668</ele><time>2026-05-02T18:16:42.115Z</time></trkpt><trkpt lat="43.6849297" lon="10.6017637"><ele>17.0</ele><time>2026-05-02T18:16:43.114Z</time></trkpt><trkpt lat="43.6849024" lon="10.60204"><ele>17.0</ele><time>2026-05-02T18:16:44.115Z</time></trkpt><trkpt lat="43.6848746" lon="10.602315"><ele>17.0</ele><time>2026-05-02T18:16:45.114Z</time></trkpt><trkpt lat="43.6848486" lon="10.6025916"><ele>17.0</ele><time>2026-05-02T18:16:46.115Z</time></trkpt><trkpt lat="43.6848231" lon="10.6028702"><ele>15.666666666666668</ele><time>2026-05-02T18:16:47.115Z</time></trkpt><trkpt lat="43.6848003" lon="10.6031493"><ele>14.333333333333332</ele><time>2026-05-02T18:16:48.115Z</time></trkpt><trkpt lat="43.6847746" lon="10.6034313"><ele>13.0</ele><time>2026-05-02T18:16:49.114Z</time></trkpt><trkpt lat="43.6847482" lon="10.6037165"><ele>12.666666666666666</ele><time>2026-05-02T18:16:50.115Z</time></trkpt><trkpt lat="43.6847203" lon="10.6039968"><ele>12.333333333333332</ele><time>2026-05-02T18:16:51.114Z</time></trkpt><trkpt lat="43.6846954" lon="10.6042618"><ele>12.0</ele><time>2026-05-02T18:16:52.115Z</time></trkpt><trkpt lat="43.6846718" lon="10.6045177"><ele>12.666666666666668</ele><time>2026-05-02T18:16:53.115Z</time></trkpt><trkpt lat="43.6846509" lon="10.6047693"><ele>13.333333333333334</ele><time>2026-05-02T18:16:54.115Z</time></trkpt><trkpt lat="43.6846311" lon="10.6050242"><ele>14.0</ele><time>2026-05-02T18:16:55.115Z</time></trkpt><trkpt lat="43.6846095" lon="10.605281"><ele>14.0</ele><time>2026-05-02T18:16:56.115Z</time></trkpt><trkpt lat="43.6845848" lon="10.6055378"><ele>14.0</ele><time>2026-05-02T18:16:57.114Z</time></trkpt><trkpt lat="43.684562" lon="10.6057996"><ele>14.0</ele><time>2026-05-02T18:16:58.115Z</time></trkpt><trkpt lat="43.6845382" lon="10.606061"><ele>14.0</ele><time>2026-05-02T18:16:59.115Z</time></trkpt><trkpt lat="43.6845144" lon="10.6063243"><ele>14.0</ele><time>2026-05-02T18:17:00.115Z</time></trkpt><trkpt lat="43.6844914" lon="10.6065909"><ele>14.0</ele><time>2026-05-02T18:17:01.115Z</time></trkpt><trkpt lat="43.6844689" lon="10.6068592"><ele>14.0</ele><time>2026-05-02T18:17:02.114Z</time></trkpt><trkpt lat="43.6844475" lon="10.6071168"><ele>14.0</ele><time>2026-05-02T18:17:03.115Z</time></trkpt><trkpt lat="43.6844237" lon="10.6073617"><ele>14.0</ele><time>2026-05-02T18:17:04.115Z</time></trkpt><trkpt lat="43.6844019" lon="10.6075975"><ele>14.0</ele><time>2026-05-02T18:17:05.115Z</time></trkpt><trkpt lat="43.6843804" lon="10.6078301"><ele>14.0</ele><time>2026-05-02T18:17:06.115Z</time></trkpt><trkpt lat="43.6843567" lon="10.6080631"><ele>14.0</ele><time>2026-05-02T18:17:07.115Z</time></trkpt><trkpt lat="43.6843352" lon="10.6082966"><ele>14.0</ele><time>2026-05-02T18:17:08.114Z</time></trkpt><trkpt lat="43.6843147" lon="10.6085285"><ele>14.0</ele><time>2026-05-02T18:17:09.115Z</time></trkpt><trkpt lat="43.6842916" lon="10.6087594"><ele>14.0</ele><time>2026-05-02T18:17:10.115Z</time></trkpt><trkpt lat="43.6842684" lon="10.6089882"><ele>14.0</ele><time>2026-05-02T18:17:11.115Z</time></trkpt><trkpt lat="43.6842384" lon="10.6092098"><ele>14.0</ele><time>2026-05-02T18:17:12.115Z</time></trkpt><trkpt lat="43.6842023" lon="10.6094194"><ele>14.0</ele><time>2026-05-02T18:17:13.114Z</time></trkpt><trkpt lat="43.6841712" lon="10.6096231"><ele>14.0</ele><time>2026-05-02T18:17:14.115Z</time></trkpt><trkpt lat="43.6841372" lon="10.6098171"><ele>14.0</ele><time>2026-05-02T18:17:15.115Z</time></trkpt><trkpt lat="43.6841072" lon="10.6100068"><ele>14.0</ele><time>2026-05-02T18:17:16.114Z</time></trkpt><trkpt lat="43.6840787" lon="10.610193"><ele>14.0</ele><time>2026-05-02T18:17:17.115Z</time></trkpt><trkpt lat="43.6840526" lon="10.6103788"><ele>13.5</ele><time>2026-05-02T18:17:18.115Z</time></trkpt><trkpt lat="43.6840264" lon="10.610559"><ele>13.0</ele><time>2026-05-02T18:17:19.115Z</time></trkpt><trkpt lat="43.6839986" lon="10.6107315"><ele>12.5</ele><time>2026-05-02T18:17:20.115Z</time></trkpt><trkpt lat="43.6839724" lon="10.6108931"><ele>12.0</ele><time>2026-05-02T18:17:21.115Z</time></trkpt><trkpt lat="43.6839503" lon="10.6110534"><ele>12.5</ele><time>2026-05-02T18:17:22.115Z</time></trkpt><trkpt lat="43.6839428" lon="10.6112184"><ele>13.0</ele><time>2026-05-02T18:17:23.115Z</time></trkpt><trkpt lat="43.6839443" lon="10.6113884"><ele>13.5</ele><time>2026-05-02T18:17:24.115Z</time></trkpt><trkpt lat="43.6839627" lon="10.6115573"><ele>14.0</ele><time>2026-05-02T18:17:25.114Z</time></trkpt><trkpt lat="43.6839914" lon="10.6117289"><ele>14.0</ele><time>2026-05-02T18:17:26.114Z</time></trkpt><trkpt lat="43.6840225" lon="10.6118978"><ele>14.0</ele><time>2026-05-02T18:17:27.115Z</time></trkpt><trkpt lat="43.6840533" lon="10.6120679"><ele>14.0</ele><time>2026-05-02T18:17:28.115Z</time></trkpt><trkpt lat="43.6840829" lon="10.6122387"><ele>14.0</ele><time>2026-05-02T18:17:29.115Z</time></trkpt><trkpt lat="43.6841086" lon="10.6124016"><ele>14.0</ele><time>2026-05-02T18:17:30.115Z</time></trkpt><trkpt lat="43.6841346" lon="10.6125506"><ele>13.999999999999998</ele><time>2026-05-02T18:17:31.114Z</time></trkpt><trkpt lat="43.6841614" lon="10.6126968"><ele>13.999999999999998</ele><time>2026-05-02T18:17:32.115Z</time></trkpt><trkpt lat="43.6841873" lon="10.6128404"><ele>14.0</ele><time>2026-05-02T18:17:33.115Z</time></trkpt><trkpt lat="43.6842115" lon="10.6129735"><ele>14.0</ele><time>2026-05-02T18:17:34.115Z</time></trkpt><trkpt lat="43.6842187" lon="10.6131029"><ele>14.0</ele><time>2026-05-02T18:17:35.115Z</time></trkpt><trkpt lat="43.6842102" lon="10.6132383"><ele>13.999999999999998</ele><time>2026-05-02T18:17:36.115Z</time></trkpt><trkpt lat="43.6841922" lon="10.6133725"><ele>13.999999999999998</ele><time>2026-05-02T18:17:37.115Z</time></trkpt><trkpt lat="43.6841552" lon="10.6135061"><ele>14.0</ele><time>2026-05-02T18:17:38.115Z</time></trkpt><trkpt lat="43.6841043" lon="10.613643"><ele>14.0</ele><time>2026-05-02T18:17:39.114Z</time></trkpt><trkpt lat="43.6840467" lon="10.6137825"><ele>14.0</ele><time>2026-05-02T18:17:40.115Z</time></trkpt><trkpt lat="43.6839925" lon="10.6139155"><ele>14.0</ele><time>2026-05-02T18:17:41.115Z</time></trkpt><trkpt lat="43.6839343" lon="10.614054"><ele>14.0</ele><time>2026-05-02T18:17:42.115Z</time></trkpt><trkpt lat="43.683877" lon="10.6141936"><ele>14.0</ele><time>2026-05-02T18:17:43.115Z</time></trkpt><trkpt lat="43.6838223" lon="10.6143296"><ele>14.0</ele><time>2026-05-02T18:17:44.114Z</time></trkpt><trkpt lat="43.6837704" lon="10.6144586"><ele>13.999999999999998</ele><time>2026-05-02T18:17:45.115Z</time></trkpt><trkpt lat="43.6837212" lon="10.6145803"><ele>13.999999999999998</ele><time>2026-05-02T18:17:46.115Z</time></trkpt><trkpt lat="43.6836748" lon="10.6146951"><ele>14.0</ele><time>2026-05-02T18:17:47.115Z</time></trkpt><trkpt lat="43.6836307" lon="10.6148051"><ele>14.0</ele><time>2026-05-02T18:17:48.115Z</time></trkpt><trkpt lat="43.6835893" lon="10.6149031"><ele>14.6</ele><time>2026-05-02T18:17:49.115Z</time></trkpt><trkpt lat="43.6835559" lon="10.6149849"><ele>15.2</ele><time>2026-05-02T18:17:50.115Z</time></trkpt><trkpt lat="43.6834992" lon="10.6151379"><ele>15.799999999999999</ele><time>2026-05-02T18:17:52.115Z</time></trkpt><trkpt lat="43.6834614" lon="10.6152241"><ele>16.4</ele><time>2026-05-02T18:17:53.114Z</time></trkpt><trkpt lat="43.6834064" lon="10.6153256"><ele>17.0</ele><time>2026-05-02T18:17:54.114Z</time></trkpt><trkpt lat="43.683342" lon="10.6154359"><ele>17.0</ele><time>2026-05-02T18:17:55.114Z</time></trkpt><trkpt lat="43.6832702" lon="10.6155478"><ele>17.0</ele><time>2026-05-02T18:17:56.115Z</time></trkpt><trkpt lat="43.6832069" lon="10.615666"><ele>17.0</ele><time>2026-05-02T18:17:57.115Z</time></trkpt><trkpt lat="43.6831633" lon="10.615786"><ele>17.0</ele><time>2026-05-02T18:17:58.115Z</time></trkpt><trkpt lat="43.6831499" lon="10.6159638"><ele>17.0</ele><time>2026-05-02T18:17:59.115Z</time></trkpt><trkpt lat="43.6831461" lon="10.6161162"><ele>16.75</ele><time>2026-05-02T18:18:00.115Z</time></trkpt><trkpt lat="43.6831464" lon="10.6162794"><ele>16.5</ele><time>2026-05-02T18:18:01.115Z</time></trkpt><trkpt lat="43.6831509" lon="10.6164434"><ele>16.25</ele><time>2026-05-02T18:18:02.115Z</time></trkpt><trkpt lat="43.6831512" lon="10.6166029"><ele>16.0</ele><time>2026-05-02T18:18:03.115Z</time></trkpt><trkpt lat="43.6831517" lon="10.6167477"><ele>16.0</ele><time>2026-05-02T18:18:04.114Z</time></trkpt><trkpt lat="43.6831516" lon="10.6168853"><ele>16.0</ele><time>2026-05-02T18:18:05.115Z</time></trkpt><trkpt lat="43.6831434" lon="10.6170142"><ele>16.0</ele><time>2026-05-02T18:18:06.114Z</time></trkpt><trkpt lat="43.6831134" lon="10.6171176"><ele>16.0</ele><time>2026-05-02T18:18:07.114Z</time></trkpt><trkpt lat="43.6830691" lon="10.6171903"><ele>16.0</ele><time>2026-05-02T18:18:08.115Z</time></trkpt><trkpt lat="43.6830634" lon="10.6173461"><ele>15.999999999999998</ele><time>2026-05-02T18:18:10.115Z</time></trkpt><trkpt lat="43.6831004" lon="10.6174284"><ele>16.0</ele><time>2026-05-02T18:18:11.115Z</time></trkpt><trkpt lat="43.683137" lon="10.617527"><ele>16.0</ele><time>2026-05-02T18:18:12.114Z</time></trkpt><trkpt lat="43.6831544" lon="10.6176376"><ele>16.0</ele><time>2026-05-02T18:18:13.115Z</time></trkpt><trkpt lat="43.6831587" lon="10.617775"><ele>15.999999999999998</ele><time>2026-05-02T18:18:14.115Z</time></trkpt><trkpt lat="43.683165" lon="10.6179059"><ele>16.0</ele><time>2026-05-02T18:18:15.115Z</time></trkpt><trkpt lat="43.6831667" lon="10.618047"><ele>16.0</ele><time>2026-05-02T18:18:16.115Z</time></trkpt><trkpt lat="43.683169" lon="10.6181937"><ele>16.0</ele><time>2026-05-02T18:18:17.115Z</time></trkpt><trkpt lat="43.6831611" lon="10.6183483"><ele>16.0</ele><time>2026-05-02T18:18:18.115Z</time></trkpt><trkpt lat="43.6831623" lon="10.6185049"><ele>16.0</ele><time>2026-05-02T18:18:19.115Z</time></trkpt><trkpt lat="43.683163" lon="10.6186648"><ele>16.0</ele><time>2026-05-02T18:18:20.115Z</time></trkpt><trkpt lat="43.6831697" lon="10.61883"><ele>16.25</ele><time>2026-05-02T18:18:21.115Z</time></trkpt><trkpt lat="43.6831757" lon="10.6190015"><ele>16.5</ele><time>2026-05-02T18:18:22.115Z</time></trkpt><trkpt lat="43.6831789" lon="10.6191767"><ele>16.75</ele><time>2026-05-02T18:18:23.115Z</time></trkpt><trkpt lat="43.683179" lon="10.6193572"><ele>17.0</ele><time>2026-05-02T18:18:24.115Z</time></trkpt><trkpt lat="43.6831832" lon="10.6195398"><ele>17.0</ele><time>2026-05-02T18:18:25.115Z</time></trkpt><trkpt lat="43.6831862" lon="10.6197224"><ele>17.0</ele><time>2026-05-02T18:18:26.114Z</time></trkpt><trkpt lat="43.6831829" lon="10.619908"><ele>17.0</ele><time>2026-05-02T18:18:27.115Z</time></trkpt><trkpt lat="43.6831865" lon="10.6200928"><ele>17.0</ele><time>2026-05-02T18:18:28.115Z</time></trkpt><trkpt lat="43.6831893" lon="10.6202848"><ele>17.0</ele><time>2026-05-02T18:18:29.115Z</time></trkpt><trkpt lat="43.6831931" lon="10.6204886"><ele>17.0</ele><time>2026-05-02T18:18:30.115Z</time></trkpt><trkpt lat="43.6831988" lon="10.6206977"><ele>17.0</ele><time>2026-05-02T18:18:31.115Z</time></trkpt><trkpt lat="43.6832023" lon="10.6209034"><ele>17.0</ele><time>2026-05-02T18:18:32.114Z</time></trkpt><trkpt lat="43.6832078" lon="10.6211124"><ele>17.0</ele><time>2026-05-02T18:18:33.115Z</time></trkpt><trkpt lat="43.6832125" lon="10.6213345"><ele>17.0</ele><time>2026-05-02T18:18:34.115Z</time></trkpt><trkpt lat="43.6832098" lon="10.621576"><ele>17.0</ele><time>2026-05-02T18:18:35.115Z</time></trkpt><trkpt lat="43.6832041" lon="10.6218271"><ele>17.0</ele><time>2026-05-02T18:18:36.115Z</time></trkpt><trkpt lat="43.6832074" lon="10.622079"><ele>17.0</ele><time>2026-05-02T18:18:37.115Z</time></trkpt><trkpt lat="43.6832149" lon="10.6223281"><ele>17.0</ele><time>2026-05-02T18:18:38.115Z</time></trkpt><trkpt lat="43.683221" lon="10.6225768"><ele>17.333333333333336</ele><time>2026-05-02T18:18:39.114Z</time></trkpt><trkpt lat="43.6832235" lon="10.6228262"><ele>17.666666666666668</ele><time>2026-05-02T18:18:40.115Z</time></trkpt><trkpt lat="43.6832245" lon="10.6230697"><ele>18.0</ele><time>2026-05-02T18:18:41.114Z</time></trkpt><trkpt lat="43.6832284" lon="10.6233113"><ele>18.0</ele><time>2026-05-02T18:18:42.115Z</time></trkpt><trkpt lat="43.6832351" lon="10.6235362"><ele>18.0</ele><time>2026-05-02T18:18:43.115Z</time></trkpt><trkpt lat="43.6832382" lon="10.6237548"><ele>18.0</ele><time>2026-05-02T18:18:44.115Z</time></trkpt><trkpt lat="43.6832402" lon="10.6239639"><ele>17.75</ele><time>2026-05-02T18:18:45.115Z</time></trkpt><trkpt lat="43.6832496" lon="10.6241563"><ele>17.5</ele><time>2026-05-02T18:18:46.115Z</time></trkpt><trkpt lat="43.6832669" lon="10.6243309"><ele>17.25</ele><time>2026-05-02T18:18:47.115Z</time></trkpt><trkpt lat="43.6832845" lon="10.6244855"><ele>17.0</ele><time>2026-05-02T18:18:48.114Z</time></trkpt><trkpt lat="43.683297" lon="10.6246321"><ele>18.75</ele><time>2026-05-02T18:18:49.114Z</time></trkpt><trkpt lat="43.6833014" lon="10.6247822"><ele>20.5</ele><time>2026-05-02T18:18:50.115Z</time></trkpt><trkpt lat="43.6833017" lon="10.6249362"><ele>22.25</ele><time>2026-05-02T18:18:51.115Z</time></trkpt><trkpt lat="43.6832959" lon="10.6250955"><ele>24.0</ele><time>2026-05-02T18:18:52.115Z</time></trkpt><trkpt lat="43.6832701" lon="10.6252552"><ele>25.5</ele><time>2026-05-02T18:18:53.114Z</time></trkpt><trkpt lat="43.6832184" lon="10.6254065"><ele>27.0</ele><time>2026-05-02T18:18:54.115Z</time></trkpt><trkpt lat="43.6831448" lon="10.625543"><ele>28.5</ele><time>2026-05-02T18:18:55.115Z</time></trkpt><trkpt lat="43.6830648" lon="10.625675"><ele>30.0</ele><time>2026-05-02T18:18:56.114Z</time></trkpt><trkpt lat="43.6829867" lon="10.6258099"><ele>30.0</ele><time>2026-05-02T18:18:57.115Z</time></trkpt><trkpt lat="43.6829128" lon="10.6259334"><ele>30.0</ele><time>2026-05-02T18:18:58.115Z</time></trkpt><trkpt lat="43.682845" lon="10.626057"><ele>30.0</ele><time>2026-05-02T18:18:59.114Z</time></trkpt><trkpt lat="43.6827722" lon="10.6261877"><ele>30.0</ele><time>2026-05-02T18:19:00.115Z</time></trkpt><trkpt lat="43.6826952" lon="10.6263286"><ele>30.0</ele><time>2026-05-02T18:19:01.115Z</time></trkpt><trkpt lat="43.6826149" lon="10.6264847"><ele>30.0</ele><time>2026-05-02T18:19:02.115Z</time></trkpt><trkpt lat="43.6825281" lon="10.6266435"><ele>30.0</ele><time>2026-05-02T18:19:03.114Z</time></trkpt><trkpt lat="43.6824351" lon="10.6268101"><ele>30.0</ele><time>2026-05-02T18:19:04.114Z</time></trkpt><trkpt lat="43.6823416" lon="10.6269857"><ele>32.0</ele><time>2026-05-02T18:19:05.115Z</time></trkpt><trkpt lat="43.6822419" lon="10.627171"><ele>34.0</ele><time>2026-05-02T18:19:06.114Z</time></trkpt><trkpt lat="43.6821375" lon="10.6273635"><ele>36.0</ele><time>2026-05-02T18:19:07.115Z</time></trkpt><trkpt lat="43.6820236" lon="10.6275579"><ele>34.333333333333336</ele><time>2026-05-02T18:19:08.114Z</time></trkpt><trkpt lat="43.6819106" lon="10.6277614"><ele>32.66666666666667</ele><time>2026-05-02T18:19:09.115Z</time></trkpt><trkpt lat="43.6817946" lon="10.6279636"><ele>31.0</ele><time>2026-05-02T18:19:10.114Z</time></trkpt><trkpt lat="43.6816832" lon="10.6281663"><ele>26.666666666666668</ele><time>2026-05-02T18:19:11.115Z</time></trkpt><trkpt lat="43.6815726" lon="10.6283707"><ele>22.333333333333336</ele><time>2026-05-02T18:19:12.114Z</time></trkpt><trkpt lat="43.6814661" lon="10.6285711"><ele>18.0</ele><time>2026-05-02T18:19:13.115Z</time></trkpt><trkpt lat="43.6813647" lon="10.6287616"><ele>17.333333333333332</ele><time>2026-05-02T18:19:14.115Z</time></trkpt><trkpt lat="43.681266" lon="10.6289461"><ele>16.666666666666664</ele><time>2026-05-02T18:19:15.114Z</time></trkpt><trkpt lat="43.6811712" lon="10.6291226"><ele>16.0</ele><time>2026-05-02T18:19:16.115Z</time></trkpt><trkpt lat="43.6810764" lon="10.6292944"><ele>16.0</ele><time>2026-05-02T18:19:17.115Z</time></trkpt><trkpt lat="43.6809858" lon="10.6294675"><ele>16.0</ele><time>2026-05-02T18:19:18.114Z</time></trkpt><trkpt lat="43.6808953" lon="10.6296437"><ele>16.0</ele><time>2026-05-02T18:19:19.115Z</time></trkpt><trkpt lat="43.6807996" lon="10.6298194"><ele>16.0</ele><time>2026-05-02T18:19:20.115Z</time></trkpt><trkpt lat="43.6807017" lon="10.6299953"><ele>16.0</ele><time>2026-05-02T18:19:21.115Z</time></trkpt><trkpt lat="43.6806086" lon="10.6301652"><ele>16.0</ele><time>2026-05-02T18:19:22.115Z</time></trkpt><trkpt lat="43.6805232" lon="10.6303315"><ele>16.0</ele><time>2026-05-02T18:19:23.114Z</time></trkpt><trkpt lat="43.6804338" lon="10.6304891"><ele>16.0</ele><time>2026-05-02T18:19:24.114Z</time></trkpt><trkpt lat="43.6803505" lon="10.6306461"><ele>16.0</ele><time>2026-05-02T18:19:25.115Z</time></trkpt><trkpt lat="43.6802716" lon="10.6308068"><ele>16.0</ele><time>2026-05-02T18:19:26.114Z</time></trkpt><trkpt lat="43.6801916" lon="10.6309529"><ele>14.75</ele><time>2026-05-02T18:19:27.114Z</time></trkpt><trkpt lat="43.6801137" lon="10.6310926"><ele>13.5</ele><time>2026-05-02T18:19:28.114Z</time></trkpt><trkpt lat="43.6800431" lon="10.6312305"><ele>12.25</ele><time>2026-05-02T18:19:29.115Z</time></trkpt><trkpt lat="43.6799717" lon="10.6313547"><ele>11.0</ele><time>2026-05-02T18:19:30.115Z</time></trkpt><trkpt lat="43.6799063" lon="10.6314761"><ele>10.4</ele><time>2026-05-02T18:19:31.115Z</time></trkpt><trkpt lat="43.6798404" lon="10.6315923"><ele>9.8</ele><time>2026-05-02T18:19:32.115Z</time></trkpt><trkpt lat="43.6797803" lon="10.6317073"><ele>9.200000000000001</ele><time>2026-05-02T18:19:33.115Z</time></trkpt><trkpt lat="43.6797221" lon="10.6318148"><ele>8.600000000000001</ele><time>2026-05-02T18:19:34.115Z</time></trkpt><trkpt lat="43.6796665" lon="10.6319148"><ele>8.0</ele><time>2026-05-02T18:19:35.115Z</time></trkpt><trkpt lat="43.6796139" lon="10.6320107"><ele>9.166666666666666</ele><time>2026-05-02T18:19:36.115Z</time></trkpt><trkpt lat="43.6795708" lon="10.6320915"><ele>10.333333333333332</ele><time>2026-05-02T18:19:37.115Z</time></trkpt><trkpt lat="43.6794916" lon="10.6322132"><ele>11.5</ele><time>2026-05-02T18:19:39.115Z</time></trkpt><trkpt lat="43.6794147" lon="10.6322715"><ele>12.666666666666666</ele><time>2026-05-02T18:19:41.115Z</time></trkpt><trkpt lat="43.6793135" lon="10.6322718"><ele>13.833333333333334</ele><time>2026-05-02T18:19:43.115Z</time></trkpt><trkpt lat="43.6792471" lon="10.6322653"><ele>15.0</ele><time>2026-05-02T18:19:44.115Z</time></trkpt><trkpt lat="43.6791826" lon="10.6322669"><ele>15.0</ele><time>2026-05-02T18:19:45.114Z</time></trkpt><trkpt lat="43.6791097" lon="10.6322999"><ele>15.0</ele><time>2026-05-02T18:19:46.115Z</time></trkpt><trkpt lat="43.6790424" lon="10.6323649"><ele>15.0</ele><time>2026-05-02T18:19:47.114Z</time></trkpt><trkpt lat="43.6789986" lon="10.6324614"><ele>15.0</ele><time>2026-05-02T18:19:48.115Z</time></trkpt><trkpt lat="43.6789835" lon="10.6325778"><ele>15.0</ele><time>2026-05-02T18:19:49.115Z</time></trkpt><trkpt lat="43.6790046" lon="10.6327008"><ele>15.0</ele><time>2026-05-02T18:19:50.115Z</time></trkpt><trkpt lat="43.6790579" lon="10.632816"><ele>15.25</ele><time>2026-05-02T18:19:51.115Z</time></trkpt><trkpt lat="43.6791156" lon="10.6329409"><ele>15.5</ele><time>2026-05-02T18:19:52.114Z</time></trkpt><trkpt lat="43.6791663" lon="10.6330797"><ele>15.75</ele><time>2026-05-02T18:19:53.115Z</time></trkpt><trkpt lat="43.6791746" lon="10.6332661"><ele>16.0</ele><time>2026-05-02T18:19:54.115Z</time></trkpt><trkpt lat="43.679188" lon="10.633448"><ele>16.333333333333332</ele><time>2026-05-02T18:19:55.115Z</time></trkpt><trkpt lat="43.6791978" lon="10.6336505"><ele>16.666666666666668</ele><time>2026-05-02T18:19:56.115Z</time></trkpt><trkpt lat="43.6792089" lon="10.6338573"><ele>17.0</ele><time>2026-05-02T18:19:57.114Z</time></trkpt><trkpt lat="43.679218" lon="10.6340858"><ele>17.0</ele><time>2026-05-02T18:19:58.114Z</time></trkpt><trkpt lat="43.6792298" lon="10.6343077"><ele>17.0</ele><time>2026-05-02T18:19:59.115Z</time></trkpt><trkpt lat="43.6792446" lon="10.6345141"><ele>17.0</ele><time>2026-05-02T18:20:00.115Z</time></trkpt><trkpt lat="43.6792592" lon="10.634709"><ele>17.25</ele><time>2026-05-02T18:20:01.115Z</time></trkpt><trkpt lat="43.6792724" lon="10.6349007"><ele>17.5</ele><time>2026-05-02T18:20:02.115Z</time></trkpt><trkpt lat="43.6792859" lon="10.6350908"><ele>17.75</ele><time>2026-05-02T18:20:03.115Z</time></trkpt><trkpt lat="43.6792984" lon="10.6352754"><ele>18.0</ele><time>2026-05-02T18:20:04.115Z</time></trkpt><trkpt lat="43.6793139" lon="10.6354571"><ele>18.75</ele><time>2026-05-02T18:20:05.114Z</time></trkpt><trkpt lat="43.6793269" lon="10.6356348"><ele>19.5</ele><time>2026-05-02T18:20:06.115Z</time></trkpt><trkpt lat="43.6793399" lon="10.6358131"><ele>20.25</ele><time>2026-05-02T18:20:07.115Z</time></trkpt><trkpt lat="43.6793484" lon="10.6359952"><ele>21.0</ele><time>2026-05-02T18:20:08.115Z</time></trkpt><trkpt lat="43.6793593" lon="10.6361781"><ele>21.75</ele><time>2026-05-02T18:20:09.115Z</time></trkpt><trkpt lat="43.6793764" lon="10.6363684"><ele>22.5</ele><time>2026-05-02T18:20:10.115Z</time></trkpt><trkpt lat="43.6793908" lon="10.6365722"><ele>23.25</ele><time>2026-05-02T18:20:11.115Z</time></trkpt><trkpt lat="43.6793966" lon="10.6367848"><ele>24.0</ele><time>2026-05-02T18:20:12.114Z</time></trkpt><trkpt lat="43.679393" lon="10.6369935"><ele>24.666666666666664</ele><time>2026-05-02T18:20:13.115Z</time></trkpt><trkpt lat="43.6793702" lon="10.637197"><ele>25.333333333333332</ele><time>2026-05-02T18:20:14.114Z</time></trkpt><trkpt lat="43.6793253" lon="10.6374014"><ele>26.0</ele><time>2026-05-02T18:20:15.114Z</time></trkpt><trkpt lat="43.6792711" lon="10.6376049"><ele>26.0</ele><time>2026-05-02T18:20:16.115Z</time></trkpt><trkpt lat="43.6792181" lon="10.6377996"><ele>26.0</ele><time>2026-05-02T18:20:17.115Z</time></trkpt><trkpt lat="43.6791617" lon="10.6379861"><ele>26.0</ele><time>2026-05-02T18:20:18.114Z</time></trkpt><trkpt lat="43.6791076" lon="10.6381595"><ele>26.0</ele><time>2026-05-02T18:20:19.114Z</time></trkpt><trkpt lat="43.6790571" lon="10.6383355"><ele>26.25</ele><time>2026-05-02T18:20:20.114Z</time></trkpt><trkpt lat="43.6790043" lon="10.6385189"><ele>26.5</ele><time>2026-05-02T18:20:21.114Z</time></trkpt><trkpt lat="43.6789493" lon="10.6387005"><ele>26.75</ele><time>2026-05-02T18:20:22.115Z</time></trkpt><trkpt lat="43.6788939" lon="10.638889"><ele>27.0</ele><time>2026-05-02T18:20:23.115Z</time></trkpt><trkpt lat="43.678837" lon="10.6390784"><ele>29.0</ele><time>2026-05-02T18:20:24.114Z</time></trkpt><trkpt lat="43.678782" lon="10.6392672"><ele>31.0</ele><time>2026-05-02T18:20:25.115Z</time></trkpt><trkpt lat="43.6787241" lon="10.6394532"><ele>33.0</ele><time>2026-05-02T18:20:26.114Z</time></trkpt><trkpt lat="43.6786713" lon="10.6396331"><ele>35.0</ele><time>2026-05-02T18:20:27.114Z</time></trkpt><trkpt lat="43.6786241" lon="10.6398012"><ele>35.4</ele><time>2026-05-02T18:20:28.115Z</time></trkpt><trkpt lat="43.6785912" lon="10.6399667"><ele>35.8</ele><time>2026-05-02T18:20:29.114Z</time></trkpt><trkpt lat="43.6785788" lon="10.6401183"><ele>36.2</ele><time>2026-05-02T18:20:30.115Z</time></trkpt><trkpt lat="43.6785963" lon="10.6402612"><ele>36.6</ele><time>2026-05-02T18:20:31.115Z</time></trkpt><trkpt lat="43.6786381" lon="10.6404009"><ele>37.0</ele><time>2026-05-02T18:20:32.115Z</time></trkpt><trkpt lat="43.6787091" lon="10.6405451"><ele>37.0</ele><time>2026-05-02T18:20:33.115Z</time></trkpt><trkpt lat="43.6787937" lon="10.6406921"><ele>37.0</ele><time>2026-05-02T18:20:34.115Z</time></trkpt><trkpt lat="43.6788897" lon="10.6408547"><ele>37.0</ele><time>2026-05-02T18:20:35.115Z</time></trkpt><trkpt lat="43.6789947" lon="10.6410275"><ele>33.333333333333336</ele><time>2026-05-02T18:20:36.115Z</time></trkpt><trkpt lat="43.6791035" lon="10.6412062"><ele>29.666666666666664</ele><time>2026-05-02T18:20:37.115Z</time></trkpt><trkpt lat="43.6792155" lon="10.6413823"><ele>26.0</ele><time>2026-05-02T18:20:38.115Z</time></trkpt><trkpt lat="43.6793275" lon="10.6415579"><ele>29.0</ele><time>2026-05-02T18:20:39.115Z</time></trkpt><trkpt lat="43.6794349" lon="10.6417318"><ele>32.0</ele><time>2026-05-02T18:20:40.115Z</time></trkpt><trkpt lat="43.6795339" lon="10.6419059"><ele>35.0</ele><time>2026-05-02T18:20:41.115Z</time></trkpt><trkpt lat="43.6796366" lon="10.6420766"><ele>35.0</ele><time>2026-05-02T18:20:42.115Z</time></trkpt><trkpt lat="43.6797395" lon="10.6422428"><ele>35.0</ele><time>2026-05-02T18:20:43.115Z</time></trkpt><trkpt lat="43.6798341" lon="10.6423998"><ele>35.0</ele><time>2026-05-02T18:20:44.114Z</time></trkpt><trkpt lat="43.6799275" lon="10.6425493"><ele>35.0</ele><time>2026-05-02T18:20:45.114Z</time></trkpt><trkpt lat="43.680021" lon="10.6426964"><ele>34.5</ele><time>2026-05-02T18:20:46.115Z</time></trkpt><trkpt lat="43.6801147" lon="10.6428519"><ele>34.0</ele><time>2026-05-02T18:20:47.114Z</time></trkpt><trkpt lat="43.6802077" lon="10.6429959"><ele>33.5</ele><time>2026-05-02T18:20:48.114Z</time></trkpt><trkpt lat="43.68029" lon="10.6431276"><ele>33.0</ele><time>2026-05-02T18:20:49.115Z</time></trkpt><trkpt lat="43.6803656" lon="10.6432398"><ele>33.0</ele><time>2026-05-02T18:20:50.115Z</time></trkpt><trkpt lat="43.6804342" lon="10.643341"><ele>33.0</ele><time>2026-05-02T18:20:51.115Z</time></trkpt><trkpt lat="43.6804964" lon="10.6434416"><ele>33.0</ele><time>2026-05-02T18:20:52.115Z</time></trkpt><trkpt lat="43.6805611" lon="10.6435521"><ele>33.0</ele><time>2026-05-02T18:20:53.114Z</time></trkpt><trkpt lat="43.6806234" lon="10.6436807"><ele>33.0</ele><time>2026-05-02T18:20:54.115Z</time></trkpt><trkpt lat="43.6806862" lon="10.6438152"><ele>32.0</ele><time>2026-05-02T18:20:55.115Z</time></trkpt><trkpt lat="43.6807505" lon="10.6439617"><ele>31.0</ele><time>2026-05-02T18:20:56.114Z</time></trkpt><trkpt lat="43.68081" lon="10.6441143"><ele>30.0</ele><time>2026-05-02T18:20:57.115Z</time></trkpt><trkpt lat="43.6808681" lon="10.6442515"><ele>29.0</ele><time>2026-05-02T18:20:58.115Z</time></trkpt><trkpt lat="43.680918" lon="10.64438"><ele>28.0</ele><time>2026-05-02T18:20:59.114Z</time></trkpt><trkpt lat="43.6809682" lon="10.6445071"><ele>27.0</ele><time>2026-05-02T18:21:00.115Z</time></trkpt><trkpt lat="43.6810143" lon="10.6446293"><ele>26.0</ele><time>2026-05-02T18:21:01.114Z</time></trkpt><trkpt lat="43.681051" lon="10.6447473"><ele>25.0</ele><time>2026-05-02T18:21:02.114Z</time></trkpt><trkpt lat="43.6810831" lon="10.644873"><ele>24.0</ele><time>2026-05-02T18:21:03.115Z</time></trkpt><trkpt lat="43.6811104" lon="10.6450037"><ele>28.799999999999997</ele><time>2026-05-02T18:21:04.115Z</time></trkpt><trkpt lat="43.6811302" lon="10.6451456"><ele>33.599999999999994</ele><time>2026-05-02T18:21:05.115Z</time></trkpt><trkpt lat="43.6811488" lon="10.6452935"><ele>38.4</ele><time>2026-05-02T18:21:06.115Z</time></trkpt><trkpt lat="43.6811716" lon="10.6454408"><ele>43.199999999999996</ele><time>2026-05-02T18:21:07.115Z</time></trkpt><trkpt lat="43.6811974" lon="10.6455945"><ele>48.0</ele><time>2026-05-02T18:21:08.115Z</time></trkpt><trkpt lat="43.6812212" lon="10.6457481"><ele>48.0</ele><time>2026-05-02T18:21:09.115Z</time></trkpt><trkpt lat="43.6812445" lon="10.6458945"><ele>48.0</ele><time>2026-05-02T18:21:10.115Z</time></trkpt><trkpt lat="43.6812683" lon="10.6460394"><ele>48.0</ele><time>2026-05-02T18:21:11.115Z</time></trkpt><trkpt lat="43.6812921" lon="10.6461738"><ele>48.0</ele><time>2026-05-02T18:21:12.114Z</time></trkpt><trkpt lat="43.681313" lon="10.646304"><ele>48.0</ele><time>2026-05-02T18:21:13.115Z</time></trkpt><trkpt lat="43.6813331" lon="10.6464336"><ele>46.199999999999996</ele><time>2026-05-02T18:21:14.115Z</time></trkpt><trkpt lat="43.6813517" lon="10.6465725"><ele>44.4</ele><time>2026-05-02T18:21:15.115Z</time></trkpt><trkpt lat="43.6813697" lon="10.6467148"><ele>42.599999999999994</ele><time>2026-05-02T18:21:16.115Z</time></trkpt><trkpt lat="43.6813951" lon="10.6468592"><ele>40.8</ele><time>2026-05-02T18:21:17.115Z</time></trkpt><trkpt lat="43.6814192" lon="10.6470081"><ele>39.0</ele><time>2026-05-02T18:21:18.115Z</time></trkpt><trkpt lat="43.6814321" lon="10.6471681"><ele>37.4</ele><time>2026-05-02T18:21:19.115Z</time></trkpt><trkpt lat="43.6814486" lon="10.6473219"><ele>35.8</ele><time>2026-05-02T18:21:20.115Z</time></trkpt><trkpt lat="43.6814687" lon="10.6474632"><ele>34.2</ele><time>2026-05-02T18:21:21.115Z</time></trkpt><trkpt lat="43.681486" lon="10.6476031"><ele>32.6</ele><time>2026-05-02T18:21:22.115Z</time></trkpt><trkpt lat="43.6815144" lon="10.6477368"><ele>31.0</ele><time>2026-05-02T18:21:23.114Z</time></trkpt><trkpt lat="43.6815522" lon="10.6478717"><ele>32.4</ele><time>2026-05-02T18:21:24.114Z</time></trkpt><trkpt lat="43.6816098" lon="10.6479957"><ele>33.8</ele><time>2026-05-02T18:21:25.115Z</time></trkpt><trkpt lat="43.6816876" lon="10.6481048"><ele>35.199999999999996</ele><time>2026-05-02T18:21:26.115Z</time></trkpt><trkpt lat="43.6817687" lon="10.6482013"><ele>36.6</ele><time>2026-05-02T18:21:27.114Z</time></trkpt><trkpt lat="43.6818527" lon="10.6482927"><ele>38.0</ele><time>2026-05-02T18:21:28.115Z</time></trkpt><trkpt lat="43.6819365" lon="10.6483915"><ele>38.0</ele><time>2026-05-02T18:21:29.114Z</time></trkpt><trkpt lat="43.6820218" lon="10.6484896"><ele>38.0</ele><time>2026-05-02T18:21:30.115Z</time></trkpt><trkpt lat="43.6821099" lon="10.6485949"><ele>38.0</ele><time>2026-05-02T18:21:31.115Z</time></trkpt><trkpt lat="43.6822007" lon="10.6487039"><ele>38.0</ele><time>2026-05-02T18:21:32.115Z</time></trkpt><trkpt lat="43.6822974" lon="10.6488148"><ele>33.75</ele><time>2026-05-02T18:21:33.115Z</time></trkpt><trkpt lat="43.6823926" lon="10.6489354"><ele>29.5</ele><time>2026-05-02T18:21:34.115Z</time></trkpt><trkpt lat="43.6824828" lon="10.649062"><ele>25.25</ele><time>2026-05-02T18:21:35.114Z</time></trkpt><trkpt lat="43.6825687" lon="10.6491894"><ele>21.0</ele><time>2026-05-02T18:21:36.114Z</time></trkpt><trkpt lat="43.6826541" lon="10.6493116"><ele>21.0</ele><time>2026-05-02T18:21:37.114Z</time></trkpt><trkpt lat="43.6827345" lon="10.6494369"><ele>21.0</ele><time>2026-05-02T18:21:38.115Z</time></trkpt><trkpt lat="43.6828111" lon="10.6495606"><ele>21.0</ele><time>2026-05-02T18:21:39.115Z</time></trkpt><trkpt lat="43.6828841" lon="10.6496865"><ele>21.0</ele><time>2026-05-02T18:21:40.115Z</time></trkpt><trkpt lat="43.6829554" lon="10.649819"><ele>20.25</ele><time>2026-05-02T18:21:41.115Z</time></trkpt><trkpt lat="43.6830252" lon="10.6499537"><ele>19.5</ele><time>2026-05-02T18:21:42.115Z</time></trkpt><trkpt lat="43.6830921" lon="10.6500961"><ele>18.75</ele><time>2026-05-02T18:21:43.115Z</time></trkpt><trkpt lat="43.6831593" lon="10.6502407"><ele>18.0</ele><time>2026-05-02T18:21:44.115Z</time></trkpt><trkpt lat="43.683223" lon="10.650392"><ele>18.0</ele><time>2026-05-02T18:21:45.115Z</time></trkpt><trkpt lat="43.6832848" lon="10.6505428"><ele>18.0</ele><time>2026-05-02T18:21:46.115Z</time></trkpt><trkpt lat="43.6833545" lon="10.650698"><ele>18.0</ele><time>2026-05-02T18:21:47.115Z</time></trkpt><trkpt lat="43.6834266" lon="10.6508503"><ele>18.0</ele><time>2026-05-02T18:21:48.114Z</time></trkpt><trkpt lat="43.6835024" lon="10.6510005"><ele>18.25</ele><time>2026-05-02T18:21:49.115Z</time></trkpt><trkpt lat="43.6835777" lon="10.6511539"><ele>18.5</ele><time>2026-05-02T18:21:50.114Z</time></trkpt><trkpt lat="43.6836558" lon="10.6513129"><ele>18.75</ele><time>2026-05-02T18:21:51.115Z</time></trkpt><trkpt lat="43.683732" lon="10.6514638"><ele>19.0</ele><time>2026-05-02T18:21:52.115Z</time></trkpt><trkpt lat="43.6838056" lon="10.6516158"><ele>19.0</ele><time>2026-05-02T18:21:53.115Z</time></trkpt><trkpt lat="43.6838777" lon="10.651771"><ele>19.0</ele><time>2026-05-02T18:21:54.115Z</time></trkpt><trkpt lat="43.6839496" lon="10.651923"><ele>19.0</ele><time>2026-05-02T18:21:55.115Z</time></trkpt><trkpt lat="43.6840241" lon="10.6520707"><ele>19.0</ele><time>2026-05-02T18:21:56.114Z</time></trkpt><trkpt lat="43.6840929" lon="10.6522257"><ele>18.75</ele><time>2026-05-02T18:21:57.115Z</time></trkpt><trkpt lat="43.6841678" lon="10.6523795"><ele>18.5</ele><time>2026-05-02T18:21:58.115Z</time></trkpt><trkpt lat="43.684238" lon="10.6525355"><ele>18.25</ele><time>2026-05-02T18:21:59.115Z</time></trkpt><trkpt lat="43.6843107" lon="10.6526971"><ele>18.0</ele><time>2026-05-02T18:22:00.115Z</time></trkpt><trkpt lat="43.6843831" lon="10.6528589"><ele>23.0</ele><time>2026-05-02T18:22:01.115Z</time></trkpt><trkpt lat="43.6844485" lon="10.6530293"><ele>28.0</ele><time>2026-05-02T18:22:02.114Z</time></trkpt><trkpt lat="43.6845061" lon="10.6532052"><ele>33.0</ele><time>2026-05-02T18:22:03.115Z</time></trkpt><trkpt lat="43.6845547" lon="10.6533877"><ele>38.0</ele><time>2026-05-02T18:22:04.115Z</time></trkpt><trkpt lat="43.6845907" lon="10.6535731"><ele>38.0</ele><time>2026-05-02T18:22:05.115Z</time></trkpt><trkpt lat="43.6846169" lon="10.6537595"><ele>38.0</ele><time>2026-05-02T18:22:06.115Z</time></trkpt><trkpt lat="43.6846359" lon="10.6539431"><ele>38.0</ele><time>2026-05-02T18:22:07.115Z</time></trkpt><trkpt lat="43.6846389" lon="10.6541282"><ele>38.0</ele><time>2026-05-02T18:22:08.115Z</time></trkpt><trkpt lat="43.6846244" lon="10.6543205"><ele>36.25</ele><time>2026-05-02T18:22:09.115Z</time></trkpt><trkpt lat="43.6846076" lon="10.6544945"><ele>34.5</ele><time>2026-05-02T18:22:10.115Z</time></trkpt><trkpt lat="43.6845805" lon="10.6546684"><ele>32.75</ele><time>2026-05-02T18:22:11.115Z</time></trkpt><trkpt lat="43.6845654" lon="10.6548476"><ele>31.0</ele><time>2026-05-02T18:22:12.115Z</time></trkpt><trkpt lat="43.6845664" lon="10.6550314"><ele>31.0</ele><time>2026-05-02T18:22:13.114Z</time></trkpt><trkpt lat="43.6845751" lon="10.6552154"><ele>31.0</ele><time>2026-05-02T18:22:14.115Z</time></trkpt><trkpt lat="43.6845871" lon="10.6554011"><ele>31.0</ele><time>2026-05-02T18:22:15.114Z</time></trkpt><trkpt lat="43.6846024" lon="10.6555865"><ele>31.0</ele><time>2026-05-02T18:22:16.114Z</time></trkpt><trkpt lat="43.6846084" lon="10.6557737"><ele>29.0</ele><time>2026-05-02T18:22:17.115Z</time></trkpt><trkpt lat="43.6845998" lon="10.6559601"><ele>27.0</ele><time>2026-05-02T18:22:18.114Z</time></trkpt><trkpt lat="43.6845719" lon="10.6561494"><ele>25.0</ele><time>2026-05-02T18:22:19.115Z</time></trkpt><trkpt lat="43.684533" lon="10.6563244"><ele>23.0</ele><time>2026-05-02T18:22:20.115Z</time></trkpt><trkpt lat="43.6844835" lon="10.6564954"><ele>21.75</ele><time>2026-05-02T18:22:21.114Z</time></trkpt><trkpt lat="43.6844395" lon="10.6566613"><ele>20.5</ele><time>2026-05-02T18:22:22.115Z</time></trkpt><trkpt lat="43.6843975" lon="10.6568257"><ele>19.25</ele><time>2026-05-02T18:22:23.114Z</time></trkpt><trkpt lat="43.6843662" lon="10.6570032"><ele>18.0</ele><time>2026-05-02T18:22:24.115Z</time></trkpt><trkpt lat="43.6843492" lon="10.657187"><ele>17.75</ele><time>2026-05-02T18:22:25.115Z</time></trkpt><trkpt lat="43.6843433" lon="10.6573734"><ele>17.5</ele><time>2026-05-02T18:22:26.114Z</time></trkpt><trkpt lat="43.6843372" lon="10.6575642"><ele>17.25</ele><time>2026-05-02T18:22:27.115Z</time></trkpt><trkpt lat="43.6843382" lon="10.6577562"><ele>17.0</ele><time>2026-05-02T18:22:28.115Z</time></trkpt><trkpt lat="43.6843407" lon="10.6579505"><ele>17.0</ele><time>2026-05-02T18:22:29.115Z</time></trkpt><trkpt lat="43.6843437" lon="10.6581335"><ele>17.0</ele><time>2026-05-02T18:22:30.115Z</time></trkpt><trkpt lat="43.6843437" lon="10.6583101"><ele>17.0</ele><time>2026-05-02T18:22:31.115Z</time></trkpt><trkpt lat="43.6843469" lon="10.6584871"><ele>17.0</ele><time>2026-05-02T18:22:32.115Z</time></trkpt><trkpt lat="43.6843511" lon="10.6586684"><ele>16.75</ele><time>2026-05-02T18:22:33.115Z</time></trkpt><trkpt lat="43.6843571" lon="10.6588562"><ele>16.5</ele><time>2026-05-02T18:22:34.115Z</time></trkpt><trkpt lat="43.6843671" lon="10.6590416"><ele>16.25</ele><time>2026-05-02T18:22:35.115Z</time></trkpt><trkpt lat="43.6843816" lon="10.6592249"><ele>16.0</ele><time>2026-05-02T18:22:36.114Z</time></trkpt><trkpt lat="43.6843951" lon="10.6594102"><ele>16.25</ele><time>2026-05-02T18:22:37.115Z</time></trkpt><trkpt lat="43.6844094" lon="10.659599"><ele>16.5</ele><time>2026-05-02T18:22:38.115Z</time></trkpt><trkpt lat="43.6844215" lon="10.6597847"><ele>16.75</ele><time>2026-05-02T18:22:39.115Z</time></trkpt><trkpt lat="43.684433" lon="10.6599651"><ele>17.0</ele><time>2026-05-02T18:22:40.115Z</time></trkpt><trkpt lat="43.6844431" lon="10.6601505"><ele>17.0</ele><time>2026-05-02T18:22:41.115Z</time></trkpt><trkpt lat="43.6844573" lon="10.6603359"><ele>17.0</ele><time>2026-05-02T18:22:42.114Z</time></trkpt><trkpt lat="43.6844712" lon="10.6605255"><ele>17.0</ele><time>2026-05-02T18:22:43.114Z</time></trkpt><trkpt lat="43.6844842" lon="10.660714"><ele>17.0</ele><time>2026-05-02T18:22:44.115Z</time></trkpt><trkpt lat="43.6844966" lon="10.6609048"><ele>17.0</ele><time>2026-05-02T18:22:45.114Z</time></trkpt><trkpt lat="43.6845102" lon="10.6610891"><ele>17.0</ele><time>2026-05-02T18:22:46.114Z</time></trkpt><trkpt lat="43.6845215" lon="10.6612751"><ele>17.0</ele><time>2026-05-02T18:22:47.115Z</time></trkpt><trkpt lat="43.6845332" lon="10.6614618"><ele>17.0</ele><time>2026-05-02T18:22:48.114Z</time></trkpt><trkpt lat="43.6845438" lon="10.6616505"><ele>17.25</ele><time>2026-05-02T18:22:49.115Z</time></trkpt><trkpt lat="43.684558" lon="10.6618423"><ele>17.5</ele><time>2026-05-02T18:22:50.115Z</time></trkpt><trkpt lat="43.6845745" lon="10.6620306"><ele>17.75</ele><time>2026-05-02T18:22:51.114Z</time></trkpt><trkpt lat="43.6845817" lon="10.6622074"><ele>18.0</ele><time>2026-05-02T18:22:52.115Z</time></trkpt><trkpt lat="43.6845937" lon="10.6623812"><ele>18.0</ele><time>2026-05-02T18:22:53.115Z</time></trkpt><trkpt lat="43.6845992" lon="10.6625457"><ele>18.0</ele><time>2026-05-02T18:22:54.115Z</time></trkpt><trkpt lat="43.6846103" lon="10.6627014"><ele>18.0</ele><time>2026-05-02T18:22:55.115Z</time></trkpt><trkpt lat="43.6846215" lon="10.6628601"><ele>18.0</ele><time>2026-05-02T18:22:56.114Z</time></trkpt><trkpt lat="43.6846346" lon="10.663008"><ele>18.0</ele><time>2026-05-02T18:22:57.115Z</time></trkpt><trkpt lat="43.6846482" lon="10.6631526"><ele>18.0</ele><time>2026-05-02T18:22:58.115Z</time></trkpt><trkpt lat="43.6846605" lon="10.663284"><ele>18.0</ele><time>2026-05-02T18:22:59.114Z</time></trkpt><trkpt lat="43.6846692" lon="10.6634192"><ele>18.0</ele><time>2026-05-02T18:23:00.114Z</time></trkpt><trkpt lat="43.6846807" lon="10.6635571"><ele>18.0</ele><time>2026-05-02T18:23:01.115Z</time></trkpt><trkpt lat="43.6846936" lon="10.6636961"><ele>18.0</ele><time>2026-05-02T18:23:02.115Z</time></trkpt><trkpt lat="43.6847072" lon="10.6638417"><ele>18.0</ele><time>2026-05-02T18:23:03.115Z</time></trkpt><trkpt lat="43.6847215" lon="10.6639776"><ele>18.0</ele><time>2026-05-02T18:23:04.115Z</time></trkpt><trkpt lat="43.6847319" lon="10.6641083"><ele>18.0</ele><time>2026-05-02T18:23:05.114Z</time></trkpt><trkpt lat="43.6847414" lon="10.6642264"><ele>18.0</ele><time>2026-05-02T18:23:06.115Z</time></trkpt><trkpt lat="43.6847536" lon="10.6643357"><ele>18.000000000000004</ele><time>2026-05-02T18:23:07.114Z</time></trkpt><trkpt lat="43.6847654" lon="10.664441"><ele>18.0</ele><time>2026-05-02T18:23:08.115Z</time></trkpt><trkpt lat="43.6847814" lon="10.6645311"><ele>18.0</ele><time>2026-05-02T18:23:09.115Z</time></trkpt><trkpt lat="43.6847896" lon="10.6646259"><ele>18.0</ele><time>2026-05-02T18:23:10.115Z</time></trkpt><trkpt lat="43.6847941" lon="10.6647221"><ele>18.0</ele><time>2026-05-02T18:23:11.114Z</time></trkpt><trkpt lat="43.68478" lon="10.6648195"><ele>18.000000000000004</ele><time>2026-05-02T18:23:12.115Z</time></trkpt><trkpt lat="43.6847609" lon="10.6649179"><ele>18.0</ele><time>2026-05-02T18:23:13.115Z</time></trkpt><trkpt lat="43.6847266" lon="10.6650176"><ele>17.666666666666668</ele><time>2026-05-02T18:23:14.115Z</time></trkpt><trkpt lat="43.6846647" lon="10.6651096"><ele>17.333333333333332</ele><time>2026-05-02T18:23:15.115Z</time></trkpt><trkpt lat="43.6845984" lon="10.6651909"><ele>17.0</ele><time>2026-05-02T18:23:16.115Z</time></trkpt><trkpt lat="43.6845334" lon="10.6652619"><ele>16.666666666666664</ele><time>2026-05-02T18:23:17.114Z</time></trkpt><trkpt lat="43.6844776" lon="10.6653376"><ele>16.333333333333332</ele><time>2026-05-02T18:23:18.114Z</time></trkpt><trkpt lat="43.6844281" lon="10.6654082"><ele>16.0</ele><time>2026-05-02T18:23:19.115Z</time></trkpt><trkpt lat="43.6843864" lon="10.6654865"><ele>16.0</ele><time>2026-05-02T18:23:20.115Z</time></trkpt><trkpt lat="43.684369" lon="10.6655904"><ele>16.0</ele><time>2026-05-02T18:23:21.115Z</time></trkpt><trkpt lat="43.6843743" lon="10.665706"><ele>16.0</ele><time>2026-05-02T18:23:22.115Z</time></trkpt><trkpt lat="43.6843998" lon="10.6658261"><ele>16.0</ele><time>2026-05-02T18:23:23.115Z</time></trkpt><trkpt lat="43.6844288" lon="10.6659564"><ele>16.0</ele><time>2026-05-02T18:23:24.115Z</time></trkpt><trkpt lat="43.6844595" lon="10.6660908"><ele>15.8</ele><time>2026-05-02T18:23:25.115Z</time></trkpt><trkpt lat="43.6844926" lon="10.6662264"><ele>15.600000000000001</ele><time>2026-05-02T18:23:26.114Z</time></trkpt><trkpt lat="43.684525" lon="10.6663683"><ele>15.4</ele><time>2026-05-02T18:23:27.115Z</time></trkpt><trkpt lat="43.6845568" lon="10.6665183"><ele>15.2</ele><time>2026-05-02T18:23:28.115Z</time></trkpt><trkpt lat="43.6845904" lon="10.6666728"><ele>15.0</ele><time>2026-05-02T18:23:29.115Z</time></trkpt><trkpt lat="43.6846277" lon="10.6668285"><ele>14.75</ele><time>2026-05-02T18:23:30.114Z</time></trkpt><trkpt lat="43.6846643" lon="10.6669899"><ele>14.5</ele><time>2026-05-02T18:23:31.115Z</time></trkpt><trkpt lat="43.684699" lon="10.6671562"><ele>14.25</ele><time>2026-05-02T18:23:32.115Z</time></trkpt><trkpt lat="43.6847397" lon="10.667325"><ele>14.0</ele><time>2026-05-02T18:23:33.114Z</time></trkpt><trkpt lat="43.6847818" lon="10.6674965"><ele>14.0</ele><time>2026-05-02T18:23:34.115Z</time></trkpt><trkpt lat="43.6848275" lon="10.6676728"><ele>14.0</ele><time>2026-05-02T18:23:35.115Z</time></trkpt><trkpt lat="43.6848726" lon="10.6678566"><ele>14.0</ele><time>2026-05-02T18:23:36.115Z</time></trkpt><trkpt lat="43.6849183" lon="10.6680542"><ele>14.0</ele><time>2026-05-02T18:23:37.115Z</time></trkpt><trkpt lat="43.6849635" lon="10.6682456"><ele>14.5</ele><time>2026-05-02T18:23:38.115Z</time></trkpt><trkpt lat="43.685005" lon="10.66844"><ele>15.0</ele><time>2026-05-02T18:23:39.115Z</time></trkpt><trkpt lat="43.6850504" lon="10.6686351"><ele>15.5</ele><time>2026-05-02T18:23:40.115Z</time></trkpt><trkpt lat="43.685094" lon="10.668836"><ele>16.0</ele><time>2026-05-02T18:23:41.115Z</time></trkpt><trkpt lat="43.685141" lon="10.6690387"><ele>16.0</ele><time>2026-05-02T18:23:42.115Z</time></trkpt><trkpt lat="43.685188" lon="10.6692426"><ele>16.0</ele><time>2026-05-02T18:23:43.114Z</time></trkpt><trkpt lat="43.6852338" lon="10.6694483"><ele>16.0</ele><time>2026-05-02T18:23:44.115Z</time></trkpt><trkpt lat="43.6852849" lon="10.6696515"><ele>15.333333333333332</ele><time>2026-05-02T18:23:45.115Z</time></trkpt><trkpt lat="43.6853328" lon="10.6698558"><ele>14.666666666666668</ele><time>2026-05-02T18:23:46.115Z</time></trkpt><trkpt lat="43.6853814" lon="10.6700638"><ele>14.0</ele><time>2026-05-02T18:23:47.115Z</time></trkpt><trkpt lat="43.6854268" lon="10.6702653"><ele>14.0</ele><time>2026-05-02T18:23:48.115Z</time></trkpt><trkpt lat="43.6854704" lon="10.6704682"><ele>14.0</ele><time>2026-05-02T18:23:49.115Z</time></trkpt><trkpt lat="43.6855184" lon="10.6706754"><ele>14.0</ele><time>2026-05-02T18:23:50.115Z</time></trkpt><trkpt lat="43.6855689" lon="10.6708871"><ele>14.0</ele><time>2026-05-02T18:23:51.115Z</time></trkpt><trkpt lat="43.6856174" lon="10.6710992"><ele>14.0</ele><time>2026-05-02T18:23:52.114Z</time></trkpt><trkpt lat="43.6856668" lon="10.6713148"><ele>14.0</ele><time>2026-05-02T18:23:53.114Z</time></trkpt><trkpt lat="43.6857176" lon="10.6715307"><ele>14.333333333333334</ele><time>2026-05-02T18:23:54.114Z</time></trkpt><trkpt lat="43.6857685" lon="10.6717441"><ele>14.666666666666668</ele><time>2026-05-02T18:23:55.115Z</time></trkpt><trkpt lat="43.6858241" lon="10.6719596"><ele>15.0</ele><time>2026-05-02T18:23:56.115Z</time></trkpt><trkpt lat="43.6858721" lon="10.6721719"><ele>15.0</ele><time>2026-05-02T18:23:57.115Z</time></trkpt><trkpt lat="43.6859205" lon="10.6723824"><ele>15.0</ele><time>2026-05-02T18:23:58.115Z</time></trkpt><trkpt lat="43.6859683" lon="10.6725945"><ele>15.0</ele><time>2026-05-02T18:23:59.115Z</time></trkpt><trkpt lat="43.6860166" lon="10.672807"><ele>15.0</ele><time>2026-05-02T18:24:00.115Z</time></trkpt><trkpt lat="43.6860625" lon="10.673018"><ele>15.0</ele><time>2026-05-02T18:24:01.114Z</time></trkpt><trkpt lat="43.6861093" lon="10.67323"><ele>15.0</ele><time>2026-05-02T18:24:02.114Z</time></trkpt><trkpt lat="43.6861589" lon="10.6734381"><ele>14.666666666666668</ele><time>2026-05-02T18:24:03.114Z</time></trkpt><trkpt lat="43.6862078" lon="10.6736548"><ele>14.333333333333334</ele><time>2026-05-02T18:24:04.114Z</time></trkpt><trkpt lat="43.6862573" lon="10.6738658"><ele>14.0</ele><time>2026-05-02T18:24:05.114Z</time></trkpt><trkpt lat="43.6863045" lon="10.674071"><ele>14.0</ele><time>2026-05-02T18:24:06.115Z</time></trkpt><trkpt lat="43.6863512" lon="10.6742726"><ele>14.0</ele><time>2026-05-02T18:24:07.115Z</time></trkpt><trkpt lat="43.6863976" lon="10.6744652"><ele>14.0</ele><time>2026-05-02T18:24:08.115Z</time></trkpt><trkpt lat="43.6864458" lon="10.6746587"><ele>14.0</ele><time>2026-05-02T18:24:09.114Z</time></trkpt><trkpt lat="43.6864867" lon="10.6748476"><ele>14.333333333333334</ele><time>2026-05-02T18:24:10.115Z</time></trkpt><trkpt lat="43.6865278" lon="10.6750461"><ele>14.666666666666668</ele><time>2026-05-02T18:24:11.115Z</time></trkpt><trkpt lat="43.6865761" lon="10.6752442"><ele>15.0</ele><time>2026-05-02T18:24:12.115Z</time></trkpt><trkpt lat="43.6866271" lon="10.675458"><ele>15.0</ele><time>2026-05-02T18:24:13.114Z</time></trkpt><trkpt lat="43.6866794" lon="10.6756775"><ele>15.0</ele><time>2026-05-02T18:24:14.115Z</time></trkpt><trkpt lat="43.6867306" lon="10.6759063"><ele>15.0</ele><time>2026-05-02T18:24:15.115Z</time></trkpt><trkpt lat="43.6867833" lon="10.6761377"><ele>14.666666666666668</ele><time>2026-05-02T18:24:16.115Z</time></trkpt><trkpt lat="43.686837" lon="10.6763696"><ele>14.333333333333334</ele><time>2026-05-02T18:24:17.114Z</time></trkpt><trkpt lat="43.6868884" lon="10.6765966"><ele>14.0</ele><time>2026-05-02T18:24:18.114Z</time></trkpt><trkpt lat="43.686938" lon="10.6768233"><ele>14.0</ele><time>2026-05-02T18:24:19.114Z</time></trkpt><trkpt lat="43.6869904" lon="10.6770514"><ele>14.0</ele><time>2026-05-02T18:24:20.115Z</time></trkpt><trkpt lat="43.6870404" lon="10.6772807"><ele>14.0</ele><time>2026-05-02T18:24:21.115Z</time></trkpt><trkpt lat="43.687092" lon="10.6775109"><ele>14.0</ele><time>2026-05-02T18:24:22.115Z</time></trkpt><trkpt lat="43.6871435" lon="10.6777381"><ele>14.0</ele><time>2026-05-02T18:24:23.115Z</time></trkpt><trkpt lat="43.6871953" lon="10.6779693"><ele>14.0</ele><time>2026-05-02T18:24:24.115Z</time></trkpt><trkpt lat="43.6872482" lon="10.6781973"><ele>14.0</ele><time>2026-05-02T18:24:25.115Z</time></trkpt><trkpt lat="43.6873033" lon="10.678428"><ele>14.0</ele><time>2026-05-02T18:24:26.115Z</time></trkpt><trkpt lat="43.6873565" lon="10.6786565"><ele>14.0</ele><time>2026-05-02T18:24:27.115Z</time></trkpt><trkpt lat="43.6874117" lon="10.6788894"><ele>14.0</ele><time>2026-05-02T18:24:28.114Z</time></trkpt><trkpt lat="43.6874676" lon="10.6791192"><ele>14.0</ele><time>2026-05-02T18:24:29.114Z</time></trkpt><trkpt lat="43.6875176" lon="10.6793479"><ele>14.0</ele><time>2026-05-02T18:24:30.115Z</time></trkpt><trkpt lat="43.6875708" lon="10.6795778"><ele>14.0</ele><time>2026-05-02T18:24:31.115Z</time></trkpt><trkpt lat="43.6876223" lon="10.6798075"><ele>14.0</ele><time>2026-05-02T18:24:32.115Z</time></trkpt><trkpt lat="43.687674" lon="10.6800368"><ele>14.0</ele><time>2026-05-02T18:24:33.115Z</time></trkpt><trkpt lat="43.6877232" lon="10.6802707"><ele>13.333333333333334</ele><time>2026-05-02T18:24:34.114Z</time></trkpt><trkpt lat="43.6877776" lon="10.6805034"><ele>12.666666666666668</ele><time>2026-05-02T18:24:35.114Z</time></trkpt><trkpt lat="43.6878279" lon="10.6807352"><ele>12.0</ele><time>2026-05-02T18:24:36.115Z</time></trkpt><trkpt lat="43.6878809" lon="10.6809653"><ele>11.666666666666666</ele><time>2026-05-02T18:24:37.115Z</time></trkpt><trkpt lat="43.687932" lon="10.6811944"><ele>11.333333333333332</ele><time>2026-05-02T18:24:38.115Z</time></trkpt><trkpt lat="43.6879862" lon="10.6814239"><ele>11.0</ele><time>2026-05-02T18:24:39.115Z</time></trkpt><trkpt lat="43.6880402" lon="10.6816475"><ele>11.0</ele><time>2026-05-02T18:24:40.114Z</time></trkpt><trkpt lat="43.688089" lon="10.6818621"><ele>11.0</ele><time>2026-05-02T18:24:41.115Z</time></trkpt><trkpt lat="43.6881359" lon="10.6820756"><ele>11.0</ele><time>2026-05-02T18:24:42.115Z</time></trkpt><trkpt lat="43.6881861" lon="10.6822877"><ele>11.666666666666666</ele><time>2026-05-02T18:24:43.115Z</time></trkpt><trkpt lat="43.6882353" lon="10.6825077"><ele>12.333333333333332</ele><time>2026-05-02T18:24:44.115Z</time></trkpt><trkpt lat="43.6882874" lon="10.6827277"><ele>13.0</ele><time>2026-05-02T18:24:45.114Z</time></trkpt><trkpt lat="43.6883403" lon="10.6829493"><ele>13.0</ele><time>2026-05-02T18:24:46.114Z</time></trkpt><trkpt lat="43.6883928" lon="10.6831713"><ele>13.0</ele><time>2026-05-02T18:24:47.115Z</time></trkpt><trkpt lat="43.6884442" lon="10.6833954"><ele>13.0</ele><time>2026-05-02T18:24:48.114Z</time></trkpt><trkpt lat="43.688498" lon="10.6836164"><ele>13.0</ele><time>2026-05-02T18:24:49.115Z</time></trkpt><trkpt lat="43.6885468" lon="10.6838376"><ele>13.0</ele><time>2026-05-02T18:24:50.115Z</time></trkpt><trkpt lat="43.6885993" lon="10.6840558"><ele>13.0</ele><time>2026-05-02T18:24:51.115Z</time></trkpt><trkpt lat="43.6886499" lon="10.68428"><ele>12.666666666666666</ele><time>2026-05-02T18:24:52.115Z</time></trkpt><trkpt lat="43.6887048" lon="10.6845068"><ele>12.333333333333332</ele><time>2026-05-02T18:24:53.114Z</time></trkpt><trkpt lat="43.6887585" lon="10.6847368"><ele>12.0</ele><time>2026-05-02T18:24:54.115Z</time></trkpt><trkpt lat="43.688809" lon="10.6849652"><ele>12.0</ele><time>2026-05-02T18:24:55.115Z</time></trkpt><trkpt lat="43.6888591" lon="10.6851932"><ele>12.0</ele><time>2026-05-02T18:24:56.114Z</time></trkpt><trkpt lat="43.6889114" lon="10.6854206"><ele>12.0</ele><time>2026-05-02T18:24:57.115Z</time></trkpt><trkpt lat="43.6889665" lon="10.6856473"><ele>12.0</ele><time>2026-05-02T18:24:58.114Z</time></trkpt><trkpt lat="43.6890212" lon="10.6858745"><ele>12.0</ele><time>2026-05-02T18:24:59.115Z</time></trkpt><trkpt lat="43.6890761" lon="10.6860997"><ele>12.0</ele><time>2026-05-02T18:25:00.115Z</time></trkpt><trkpt lat="43.6891343" lon="10.6863196"><ele>12.333333333333332</ele><time>2026-05-02T18:25:01.115Z</time></trkpt><trkpt lat="43.6891985" lon="10.6865347"><ele>12.666666666666666</ele><time>2026-05-02T18:25:02.115Z</time></trkpt><trkpt lat="43.6892632" lon="10.6867481"><ele>13.0</ele><time>2026-05-02T18:25:03.115Z</time></trkpt><trkpt lat="43.68933" lon="10.6869627"><ele>13.666666666666666</ele><time>2026-05-02T18:25:04.115Z</time></trkpt><trkpt lat="43.6893945" lon="10.6871717"><ele>14.333333333333332</ele><time>2026-05-02T18:25:05.114Z</time></trkpt><trkpt lat="43.6894556" lon="10.6873864"><ele>15.0</ele><time>2026-05-02T18:25:06.114Z</time></trkpt><trkpt lat="43.6895228" lon="10.687598"><ele>15.0</ele><time>2026-05-02T18:25:07.115Z</time></trkpt><trkpt lat="43.6895876" lon="10.6878123"><ele>15.0</ele><time>2026-05-02T18:25:08.114Z</time></trkpt><trkpt lat="43.6896596" lon="10.6880236"><ele>15.0</ele><time>2026-05-02T18:25:09.115Z</time></trkpt><trkpt lat="43.6897294" lon="10.6882327"><ele>15.0</ele><time>2026-05-02T18:25:10.115Z</time></trkpt><trkpt lat="43.6897936" lon="10.6884284"><ele>15.0</ele><time>2026-05-02T18:25:11.115Z</time></trkpt><trkpt lat="43.6898557" lon="10.688616"><ele>15.0</ele><time>2026-05-02T18:25:12.115Z</time></trkpt><trkpt lat="43.6899143" lon="10.6887989"><ele>15.0</ele><time>2026-05-02T18:25:13.115Z</time></trkpt><trkpt lat="43.6899704" lon="10.6889772"><ele>14.75</ele><time>2026-05-02T18:25:14.115Z</time></trkpt><trkpt lat="43.6900285" lon="10.6891586"><ele>14.5</ele><time>2026-05-02T18:25:15.115Z</time></trkpt><trkpt lat="43.6900877" lon="10.6893443"><ele>14.25</ele><time>2026-05-02T18:25:16.114Z</time></trkpt><trkpt lat="43.6901476" lon="10.6895222"><ele>14.0</ele><time>2026-05-02T18:25:17.115Z</time></trkpt><trkpt lat="43.6902069" lon="10.6897103"><ele>14.25</ele><time>2026-05-02T18:25:18.114Z</time></trkpt><trkpt lat="43.6902693" lon="10.6898951"><ele>14.5</ele><time>2026-05-02T18:25:19.115Z</time></trkpt><trkpt lat="43.6903288" lon="10.6900843"><ele>14.75</ele><time>2026-05-02T18:25:20.114Z</time></trkpt><trkpt lat="43.6903829" lon="10.6902667"><ele>15.0</ele><time>2026-05-02T18:25:21.115Z</time></trkpt><trkpt lat="43.6904416" lon="10.6904398"><ele>15.0</ele><time>2026-05-02T18:25:22.115Z</time></trkpt><trkpt lat="43.6904973" lon="10.6905973"><ele>15.0</ele><time>2026-05-02T18:25:23.115Z</time></trkpt><trkpt lat="43.6905445" lon="10.6907477"><ele>15.0</ele><time>2026-05-02T18:25:24.114Z</time></trkpt><trkpt lat="43.690593" lon="10.6908955"><ele>15.0</ele><time>2026-05-02T18:25:25.115Z</time></trkpt><trkpt lat="43.6906415" lon="10.69104"><ele>14.75</ele><time>2026-05-02T18:25:26.115Z</time></trkpt><trkpt lat="43.6906927" lon="10.691191"><ele>14.5</ele><time>2026-05-02T18:25:27.115Z</time></trkpt><trkpt lat="43.690746" lon="10.691342"><ele>14.25</ele><time>2026-05-02T18:25:28.115Z</time></trkpt><trkpt lat="43.6907986" lon="10.6914982"><ele>14.0</ele><time>2026-05-02T18:25:29.114Z</time></trkpt><trkpt lat="43.6908463" lon="10.691663"><ele>14.0</ele><time>2026-05-02T18:25:30.114Z</time></trkpt><trkpt lat="43.6909002" lon="10.6918284"><ele>14.0</ele><time>2026-05-02T18:25:31.114Z</time></trkpt><trkpt lat="43.690954" lon="10.6919923"><ele>14.0</ele><time>2026-05-02T18:25:32.115Z</time></trkpt><trkpt lat="43.6910055" lon="10.6921638"><ele>14.0</ele><time>2026-05-02T18:25:33.114Z</time></trkpt><trkpt lat="43.6910601" lon="10.6923224"><ele>14.25</ele><time>2026-05-02T18:25:34.115Z</time></trkpt><trkpt lat="43.691107" lon="10.6924733"><ele>14.5</ele><time>2026-05-02T18:25:35.115Z</time></trkpt><trkpt lat="43.6911583" lon="10.6926278"><ele>14.75</ele><time>2026-05-02T18:25:36.114Z</time></trkpt><trkpt lat="43.6912064" lon="10.6927761"><ele>15.0</ele><time>2026-05-02T18:25:37.115Z</time></trkpt><trkpt lat="43.6912541" lon="10.6929326"><ele>15.0</ele><time>2026-05-02T18:25:38.115Z</time></trkpt><trkpt lat="43.6913059" lon="10.6930881"><ele>15.0</ele><time>2026-05-02T18:25:39.114Z</time></trkpt><trkpt lat="43.6913595" lon="10.6932523"><ele>15.0</ele><time>2026-05-02T18:25:40.115Z</time></trkpt><trkpt lat="43.6914174" lon="10.6934135"><ele>15.0</ele><time>2026-05-02T18:25:41.115Z</time></trkpt><trkpt lat="43.6914755" lon="10.6935829"><ele>15.0</ele><time>2026-05-02T18:25:42.115Z</time></trkpt><trkpt lat="43.6915343" lon="10.6937612"><ele>15.0</ele><time>2026-05-02T18:25:43.114Z</time></trkpt><trkpt lat="43.691594" lon="10.6939465"><ele>15.0</ele><time>2026-05-02T18:25:44.115Z</time></trkpt><trkpt lat="43.6916554" lon="10.6941368"><ele>15.0</ele><time>2026-05-02T18:25:45.115Z</time></trkpt><trkpt lat="43.691717" lon="10.6943302"><ele>14.666666666666668</ele><time>2026-05-02T18:25:46.115Z</time></trkpt><trkpt lat="43.6917807" lon="10.6945238"><ele>14.333333333333334</ele><time>2026-05-02T18:25:47.115Z</time></trkpt><trkpt lat="43.6918407" lon="10.6947132"><ele>14.0</ele><time>2026-05-02T18:25:48.115Z</time></trkpt><trkpt lat="43.6919019" lon="10.6949017"><ele>13.75</ele><time>2026-05-02T18:25:49.115Z</time></trkpt><trkpt lat="43.6919608" lon="10.6950859"><ele>13.5</ele><time>2026-05-02T18:25:50.114Z</time></trkpt><trkpt lat="43.6920224" lon="10.6952684"><ele>13.25</ele><time>2026-05-02T18:25:51.114Z</time></trkpt><trkpt lat="43.6920807" lon="10.695454"><ele>13.0</ele><time>2026-05-02T18:25:52.115Z</time></trkpt><trkpt lat="43.6921417" lon="10.6956359"><ele>13.0</ele><time>2026-05-02T18:25:53.115Z</time></trkpt><trkpt lat="43.6922058" lon="10.6958215"><ele>13.0</ele><time>2026-05-02T18:25:54.115Z</time></trkpt><trkpt lat="43.6922644" lon="10.6960068"><ele>13.0</ele><time>2026-05-02T18:25:55.115Z</time></trkpt><trkpt lat="43.6923271" lon="10.6961953"><ele>13.0</ele><time>2026-05-02T18:25:56.114Z</time></trkpt><trkpt lat="43.692388" lon="10.6963811"><ele>13.0</ele><time>2026-05-02T18:25:57.114Z</time></trkpt><trkpt lat="43.6924443" lon="10.696567"><ele>13.0</ele><time>2026-05-02T18:25:58.115Z</time></trkpt><trkpt lat="43.6925024" lon="10.6967484"><ele>13.0</ele><time>2026-05-02T18:25:59.115Z</time></trkpt><trkpt lat="43.6925598" lon="10.6969253"><ele>13.0</ele><time>2026-05-02T18:26:00.115Z</time></trkpt><trkpt lat="43.6926194" lon="10.6971097"><ele>13.25</ele><time>2026-05-02T18:26:01.114Z</time></trkpt><trkpt lat="43.6926774" lon="10.6972902"><ele>13.5</ele><time>2026-05-02T18:26:02.115Z</time></trkpt><trkpt lat="43.6927397" lon="10.6974734"><ele>13.75</ele><time>2026-05-02T18:26:03.115Z</time></trkpt><trkpt lat="43.6927976" lon="10.6976527"><ele>14.0</ele><time>2026-05-02T18:26:04.115Z</time></trkpt><trkpt lat="43.6928561" lon="10.6978358"><ele>14.0</ele><time>2026-05-02T18:26:05.115Z</time></trkpt><trkpt lat="43.692916" lon="10.6980164"><ele>14.0</ele><time>2026-05-02T18:26:06.115Z</time></trkpt><trkpt lat="43.6929772" lon="10.6981975"><ele>14.0</ele><time>2026-05-02T18:26:07.115Z</time></trkpt><trkpt lat="43.6930356" lon="10.6983816"><ele>14.0</ele><time>2026-05-02T18:26:08.114Z</time></trkpt><trkpt lat="43.6930963" lon="10.698565"><ele>14.5</ele><time>2026-05-02T18:26:09.115Z</time></trkpt><trkpt lat="43.6931563" lon="10.6987483"><ele>15.0</ele><time>2026-05-02T18:26:10.115Z</time></trkpt><trkpt lat="43.6932149" lon="10.6989374"><ele>15.5</ele><time>2026-05-02T18:26:11.115Z</time></trkpt><trkpt lat="43.6932725" lon="10.6991233"><ele>16.0</ele><time>2026-05-02T18:26:12.114Z</time></trkpt><trkpt lat="43.6933307" lon="10.6993044"><ele>16.0</ele><time>2026-05-02T18:26:13.115Z</time></trkpt><trkpt lat="43.6933838" lon="10.6994796"><ele>16.0</ele><time>2026-05-02T18:26:14.114Z</time></trkpt><trkpt lat="43.6934374" lon="10.6996428"><ele>16.0</ele><time>2026-05-02T18:26:15.115Z</time></trkpt><trkpt lat="43.6934911" lon="10.699799"><ele>16.0</ele><time>2026-05-02T18:26:16.114Z</time></trkpt><trkpt lat="43.6935393" lon="10.6999539"><ele>16.0</ele><time>2026-05-02T18:26:17.115Z</time></trkpt><trkpt lat="43.6935809" lon="10.7000941"><ele>16.0</ele><time>2026-05-02T18:26:18.115Z</time></trkpt><trkpt lat="43.6936199" lon="10.7002278"><ele>16.0</ele><time>2026-05-02T18:26:19.115Z</time></trkpt><trkpt lat="43.6936605" lon="10.7003595"><ele>16.0</ele><time>2026-05-02T18:26:20.115Z</time></trkpt><trkpt lat="43.6937015" lon="10.7004831"><ele>16.0</ele><time>2026-05-02T18:26:21.115Z</time></trkpt><trkpt lat="43.6937418" lon="10.7006035"><ele>15.999999999999998</ele><time>2026-05-02T18:26:22.115Z</time></trkpt><trkpt lat="43.6937803" lon="10.7007204"><ele>16.0</ele><time>2026-05-02T18:26:23.114Z</time></trkpt><trkpt lat="43.6938153" lon="10.7008244"><ele>16.0</ele><time>2026-05-02T18:26:24.114Z</time></trkpt><trkpt lat="43.6938407" lon="10.7009169"><ele>16.0</ele><time>2026-05-02T18:26:25.115Z</time></trkpt><trkpt lat="43.6938638" lon="10.7009997"><ele>15.999999999999998</ele><time>2026-05-02T18:26:26.114Z</time></trkpt><trkpt lat="43.6939179" lon="10.7011512"><ele>16.0</ele><time>2026-05-02T18:26:28.115Z</time></trkpt><trkpt lat="43.6939497" lon="10.7012399"><ele>16.2</ele><time>2026-05-02T18:26:29.115Z</time></trkpt><trkpt lat="43.6939828" lon="10.7013501"><ele>16.400000000000002</ele><time>2026-05-02T18:26:30.115Z</time></trkpt><trkpt lat="43.6940172" lon="10.7014712"><ele>16.6</ele><time>2026-05-02T18:26:31.115Z</time></trkpt><trkpt lat="43.6940507" lon="10.7015998"><ele>16.8</ele><time>2026-05-02T18:26:32.115Z</time></trkpt><trkpt lat="43.6940863" lon="10.7017291"><ele>17.0</ele><time>2026-05-02T18:26:33.115Z</time></trkpt><trkpt lat="43.6941317" lon="10.7018593"><ele>16.8</ele><time>2026-05-02T18:26:34.115Z</time></trkpt><trkpt lat="43.6941809" lon="10.7019807"><ele>16.6</ele><time>2026-05-02T18:26:35.115Z</time></trkpt><trkpt lat="43.6942274" lon="10.7021065"><ele>16.400000000000002</ele><time>2026-05-02T18:26:36.115Z</time></trkpt><trkpt lat="43.6942726" lon="10.7022417"><ele>16.2</ele><time>2026-05-02T18:26:37.115Z</time></trkpt><trkpt lat="43.6943172" lon="10.7023833"><ele>16.0</ele><time>2026-05-02T18:26:38.114Z</time></trkpt><trkpt lat="43.6943645" lon="10.7025366"><ele>16.0</ele><time>2026-05-02T18:26:39.115Z</time></trkpt><trkpt lat="43.6944105" lon="10.7026953"><ele>16.0</ele><time>2026-05-02T18:26:40.115Z</time></trkpt><trkpt lat="43.6944447" lon="10.7028688"><ele>16.0</ele><time>2026-05-02T18:26:41.115Z</time></trkpt><trkpt lat="43.6944657" lon="10.7030502"><ele>16.0</ele><time>2026-05-02T18:26:42.115Z</time></trkpt><trkpt lat="43.6944687" lon="10.7032356"><ele>15.75</ele><time>2026-05-02T18:26:43.115Z</time></trkpt><trkpt lat="43.6944542" lon="10.703422"><ele>15.5</ele><time>2026-05-02T18:26:44.115Z</time></trkpt><trkpt lat="43.6944363" lon="10.70361"><ele>15.25</ele><time>2026-05-02T18:26:45.115Z</time></trkpt><trkpt lat="43.6944189" lon="10.7038049"><ele>15.0</ele><time>2026-05-02T18:26:46.115Z</time></trkpt><trkpt lat="43.6944039" lon="10.7039943"><ele>15.0</ele><time>2026-05-02T18:26:47.115Z</time></trkpt><trkpt lat="43.6943966" lon="10.7041742"><ele>15.0</ele><time>2026-05-02T18:26:48.115Z</time></trkpt><trkpt lat="43.6944093" lon="10.704344"><ele>15.0</ele><time>2026-05-02T18:26:49.115Z</time></trkpt><trkpt lat="43.6944407" lon="10.7045208"><ele>15.0</ele><time>2026-05-02T18:26:50.114Z</time></trkpt><trkpt lat="43.6944634" lon="10.7047227"><ele>15.0</ele><time>2026-05-02T18:26:51.114Z</time></trkpt><trkpt lat="43.6944813" lon="10.7049306"><ele>15.0</ele><time>2026-05-02T18:26:52.115Z</time></trkpt><trkpt lat="43.694504" lon="10.7051492"><ele>15.0</ele><time>2026-05-02T18:26:53.115Z</time></trkpt><trkpt lat="43.6945297" lon="10.7053542"><ele>15.0</ele><time>2026-05-02T18:26:54.115Z</time></trkpt><trkpt lat="43.6945574" lon="10.7055579"><ele>15.0</ele><time>2026-05-02T18:26:55.114Z</time></trkpt><trkpt lat="43.6945885" lon="10.705755"><ele>15.0</ele><time>2026-05-02T18:26:56.115Z</time></trkpt><trkpt lat="43.694618" lon="10.70594"><ele>15.0</ele><time>2026-05-02T18:26:57.115Z</time></trkpt><trkpt lat="43.6946506" lon="10.7061126"><ele>15.0</ele><time>2026-05-02T18:26:58.115Z</time></trkpt><trkpt lat="43.6946788" lon="10.706276"><ele>15.0</ele><time>2026-05-02T18:26:59.115Z</time></trkpt><trkpt lat="43.6946915" lon="10.7064276"><ele>15.0</ele><time>2026-05-02T18:27:00.115Z</time></trkpt><trkpt lat="43.6946827" lon="10.7065668"><ele>15.0</ele><time>2026-05-02T18:27:01.114Z</time></trkpt><trkpt lat="43.6946426" lon="10.7066941"><ele>15.0</ele><time>2026-05-02T18:27:02.114Z</time></trkpt><trkpt lat="43.694585" lon="10.7068002"><ele>15.0</ele><time>2026-05-02T18:27:03.115Z</time></trkpt><trkpt lat="43.6945054" lon="10.7068677"><ele>15.0</ele><time>2026-05-02T18:27:04.115Z</time></trkpt><trkpt lat="43.6944073" lon="10.706891"><ele>15.0</ele><time>2026-05-02T18:27:05.114Z</time></trkpt><trkpt lat="43.694294" lon="10.7068776"><ele>15.0</ele><time>2026-05-02T18:27:06.115Z</time></trkpt><trkpt lat="43.6941659" lon="10.7068408"><ele>15.0</ele><time>2026-05-02T18:27:07.115Z</time></trkpt><trkpt lat="43.6940259" lon="10.7067981"><ele>15.0</ele><time>2026-05-02T18:27:08.115Z</time></trkpt><trkpt lat="43.6938802" lon="10.7067466"><ele>15.0</ele><time>2026-05-02T18:27:09.115Z</time></trkpt><trkpt lat="43.693747" lon="10.7066941"><ele>15.0</ele><time>2026-05-02T18:27:10.115Z</time></trkpt><trkpt lat="43.6936211" lon="10.7066536"><ele>15.0</ele><time>2026-05-02T18:27:11.115Z</time></trkpt><trkpt lat="43.6934996" lon="10.7066309"><ele>14.8</ele><time>2026-05-02T18:27:12.115Z</time></trkpt><trkpt lat="43.6933831" lon="10.7066169"><ele>14.6</ele><time>2026-05-02T18:27:13.114Z</time></trkpt><trkpt lat="43.6932744" lon="10.7066008"><ele>14.399999999999999</ele><time>2026-05-02T18:27:14.115Z</time></trkpt><trkpt lat="43.6931769" lon="10.7065696"><ele>14.2</ele><time>2026-05-02T18:27:15.115Z</time></trkpt><trkpt lat="43.6930911" lon="10.7065114"><ele>14.0</ele><time>2026-05-02T18:27:16.115Z</time></trkpt><trkpt lat="43.6930173" lon="10.7064291"><ele>14.000000000000002</ele><time>2026-05-02T18:27:17.114Z</time></trkpt><trkpt lat="43.6929398" lon="10.7063571"><ele>14.0</ele><time>2026-05-02T18:27:18.114Z</time></trkpt><trkpt lat="43.6928567" lon="10.7063317"><ele>14.0</ele><time>2026-05-02T18:27:19.115Z</time></trkpt><trkpt lat="43.6927813" lon="10.7063461"><ele>14.0</ele><time>2026-05-02T18:27:20.115Z</time></trkpt><trkpt lat="43.6927188" lon="10.7063934"><ele>14.000000000000002</ele><time>2026-05-02T18:27:21.115Z</time></trkpt><trkpt lat="43.6926833" lon="10.7064772"><ele>14.0</ele><time>2026-05-02T18:27:22.115Z</time></trkpt><trkpt lat="43.6926735" lon="10.7065736"><ele>14.0</ele><time>2026-05-02T18:27:23.115Z</time></trkpt><trkpt lat="43.6927029" lon="10.7066662"><ele>13.999999999999998</ele><time>2026-05-02T18:27:24.115Z</time></trkpt><trkpt lat="43.692762" lon="10.7067404"><ele>13.999999999999998</ele><time>2026-05-02T18:27:25.115Z</time></trkpt><trkpt lat="43.6928406" lon="10.7067762"><ele>14.0</ele><time>2026-05-02T18:27:26.115Z</time></trkpt><trkpt lat="43.6929407" lon="10.7067903"><ele>14.0</ele><time>2026-05-02T18:27:27.115Z</time></trkpt><trkpt lat="43.6930558" lon="10.7067866"><ele>14.0</ele><time>2026-05-02T18:27:28.115Z</time></trkpt><trkpt lat="43.6931874" lon="10.7067947"><ele>14.0</ele><time>2026-05-02T18:27:29.114Z</time></trkpt><trkpt lat="43.6933246" lon="10.7068078"><ele>14.0</ele><time>2026-05-02T18:27:30.114Z</time></trkpt><trkpt lat="43.6934634" lon="10.7068253"><ele>14.0</ele><time>2026-05-02T18:27:31.115Z</time></trkpt><trkpt lat="43.6935995" lon="10.7068525"><ele>14.25</ele><time>2026-05-02T18:27:32.115Z</time></trkpt><trkpt lat="43.6937368" lon="10.7068891"><ele>14.5</ele><time>2026-05-02T18:27:33.115Z</time></trkpt><trkpt lat="43.693873" lon="10.7069374"><ele>14.75</ele><time>2026-05-02T18:27:34.115Z</time></trkpt><trkpt lat="43.6940085" lon="10.706995"><ele>15.0</ele><time>2026-05-02T18:27:35.114Z</time></trkpt><trkpt lat="43.6941389" lon="10.707064"><ele>15.0</ele><time>2026-05-02T18:27:36.114Z</time></trkpt><trkpt lat="43.6942638" lon="10.7071383"><ele>15.0</ele><time>2026-05-02T18:27:37.114Z</time></trkpt><trkpt lat="43.694378" lon="10.7072204"><ele>15.0</ele><time>2026-05-02T18:27:38.115Z</time></trkpt><trkpt lat="43.6944866" lon="10.7072953"><ele>15.0</ele><time>2026-05-02T18:27:39.115Z</time></trkpt><trkpt lat="43.6945923" lon="10.7073627"><ele>15.0</ele><time>2026-05-02T18:27:40.115Z</time></trkpt><trkpt lat="43.6946925" lon="10.7074271"><ele>15.0</ele><time>2026-05-02T18:27:41.115Z</time></trkpt><trkpt lat="43.694778" lon="10.7075171"><ele>15.0</ele><time>2026-05-02T18:27:42.115Z</time></trkpt><trkpt lat="43.6948422" lon="10.7076302"><ele>15.0</ele><time>2026-05-02T18:27:43.114Z</time></trkpt><trkpt lat="43.69488" lon="10.7077653"><ele>15.0</ele><time>2026-05-02T18:27:44.114Z</time></trkpt><trkpt lat="43.6949022" lon="10.7079186"><ele>15.0</ele><time>2026-05-02T18:27:45.114Z</time></trkpt><trkpt lat="43.6949235" lon="10.7080804"><ele>15.0</ele><time>2026-05-02T18:27:46.115Z</time></trkpt><trkpt lat="43.6949504" lon="10.7082508"><ele>15.0</ele><time>2026-05-02T18:27:47.114Z</time></trkpt><trkpt lat="43.6949787" lon="10.7084301"><ele>15.0</ele><time>2026-05-02T18:27:48.115Z</time></trkpt><trkpt lat="43.6950069" lon="10.7086247"><ele>15.0</ele><time>2026-05-02T18:27:49.115Z</time></trkpt><trkpt lat="43.6950361" lon="10.7088253"><ele>15.0</ele><time>2026-05-02T18:27:50.115Z</time></trkpt><trkpt lat="43.6950652" lon="10.7090176"><ele>15.0</ele><time>2026-05-02T18:27:51.114Z</time></trkpt><trkpt lat="43.6950959" lon="10.7092169"><ele>15.0</ele><time>2026-05-02T18:27:52.114Z</time></trkpt><trkpt lat="43.6951284" lon="10.7094201"><ele>15.333333333333332</ele><time>2026-05-02T18:27:53.114Z</time></trkpt><trkpt lat="43.6951592" lon="10.7096284"><ele>15.666666666666666</ele><time>2026-05-02T18:27:54.115Z</time></trkpt><trkpt lat="43.6951931" lon="10.7098458"><ele>16.0</ele><time>2026-05-02T18:27:55.115Z</time></trkpt><trkpt lat="43.6952284" lon="10.7100711"><ele>15.0</ele><time>2026-05-02T18:27:56.115Z</time></trkpt><trkpt lat="43.6952628" lon="10.710305"><ele>14.0</ele><time>2026-05-02T18:27:57.115Z</time></trkpt><trkpt lat="43.6953008" lon="10.7105492"><ele>13.0</ele><time>2026-05-02T18:27:58.115Z</time></trkpt><trkpt lat="43.6953398" lon="10.7108021"><ele>13.0</ele><time>2026-05-02T18:27:59.115Z</time></trkpt><trkpt lat="43.6953755" lon="10.711061"><ele>13.0</ele><time>2026-05-02T18:28:00.115Z</time></trkpt><trkpt lat="43.6954141" lon="10.7113251"><ele>13.0</ele><time>2026-05-02T18:28:01.115Z</time></trkpt><trkpt lat="43.6954515" lon="10.7115999"><ele>13.666666666666666</ele><time>2026-05-02T18:28:02.114Z</time></trkpt><trkpt lat="43.6954894" lon="10.7118709"><ele>14.333333333333332</ele><time>2026-05-02T18:28:03.114Z</time></trkpt><trkpt lat="43.695531" lon="10.7121422"><ele>15.0</ele><time>2026-05-02T18:28:04.115Z</time></trkpt><trkpt lat="43.6955727" lon="10.7124211"><ele>15.0</ele><time>2026-05-02T18:28:05.115Z</time></trkpt><trkpt lat="43.695617" lon="10.7127066"><ele>15.0</ele><time>2026-05-02T18:28:06.114Z</time></trkpt><trkpt lat="43.6956585" lon="10.712994"><ele>15.0</ele><time>2026-05-02T18:28:07.115Z</time></trkpt><trkpt lat="43.6957012" lon="10.713281"><ele>15.0</ele><time>2026-05-02T18:28:08.115Z</time></trkpt><trkpt lat="43.6957424" lon="10.7135662"><ele>15.0</ele><time>2026-05-02T18:28:09.114Z</time></trkpt><trkpt lat="43.6957855" lon="10.7138492"><ele>15.0</ele><time>2026-05-02T18:28:10.115Z</time></trkpt><trkpt lat="43.6958272" lon="10.714129"><ele>15.0</ele><time>2026-05-02T18:28:11.114Z</time></trkpt><trkpt lat="43.6958706" lon="10.7144104"><ele>15.0</ele><time>2026-05-02T18:28:12.115Z</time></trkpt><trkpt lat="43.6959148" lon="10.7146951"><ele>15.0</ele><time>2026-05-02T18:28:13.115Z</time></trkpt><trkpt lat="43.6959569" lon="10.7149783"><ele>14.666666666666668</ele><time>2026-05-02T18:28:14.115Z</time></trkpt><trkpt lat="43.6959991" lon="10.7152629"><ele>14.333333333333334</ele><time>2026-05-02T18:28:15.115Z</time></trkpt><trkpt lat="43.6960403" lon="10.7155493"><ele>14.0</ele><time>2026-05-02T18:28:16.115Z</time></trkpt><trkpt lat="43.6960844" lon="10.7158308"><ele>13.666666666666668</ele><time>2026-05-02T18:28:17.115Z</time></trkpt><trkpt lat="43.6961255" lon="10.7161054"><ele>13.333333333333332</ele><time>2026-05-02T18:28:18.115Z</time></trkpt><trkpt lat="43.6961659" lon="10.7163772"><ele>13.0</ele><time>2026-05-02T18:28:19.115Z</time></trkpt><trkpt lat="43.6962052" lon="10.7166428"><ele>13.666666666666666</ele><time>2026-05-02T18:28:20.115Z</time></trkpt><trkpt lat="43.6962435" lon="10.7169031"><ele>14.333333333333332</ele><time>2026-05-02T18:28:21.115Z</time></trkpt><trkpt lat="43.6962825" lon="10.7171624"><ele>15.0</ele><time>2026-05-02T18:28:22.115Z</time></trkpt><trkpt lat="43.6963206" lon="10.7174274"><ele>15.0</ele><time>2026-05-02T18:28:23.115Z</time></trkpt><trkpt lat="43.6963607" lon="10.7176891"><ele>15.0</ele><time>2026-05-02T18:28:24.115Z</time></trkpt><trkpt lat="43.6963999" lon="10.717952"><ele>15.0</ele><time>2026-05-02T18:28:25.115Z</time></trkpt><trkpt lat="43.6964371" lon="10.7182086"><ele>15.333333333333332</ele><time>2026-05-02T18:28:26.115Z</time></trkpt><trkpt lat="43.6964732" lon="10.7184548"><ele>15.666666666666666</ele><time>2026-05-02T18:28:27.114Z</time></trkpt><trkpt lat="43.6965091" lon="10.7186956"><ele>16.0</ele><time>2026-05-02T18:28:28.115Z</time></trkpt><trkpt lat="43.696544" lon="10.71894"><ele>16.0</ele><time>2026-05-02T18:28:29.115Z</time></trkpt><trkpt lat="43.696578" lon="10.7191815"><ele>16.0</ele><time>2026-05-02T18:28:30.115Z</time></trkpt><trkpt lat="43.6966135" lon="10.7194239"><ele>16.0</ele><time>2026-05-02T18:28:31.114Z</time></trkpt><trkpt lat="43.696648" lon="10.719665"><ele>16.0</ele><time>2026-05-02T18:28:32.114Z</time></trkpt><trkpt lat="43.6966826" lon="10.7199078"><ele>16.0</ele><time>2026-05-02T18:28:33.115Z</time></trkpt><trkpt lat="43.6967172" lon="10.720152"><ele>16.0</ele><time>2026-05-02T18:28:34.115Z</time></trkpt><trkpt lat="43.6967539" lon="10.7203908"><ele>16.0</ele><time>2026-05-02T18:28:35.115Z</time></trkpt><trkpt lat="43.6967868" lon="10.7206234"><ele>16.0</ele><time>2026-05-02T18:28:36.115Z</time></trkpt><trkpt lat="43.6968218" lon="10.7208579"><ele>16.0</ele><time>2026-05-02T18:28:37.115Z</time></trkpt><trkpt lat="43.6968592" lon="10.7210919"><ele>16.333333333333332</ele><time>2026-05-02T18:28:38.114Z</time></trkpt><trkpt lat="43.6968938" lon="10.7213236"><ele>16.666666666666668</ele><time>2026-05-02T18:28:39.114Z</time></trkpt><trkpt lat="43.6969287" lon="10.7215593"><ele>17.0</ele><time>2026-05-02T18:28:40.115Z</time></trkpt><trkpt lat="43.6969641" lon="10.7217981"><ele>16.0</ele><time>2026-05-02T18:28:41.114Z</time></trkpt><trkpt lat="43.6969998" lon="10.7220327"><ele>15.0</ele><time>2026-05-02T18:28:42.115Z</time></trkpt><trkpt lat="43.6970364" lon="10.7222675"><ele>14.0</ele><time>2026-05-02T18:28:43.114Z</time></trkpt><trkpt lat="43.6970717" lon="10.7224991"><ele>14.0</ele><time>2026-05-02T18:28:44.114Z</time></trkpt><trkpt lat="43.6971063" lon="10.7227297"><ele>14.0</ele><time>2026-05-02T18:28:45.115Z</time></trkpt><trkpt lat="43.6971391" lon="10.7229582"><ele>14.0</ele><time>2026-05-02T18:28:46.115Z</time></trkpt><trkpt lat="43.6971711" lon="10.7231888"><ele>14.0</ele><time>2026-05-02T18:28:47.115Z</time></trkpt><trkpt lat="43.6972032" lon="10.7234187"><ele>14.0</ele><time>2026-05-02T18:28:48.115Z</time></trkpt><trkpt lat="43.6972376" lon="10.7236493"><ele>14.0</ele><time>2026-05-02T18:28:49.114Z</time></trkpt><trkpt lat="43.6972715" lon="10.7238806"><ele>14.0</ele><time>2026-05-02T18:28:50.114Z</time></trkpt><trkpt lat="43.6973083" lon="10.724112"><ele>14.0</ele><time>2026-05-02T18:28:51.115Z</time></trkpt><trkpt lat="43.6973447" lon="10.7243393"><ele>14.0</ele><time>2026-05-02T18:28:52.115Z</time></trkpt><trkpt lat="43.6973805" lon="10.724565"><ele>14.0</ele><time>2026-05-02T18:28:53.115Z</time></trkpt><trkpt lat="43.6974158" lon="10.7247881"><ele>14.0</ele><time>2026-05-02T18:28:54.115Z</time></trkpt><trkpt lat="43.6974496" lon="10.7250119"><ele>14.0</ele><time>2026-05-02T18:28:55.114Z</time></trkpt><trkpt lat="43.6974833" lon="10.7252375"><ele>14.333333333333334</ele><time>2026-05-02T18:28:56.115Z</time></trkpt><trkpt lat="43.6975143" lon="10.7254632"><ele>14.666666666666668</ele><time>2026-05-02T18:28:57.115Z</time></trkpt><trkpt lat="43.6975442" lon="10.7256946"><ele>15.0</ele><time>2026-05-02T18:28:58.115Z</time></trkpt><trkpt lat="43.6975759" lon="10.7259248"><ele>15.0</ele><time>2026-05-02T18:28:59.115Z</time></trkpt><trkpt lat="43.6976082" lon="10.7261591"><ele>15.0</ele><time>2026-05-02T18:29:00.114Z</time></trkpt><trkpt lat="43.6976401" lon="10.7263911"><ele>15.0</ele><time>2026-05-02T18:29:01.114Z</time></trkpt><trkpt lat="43.6976727" lon="10.7266213"><ele>15.0</ele><time>2026-05-02T18:29:02.115Z</time></trkpt><trkpt lat="43.6977085" lon="10.7268531"><ele>15.0</ele><time>2026-05-02T18:29:03.115Z</time></trkpt><trkpt lat="43.6977456" lon="10.7270883"><ele>15.0</ele><time>2026-05-02T18:29:04.115Z</time></trkpt><trkpt lat="43.6977803" lon="10.7273247"><ele>15.0</ele><time>2026-05-02T18:29:05.115Z</time></trkpt><trkpt lat="43.6978189" lon="10.7275686"><ele>15.0</ele><time>2026-05-02T18:29:06.115Z</time></trkpt><trkpt lat="43.6978547" lon="10.727812"><ele>15.0</ele><time>2026-05-02T18:29:07.115Z</time></trkpt><trkpt lat="43.6978904" lon="10.728058"><ele>15.0</ele><time>2026-05-02T18:29:08.115Z</time></trkpt><trkpt lat="43.6979252" lon="10.7283075"><ele>15.0</ele><time>2026-05-02T18:29:09.115Z</time></trkpt><trkpt lat="43.6979526" lon="10.728563"><ele>15.0</ele><time>2026-05-02T18:29:10.115Z</time></trkpt><trkpt lat="43.6979893" lon="10.7288133"><ele>15.0</ele><time>2026-05-02T18:29:11.115Z</time></trkpt><trkpt lat="43.6980275" lon="10.7290628"><ele>15.0</ele><time>2026-05-02T18:29:12.115Z</time></trkpt><trkpt lat="43.6980649" lon="10.7293137"><ele>15.0</ele><time>2026-05-02T18:29:13.114Z</time></trkpt><trkpt lat="43.6981028" lon="10.7295625"><ele>15.0</ele><time>2026-05-02T18:29:14.115Z</time></trkpt><trkpt lat="43.6981379" lon="10.7298078"><ele>15.0</ele><time>2026-05-02T18:29:15.115Z</time></trkpt><trkpt lat="43.6981751" lon="10.730048"><ele>15.0</ele><time>2026-05-02T18:29:16.115Z</time></trkpt><trkpt lat="43.6982101" lon="10.7302861"><ele>15.333333333333332</ele><time>2026-05-02T18:29:17.115Z</time></trkpt><trkpt lat="43.6982455" lon="10.7305264"><ele>15.666666666666666</ele><time>2026-05-02T18:29:18.114Z</time></trkpt><trkpt lat="43.6982804" lon="10.7307655"><ele>16.0</ele><time>2026-05-02T18:29:19.115Z</time></trkpt><trkpt lat="43.6983137" lon="10.731005"><ele>16.333333333333332</ele><time>2026-05-02T18:29:20.115Z</time></trkpt><trkpt lat="43.6983454" lon="10.7312464"><ele>16.666666666666668</ele><time>2026-05-02T18:29:21.115Z</time></trkpt><trkpt lat="43.6983712" lon="10.7314883"><ele>17.0</ele><time>2026-05-02T18:29:22.115Z</time></trkpt><trkpt lat="43.6983948" lon="10.7317301"><ele>17.0</ele><time>2026-05-02T18:29:23.115Z</time></trkpt><trkpt lat="43.6984146" lon="10.7319715"><ele>17.0</ele><time>2026-05-02T18:29:24.114Z</time></trkpt><trkpt lat="43.6984326" lon="10.7322159"><ele>17.0</ele><time>2026-05-02T18:29:25.115Z</time></trkpt><trkpt lat="43.6984483" lon="10.7324616"><ele>17.0</ele><time>2026-05-02T18:29:26.115Z</time></trkpt><trkpt lat="43.6984642" lon="10.7326976"><ele>17.0</ele><time>2026-05-02T18:29:27.114Z</time></trkpt><trkpt lat="43.6984786" lon="10.7329221"><ele>17.0</ele><time>2026-05-02T18:29:28.115Z</time></trkpt><trkpt lat="43.698489" lon="10.7331404"><ele>17.0</ele><time>2026-05-02T18:29:29.115Z</time></trkpt><trkpt lat="43.6984987" lon="10.7333528"><ele>17.0</ele><time>2026-05-02T18:29:30.115Z</time></trkpt><trkpt lat="43.6985131" lon="10.733565"><ele>17.0</ele><time>2026-05-02T18:29:31.115Z</time></trkpt><trkpt lat="43.6985285" lon="10.7337736"><ele>17.25</ele><time>2026-05-02T18:29:32.115Z</time></trkpt><trkpt lat="43.6985437" lon="10.73398"><ele>17.5</ele><time>2026-05-02T18:29:33.114Z</time></trkpt><trkpt lat="43.6985518" lon="10.7341891"><ele>17.75</ele><time>2026-05-02T18:29:34.115Z</time></trkpt><trkpt lat="43.6985603" lon="10.7343923"><ele>18.0</ele><time>2026-05-02T18:29:35.115Z</time></trkpt><trkpt lat="43.6985754" lon="10.7345891"><ele>18.0</ele><time>2026-05-02T18:29:36.115Z</time></trkpt><trkpt lat="43.6985927" lon="10.734785"><ele>18.0</ele><time>2026-05-02T18:29:37.115Z</time></trkpt><trkpt lat="43.698614" lon="10.7349833"><ele>18.0</ele><time>2026-05-02T18:29:38.115Z</time></trkpt><trkpt lat="43.6986256" lon="10.7351953"><ele>18.0</ele><time>2026-05-02T18:29:39.115Z</time></trkpt><trkpt lat="43.6986343" lon="10.7353999"><ele>18.0</ele><time>2026-05-02T18:29:40.115Z</time></trkpt><trkpt lat="43.6986451" lon="10.7356019"><ele>18.0</ele><time>2026-05-02T18:29:41.114Z</time></trkpt><trkpt lat="43.6986549" lon="10.7357899"><ele>18.0</ele><time>2026-05-02T18:29:42.114Z</time></trkpt><trkpt lat="43.6986679" lon="10.7359784"><ele>18.0</ele><time>2026-05-02T18:29:43.115Z</time></trkpt><trkpt lat="43.6986846" lon="10.7361721"><ele>18.0</ele><time>2026-05-02T18:29:44.115Z</time></trkpt><trkpt lat="43.6987008" lon="10.7363631"><ele>18.0</ele><time>2026-05-02T18:29:45.114Z</time></trkpt><trkpt lat="43.6987139" lon="10.7365553"><ele>18.0</ele><time>2026-05-02T18:29:46.115Z</time></trkpt><trkpt lat="43.6987281" lon="10.7367505"><ele>18.0</ele><time>2026-05-02T18:29:47.115Z</time></trkpt><trkpt lat="43.6987418" lon="10.7369358"><ele>18.0</ele><time>2026-05-02T18:29:48.115Z</time></trkpt><trkpt lat="43.6987533" lon="10.7371211"><ele>18.0</ele><time>2026-05-02T18:29:49.115Z</time></trkpt><trkpt lat="43.6987603" lon="10.7373068"><ele>18.0</ele><time>2026-05-02T18:29:50.115Z</time></trkpt><trkpt lat="43.6987668" lon="10.7374922"><ele>18.0</ele><time>2026-05-02T18:29:51.115Z</time></trkpt><trkpt lat="43.6987765" lon="10.7376797"><ele>17.5</ele><time>2026-05-02T18:29:52.115Z</time></trkpt><trkpt lat="43.6987837" lon="10.7378659"><ele>17.0</ele><time>2026-05-02T18:29:53.115Z</time></trkpt><trkpt lat="43.6987929" lon="10.7380529"><ele>16.5</ele><time>2026-05-02T18:29:54.115Z</time></trkpt><trkpt lat="43.6988026" lon="10.73824"><ele>16.0</ele><time>2026-05-02T18:29:55.115Z</time></trkpt><trkpt lat="43.6988192" lon="10.7384336"><ele>16.25</ele><time>2026-05-02T18:29:56.115Z</time></trkpt><trkpt lat="43.6988324" lon="10.738633"><ele>16.5</ele><time>2026-05-02T18:29:57.115Z</time></trkpt><trkpt lat="43.6988444" lon="10.7388292"><ele>16.75</ele><time>2026-05-02T18:29:58.114Z</time></trkpt><trkpt lat="43.698857" lon="10.7390282"><ele>17.0</ele><time>2026-05-02T18:29:59.115Z</time></trkpt><trkpt lat="43.6988691" lon="10.7392228"><ele>17.0</ele><time>2026-05-02T18:30:00.114Z</time></trkpt><trkpt lat="43.6988816" lon="10.739421"><ele>17.0</ele><time>2026-05-02T18:30:01.115Z</time></trkpt><trkpt lat="43.6988962" lon="10.7396153"><ele>17.0</ele><time>2026-05-02T18:30:02.114Z</time></trkpt><trkpt lat="43.6989135" lon="10.7398102"><ele>17.0</ele><time>2026-05-02T18:30:03.114Z</time></trkpt><trkpt lat="43.6989288" lon="10.7399977"><ele>17.0</ele><time>2026-05-02T18:30:04.115Z</time></trkpt><trkpt lat="43.6989447" lon="10.7401718"><ele>17.0</ele><time>2026-05-02T18:30:05.115Z</time></trkpt><trkpt lat="43.698958" lon="10.7403415"><ele>17.0</ele><time>2026-05-02T18:30:06.115Z</time></trkpt><trkpt lat="43.6989689" lon="10.7405044"><ele>17.0</ele><time>2026-05-02T18:30:07.115Z</time></trkpt><trkpt lat="43.6989796" lon="10.7406576"><ele>17.0</ele><time>2026-05-02T18:30:08.115Z</time></trkpt><trkpt lat="43.6989877" lon="10.7408052"><ele>17.0</ele><time>2026-05-02T18:30:09.115Z</time></trkpt><trkpt lat="43.6989943" lon="10.7409462"><ele>17.0</ele><time>2026-05-02T18:30:10.115Z</time></trkpt><trkpt lat="43.6990049" lon="10.7410846"><ele>17.0</ele><time>2026-05-02T18:30:11.115Z</time></trkpt><trkpt lat="43.699014" lon="10.7412233"><ele>17.0</ele><time>2026-05-02T18:30:12.115Z</time></trkpt><trkpt lat="43.6990252" lon="10.7413686"><ele>17.0</ele><time>2026-05-02T18:30:13.115Z</time></trkpt><trkpt lat="43.6990343" lon="10.7415105"><ele>17.0</ele><time>2026-05-02T18:30:14.115Z</time></trkpt><trkpt lat="43.6990434" lon="10.7416457"><ele>17.0</ele><time>2026-05-02T18:30:15.115Z</time></trkpt><trkpt lat="43.6990465" lon="10.7417745"><ele>17.0</ele><time>2026-05-02T18:30:16.115Z</time></trkpt><trkpt lat="43.6990537" lon="10.7418973"><ele>17.0</ele><time>2026-05-02T18:30:17.115Z</time></trkpt><trkpt lat="43.6990607" lon="10.7420104"><ele>17.166666666666668</ele><time>2026-05-02T18:30:18.115Z</time></trkpt><trkpt lat="43.6990657" lon="10.7421208"><ele>17.333333333333336</ele><time>2026-05-02T18:30:19.115Z</time></trkpt><trkpt lat="43.6990573" lon="10.7422245"><ele>17.5</ele><time>2026-05-02T18:30:20.115Z</time></trkpt><trkpt lat="43.6990235" lon="10.7423202"><ele>17.666666666666668</ele><time>2026-05-02T18:30:21.114Z</time></trkpt><trkpt lat="43.6989687" lon="10.7424009"><ele>17.833333333333332</ele><time>2026-05-02T18:30:22.115Z</time></trkpt><trkpt lat="43.6989037" lon="10.7424652"><ele>18.0</ele><time>2026-05-02T18:30:23.114Z</time></trkpt><trkpt lat="43.6988362" lon="10.7425268"><ele>18.0</ele><time>2026-05-02T18:30:24.114Z</time></trkpt><trkpt lat="43.698768" lon="10.7425914"><ele>18.0</ele><time>2026-05-02T18:30:25.115Z</time></trkpt><trkpt lat="43.6986876" lon="10.7426597"><ele>18.0</ele><time>2026-05-02T18:30:26.115Z</time></trkpt><trkpt lat="43.6986046" lon="10.7427262"><ele>18.0</ele><time>2026-05-02T18:30:27.115Z</time></trkpt><trkpt lat="43.6985182" lon="10.7428022"><ele>18.0</ele><time>2026-05-02T18:30:28.115Z</time></trkpt><trkpt lat="43.6984258" lon="10.7428815"><ele>18.2</ele><time>2026-05-02T18:30:29.114Z</time></trkpt><trkpt lat="43.6983371" lon="10.7429617"><ele>18.4</ele><time>2026-05-02T18:30:30.115Z</time></trkpt><trkpt lat="43.6982457" lon="10.7430428"><ele>18.599999999999998</ele><time>2026-05-02T18:30:31.115Z</time></trkpt><trkpt lat="43.6981593" lon="10.7431282"><ele>18.8</ele><time>2026-05-02T18:30:32.115Z</time></trkpt><trkpt lat="43.6980796" lon="10.7432066"><ele>19.0</ele><time>2026-05-02T18:30:33.115Z</time></trkpt><trkpt lat="43.6980054" lon="10.7432742"><ele>19.0</ele><time>2026-05-02T18:30:34.115Z</time></trkpt><trkpt lat="43.6979272" lon="10.7433361"><ele>19.0</ele><time>2026-05-02T18:30:35.115Z</time></trkpt><trkpt lat="43.6978576" lon="10.7433987"><ele>19.0</ele><time>2026-05-02T18:30:36.115Z</time></trkpt><trkpt lat="43.6977995" lon="10.7434768"><ele>19.0</ele><time>2026-05-02T18:30:37.114Z</time></trkpt><trkpt lat="43.6977984" lon="10.7435797"><ele>19.0</ele><time>2026-05-02T18:30:38.114Z</time></trkpt><trkpt lat="43.6978122" lon="10.7436869"><ele>19.0</ele><time>2026-05-02T18:30:39.114Z</time></trkpt><trkpt lat="43.6978399" lon="10.7437991"><ele>19.0</ele><time>2026-05-02T18:30:40.114Z</time></trkpt><trkpt lat="43.6978756" lon="10.7439248"><ele>19.0</ele><time>2026-05-02T18:30:41.114Z</time></trkpt><trkpt lat="43.6979024" lon="10.7440652"><ele>19.0</ele><time>2026-05-02T18:30:42.115Z</time></trkpt><trkpt lat="43.6979306" lon="10.744207"><ele>19.0</ele><time>2026-05-02T18:30:43.115Z</time></trkpt><trkpt lat="43.6979674" lon="10.744345"><ele>19.0</ele><time>2026-05-02T18:30:44.114Z</time></trkpt><trkpt lat="43.6979988" lon="10.744483"><ele>19.5</ele><time>2026-05-02T18:30:45.115Z</time></trkpt><trkpt lat="43.6980334" lon="10.7446259"><ele>20.0</ele><time>2026-05-02T18:30:46.115Z</time></trkpt><trkpt lat="43.6980733" lon="10.7447715"><ele>20.5</ele><time>2026-05-02T18:30:47.115Z</time></trkpt><trkpt lat="43.6981222" lon="10.7449192"><ele>21.0</ele><time>2026-05-02T18:30:48.115Z</time></trkpt><trkpt lat="43.698172" lon="10.7450737"><ele>21.5</ele><time>2026-05-02T18:30:49.115Z</time></trkpt><trkpt lat="43.6982216" lon="10.7452264"><ele>22.0</ele><time>2026-05-02T18:30:50.115Z</time></trkpt><trkpt lat="43.6982759" lon="10.7453826"><ele>22.5</ele><time>2026-05-02T18:30:51.115Z</time></trkpt><trkpt lat="43.6983283" lon="10.7455378"><ele>23.0</ele><time>2026-05-02T18:30:52.115Z</time></trkpt><trkpt lat="43.6983883" lon="10.7456927"><ele>23.0</ele><time>2026-05-02T18:30:53.115Z</time></trkpt><trkpt lat="43.6984432" lon="10.7458373"><ele>23.0</ele><time>2026-05-02T18:30:54.115Z</time></trkpt><trkpt lat="43.6985009" lon="10.7459799"><ele>23.0</ele><time>2026-05-02T18:30:55.115Z</time></trkpt><trkpt lat="43.6985591" lon="10.7461235"><ele>23.0</ele><time>2026-05-02T18:30:56.115Z</time></trkpt><trkpt lat="43.6986192" lon="10.7462773"><ele>22.25</ele><time>2026-05-02T18:30:57.115Z</time></trkpt><trkpt lat="43.6986825" lon="10.7464284"><ele>21.5</ele><time>2026-05-02T18:30:58.115Z</time></trkpt><trkpt lat="43.6987518" lon="10.7465749"><ele>20.75</ele><time>2026-05-02T18:30:59.115Z</time></trkpt><trkpt lat="43.698818" lon="10.7467143"><ele>20.0</ele><time>2026-05-02T18:31:00.115Z</time></trkpt><trkpt lat="43.6988858" lon="10.7468368"><ele>19.6</ele><time>2026-05-02T18:31:01.114Z</time></trkpt><trkpt lat="43.6989629" lon="10.7469375"><ele>19.2</ele><time>2026-05-02T18:31:02.115Z</time></trkpt><trkpt lat="43.6990372" lon="10.7470238"><ele>18.8</ele><time>2026-05-02T18:31:03.114Z</time></trkpt><trkpt lat="43.6990967" lon="10.7471204"><ele>18.4</ele><time>2026-05-02T18:31:04.115Z</time></trkpt><trkpt lat="43.6991479" lon="10.7472267"><ele>18.0</ele><time>2026-05-02T18:31:05.115Z</time></trkpt><trkpt lat="43.699189" lon="10.7473351"><ele>18.0</ele><time>2026-05-02T18:31:06.114Z</time></trkpt><trkpt lat="43.6992264" lon="10.7474396"><ele>18.0</ele><time>2026-05-02T18:31:07.114Z</time></trkpt><trkpt lat="43.6992605" lon="10.7475315"><ele>18.0</ele><time>2026-05-02T18:31:08.114Z</time></trkpt><trkpt lat="43.6993016" lon="10.7476523"><ele>18.0</ele><time>2026-05-02T18:31:10.115Z</time></trkpt><trkpt lat="43.6993087" lon="10.7477628"><ele>18.0</ele><time>2026-05-02T18:31:13.114Z</time></trkpt><trkpt lat="43.6992254" lon="10.7478255"><ele>18.0</ele><time>2026-05-02T18:31:15.114Z</time></trkpt><trkpt lat="43.6991628" lon="10.7478491"><ele>18.0</ele><time>2026-05-02T18:31:16.115Z</time></trkpt><trkpt lat="43.6990912" lon="10.747882"><ele>18.0</ele><time>2026-05-02T18:31:17.114Z</time></trkpt><trkpt lat="43.6990098" lon="10.7479157"><ele>18.0</ele><time>2026-05-02T18:31:18.115Z</time></trkpt><trkpt lat="43.6989246" lon="10.7479633"><ele>18.0</ele><time>2026-05-02T18:31:19.115Z</time></trkpt><trkpt lat="43.6988396" lon="10.7480093"><ele>18.0</ele><time>2026-05-02T18:31:20.115Z</time></trkpt><trkpt lat="43.6987484" lon="10.7480598"><ele>18.0</ele><time>2026-05-02T18:31:21.115Z</time></trkpt><trkpt lat="43.6986538" lon="10.7481101"><ele>18.0</ele><time>2026-05-02T18:31:22.115Z</time></trkpt><trkpt lat="43.698554" lon="10.7481616"><ele>18.0</ele><time>2026-05-02T18:31:23.115Z</time></trkpt><trkpt lat="43.6984616" lon="10.7482151"><ele>18.0</ele><time>2026-05-02T18:31:24.115Z</time></trkpt><trkpt lat="43.6983708" lon="10.7482577"><ele>18.0</ele><time>2026-05-02T18:31:25.115Z</time></trkpt><trkpt lat="43.6982824" lon="10.7483027"><ele>18.0</ele><time>2026-05-02T18:31:26.114Z</time></trkpt><trkpt lat="43.6981903" lon="10.7483387"><ele>18.0</ele><time>2026-05-02T18:31:27.115Z</time></trkpt><trkpt lat="43.6980916" lon="10.7483784"><ele>18.0</ele><time>2026-05-02T18:31:28.115Z</time></trkpt><trkpt lat="43.6979907" lon="10.748424"><ele>18.0</ele><time>2026-05-02T18:31:29.114Z</time></trkpt><trkpt lat="43.6978894" lon="10.7484707"><ele>18.0</ele><time>2026-05-02T18:31:30.115Z</time></trkpt><trkpt lat="43.6977944" lon="10.7485124"><ele>18.0</ele><time>2026-05-02T18:31:31.115Z</time></trkpt><trkpt lat="43.6977072" lon="10.7485635"><ele>18.0</ele><time>2026-05-02T18:31:32.114Z</time></trkpt><trkpt lat="43.6976253" lon="10.7486167"><ele>18.0</ele><time>2026-05-02T18:31:33.115Z</time></trkpt><trkpt lat="43.6975416" lon="10.7486458"><ele>18.0</ele><time>2026-05-02T18:31:34.115Z</time></trkpt><trkpt lat="43.6974614" lon="10.7486816"><ele>18.0</ele><time>2026-05-02T18:31:35.115Z</time></trkpt><trkpt lat="43.6973942" lon="10.7487463"><ele>18.0</ele><time>2026-05-02T18:31:36.115Z</time></trkpt><trkpt lat="43.6973511" lon="10.7488405"><ele>18.0</ele><time>2026-05-02T18:31:37.115Z</time></trkpt><trkpt lat="43.6973358" lon="10.7489518"><ele>18.0</ele><time>2026-05-02T18:31:38.115Z</time></trkpt><trkpt lat="43.6973205" lon="10.749076"><ele>18.0</ele><time>2026-05-02T18:31:39.115Z</time></trkpt><trkpt lat="43.6972911" lon="10.7492065"><ele>18.0</ele><time>2026-05-02T18:31:40.115Z</time></trkpt><trkpt lat="43.6972426" lon="10.7493463"><ele>18.0</ele><time>2026-05-02T18:31:41.114Z</time></trkpt><trkpt lat="43.6971767" lon="10.7494927"><ele>18.0</ele><time>2026-05-02T18:31:42.115Z</time></trkpt><trkpt lat="43.6971045" lon="10.7496267"><ele>18.0</ele><time>2026-05-02T18:31:43.115Z</time></trkpt><trkpt lat="43.6970225" lon="10.7497638"><ele>18.0</ele><time>2026-05-02T18:31:44.115Z</time></trkpt><trkpt lat="43.6969328" lon="10.7498979"><ele>18.0</ele><time>2026-05-02T18:31:45.115Z</time></trkpt><trkpt lat="43.6968458" lon="10.7500411"><ele>18.0</ele><time>2026-05-02T18:31:46.115Z</time></trkpt><trkpt lat="43.6967559" lon="10.7501803"><ele>18.0</ele><time>2026-05-02T18:31:47.115Z</time></trkpt><trkpt lat="43.6966766" lon="10.7503154"><ele>18.0</ele><time>2026-05-02T18:31:48.115Z</time></trkpt><trkpt lat="43.6966026" lon="10.7504447"><ele>18.0</ele><time>2026-05-02T18:31:49.115Z</time></trkpt><trkpt lat="43.6965459" lon="10.7505748"><ele>18.0</ele><time>2026-05-02T18:31:50.115Z</time></trkpt><trkpt lat="43.696514" lon="10.7507095"><ele>18.0</ele><time>2026-05-02T18:31:51.115Z</time></trkpt><trkpt lat="43.6964955" lon="10.7508459"><ele>18.0</ele><time>2026-05-02T18:31:52.115Z</time></trkpt><trkpt lat="43.6964891" lon="10.7509767"><ele>18.0</ele><time>2026-05-02T18:31:53.115Z</time></trkpt><trkpt lat="43.6964847" lon="10.7510843"><ele>18.0</ele><time>2026-05-02T18:31:54.114Z</time></trkpt><trkpt lat="43.6964906" lon="10.7511714"><ele>18.0</ele><time>2026-05-02T18:31:55.114Z</time></trkpt><trkpt lat="43.6965392" lon="10.7512491"><ele>18.0</ele><time>2026-05-02T18:31:57.115Z</time></trkpt><trkpt lat="43.6966185" lon="10.7512327"><ele>18.0</ele><time>2026-05-02T18:31:59.115Z</time></trkpt><trkpt lat="43.6966939" lon="10.7512445"><ele>18.0</ele><time>2026-05-02T18:32:01.114Z</time></trkpt><trkpt lat="43.6967294" lon="10.7513522"><ele>18.0</ele><time>2026-05-02T18:32:04.115Z</time></trkpt><trkpt lat="43.6967411" lon="10.7514564"><ele>18.0</ele><time>2026-05-02T18:32:07.115Z</time></trkpt><trkpt lat="43.69676" lon="10.7515521"><ele>18.0</ele><time>2026-05-02T18:32:09.115Z</time></trkpt><trkpt lat="43.6967096" lon="10.7516178"><ele>18.0</ele><time>2026-05-02T18:32:12.114Z</time></trkpt></trkseg></trk></gpx>